# Wetter Temperatur Luftdruck Luftfeuchtigkeit Sichtweite Windgeschwindigkeit Windrichtung Zeit
1 Clear -37 1029 66 0 1.2 87 21:42 28.01.2020
2 Clear -37 1029 66 0 1.2 87 21:22 28.01.2020
3 Clear -37 1029 66 0 1.2 87 20:57 28.01.2020
4 Clear -37 1029 66 0 1.2 87 20:39 28.01.2020
5 Clear -37 1029 66 0 1.2 87 20:39 28.01.2020
6 Clouds -38 1030 66 0 1.17 95 20:21 28.01.2020
7 Clouds -38 1031 69 0 1.08 91 19:39 28.01.2020
8 Clouds -38 1031 69 0 1.08 91 19:20 28.01.2020
9 Clouds -38 1031 69 0 1.08 91 18:58 28.01.2020
10 Clouds -38 1031 69 0 1.08 91 18:58 28.01.2020
11 Clouds -38 1031 69 0 1.08 91 18:39 28.01.2020
12 Clouds -38 1031 69 0 1.08 91 18:21 28.01.2020
13 Clouds -38 1031 69 0 1.08 91 17:57 28.01.2020
14 Clouds -38 1031 69 0 1.08 91 17:37 28.01.2020
15 Clouds -37 1031 71 0 1.2 84 17:19 28.01.2020
16 Clouds -37 1031 71 0 1.2 84 16:54 28.01.2020
17 Clouds -37 1031 71 0 1.2 84 16:36 28.01.2020
18 Clouds -37 1031 71 0 1.2 84 16:18 28.01.2020
19 Clouds -37 1031 71 0 1.2 84 15:41 28.01.2020
20 Clouds -37 1031 71 0 1.2 84 15:19 28.01.2020
21 Clouds -37 1031 71 0 1.2 84 14:46 28.01.2020
22 Clouds -37 1033 67 0 1.25 87 14:20 28.01.2020
23 Clouds -37 1033 67 0 1.25 87 13:58 28.01.2020
24 Clouds -37 1033 67 0 1.25 87 13:39 28.01.2020
25 Clouds -39 1033 64 0 1.17 92 13:20 28.01.2020
26 Clouds -39 1033 64 0 1.17 92 12:42 28.01.2020
27 Clouds -39 1033 64 0 1.17 92 12:23 28.01.2020
28 Clouds -39 1033 64 0 1.17 92 11:48 28.01.2020
29 Clouds -39 1033 64 0 1.17 92 11:23 28.01.2020
30 Clear -40 1033 62 0 0.94 102 10:58 28.01.2020
31 Clear -40 1033 62 0 0.94 102 10:39 28.01.2020
32 Clear -40 1033 62 0 0.94 102 10:20 28.01.2020
33 Clear -40 1033 62 0 0.94 102 09:43 28.01.2020
34 Clear -40 1033 62 0 0.94 102 09:21 28.01.2020
35 Clear -40 1033 62 0 0.94 102 08:58 28.01.2020
36 Clear -40 1033 62 0 0.94 102 08:39 28.01.2020
37 Clear -40 1033 60 0 0.81 105 08:19 28.01.2020
38 Clear -40 1033 60 0 0.81 105 08:19 28.01.2020
39 Clear -40 1033 60 0 0.81 105 07:37 28.01.2020
40 Clear -40 1033 60 0 0.81 105 06:50 28.01.2020
41 Clear -40 1033 60 0 0.81 105 06:26 28.01.2020
42 Clear -40 1033 60 0 0.81 105 05:54 28.01.2020
43 Clear -40 1033 60 0 0.81 105 05:26 28.01.2020
44 Clear -39 1032 60 0 0.58 125 04:28 28.01.2020
45 Clear -39 1032 60 0 0.58 125 02:58 28.01.2020
46 Clear -39 1032 60 0 0.58 125 02:25 28.01.2020
47 Clear -39 1032 60 0 0.58 125 02:25 28.01.2020
48 Clear -42 1032 62 0 0.62 125 01:57 28.01.2020
49 Clear -42 1032 62 0 0.62 125 01:57 28.01.2020
50 Clear -42 1032 62 0 0.62 125 01:26 28.01.2020
51 Clear -42 1032 63 0 0.53 127 00:51 28.01.2020
52 Clear -42 1032 63 0 0.53 127 00:29 28.01.2020
53 Clear -42 1032 63 0 0.53 127 23:51 27.01.2020
54 Clear -42 1032 63 0 0.53 127 23:30 27.01.2020
55 Clear -42 1031 66 0 0.52 122 22:58 27.01.2020
56 Clear -42 1031 66 0 0.52 122 22:40 27.01.2020
57 Clear -42 1031 66 0 0.52 122 22:19 27.01.2020
58 Clear -42 1031 66 0 0.52 122 21:55 27.01.2020
59 Clear -42 1031 66 0 0.52 122 21:37 27.01.2020
60 Clear -42 1031 66 0 0.52 122 21:18 27.01.2020
61 Clear -42 1031 66 0 0.52 122 20:43 27.01.2020
62 Clear -42 1031 66 0 0.52 122 20:22 27.01.2020
63 Clear -42 1030 69 0 0.65 116 19:59 27.01.2020
64 Clear -42 1030 69 0 0.65 116 19:41 27.01.2020
65 Clear -42 1030 69 0 0.65 116 19:22 27.01.2020
66 Clear -42 1030 69 0 0.65 116 18:56 27.01.2020
67 Clear -42 1030 69 0 0.65 116 18:38 27.01.2020
68 Clear -42 1030 69 0 0.65 116 18:19 27.01.2020
69 Clear -42 1030 69 0 0.65 116 17:39 27.01.2020
70 Clear -42 1029 72 0 0.34 133 17:21 27.01.2020
71 Clear -42 1029 72 0 0.34 133 16:59 27.01.2020
72 Clear -42 1029 72 0 0.34 133 16:41 27.01.2020
73 Clear -42 1029 72 0 0.34 133 16:23 27.01.2020
74 Clear -42 1029 72 0 0.34 133 15:55 27.01.2020
75 Clear -42 1029 72 0 0.34 133 15:37 27.01.2020
76 Clear -42 1029 72 0 0.34 133 15:37 27.01.2020
77 Clear -42 1029 72 0 0.34 133 15:18 27.01.2020
78 Clear -42 1029 72 0 0.34 133 14:42 27.01.2020
79 Clear -42 1029 72 0 0.34 133 14:22 27.01.2020
80 Clear -43 1028 76 0 0.78 109 13:58 27.01.2020
81 Clear -43 1028 76 0 0.78 109 13:39 27.01.2020
82 Clear -43 1028 76 0 0.78 109 13:19 27.01.2020
83 Clear -43 1028 76 0 0.78 102 12:54 27.01.2020
84 Clear -43 1028 76 0 0.78 102 12:36 27.01.2020
85 Clear -43 1028 76 0 0.78 102 12:18 27.01.2020
86 Clear -43 1028 76 0 0.78 102 11:41 27.01.2020
87 Clear -43 1028 79 0 0.34 131 11:20 27.01.2020
88 Clear -43 1028 79 0 0.34 131 10:43 27.01.2020
89 Clear -43 1028 79 0 0.34 131 10:24 27.01.2020
90 Clear -43 1028 79 0 0.34 131 09:56 27.01.2020
91 Clear -43 1028 79 0 0.34 131 09:38 27.01.2020
92 Clear -43 1028 79 0 0.34 131 09:18 27.01.2020
93 Clear -43 1028 79 0 0.34 131 08:42 27.01.2020
94 Clear -43 1027 83 0 0.68 115 08:20 27.01.2020
95 Clear -43 1027 86 0 0.6 119 07:54 27.01.2020
96 Clear -43 1027 86 0 0.6 119 07:34 27.01.2020
97 Clear -43 1027 86 0 0.6 119 06:53 27.01.2020
98 Clear -43 1027 86 0 0.6 119 06:25 27.01.2020
99 Clear -43 1027 86 0 0.6 119 05:24 27.01.2020
100 Clear -42 1027 83 0 0.32 174 03:49 27.01.2020
101 Clear -42 1027 83 0 0.32 174 02:38 27.01.2020
102 Clear -44 1027 90 0 0.49 109 01:29 27.01.2020
103 Clear -44 1027 89 0 0.48 120 00:58 27.01.2020
104 Clear -44 1027 89 0 0.48 120 00:37 27.01.2020
105 Clear -44 1027 89 0 0.48 120 00:18 27.01.2020
106 Clear -44 1027 89 0 0.48 120 23:41 26.01.2020
107 Clear -44 1027 89 0 0.48 120 23:41 26.01.2020
108 Clear -44 1027 92 0 0.52 115 23:19 26.01.2020
109 Clear -44 1027 92 0 0.52 115 22:55 26.01.2020
110 Clear -44 1027 92 0 0.52 115 22:37 26.01.2020
111 Clear -44 1027 92 0 0.52 115 22:18 26.01.2020
112 Clear -44 1027 92 0 0.52 115 21:56 26.01.2020
113 Clear -44 1027 92 0 0.52 115 21:38 26.01.2020
114 Clear -44 1027 92 0 0.52 115 21:19 26.01.2020
115 Clear -44 1027 92 0 0.52 115 20:55 26.01.2020
116 Clear -44 1027 92 0 0.52 115 20:36 26.01.2020
117 Clear -43 1028 96 0 0.7 101 20:18 26.01.2020
118 Clear -43 1028 96 0 0.7 101 19:56 26.01.2020
119 Clear -43 1028 96 0 0.7 101 19:37 26.01.2020
120 Clear -43 1028 96 0 0.7 101 19:37 26.01.2020
121 Clear -43 1028 96 0 0.7 101 19:18 26.01.2020
122 Clear -43 1028 96 0 0.7 101 18:41 26.01.2020
123 Clear -43 1028 96 0 0.7 101 18:22 26.01.2020
124 Clear -43 1028 96 0 0.7 101 17:58 26.01.2020
125 Clear -43 1028 96 0 0.7 101 17:39 26.01.2020
126 Clear -43 1028 97 0 0.66 98 17:20 26.01.2020
127 Clear -43 1028 97 0 0.66 98 16:58 26.01.2020
128 Clear -43 1028 97 0 0.66 98 16:39 26.01.2020
129 Clear -43 1028 97 0 0.66 98 16:39 26.01.2020
130 Clear -43 1028 97 0 0.66 98 16:39 26.01.2020
131 Clear -43 1028 97 0 0.66 98 16:39 26.01.2020
132 Clear -43 1028 97 0 0.66 98 16:20 26.01.2020
133 Clear -43 1028 97 0 0.66 98 15:58 26.01.2020
134 Clear -43 1028 97 0 0.66 98 15:39 26.01.2020
135 Clear -43 1028 97 0 0.66 98 15:18 26.01.2020
136 Clear -43 1028 97 0 0.66 98 14:40 26.01.2020
137 Clear -43 1029 96 0 0.75 89 14:21 26.01.2020
138 Clear -43 1029 96 0 0.75 89 13:57 26.01.2020
139 Clear -43 1029 96 0 0.75 89 13:37 26.01.2020
140 Clear -43 1029 97 0 0.8 89 13:18 26.01.2020
141 Clear -43 1029 97 0 0.8 89 12:42 26.01.2020
142 Clear -43 1029 97 0 0.8 89 12:24 26.01.2020
143 Clear -43 1029 97 0 0.8 89 12:24 26.01.2020
144 Clear -43 1029 97 0 0.8 89 11:58 26.01.2020
145 Clear -43 1029 97 0 0.8 89 11:39 26.01.2020
146 Clear -43 1029 97 0 0.8 89 11:39 26.01.2020
147 Clear -43 1030 98 0 0.55 104 11:19 26.01.2020
148 Clear -43 1030 98 0 0.55 104 10:59 26.01.2020
149 Clear -43 1030 98 0 0.55 104 10:38 26.01.2020
150 Clear -43 1030 98 0 0.55 104 10:20 26.01.2020
151 Clear -43 1030 98 0 0.55 104 09:58 26.01.2020
152 Clear -43 1030 98 0 0.55 104 09:40 26.01.2020
153 Clear -43 1030 98 0 0.55 104 09:21 26.01.2020
154 Clear -43 1030 98 0 0.55 104 08:44 26.01.2020
155 Clear -43 1030 98 0 0.55 104 08:23 26.01.2020
156 Clouds -43 1030 98 0 0.72 92 07:58 26.01.2020
157 Clouds -43 1030 98 0 0.72 92 07:40 26.01.2020
158 Clouds -43 1030 98 0 0.72 92 07:21 26.01.2020
159 Clouds -43 1030 98 0 0.72 92 06:31 26.01.2020
160 Clouds -43 1030 98 0 0.72 92 05:35 26.01.2020
161 Clouds -42 1030 93 0 0.42 111 04:52 26.01.2020
162 Clouds -42 1030 93 0 0.42 111 02:59 26.01.2020
163 Clouds -43 1031 98 0 0.65 102 01:59 26.01.2020
164 Clouds -43 1031 98 0 0.65 102 01:38 26.01.2020
165 Clouds -43 1031 99 0 0.71 100 01:19 26.01.2020
166 Clouds -43 1031 99 0 0.71 100 00:39 26.01.2020
167 Clouds -43 1031 99 0 0.71 100 00:20 26.01.2020
168 Clouds -43 1031 99 0 0.71 100 23:37 25.01.2020
169 Clouds -43 1031 99 0 0.35 112 23:18 25.01.2020
170 Clouds -43 1031 99 0 0.35 112 22:43 25.01.2020
171 Clouds -43 1031 99 0 0.35 112 22:20 25.01.2020
172 Clouds -43 1031 99 0 0.35 112 21:57 25.01.2020
173 Clouds -43 1031 99 0 0.35 112 21:39 25.01.2020
174 Clouds -43 1031 99 0 0.35 112 21:21 25.01.2020
175 Clouds -43 1031 99 0 0.35 112 20:54 25.01.2020
176 Clouds -43 1031 99 0 0.35 112 20:36 25.01.2020
177 Clear -43 1031 99 0 0.79 103 20:18 25.01.2020
178 Clouds -43 1031 99 0 0.72 105 19:41 25.01.2020
179 Clouds -43 1031 99 0 0.72 105 19:19 25.01.2020
180 Clear -43 1031 99 0 0.79 103 18:56 25.01.2020
181 Clear -43 1031 99 0 0.79 103 18:37 25.01.2020
182 Clouds -43 1031 99 0 0.72 105 18:19 25.01.2020
183 Clouds -43 1031 99 0 0.72 105 17:39 25.01.2020
184 Clear -43 1031 99 0 0.43 107 17:19 25.01.2020
185 Clear -43 1031 99 0 0.43 107 16:56 25.01.2020
186 Clear -43 1031 99 0 0.43 107 16:38 25.01.2020
187 Clear -43 1031 99 0 0.43 107 16:19 25.01.2020
188 Clear -43 1031 99 0 0.43 107 15:46 25.01.2020
189 Clear -43 1031 99 0 0.43 107 15:25 25.01.2020
190 Clear -43 1031 99 0 0.43 107 14:57 25.01.2020
191 Clear -43 1031 99 0 0.43 107 14:39 25.01.2020
192 Clouds -43 1032 98 0 0.63 89 14:18 25.01.2020
193 Clouds -43 1032 98 0 0.63 89 13:41 25.01.2020
194 Clear -43 1032 99 0 0.69 92 13:22 25.01.2020
195 Clear -43 1032 99 0 0.69 92 13:22 25.01.2020
196 Clear -43 1032 99 0 0.69 92 12:43 25.01.2020
197 Clear -43 1032 99 0 0.69 92 12:23 25.01.2020
198 Clear -43 1032 99 0 0.69 92 11:45 25.01.2020
199 Clear -43 1032 99 0 0.69 92 11:22 25.01.2020
200 Clear -43 1032 96 0 0.56 91 11:22 25.01.2020
201 Clear -43 1032 96 0 0.56 91 10:58 25.01.2020
202 Clear -43 1032 96 0 0.56 91 10:40 25.01.2020
203 Clear -43 1032 96 0 0.56 91 10:20 25.01.2020
204 Clear -43 1032 96 0 0.56 91 09:41 25.01.2020
205 Clear -43 1032 96 0 0.56 91 09:22 25.01.2020
206 Clear -43 1032 96 0 0.56 91 08:44 25.01.2020
207 Clear -43 1032 96 0 0.56 91 08:26 25.01.2020
208 Clouds -43 1032 96 0 0.5 87 07:50 25.01.2020
209 Clouds -43 1032 96 0 0.5 87 06:53 25.01.2020
210 Clouds -43 1032 96 0 0.5 87 06:28 25.01.2020
211 Clouds -43 1032 96 0 0.5 87 05:47 25.01.2020
212 Clouds -42 1032 88 0 0.35 108 05:18 25.01.2020
213 Clouds -42 1032 88 0 0.35 108 03:52 25.01.2020
214 Clouds -42 1032 88 0 0.35 108 03:22 25.01.2020
215 Clouds -42 1032 88 0 0.35 108 02:22 25.01.2020
216 Clouds -43 1033 89 0 0.39 107 01:48 25.01.2020
217 Clouds -43 1033 88 0 0.36 114 00:44 25.01.2020
218 Clouds -43 1033 88 0 0.36 114 00:26 25.01.2020
219 Clouds -43 1033 88 0 0.36 114 23:59 24.01.2020
220 Clouds -43 1033 88 0 0.36 114 23:40 24.01.2020
221 Clouds -43 1033 88 0 0.36 114 23:22 24.01.2020
222 Clouds -42 1033 87 0 0.35 161 22:45 24.01.2020
223 Clouds -42 1033 87 0 0.35 161 22:25 24.01.2020
224 Clouds -42 1033 87 0 0.35 161 21:56 24.01.2020
225 Clouds -42 1033 87 0 0.35 161 21:38 24.01.2020
226 Clouds -42 1033 87 0 0.35 161 21:18 24.01.2020
227 Clouds -42 1033 87 0 0.35 161 20:42 24.01.2020
228 Clear -42 1033 86 0 0.64 179 20:21 24.01.2020
229 Clear -42 1033 86 0 0.64 179 19:57 24.01.2020
230 Clear -42 1033 86 0 0.64 179 19:39 24.01.2020
231 Clear -42 1033 86 0 0.64 179 19:21 24.01.2020
232 Clear -42 1033 86 0 0.64 179 18:43 24.01.2020
233 Clear -42 1033 86 0 0.64 179 18:25 24.01.2020
234 Clear -42 1033 86 0 0.64 179 17:56 24.01.2020
235 Clear -42 1033 86 0 0.64 179 17:38 24.01.2020
236 Clear -42 1033 88 0 0.66 209 17:20 24.01.2020
237 Clear -42 1033 88 0 0.66 209 16:39 24.01.2020
238 Clear -42 1033 88 0 0.66 209 16:21 24.01.2020
239 Clear -42 1033 88 0 0.66 209 15:56 24.01.2020
240 Clear -42 1033 88 0 0.66 209 15:38 24.01.2020
241 Clear -42 1033 88 0 0.66 209 15:19 24.01.2020
242 Clear -42 1033 88 0 0.66 209 14:41 24.01.2020
243 Clear -42 1033 88 0 0.66 209 14:22 24.01.2020
244 Clouds -42 1034 89 0 0.65 224 13:45 24.01.2020
245 Clouds -42 1034 89 0 0.78 225 13:24 24.01.2020
246 Clouds -42 1034 89 0 0.78 225 12:45 24.01.2020
247 Clouds -42 1034 89 0 0.78 225 12:24 24.01.2020
248 Clouds -42 1034 89 0 0.78 225 11:59 24.01.2020
249 Clouds -42 1034 89 0 0.78 225 11:40 24.01.2020
250 Clouds -41 1034 90 0 1.04 211 11:18 24.01.2020
251 Clouds -41 1034 90 0 1.04 211 10:43 24.01.2020
252 Clouds -41 1034 90 0 1.04 211 10:21 24.01.2020
253 Clouds -41 1034 90 0 1.04 211 09:56 24.01.2020
254 Clouds -41 1034 90 0 1.04 211 09:37 24.01.2020
255 Clouds -41 1034 90 0 1.04 211 09:18 24.01.2020
256 Clouds -41 1034 90 0 1.04 211 08:40 24.01.2020
257 Clouds -41 1033 91 0 0.92 226 08:19 24.01.2020
258 Clouds -41 1033 91 0 0.92 226 07:49 24.01.2020
259 Clouds -41 1033 91 0 0.92 226 07:28 24.01.2020
260 Clouds -41 1033 91 0 0.92 226 06:48 24.01.2020
261 Clouds -41 1033 91 0 0.92 226 06:28 24.01.2020
262 Clouds -41 1033 91 0 0.92 226 05:57 24.01.2020
263 Clouds -40 1032 88 0 0.92 238 04:54 24.01.2020
264 Clouds -40 1032 88 0 0.92 238 02:53 24.01.2020
265 Clouds -40 1032 88 0 0.92 238 02:24 24.01.2020
266 Clouds -41 1032 90 0 0.9 232 01:42 24.01.2020
267 Clouds -41 1032 90 0 0.9 232 01:24 24.01.2020
268 Clouds -40 1031 91 0 0.97 229 00:20 24.01.2020
269 Clouds -40 1031 91 0 0.97 229 23:48 23.01.2020
270 Clouds -40 1031 91 0 0.97 229 23:30 23.01.2020
271 Clouds -40 1030 92 0 0.85 237 22:59 23.01.2020
272 Clouds -40 1030 92 0 0.85 237 22:38 23.01.2020
273 Clouds -40 1030 92 0 0.85 237 22:19 23.01.2020
274 Clouds -40 1030 92 0 0.85 237 21:57 23.01.2020
275 Clouds -40 1030 92 0 0.85 237 21:39 23.01.2020
276 Clouds -40 1030 92 0 0.85 237 21:20 23.01.2020
277 Clouds -40 1030 92 0 0.85 237 20:58 23.01.2020
278 Clouds -40 1030 92 0 0.85 237 20:38 23.01.2020
279 Clouds -39 1030 97 0 0.99 228 20:19 23.01.2020
280 Clouds -39 1030 97 0 0.99 228 19:56 23.01.2020
281 Clouds -39 1030 97 0 0.99 228 19:38 23.01.2020
282 Clouds -39 1030 97 0 0.99 228 19:19 23.01.2020
283 Clouds -39 1030 97 0 0.99 228 18:42 23.01.2020
284 Clouds -39 1030 97 0 0.99 228 18:21 23.01.2020
285 Clouds -39 1030 97 0 0.99 228 17:58 23.01.2020
286 Clouds -39 1030 97 0 0.99 228 17:40 23.01.2020
287 Clouds -39 1029 98 0 0.85 249 17:20 23.01.2020
288 Clouds -39 1029 98 0 0.85 249 16:56 23.01.2020
289 Clouds -39 1029 98 0 0.85 249 16:36 23.01.2020
290 Clouds -39 1029 98 0 0.85 249 16:18 23.01.2020
291 Clouds -39 1029 98 0 0.85 249 15:54 23.01.2020
292 Clouds -39 1029 98 0 0.85 249 15:36 23.01.2020
293 Clouds -39 1029 98 0 0.85 249 15:18 23.01.2020
294 Clouds -39 1029 98 0 0.85 249 15:18 23.01.2020
295 Clouds -39 1029 98 0 0.85 249 14:54 23.01.2020
296 Clouds -39 1029 98 0 0.85 249 14:36 23.01.2020
297 Clouds -38 1029 97 0 0.93 230 14:18 23.01.2020
298 Clouds -38 1029 97 0 0.93 230 13:39 23.01.2020
299 Clouds -38 1029 97 0 0.93 230 13:39 23.01.2020
300 Clouds -38 1029 97 0 0.93 230 13:20 23.01.2020
301 Clouds -38 1028 97 0 0.97 226 12:47 23.01.2020
302 Clouds -38 1028 97 0 0.97 226 12:25 23.01.2020
303 Clouds -38 1028 97 0 0.97 226 11:59 23.01.2020
304 Clouds -38 1029 99 0 1.18 224 11:39 23.01.2020
305 Clouds -38 1027 99 0 1.17 208 11:19 23.01.2020
306 Clouds -38 1027 99 0 1.17 208 11:19 23.01.2020
307 Clouds -38 1027 99 0 1.17 208 10:45 23.01.2020
308 Clouds -38 1027 99 0 1.17 208 10:23 23.01.2020
309 Clouds -38 1027 99 0 1.17 208 09:59 23.01.2020
310 Clouds -38 1027 99 0 1.17 208 09:38 23.01.2020
311 Clouds -37 1027 99 0 1.3 212 09:20 23.01.2020
312 Clouds -38 1027 99 0 1.17 208 08:42 23.01.2020
313 Clouds -37 1027 99 0 1.3 212 08:24 23.01.2020
314 Clouds -37 1027 99 0 1.3 212 08:24 23.01.2020
315 Clouds -34 1026 98 0 1.06 213 07:48 23.01.2020
316 Clouds -34 1026 98 0 1.06 213 07:27 23.01.2020
317 Clouds -34 1026 98 0 1.06 213 06:54 23.01.2020
318 Clouds -34 1026 98 0 1.06 213 06:23 23.01.2020
319 Clouds -34 1026 98 0 1.06 213 05:58 23.01.2020
320 Clouds -32 1025 97 0 0.52 143 04:24 23.01.2020
321 Clouds -32 1025 97 0 0.52 143 02:45 23.01.2020
322 Clouds -33 1024 98 0 0.47 94 01:44 23.01.2020
323 Clouds -33 1024 98 0 0.45 102 00:28 23.01.2020
324 Clouds -33 1024 98 0 0.45 102 23:57 22.01.2020
325 Clouds -33 1024 98 0 0.45 102 23:38 22.01.2020
326 Clouds -32 1022 97 0 0.83 92 23:20 22.01.2020
327 Clouds -32 1022 97 0 0.83 92 22:42 22.01.2020
328 Clouds -32 1022 97 0 0.83 92 22:23 22.01.2020
329 Clouds -32 1022 97 0 0.83 92 21:56 22.01.2020
330 Clouds -32 1022 97 0 0.83 92 21:36 22.01.2020
331 Clouds -32 1022 97 0 0.83 92 21:18 22.01.2020
332 Clouds -32 1022 97 0 0.83 92 20:41 22.01.2020
333 Clouds -32 1022 97 0 0.71 98 20:23 22.01.2020
334 Clouds -31 1021 97 0 0.8 81 19:58 22.01.2020
335 Clouds -31 1021 97 0 0.8 81 19:58 22.01.2020
336 Clouds -31 1021 97 0 0.8 81 19:40 22.01.2020
337 Clouds -31 1021 97 0 0.8 81 19:20 22.01.2020
338 Clouds -31 1021 97 0 0.8 81 18:58 22.01.2020
339 Clouds -31 1021 97 0 0.8 81 18:39 22.01.2020
340 Clouds -31 1021 97 0 0.8 81 18:20 22.01.2020
341 Clouds -31 1021 97 0 0.8 81 17:56 22.01.2020
342 Clouds -31 1021 97 0 0.8 81 17:38 22.01.2020
343 Clouds -32 1020 97 0 0.73 83 17:19 22.01.2020
344 Clouds -32 1020 97 0 0.73 83 16:44 22.01.2020
345 Clouds -32 1020 97 0 0.73 83 16:24 22.01.2020
346 Clouds -32 1020 97 0 0.73 83 15:59 22.01.2020
347 Clouds -32 1020 97 0 0.73 83 15:41 22.01.2020
348 Clouds -32 1020 97 0 0.73 83 15:23 22.01.2020
349 Clouds -32 1020 97 0 0.73 83 14:58 22.01.2020
350 Clouds -32 1020 97 0 0.73 83 14:37 22.01.2020
351 Clouds -33 1019 98 0 1.02 80 14:19 22.01.2020
352 Clouds -33 1019 98 0 1.02 80 13:55 22.01.2020
353 Clouds -33 1019 98 0 1.02 80 13:37 22.01.2020
354 Clouds -33 1019 97 0 1.02 79 13:19 22.01.2020
355 Clouds -33 1019 97 0 1.02 79 12:56 22.01.2020
356 Clouds -33 1019 97 0 1.02 79 12:38 22.01.2020
357 Clouds -33 1019 97 0 1.02 79 12:18 22.01.2020
358 Clouds -33 1019 97 0 1.02 79 11:56 22.01.2020
359 Clouds -33 1019 97 0 1.02 79 11:38 22.01.2020
360 Clouds -32 1017 97 0 0.64 79 11:19 22.01.2020
361 Clouds -32 1017 97 0 0.64 79 11:19 22.01.2020
362 Clouds -32 1017 97 0 0.64 79 10:44 22.01.2020
363 Clouds -32 1017 97 0 0.64 79 10:21 22.01.2020
364 Clouds -32 1017 97 0 0.64 79 09:57 22.01.2020
365 Clouds -32 1017 97 0 0.64 79 09:39 22.01.2020
366 Clouds -32 1017 97 0 0.64 79 09:20 22.01.2020
367 Clouds -32 1017 97 0 0.64 79 08:54 22.01.2020
368 Clouds -32 1017 97 0 0.64 79 08:36 22.01.2020
369 Clouds -32 1016 97 0 0.94 72 08:18 22.01.2020
370 Clouds -32 1016 97 0 0.94 72 07:40 22.01.2020
371 Clouds -32 1016 97 0 0.94 72 07:21 22.01.2020
372 Clouds -32 1016 97 0 0.94 72 07:21 22.01.2020
373 Clouds -32 1016 97 0 0.94 72 06:33 22.01.2020
374 Clouds -32 1016 97 0 0.94 72 05:42 22.01.2020
375 Clouds -32 1014 97 0 0.7 72 04:24 22.01.2020
376 Clouds -32 1014 97 0 0.7 72 03:26 22.01.2020
377 Clouds -32 1014 97 0 0.7 72 02:39 22.01.2020
378 Clouds -34 1014 99 0 1.07 76 00:47 22.01.2020
379 Clouds -34 1014 99 0 1.07 76 00:27 22.01.2020
380 Clouds -34 1014 99 0 1.07 76 23:55 21.01.2020
381 Clouds -34 1014 99 0 1.07 76 23:37 21.01.2020
382 Clouds -35 1014 99 0 0.66 86 23:18 21.01.2020
383 Clouds -35 1014 99 0 0.66 86 22:40 21.01.2020
384 Clouds -35 1014 99 0 0.66 86 22:21 21.01.2020
385 Clouds -35 1014 99 0 0.66 86 21:58 21.01.2020
386 Clouds -35 1014 99 0 0.66 86 21:38 21.01.2020
387 Clouds -35 1014 99 0 0.66 86 21:20 21.01.2020
388 Clouds -35 1014 99 0 0.66 86 20:57 21.01.2020
389 Clouds -35 1014 99 0 0.66 86 20:38 21.01.2020
390 Clouds -36 1014 99 0 0.82 95 20:19 21.01.2020
391 Clouds -36 1014 100 0 0.7 104 19:57 21.01.2020
392 Clouds -36 1014 100 0 0.7 104 19:38 21.01.2020
393 Clouds -36 1014 100 0 0.7 104 19:20 21.01.2020
394 Clouds -36 1014 100 0 0.7 104 19:20 21.01.2020
395 Clouds -36 1014 100 0 0.7 104 18:55 21.01.2020
396 Clouds -36 1014 100 0 0.7 104 18:37 21.01.2020
397 Clouds -36 1014 100 0 0.7 104 18:18 21.01.2020
398 Clouds -36 1014 100 0 0.7 104 17:45 21.01.2020
399 Clouds -36 1014 100 0 0.66 107 17:20 21.01.2020
400 Clouds -36 1014 100 0 0.66 107 16:59 21.01.2020
401 Clouds -36 1014 100 0 0.66 107 16:37 21.01.2020
402 Clouds -36 1014 100 0 0.66 107 16:19 21.01.2020
403 Clouds -36 1014 100 0 0.66 107 15:56 21.01.2020
404 Clouds -36 1014 100 0 0.66 107 15:36 21.01.2020
405 Clouds -36 1014 100 0 0.66 107 15:18 21.01.2020
406 Clouds -36 1014 100 0 0.66 107 14:38 21.01.2020
407 Clouds -36 1015 100 0 0.76 120 14:20 21.01.2020
408 Clouds -36 1015 100 0 0.76 120 13:41 21.01.2020
409 Clouds -36 1015 100 0 0.81 118 13:19 21.01.2020
410 Clouds -36 1015 100 0 0.81 118 12:56 21.01.2020
411 Clouds -36 1015 100 0 0.81 118 12:38 21.01.2020
412 Clouds -36 1015 100 0 0.81 118 12:19 21.01.2020
413 Clouds -36 1015 100 0 0.81 118 11:40 21.01.2020
414 Clouds -36 1015 100 0 0.54 133 11:21 21.01.2020
415 Clouds -36 1015 100 0 0.54 133 10:59 21.01.2020
416 Clouds -36 1015 100 0 0.54 133 10:40 21.01.2020
417 Clouds -36 1015 100 0 0.54 133 10:21 21.01.2020
418 Clouds -36 1015 100 0 0.54 133 09:42 21.01.2020
419 Clouds -36 1015 100 0 0.54 133 09:23 21.01.2020
420 Clouds -36 1015 100 0 0.54 133 08:56 21.01.2020
421 Clouds -36 1015 100 0 0.54 133 08:38 21.01.2020
422 Clouds -35 1015 100 0 0.69 110 08:19 21.01.2020
423 Clouds -35 1015 100 0 0.69 110 07:41 21.01.2020
424 Clouds -35 1015 100 0 0.69 110 07:22 21.01.2020
425 Clouds -35 1015 100 0 0.69 110 06:49 21.01.2020
426 Clouds -35 1015 100 0 0.69 110 06:30 21.01.2020
427 Clouds -35 1015 100 0 0.69 110 05:44 21.01.2020
428 Clouds -34 1016 100 0 0.55 130 04:41 21.01.2020
429 Clouds -34 1016 100 0 0.55 130 02:58 21.01.2020
430 Clouds -34 1016 100 0 0.55 130 02:26 21.01.2020
431 Clouds -34 1016 100 0 0.28 107 01:28 21.01.2020
432 Clouds -34 1016 100 0 0.28 107 00:40 21.01.2020
433 Clouds -34 1016 100 0 0.28 107 23:59 20.01.2020
434 Clouds -34 1016 100 0 0.28 107 23:41 20.01.2020
435 Clouds -32 1016 100 0 0.17 319 23:19 20.01.2020
436 Clouds -32 1016 100 0 0.17 319 22:59 20.01.2020
437 Clouds -32 1016 100 0 0.17 319 22:39 20.01.2020
438 Clouds -32 1016 100 0 0.17 319 22:21 20.01.2020
439 Clouds -32 1016 100 0 0.17 319 21:58 20.01.2020
440 Clouds -32 1016 100 0 0.17 319 21:38 20.01.2020
441 Clouds -32 1016 100 0 0.17 319 21:19 20.01.2020
442 Clouds -32 1016 100 0 0.17 319 20:58 20.01.2020
443 Clouds -32 1016 100 0 0.17 319 20:39 20.01.2020
444 Clouds -31 1015 98 0 0.43 80 20:19 20.01.2020
445 Clouds -31 1015 98 0 0.43 80 20:19 20.01.2020
446 Clouds -31 1015 99 0 0.32 72 19:57 20.01.2020
447 Clouds -31 1015 99 0 0.32 72 19:38 20.01.2020
448 Clouds -31 1015 99 0 0.32 72 19:19 20.01.2020
449 Clouds -31 1015 99 0 0.32 72 18:45 20.01.2020
450 Clouds -31 1015 99 0 0.32 72 18:24 20.01.2020
451 Clouds -31 1015 99 0 0.32 72 17:59 20.01.2020
452 Clouds -31 1015 99 0 0.32 72 17:37 20.01.2020
453 Clouds -32 1014 99 0 0.45 271 17:18 20.01.2020
454 Clouds -32 1014 99 0 0.45 271 16:44 20.01.2020
455 Clouds -32 1014 99 0 0.45 271 16:25 20.01.2020
456 Clouds -32 1014 99 0 0.45 271 15:58 20.01.2020
457 Clouds -32 1014 99 0 0.45 271 15:40 20.01.2020
458 Clouds -32 1014 99 0 0.45 271 15:21 20.01.2020
459 Clouds -32 1014 99 0 0.45 271 14:55 20.01.2020
460 Clouds -32 1014 99 0 0.45 271 14:36 20.01.2020
461 Snow -30 1014 98 0 0.37 74 14:18 20.01.2020
462 Snow -30 1014 98 0 0.37 74 13:41 20.01.2020
463 Snow -30 1014 98 0 0.12 83 13:23 20.01.2020
464 Snow -30 1014 98 0 0.12 83 12:56 20.01.2020
465 Snow -30 1014 98 0 0.12 83 12:38 20.01.2020
466 Snow -30 1014 98 0 0.12 83 12:19 20.01.2020
467 Snow -30 1014 98 0 0.12 83 11:43 20.01.2020
468 Snow -30 1014 98 0 0.12 83 11:24 20.01.2020
469 Clouds -30 1012 98 0 0.33 38 10:58 20.01.2020
470 Clouds -30 1012 98 0 0.33 38 10:39 20.01.2020
471 Clouds -30 1012 98 0 0.33 38 10:20 20.01.2020
472 Clouds -30 1012 98 0 0.33 38 09:41 20.01.2020
473 Clouds -30 1012 98 0 0.33 38 09:22 20.01.2020
474 Clouds -30 1012 98 0 0.33 38 08:54 20.01.2020
475 Clouds -30 1012 98 0 0.33 38 08:31 20.01.2020
476 Clouds -34 1012 93 0 0.77 67 07:55 20.01.2020
477 Clouds -34 1012 93 0 0.77 67 07:36 20.01.2020
478 Clouds -34 1012 93 0 0.77 67 07:18 20.01.2020
479 Clouds -34 1012 93 0 0.77 67 06:35 20.01.2020
480 Clouds -34 1012 93 0 0.77 67 05:56 20.01.2020
481 Clouds -34 1012 93 0 0.77 67 05:37 20.01.2020
482 Clouds -34 1011 91 0 0.86 68 05:18 20.01.2020
483 Clouds -34 1011 91 0 0.86 68 03:47 20.01.2020
484 Clouds -34 1011 90 0 0.85 68 01:58 20.01.2020
485 Clouds -34 1011 90 0 0.85 68 01:39 20.01.2020
486 Clouds -34 1011 90 0 0.82 68 00:56 20.01.2020
487 Clouds -34 1011 90 0 0.82 68 00:37 20.01.2020
488 Clouds -34 1011 90 0 0.82 68 00:19 20.01.2020
489 Clouds -34 1011 90 0 0.82 68 23:37 19.01.2020
490 Clouds -32 1011 85 0 1.13 73 23:18 19.01.2020
491 Clouds -32 1011 85 0 1.13 73 22:55 19.01.2020
492 Clouds -32 1011 85 0 1.13 73 22:37 19.01.2020
493 Clouds -32 1011 85 0 1.13 73 22:18 19.01.2020
494 Clouds -32 1011 85 0 1.13 73 21:56 19.01.2020
495 Clouds -32 1011 85 0 1.13 73 21:37 19.01.2020
496 Clouds -32 1011 85 0 1.13 73 21:19 19.01.2020
497 Clouds -32 1011 85 0 1.13 73 20:56 19.01.2020
498 Clouds -32 1011 85 0 1.13 73 20:38 19.01.2020
499 Clouds -31 1011 85 0 1.21 75 20:19 19.01.2020
500 Clouds -31 1011 85 0 1.21 75 19:55 19.01.2020
501 Clouds -31 1011 85 0 1.21 75 19:37 19.01.2020
502 Clouds -31 1011 85 0 1.21 75 19:19 19.01.2020
503 Clouds -31 1011 85 0 1.21 75 18:55 19.01.2020
504 Clouds -31 1011 85 0 1.21 75 18:37 19.01.2020
505 Clouds -31 1011 85 0 1.21 75 18:19 19.01.2020
506 Clouds -31 1011 85 0 1.21 75 18:19 19.01.2020
507 Clouds -31 1011 85 0 1.21 75 17:57 19.01.2020
508 Clouds -31 1011 85 0 1.21 75 17:38 19.01.2020
509 Clouds -31 1011 85 0 1.1 79 17:20 19.01.2020
510 Clouds -31 1011 85 0 1.1 79 16:57 19.01.2020
511 Clouds -31 1011 85 0 1.1 79 16:37 19.01.2020
512 Clouds -31 1011 85 0 1.1 79 16:19 19.01.2020
513 Clouds -31 1011 85 0 1.1 79 15:56 19.01.2020
514 Clouds -31 1011 85 0 1.1 79 15:37 19.01.2020
515 Clouds -31 1011 85 0 1.1 79 15:19 19.01.2020
516 Clouds -31 1011 85 0 1.1 79 14:56 19.01.2020
517 Clouds -31 1011 85 0 1.1 79 14:37 19.01.2020
518 Clouds -34 1012 84 0 1.09 86 14:18 19.01.2020
519 Clouds -34 1012 84 0 1.09 86 13:54 19.01.2020
520 Clouds -34 1012 84 0 1.09 86 13:36 19.01.2020
521 Clouds -34 1012 84 0 1.09 86 13:18 19.01.2020
522 Clouds -34 1012 84 0 1.06 89 12:42 19.01.2020
523 Clouds -34 1012 84 0 1.06 89 12:23 19.01.2020
524 Clouds -34 1012 84 0 1.06 89 11:57 19.01.2020
525 Clouds -34 1012 84 0 1.06 89 11:39 19.01.2020
526 Clouds -35 1012 84 0 1.07 90 11:20 19.01.2020
527 Clouds -35 1012 84 0 1.07 90 10:55 19.01.2020
528 Clouds -35 1012 84 0 1.07 90 10:37 19.01.2020
529 Clouds -35 1012 84 0 1.07 90 10:18 19.01.2020
530 Clouds -35 1012 84 0 1.07 90 09:44 19.01.2020
531 Clouds -35 1012 84 0 1.07 90 09:25 19.01.2020
532 Clouds -35 1012 84 0 1.07 90 08:58 19.01.2020
533 Clouds -35 1012 84 0 1.07 90 08:39 19.01.2020
534 Clouds -36 1012 90 0 0.93 83 08:20 19.01.2020
535 Clouds -36 1012 90 0 0.93 83 07:42 19.01.2020
536 Clouds -36 1012 90 0 0.93 83 07:21 19.01.2020
537 Clouds -36 1012 90 0 0.93 83 06:50 19.01.2020
538 Clear -36 1012 89 0 0.67 83 05:21 19.01.2020
539 Clear -36 1012 89 0 0.67 83 02:44 19.01.2020
540 Clear -37 1013 91 0 0.83 92 02:21 19.01.2020
541 Clear -37 1013 91 0 0.83 92 01:25 19.01.2020
542 Clear -37 1013 91 0 0.83 92 01:25 19.01.2020
543 Clear -37 1013 92 0 0.81 89 00:46 19.01.2020
544 Clear -37 1013 92 0 0.81 89 00:28 19.01.2020
545 Clear -37 1013 92 0 0.81 89 23:56 18.01.2020
546 Clear -37 1013 92 0 0.81 89 23:38 18.01.2020
547 Clear -36 1013 91 0 0.88 92 23:19 18.01.2020
548 Clear -36 1013 91 0 0.88 92 22:55 18.01.2020
549 Clear -36 1013 91 0 0.88 92 22:37 18.01.2020
550 Clear -36 1013 91 0 0.88 92 22:19 18.01.2020
551 Clear -36 1013 91 0 0.88 92 21:56 18.01.2020
552 Clear -36 1013 91 0 0.88 92 21:37 18.01.2020
553 Clear -36 1013 91 0 0.88 92 21:19 18.01.2020
554 Clear -36 1013 91 0 0.88 92 20:43 18.01.2020
555 Clear -37 1013 94 0 0.86 107 20:21 18.01.2020
556 Clear -37 1013 94 0 0.86 107 19:57 18.01.2020
557 Clear -37 1013 94 0 0.86 107 19:39 18.01.2020
558 Clear -37 1013 94 0 0.86 107 19:39 18.01.2020
559 Clear -37 1013 94 0 0.86 107 19:21 18.01.2020
560 Clear -37 1013 94 0 0.86 107 18:42 18.01.2020
561 Clear -37 1013 94 0 0.86 107 18:21 18.01.2020
562 Clear -37 1013 94 0 0.86 107 17:55 18.01.2020
563 Clear -37 1013 94 0 0.86 107 17:37 18.01.2020
564 Clear -37 1013 95 0 0.82 110 17:18 18.01.2020
565 Clear -37 1013 95 0 0.82 110 16:55 18.01.2020
566 Clear -37 1013 95 0 0.82 110 16:36 18.01.2020
567 Clear -37 1013 95 0 0.82 110 16:18 18.01.2020
568 Clear -37 1013 95 0 0.82 110 15:41 18.01.2020
569 Clear -37 1013 95 0 0.82 110 15:23 18.01.2020
570 Clear -37 1013 95 0 0.82 110 14:57 18.01.2020
571 Clear -37 1013 95 0 0.82 110 14:38 18.01.2020
572 Clear -37 1014 96 0 0.79 107 14:18 18.01.2020
573 Clear -37 1014 96 0 0.79 107 13:43 18.01.2020
574 Clear -37 1014 96 0 0.81 102 13:24 18.01.2020
575 Clear -37 1014 96 0 0.81 102 12:57 18.01.2020
576 Clear -37 1014 96 0 0.81 102 12:38 18.01.2020
577 Clear -37 1014 96 0 0.81 102 12:20 18.01.2020
578 Clear -37 1014 96 0 0.81 102 11:44 18.01.2020
579 Clear -37 1013 97 0 0.68 103 11:21 18.01.2020
580 Clear -37 1013 97 0 0.68 103 10:57 18.01.2020
581 Clear -37 1013 97 0 0.68 103 10:38 18.01.2020
582 Clear -37 1013 97 0 0.68 103 10:19 18.01.2020
583 Clear -37 1013 97 0 0.68 103 09:43 18.01.2020
584 Clear -37 1013 97 0 0.68 103 09:24 18.01.2020
585 Clear -37 1013 97 0 0.68 103 08:55 18.01.2020
586 Clear -37 1013 97 0 0.68 103 08:37 18.01.2020
587 Clouds -36 1013 98 0 0.83 105 08:19 18.01.2020
588 Clouds -36 1013 98 0 0.83 105 07:47 18.01.2020
589 Clouds -36 1013 98 0 0.83 105 07:29 18.01.2020
590 Clouds -36 1013 98 0 0.83 105 06:47 18.01.2020
591 Clouds -36 1013 98 0 0.83 105 05:59 18.01.2020
592 Clouds -36 1013 98 0 0.76 110 05:21 18.01.2020
593 Clouds -36 1013 98 0 0.76 110 02:56 18.01.2020
594 Clouds -36 1013 99 0 0.71 105 01:54 18.01.2020
595 Clouds -36 1013 99 0 0.71 105 01:35 18.01.2020
596 Clouds -36 1013 99 0 0.72 103 00:37 18.01.2020
597 Clouds -36 1013 99 0 0.72 103 00:37 18.01.2020
598 Clouds -36 1013 99 0 0.72 103 00:18 18.01.2020
599 Clouds -36 1013 99 0 0.72 103 00:18 18.01.2020
600 Clouds -36 1013 99 0 0.72 103 00:18 18.01.2020
601 Clouds -36 1013 99 0 0.72 103 23:41 17.01.2020
602 Clouds -36 1013 99 0 0.85 106 23:20 17.01.2020
603 Clouds -36 1013 99 0 0.85 106 22:46 17.01.2020
604 Clouds -36 1013 99 0 0.85 106 22:22 17.01.2020
605 Clouds -36 1013 99 0 0.85 106 22:22 17.01.2020
606 Clouds -36 1013 99 0 0.85 106 21:59 17.01.2020
607 Clouds -36 1013 99 0 0.85 106 21:41 17.01.2020
608 Clouds -36 1013 99 0 0.85 106 21:22 17.01.2020
609 Clouds -36 1013 99 0 0.85 106 20:58 17.01.2020
610 Clouds -36 1013 99 0 0.85 106 20:38 17.01.2020
611 Clouds -35 1012 99 0 0.82 99 20:20 17.01.2020
612 Clouds -35 1012 100 0 0.74 105 19:56 17.01.2020
613 Clouds -35 1012 100 0 0.74 105 19:37 17.01.2020
614 Clouds -35 1012 100 0 0.74 105 19:19 17.01.2020
615 Clouds -35 1012 100 0 0.74 105 18:56 17.01.2020
616 Clouds -35 1012 100 0 0.74 105 18:36 17.01.2020
617 Clouds -35 1012 100 0 0.74 105 18:18 17.01.2020
618 Clouds -35 1012 100 0 0.74 105 17:39 17.01.2020
619 Clouds -35 1012 100 0 0.69 97 17:21 17.01.2020
620 Clouds -35 1012 100 0 0.69 97 16:44 17.01.2020
621 Clouds -35 1012 100 0 0.69 97 16:21 17.01.2020
622 Clouds -35 1012 100 0 0.69 97 15:58 17.01.2020
623 Clouds -35 1012 100 0 0.69 97 15:58 17.01.2020
624 Clouds -35 1012 100 0 0.69 97 15:40 17.01.2020
625 Clouds -35 1012 100 0 0.69 97 15:22 17.01.2020
626 Clouds -35 1012 100 0 0.69 97 14:43 17.01.2020
627 Clouds -35 1012 100 0 0.69 97 14:24 17.01.2020
628 Clouds -34 1012 100 0 0.74 120 13:45 17.01.2020
629 Clouds -34 1012 100 0 0.74 120 13:23 17.01.2020
630 Clouds -34 1012 100 0 0.73 126 12:48 17.01.2020
631 Clouds -34 1012 100 0 0.73 126 12:24 17.01.2020
632 Clouds -34 1012 100 0 0.73 126 11:56 17.01.2020
633 Clouds -34 1012 100 0 0.73 126 11:37 17.01.2020
634 Clouds -33 1011 99 0 0.47 142 11:18 17.01.2020
635 Clouds -33 1011 99 0 0.47 142 10:42 17.01.2020
636 Clouds -33 1011 99 0 0.47 142 10:42 17.01.2020
637 Clouds -33 1011 99 0 0.47 142 10:22 17.01.2020
638 Clouds -33 1011 99 0 0.47 142 09:57 17.01.2020
639 Clouds -33 1011 99 0 0.47 142 09:37 17.01.2020
640 Clouds -33 1011 99 0 0.47 142 09:18 17.01.2020
641 Clouds -33 1011 99 0 0.47 142 08:42 17.01.2020
642 Clouds -33 1011 99 0 0.47 142 08:24 17.01.2020
643 Clouds -32 1011 99 0 0.59 120 07:53 17.01.2020
644 Clouds -32 1011 99 0 0.59 120 07:31 17.01.2020
645 Clouds -32 1011 99 0 0.59 120 06:57 17.01.2020
646 Clouds -32 1011 99 0 0.59 120 06:38 17.01.2020
647 Clouds -32 1011 99 0 0.59 120 05:28 17.01.2020
648 Clouds -32 1010 98 0 0.33 150 03:39 17.01.2020
649 Clouds -32 1010 98 0 0.33 150 02:45 17.01.2020
650 Clouds -32 1011 97 0 0.33 106 01:47 17.01.2020
651 Clouds -31 1011 97 0 0.43 96 01:28 17.01.2020
652 Clouds -31 1011 97 0 0.43 96 00:46 17.01.2020
653 Clouds -31 1011 97 0 0.43 96 00:21 17.01.2020
654 Clouds -31 1011 97 0 0.43 96 23:43 16.01.2020
655 Clouds -31 1011 97 0 0.43 96 23:25 16.01.2020
656 Clouds -32 1010 97 0 0.69 105 22:56 16.01.2020
657 Clouds -32 1010 97 0 0.69 105 22:38 16.01.2020
658 Clouds -32 1010 97 0 0.69 105 22:19 16.01.2020
659 Clouds -32 1010 97 0 0.69 105 21:54 16.01.2020
660 Clouds -32 1010 97 0 0.69 105 21:36 16.01.2020
661 Clouds -32 1010 97 0 0.69 105 21:18 16.01.2020
662 Clouds -32 1010 97 0 0.69 105 20:40 16.01.2020
663 Clouds -34 1010 95 0 0.22 113 20:21 16.01.2020
664 Clouds -33 1010 97 0 0.27 102 19:59 16.01.2020
665 Clouds -33 1010 97 0 0.27 102 19:41 16.01.2020
666 Clouds -33 1010 97 0 0.27 102 19:22 16.01.2020
667 Clouds -33 1010 97 0 0.27 102 19:22 16.01.2020
668 Clouds -33 1010 97 0 0.27 102 18:57 16.01.2020
669 Clouds -33 1010 97 0 0.27 102 18:38 16.01.2020
670 Clouds -33 1010 97 0 0.27 102 18:20 16.01.2020
671 Clouds -33 1010 97 0 0.27 102 17:59 16.01.2020
672 Clouds -33 1010 97 0 0.27 102 17:59 16.01.2020
673 Clouds -33 1010 97 0 0.27 102 17:40 16.01.2020
674 Clouds -34 1010 98 0 0.74 82 17:20 16.01.2020
675 Clouds -34 1010 98 0 0.74 82 16:42 16.01.2020
676 Clouds -34 1010 98 0 0.74 82 16:24 16.01.2020
677 Clouds -34 1010 98 0 0.74 82 15:59 16.01.2020
678 Clouds -34 1010 98 0 0.74 82 15:40 16.01.2020
679 Clouds -34 1010 98 0 0.74 82 15:21 16.01.2020
680 Clouds -34 1010 98 0 0.74 82 14:45 16.01.2020
681 Clouds -34 1010 98 0 0.74 82 14:24 16.01.2020
682 Clouds -35 1010 99 0 0.8 77 13:56 16.01.2020
683 Clouds -35 1010 99 0 0.8 77 13:37 16.01.2020
684 Clouds -35 1010 99 0 0.8 77 13:37 16.01.2020
685 Clouds -36 1011 98 0 0.88 73 13:19 16.01.2020
686 Clouds -36 1011 98 0 0.88 73 12:43 16.01.2020
687 Clouds -36 1011 98 0 0.88 73 12:25 16.01.2020
688 Clouds -36 1011 98 0 0.88 73 11:54 16.01.2020
689 Clouds -36 1011 98 0 0.88 73 11:36 16.01.2020
690 Clouds -36 1010 98 0 0.91 82 11:18 16.01.2020
691 Clouds -36 1010 98 0 0.91 82 10:39 16.01.2020
692 Clouds -36 1010 98 0 0.91 82 10:20 16.01.2020
693 Clouds -36 1010 98 0 0.91 82 09:57 16.01.2020
694 Clouds -36 1010 98 0 0.91 82 09:38 16.01.2020
695 Clouds -36 1010 98 0 0.91 82 09:19 16.01.2020
696 Clouds -36 1010 98 0 0.91 82 08:51 16.01.2020
697 Clouds -36 1010 98 0 0.91 82 08:30 16.01.2020
698 Clouds -36 1011 99 0 0.86 85 07:59 16.01.2020
699 Clouds -36 1011 99 0 0.86 85 07:39 16.01.2020
700 Clouds -36 1011 99 0 0.86 85 07:20 16.01.2020
701 Clouds -36 1011 99 0 0.86 85 06:43 16.01.2020
702 Clouds -36 1011 99 0 0.86 85 06:21 16.01.2020
703 Clouds -36 1011 99 0 0.86 85 05:45 16.01.2020
704 Clear -36 1011 99 0 0.75 76 04:37 16.01.2020
705 Clear -36 1011 99 0 0.75 76 03:28 16.01.2020
706 Clear -36 1011 99 0 0.75 76 02:43 16.01.2020
707 Clear -37 1013 100 0 0.72 88 00:54 16.01.2020
708 Clear -37 1013 100 0 0.72 88 00:24 16.01.2020
709 Clear -37 1013 100 0 0.72 88 23:51 15.01.2020
710 Clear -37 1013 100 0 0.72 88 23:23 15.01.2020
711 Clear -37 1013 99 0 0.58 72 22:59 15.01.2020
712 Clear -37 1013 99 0 0.58 72 22:41 15.01.2020
713 Clear -37 1013 99 0 0.58 72 22:20 15.01.2020
714 Clear -37 1013 99 0 0.58 72 21:59 15.01.2020
715 Clear -37 1013 99 0 0.58 72 21:40 15.01.2020
716 Clear -37 1013 99 0 0.58 72 21:22 15.01.2020
717 Clear -37 1013 99 0 0.58 72 20:58 15.01.2020
718 Clear -37 1013 99 0 0.58 72 20:40 15.01.2020
719 Clear -37 1014 100 0 0.42 72 20:22 15.01.2020
720 Clear -37 1015 100 0 0.65 71 19:57 15.01.2020
721 Clear -37 1015 100 0 0.65 71 19:38 15.01.2020
722 Clear -37 1015 100 0 0.65 71 19:20 15.01.2020
723 Clear -37 1015 100 0 0.65 71 18:57 15.01.2020
724 Clear -37 1015 100 0 0.65 71 18:38 15.01.2020
725 Clear -37 1015 100 0 0.65 71 18:20 15.01.2020
726 Clear -37 1015 100 0 0.65 71 17:58 15.01.2020
727 Clear -37 1015 100 0 0.65 71 17:40 15.01.2020
728 Clear -37 1016 99 0 0.75 84 17:21 15.01.2020
729 Clear -37 1016 99 0 0.75 84 16:55 15.01.2020
730 Clear -37 1016 99 0 0.75 84 16:55 15.01.2020
731 Clear -37 1016 99 0 0.75 84 16:36 15.01.2020
732 Clear -37 1016 99 0 0.75 84 16:18 15.01.2020
733 Clear -37 1016 99 0 0.75 84 15:42 15.01.2020
734 Clear -37 1016 99 0 0.75 84 15:20 15.01.2020
735 Clear -37 1016 99 0 0.75 84 14:55 15.01.2020
736 Clear -37 1016 99 0 0.75 84 14:37 15.01.2020
737 Clear -36 1018 99 0 0.83 86 14:18 15.01.2020
738 Clear -36 1018 99 0 0.83 86 13:41 15.01.2020
739 Clear -37 1018 98 0 0.81 87 13:23 15.01.2020
740 Clear -37 1018 98 0 0.81 87 12:55 15.01.2020
741 Clear -37 1018 98 0 0.81 87 12:55 15.01.2020
742 Clear -37 1018 98 0 0.81 87 12:37 15.01.2020
743 Clear -37 1018 98 0 0.81 87 12:18 15.01.2020
744 Clear -37 1018 98 0 0.81 87 11:38 15.01.2020
745 Clear -37 1019 97 0 0.89 85 11:20 15.01.2020
746 Clear -37 1019 97 0 0.89 85 10:58 15.01.2020
747 Clear -37 1019 97 0 0.89 85 10:40 15.01.2020
748 Clear -37 1019 97 0 0.89 85 10:21 15.01.2020
749 Clear -37 1019 97 0 0.89 85 09:41 15.01.2020
750 Clear -37 1019 97 0 0.89 85 09:21 15.01.2020
751 Clear -37 1019 97 0 0.89 85 08:45 15.01.2020
752 Clear -37 1019 97 0 0.89 85 08:26 15.01.2020
753 Clear -36 1021 99 0 0.6 89 07:56 15.01.2020
754 Clear -36 1021 99 0 0.6 89 07:33 15.01.2020
755 Clear -36 1021 99 0 0.6 89 06:57 15.01.2020
756 Clear -36 1021 99 0 0.6 89 06:57 15.01.2020
757 Clear -36 1021 99 0 0.6 89 06:38 15.01.2020
758 Clear -36 1021 99 0 0.6 89 05:43 15.01.2020
759 Clear -36 1021 99 0 0.92 95 03:35 15.01.2020
760 Clouds -36 1022 99 0 0.75 102 01:49 15.01.2020
761 Clouds -36 1022 99 0 0.71 101 01:22 15.01.2020
762 Clouds -36 1022 99 0 0.71 101 00:38 15.01.2020
763 Clouds -36 1022 99 0 0.71 101 00:20 15.01.2020
764 Clouds -36 1022 99 0 0.71 101 23:47 14.01.2020
765 Clouds -36 1022 99 0 0.71 101 23:28 14.01.2020
766 Clouds -35 1022 99 0 0.69 93 22:58 14.01.2020
767 Clouds -35 1022 99 0 0.69 93 22:40 14.01.2020
768 Clouds -35 1022 99 0 0.69 93 22:19 14.01.2020
769 Clouds -35 1022 99 0 0.69 93 21:58 14.01.2020
770 Clouds -35 1022 99 0 0.69 93 21:39 14.01.2020
771 Clouds -35 1022 99 0 0.69 93 21:19 14.01.2020
772 Clouds -35 1022 99 0 0.69 93 20:56 14.01.2020
773 Clouds -35 1022 99 0 0.69 93 20:38 14.01.2020
774 Clouds -34 1023 100 0 0.76 89 20:18 14.01.2020
775 Clouds -34 1023 100 0 0.76 89 19:55 14.01.2020
776 Clouds -34 1023 100 0 0.76 89 19:37 14.01.2020
777 Clouds -34 1023 100 0 0.76 89 19:18 14.01.2020
778 Clouds -34 1023 100 0 0.76 89 18:41 14.01.2020
779 Clouds -34 1023 100 0 0.76 89 18:20 14.01.2020
780 Clouds -34 1023 100 0 0.76 89 17:58 14.01.2020
781 Clouds -34 1023 100 0 0.76 89 17:37 14.01.2020
782 Clouds -34 1023 100 0 0.74 94 17:18 14.01.2020
783 Clouds -34 1023 100 0 0.74 94 16:44 14.01.2020
784 Clouds -34 1023 100 0 0.74 94 16:23 14.01.2020
785 Clouds -34 1023 100 0 0.74 94 15:58 14.01.2020
786 Clouds -34 1023 100 0 0.74 94 15:40 14.01.2020
787 Clouds -34 1023 100 0 0.74 94 15:19 14.01.2020
788 Clouds -34 1023 100 0 0.74 94 14:45 14.01.2020
789 Clouds -34 1023 99 0 0.8 92 14:21 14.01.2020
790 Clouds -34 1023 99 0 0.8 92 13:58 14.01.2020
791 Clouds -34 1023 99 0 0.8 92 13:39 14.01.2020
792 Clouds -34 1023 99 0 0.8 92 13:19 14.01.2020
793 Clouds -33 1023 99 0 0.8 91 13:19 14.01.2020
794 Clouds -33 1023 99 0 0.8 91 12:42 14.01.2020
795 Clouds -33 1023 99 0 0.8 91 12:23 14.01.2020
796 Clouds -33 1023 99 0 0.8 91 11:57 14.01.2020
797 Clouds -33 1023 99 0 0.8 91 11:38 14.01.2020
798 Clouds -32 1022 94 0 0.78 75 11:20 14.01.2020
799 Clouds -32 1022 94 0 0.78 75 10:55 14.01.2020
800 Clouds -32 1022 94 0 0.78 75 10:36 14.01.2020
801 Clouds -32 1022 94 0 0.78 75 10:18 14.01.2020
802 Clouds -32 1022 94 0 0.78 75 10:18 14.01.2020
803 Clouds -32 1022 94 0 0.78 75 09:42 14.01.2020
804 Clouds -32 1022 94 0 0.78 75 09:22 14.01.2020
805 Clouds -32 1022 94 0 0.78 75 08:58 14.01.2020
806 Clouds -32 1022 94 0 0.78 75 08:39 14.01.2020
807 Clouds -34 1021 89 0 0.66 86 08:20 14.01.2020
808 Clouds -34 1021 89 0 0.66 86 07:40 14.01.2020
809 Clouds -34 1021 89 0 0.66 86 07:18 14.01.2020
810 Clouds -34 1021 89 0 0.66 86 06:42 14.01.2020
811 Clouds -34 1021 89 0 0.66 86 05:57 14.01.2020
812 Clouds -34 1019 83 0 0.62 78 04:49 14.01.2020
813 Clouds -34 1019 83 0 0.62 78 03:45 14.01.2020
814 Clouds -34 1019 83 0 0.62 78 02:32 14.01.2020
815 Clouds -33 1018 80 0 1.02 80 01:19 14.01.2020
816 Clouds -33 1018 80 0 1.02 80 00:47 14.01.2020
817 Clouds -33 1018 80 0 1.02 80 00:21 14.01.2020
818 Clouds -33 1018 80 0 1.02 80 23:44 13.01.2020
819 Clouds -32 1017 79 0 1.06 65 23:19 13.01.2020
820 Clouds -32 1017 79 0 1.06 65 22:57 13.01.2020
821 Clouds -32 1017 79 0 1.06 65 22:39 13.01.2020
822 Clouds -32 1017 79 0 1.06 65 22:19 13.01.2020
823 Clouds -32 1017 79 0 1.06 65 21:55 13.01.2020
824 Clouds -32 1017 79 0 1.06 65 21:36 13.01.2020
825 Clouds -32 1017 79 0 1.06 65 21:18 13.01.2020
826 Clouds -32 1017 79 0 1.06 65 20:56 13.01.2020
827 Clouds -32 1017 79 0 1.06 65 20:37 13.01.2020
828 Clouds -32 1016 82 0 1.13 71 20:19 13.01.2020
829 Clouds -32 1016 82 0 1.13 71 19:41 13.01.2020
830 Clouds -32 1016 82 0 1.13 71 19:21 13.01.2020
831 Clouds -32 1016 82 0 1.13 71 18:58 13.01.2020
832 Clouds -32 1016 82 0 1.13 71 18:38 13.01.2020
833 Clouds -32 1016 82 0 1.13 71 18:19 13.01.2020
834 Clouds -32 1016 82 0 1.13 71 18:19 13.01.2020
835 Clouds -32 1016 82 0 1.13 71 17:58 13.01.2020
836 Clouds -32 1016 82 0 1.13 71 17:39 13.01.2020
837 Clouds -34 1015 81 0 1.25 73 17:20 13.01.2020
838 Clouds -34 1015 81 0 1.25 73 16:43 13.01.2020
839 Clouds -34 1015 81 0 1.25 73 16:24 13.01.2020
840 Clouds -34 1015 81 0 1.25 73 15:59 13.01.2020
841 Clouds -34 1015 81 0 1.25 73 15:41 13.01.2020
842 Clouds -34 1015 81 0 1.25 73 15:21 13.01.2020
843 Clouds -34 1015 81 0 1.25 73 14:54 13.01.2020
844 Clouds -34 1015 81 0 1.25 73 14:36 13.01.2020
845 Clouds -35 1015 82 0 1.23 80 14:18 13.01.2020
846 Clouds -35 1015 82 0 1.23 80 13:40 13.01.2020
847 Clouds -35 1015 83 0 1.18 79 13:22 13.01.2020
848 Clouds -35 1015 83 0 1.18 79 12:58 13.01.2020
849 Clouds -35 1015 83 0 1.18 79 12:40 13.01.2020
850 Clouds -35 1015 83 0 1.18 79 12:21 13.01.2020
851 Clouds -35 1015 83 0 1.18 79 11:54 13.01.2020
852 Clouds -35 1015 83 0 1.18 79 11:36 13.01.2020
853 Clouds -37 1015 86 0 1.13 85 11:18 13.01.2020
854 Clouds -37 1015 86 0 1.13 85 11:18 13.01.2020
855 Clouds -37 1015 86 0 1.13 85 11:18 13.01.2020
856 Clouds -37 1015 86 0 1.13 85 10:55 13.01.2020
857 Clouds -37 1015 86 0 1.13 85 10:36 13.01.2020
858 Clouds -37 1015 86 0 1.13 85 10:18 13.01.2020
859 Clouds -37 1015 86 0 1.13 85 09:40 13.01.2020
860 Clouds -37 1015 86 0 1.13 85 09:40 13.01.2020
861 Clouds -37 1015 86 0 1.13 85 09:22 13.01.2020
862 Clouds -37 1015 86 0 1.13 85 08:42 13.01.2020
863 Clear -38 1015 90 0 1.08 84 08:21 13.01.2020
864 Clear -38 1015 90 0 1.08 84 07:54 13.01.2020
865 Clear -38 1015 90 0 1.08 84 07:35 13.01.2020
866 Clear -38 1015 90 0 1.08 84 06:51 13.01.2020
867 Clear -38 1015 90 0 1.08 84 06:22 13.01.2020
868 Clear -38 1015 90 0 1.08 84 05:36 13.01.2020
869 Clear -39 1015 90 0 0.95 86 04:25 13.01.2020
870 Clear -39 1015 90 0 0.95 86 03:31 13.01.2020
871 Clear -39 1015 90 0 0.95 86 02:47 13.01.2020
872 Clear -39 1015 90 0 0.95 86 02:29 13.01.2020
873 Clear -39 1016 89 0 0.96 92 01:23 13.01.2020
874 Clear -39 1016 90 0 0.94 93 00:42 13.01.2020
875 Clear -39 1016 90 0 0.94 93 00:24 13.01.2020
876 Clear -39 1016 90 0 0.94 93 23:56 12.01.2020
877 Clear -39 1016 90 0 0.94 93 23:37 12.01.2020
878 Clear -39 1017 87 0 0.91 97 23:19 12.01.2020
879 Clear -39 1017 87 0 0.91 97 22:42 12.01.2020
880 Clear -39 1017 87 0 0.91 97 22:24 12.01.2020
881 Clear -39 1017 87 0 0.91 97 21:57 12.01.2020
882 Clear -39 1017 87 0 0.91 97 21:39 12.01.2020
883 Clear -39 1017 87 0 0.91 97 21:39 12.01.2020
884 Clear -39 1017 87 0 0.91 97 21:20 12.01.2020
885 Clear -39 1017 87 0 0.91 97 20:57 12.01.2020
886 Clear -39 1017 87 0 0.91 97 20:39 12.01.2020
887 Clear -39 1017 85 0 0.92 124 20:20 12.01.2020
888 Clear -39 1017 85 0 0.92 124 19:56 12.01.2020
889 Clear -39 1017 85 0 0.92 124 19:38 12.01.2020
890 Clear -39 1017 85 0 0.92 124 19:19 12.01.2020
891 Clear -39 1017 85 0 0.92 124 18:57 12.01.2020
892 Clear -39 1017 85 0 0.92 124 18:57 12.01.2020
893 Clear -39 1017 85 0 0.92 124 18:39 12.01.2020
894 Clear -39 1017 85 0 0.92 124 18:21 12.01.2020
895 Clear -39 1017 85 0 0.92 124 17:57 12.01.2020
896 Clear -39 1017 85 0 0.92 124 17:38 12.01.2020
897 Clear -39 1017 85 0 0.96 143 17:19 12.01.2020
898 Clear -39 1017 85 0 0.96 143 16:55 12.01.2020
899 Clear -39 1017 85 0 0.96 143 16:37 12.01.2020
900 Clear -39 1017 85 0 0.96 143 16:18 12.01.2020
901 Clear -39 1017 85 0 0.96 143 15:42 12.01.2020
902 Clear -39 1017 85 0 0.96 143 15:24 12.01.2020
903 Clear -39 1017 85 0 0.96 143 14:57 12.01.2020
904 Clear -39 1017 85 0 0.96 143 14:38 12.01.2020
905 Clear -39 1018 86 0 1.05 179 14:19 12.01.2020
906 Clear -39 1018 86 0 1.05 179 13:44 12.01.2020
907 Clear -39 1018 86 0 1.05 179 13:25 12.01.2020
908 Clear -39 1018 85 0 1.06 178 12:59 12.01.2020
909 Clear -39 1018 85 0 1.06 178 12:39 12.01.2020
910 Clear -39 1018 85 0 1.06 178 12:20 12.01.2020
911 Clear -39 1018 85 0 1.06 178 11:58 12.01.2020
912 Clear -39 1018 85 0 1.06 178 11:39 12.01.2020
913 Clear -39 1018 87 0 1.12 190 11:20 12.01.2020
914 Clear -39 1018 87 0 1.12 190 10:41 12.01.2020
915 Clear -39 1018 87 0 1.12 190 10:22 12.01.2020
916 Clear -39 1018 87 0 1.12 190 09:57 12.01.2020
917 Clear -39 1018 87 0 1.12 190 09:39 12.01.2020
918 Clear -39 1018 87 0 1.12 190 09:20 12.01.2020
919 Clear -39 1018 87 0 1.12 190 08:45 12.01.2020
920 Clear -39 1017 91 0 1 198 08:21 12.01.2020
921 Clear -39 1017 91 0 1.04 192 07:42 12.01.2020
922 Clear -39 1017 91 0 1.04 192 07:24 12.01.2020
923 Clear -39 1017 91 0 1.04 192 06:49 12.01.2020
924 Clear -39 1017 91 0 1.04 192 06:30 12.01.2020
925 Clear -39 1017 91 0 1.04 192 05:37 12.01.2020
926 Clear -38 1016 91 0 1.12 203 04:51 12.01.2020
927 Clear -38 1016 91 0 1.12 203 03:27 12.01.2020
928 Clear -38 1016 91 0 1.12 203 02:34 12.01.2020
929 Clear -38 1015 94 0 0.97 206 01:58 12.01.2020
930 Clear -38 1015 96 0 0.93 212 01:30 12.01.2020
931 Clear -38 1015 96 0 0.93 212 00:44 12.01.2020
932 Clear -38 1015 96 0 0.93 212 00:21 12.01.2020
933 Clear -38 1015 96 0 0.93 212 23:56 11.01.2020
934 Clear -38 1015 96 0 0.93 212 23:37 11.01.2020
935 Clear -38 1014 96 0 0.46 235 23:18 11.01.2020
936 Clear -38 1014 96 0 0.46 235 22:55 11.01.2020
937 Clear -38 1014 96 0 0.46 235 22:37 11.01.2020
938 Clear -38 1014 96 0 0.46 235 22:18 11.01.2020
939 Clear -38 1014 96 0 0.46 235 21:42 11.01.2020
940 Clear -38 1014 96 0 0.46 235 21:18 11.01.2020
941 Clear -38 1014 96 0 0.46 235 20:55 11.01.2020
942 Clear -38 1014 96 0 0.46 235 20:37 11.01.2020
943 Clear -38 1013 96 0 0.48 151 20:19 11.01.2020
944 Clear -38 1013 96 0 0.48 151 19:55 11.01.2020
945 Clear -38 1013 96 0 0.48 151 19:37 11.01.2020
946 Clear -38 1013 96 0 0.48 151 19:19 11.01.2020
947 Clear -38 1013 96 0 0.48 151 18:55 11.01.2020
948 Clear -38 1013 96 0 0.48 151 18:36 11.01.2020
949 Clear -38 1013 96 0 0.48 151 18:18 11.01.2020
950 Clear -38 1013 96 0 0.48 151 17:55 11.01.2020
951 Clear -38 1013 96 0 0.48 151 17:36 11.01.2020
952 Clear -38 1013 95 0 0.19 101 17:18 11.01.2020
953 Clear -38 1013 95 0 0.19 101 17:18 11.01.2020
954 Clear -38 1013 95 0 0.19 101 16:43 11.01.2020
955 Clear -38 1013 95 0 0.19 101 16:23 11.01.2020
956 Clear -38 1013 95 0 0.19 101 15:43 11.01.2020
957 Clear -38 1013 95 0 0.19 101 15:24 11.01.2020
958 Clear -38 1013 95 0 0.19 101 14:59 11.01.2020
959 Clear -38 1013 95 0 0.19 101 14:41 11.01.2020
960 Clear -38 1013 95 0 0.19 101 14:22 11.01.2020
961 Clouds -37 1012 93 0 0.77 86 13:55 11.01.2020
962 Clouds -37 1012 93 0 0.77 86 13:37 11.01.2020
963 Clouds -37 1012 92 0 0.77 82 13:19 11.01.2020
964 Clouds -37 1012 92 0 0.77 82 12:44 11.01.2020
965 Clouds -37 1012 92 0 0.77 82 12:26 11.01.2020
966 Clouds -37 1012 92 0 0.77 82 11:56 11.01.2020
967 Clouds -37 1012 92 0 0.77 82 11:37 11.01.2020
968 Clouds -37 1013 88 0 0.89 85 11:18 11.01.2020
969 Clouds -37 1013 88 0 0.89 85 10:44 11.01.2020
970 Clouds -37 1013 88 0 0.89 85 10:24 11.01.2020
971 Clouds -37 1013 88 0 0.89 85 09:42 11.01.2020
972 Clouds -37 1013 88 0 0.89 85 09:21 11.01.2020
973 Clouds -37 1013 88 0 0.89 85 08:43 11.01.2020
974 Clouds -36 1012 100 0 1.02 83 08:23 11.01.2020
975 Clouds -35 1012 100 0 1.14 84 07:45 11.01.2020
976 Clouds -35 1012 100 0 1.14 84 07:27 11.01.2020
977 Clouds -35 1012 100 0 1.14 84 06:57 11.01.2020
978 Clouds -35 1012 100 0 1.14 84 06:37 11.01.2020
979 Clouds -35 1013 99 0 0.85 100 05:18 11.01.2020
980 Clouds -35 1013 99 0 0.85 100 04:37 11.01.2020
981 Clouds -35 1013 99 0 0.85 100 04:19 11.01.2020
982 Clouds -35 1013 99 0 0.85 100 02:45 11.01.2020
983 Clouds -34 1014 99 0 0.9 101 01:45 11.01.2020
984 Clouds -34 1014 98 0 0.96 101 01:22 11.01.2020
985 Clouds -34 1014 98 0 0.96 101 00:51 11.01.2020
986 Clouds -34 1014 98 0 0.96 101 00:21 11.01.2020
987 Clouds -34 1014 98 0 0.96 101 23:56 10.01.2020
988 Clouds -34 1014 98 0 0.96 101 23:38 10.01.2020
989 Clouds -33 1015 98 0 0.7 96 23:20 10.01.2020
990 Clouds -33 1015 98 0 0.7 96 22:41 10.01.2020
991 Clouds -33 1015 98 0 0.7 96 22:22 10.01.2020
992 Clouds -33 1015 98 0 0.7 96 21:58 10.01.2020
993 Clouds -33 1015 98 0 0.7 96 21:40 10.01.2020
994 Clouds -33 1015 98 0 0.7 96 21:40 10.01.2020
995 Clouds -33 1015 98 0 0.7 96 21:20 10.01.2020
996 Clouds -33 1015 98 0 0.7 96 21:20 10.01.2020
997 Clouds -33 1015 98 0 0.7 96 20:57 10.01.2020
998 Clouds -33 1015 98 0 0.7 96 20:38 10.01.2020
999 Clouds -31 1015 99 0 0.66 97 20:19 10.01.2020
1000 Clouds -31 1015 99 0 0.66 97 19:40 10.01.2020
1001 Clouds -31 1015 99 0 0.66 97 19:21 10.01.2020
1002 Clouds -31 1015 99 0 0.66 97 18:55 10.01.2020
1003 Clouds -31 1015 99 0 0.66 97 18:37 10.01.2020
1004 Clouds -31 1015 99 0 0.66 97 18:18 10.01.2020
1005 Clouds -31 1015 99 0 0.66 97 17:56 10.01.2020
1006 Clouds -31 1015 99 0 0.66 97 17:38 10.01.2020
1007 Clouds -31 1015 99 0 0.66 97 17:38 10.01.2020
1008 Clouds -28 1015 95 0 0.57 83 17:19 10.01.2020
1009 Clouds -28 1015 95 0 0.57 83 16:43 10.01.2020
1010 Clouds -28 1015 95 0 0.57 83 16:21 10.01.2020
1011 Clouds -28 1015 95 0 0.57 83 15:58 10.01.2020
1012 Clouds -28 1015 95 0 0.57 83 15:39 10.01.2020
1013 Clouds -28 1015 95 0 0.57 83 15:20 10.01.2020
1014 Clouds -28 1015 95 0 0.57 83 14:59 10.01.2020
1015 Clouds -28 1015 95 0 0.57 83 14:40 10.01.2020
1016 Clouds -28 1016 94 0 0.78 77 14:20 10.01.2020
1017 Clouds -28 1016 94 0 0.78 77 13:58 10.01.2020
1018 Clouds -28 1016 94 0 0.78 77 13:39 10.01.2020
1019 Clouds -28 1016 94 0 0.78 77 13:21 10.01.2020
1020 Clouds -28 1016 95 0 0.88 73 12:57 10.01.2020
1021 Clouds -28 1016 95 0 0.88 73 12:38 10.01.2020
1022 Clouds -28 1016 95 0 0.88 73 12:18 10.01.2020
1023 Clouds -28 1016 95 0 0.88 73 11:54 10.01.2020
1024 Clouds -28 1016 95 0 0.88 73 11:36 10.01.2020
1025 Clouds -27 1016 93 0 0.89 69 11:18 10.01.2020
1026 Clouds -27 1016 93 0 0.89 69 10:39 10.01.2020
1027 Clouds -27 1016 93 0 0.89 69 10:21 10.01.2020
1028 Clouds -27 1016 93 0 0.89 69 09:56 10.01.2020
1029 Clouds -27 1016 93 0 0.89 69 09:37 10.01.2020
1030 Clouds -27 1016 93 0 0.89 69 09:19 10.01.2020
1031 Clouds -27 1016 93 0 0.89 69 08:41 10.01.2020
1032 Clouds -28 1016 94 0 0.86 75 08:22 10.01.2020
1033 Clouds -30 1016 98 0 0.78 91 07:44 10.01.2020
1034 Clouds -30 1016 98 0 0.78 91 07:24 10.01.2020
1035 Clouds -30 1016 98 0 0.78 91 06:46 10.01.2020
1036 Clouds -30 1016 98 0 0.78 91 06:26 10.01.2020
1037 Clouds -30 1016 98 0 0.78 91 05:48 10.01.2020
1038 Clouds -31 1017 99 0 0.59 102 03:37 10.01.2020
1039 Clouds -31 1017 99 0 0.59 102 03:18 10.01.2020
1040 Clouds -31 1017 99 0 0.59 102 02:47 10.01.2020
1041 Clouds -30 1017 100 0 0.65 101 01:44 10.01.2020
1042 Clouds -30 1017 100 0 0.65 101 01:26 10.01.2020
1043 Clouds -31 1017 100 0 0.55 100 00:40 10.01.2020
1044 Clouds -31 1017 100 0 0.55 100 23:58 09.01.2020
1045 Clouds -31 1017 100 0 0.55 100 23:39 09.01.2020
1046 Clouds -30 1017 100 0 0.63 107 23:20 09.01.2020
1047 Clouds -30 1017 100 0 0.63 107 22:57 09.01.2020
1048 Clouds -30 1017 100 0 0.63 107 22:39 09.01.2020
1049 Clouds -30 1017 100 0 0.63 107 22:19 09.01.2020
1050 Clouds -30 1017 100 0 0.63 107 22:19 09.01.2020
1051 Clouds -30 1017 100 0 0.63 107 21:57 09.01.2020
1052 Clouds -30 1017 100 0 0.63 107 21:38 09.01.2020
1053 Clouds -30 1017 100 0 0.63 107 21:38 09.01.2020
1054 Clouds -30 1017 100 0 0.63 107 21:19 09.01.2020
1055 Clouds -30 1017 100 0 0.63 107 20:57 09.01.2020
1056 Clouds -30 1017 100 0 0.63 107 20:39 09.01.2020
1057 Clouds -29 1018 100 0 0.6 97 20:20 09.01.2020
1058 Clouds -29 1018 100 0 0.6 97 20:20 09.01.2020
1059 Clouds -29 1018 100 0 0.6 97 19:58 09.01.2020
1060 Clouds -29 1018 100 0 0.6 97 19:38 09.01.2020
1061 Clouds -29 1018 100 0 0.6 97 19:19 09.01.2020
1062 Clouds -29 1018 100 0 0.6 97 18:55 09.01.2020
1063 Clouds -29 1018 100 0 0.6 97 18:55 09.01.2020
1064 Clouds -29 1018 100 0 0.6 97 18:37 09.01.2020
1065 Clouds -29 1018 100 0 0.6 97 18:19 09.01.2020
1066 Clouds -29 1018 100 0 0.6 97 17:41 09.01.2020
1067 Clouds -29 1018 100 0 0.6 97 17:41 09.01.2020
1068 Clouds -28 1018 100 0 0.83 105 17:18 09.01.2020
1069 Clouds -28 1018 100 0 0.83 105 16:56 09.01.2020
1070 Clouds -28 1018 100 0 0.83 105 16:36 09.01.2020
1071 Clouds -28 1018 100 0 0.83 105 16:18 09.01.2020
1072 Clouds -28 1018 100 0 0.83 105 15:41 09.01.2020
1073 Clouds -28 1018 100 0 0.83 105 15:20 09.01.2020
1074 Clouds -28 1018 100 0 0.83 105 14:55 09.01.2020
1075 Clouds -28 1018 100 0 0.83 105 14:36 09.01.2020
1076 Clouds -27 1018 100 0 0.73 102 14:18 09.01.2020
1077 Clouds -27 1018 100 0 0.73 102 13:54 09.01.2020
1078 Clouds -27 1018 100 0 0.73 102 13:36 09.01.2020
1079 Clouds -27 1018 99 0 0.77 103 13:18 09.01.2020
1080 Clouds -27 1018 99 0 0.77 103 12:42 09.01.2020
1081 Clouds -27 1018 99 0 0.77 103 12:23 09.01.2020
1082 Clouds -27 1018 99 0 0.77 103 11:59 09.01.2020
1083 Clouds -27 1018 99 0 0.77 103 11:41 09.01.2020
1084 Clouds -27 1018 99 0 0.77 103 11:22 09.01.2020
1085 Clouds -26 1018 99 0 0.66 98 10:56 09.01.2020
1086 Clouds -26 1018 99 0 0.66 98 10:37 09.01.2020
1087 Clouds -26 1018 99 0 0.66 98 10:19 09.01.2020
1088 Clouds -26 1018 99 0 0.66 98 10:19 09.01.2020
1089 Clouds -26 1018 99 0 0.66 98 09:41 09.01.2020
1090 Clouds -26 1018 99 0 0.66 98 09:22 09.01.2020
1091 Clouds -26 1018 99 0 0.66 98 08:56 09.01.2020
1092 Clouds -26 1018 99 0 0.66 98 08:38 09.01.2020
1093 Clouds -26 1017 99 0 0.88 94 08:19 09.01.2020
1094 Clouds -27 1017 100 0 0.86 102 07:45 09.01.2020
1095 Clouds -27 1017 100 0 0.86 102 07:27 09.01.2020
1096 Clouds -27 1017 100 0 0.86 102 06:39 09.01.2020
1097 Clouds -27 1017 100 0 0.86 102 06:21 09.01.2020
1098 Clouds -27 1017 100 0 0.86 102 05:50 09.01.2020
1099 Clouds -27 1017 100 0 0.96 82 04:46 09.01.2020
1100 Clouds -27 1017 100 0 0.96 82 03:55 09.01.2020
1101 Clouds -27 1017 100 0 0.96 82 03:26 09.01.2020
1102 Clouds -27 1017 100 0 0.96 82 02:33 09.01.2020
1103 Clouds -25 1016 98 0 0.88 83 01:41 09.01.2020
1104 Clouds -25 1016 98 0 0.87 86 00:56 09.01.2020
1105 Clouds -25 1016 98 0 0.87 86 00:36 09.01.2020
1106 Clouds -25 1016 98 0 0.87 86 00:18 09.01.2020
1107 Clouds -25 1016 98 0 0.87 86 23:38 08.01.2020
1108 Snow -25 1015 99 0 1.02 76 23:20 08.01.2020
1109 Snow -25 1015 99 0 1.02 76 22:40 08.01.2020
1110 Snow -25 1015 99 0 1.02 76 22:21 08.01.2020
1111 Snow -25 1015 99 0 1.02 76 21:58 08.01.2020
1112 Snow -25 1015 99 0 1.02 76 21:40 08.01.2020
1113 Snow -25 1015 99 0 1.02 76 21:40 08.01.2020
1114 Snow -25 1015 99 0 1.02 76 21:20 08.01.2020
1115 Snow -25 1015 99 0 1.02 76 20:59 08.01.2020
1116 Snow -25 1015 99 0 1.02 76 20:40 08.01.2020
1117 Clouds -25 1014 97 0 0.97 68 20:20 08.01.2020
1118 Clouds -25 1014 97 0 0.97 68 19:58 08.01.2020
1119 Clouds -25 1014 97 0 0.97 68 19:38 08.01.2020
1120 Clouds -25 1014 97 0 0.97 68 19:19 08.01.2020
1121 Clouds -25 1014 97 0 0.97 68 18:57 08.01.2020
1122 Clouds -25 1014 97 0 0.97 68 18:38 08.01.2020
1123 Clouds -25 1014 97 0 0.97 68 18:19 08.01.2020
1124 Clouds -25 1014 97 0 0.97 68 17:56 08.01.2020
1125 Clouds -25 1014 97 0 0.97 68 17:38 08.01.2020
1126 Clouds -26 1014 97 0 1.06 68 17:19 08.01.2020
1127 Clouds -26 1014 97 0 1.06 68 16:55 08.01.2020
1128 Clouds -26 1014 97 0 1.06 68 16:37 08.01.2020
1129 Clouds -26 1014 97 0 1.06 68 16:18 08.01.2020
1130 Clouds -26 1014 97 0 1.06 68 15:44 08.01.2020
1131 Clouds -26 1014 97 0 1.06 68 15:44 08.01.2020
1132 Clouds -26 1014 97 0 1.06 68 15:21 08.01.2020
1133 Clouds -26 1014 97 0 1.06 68 14:58 08.01.2020
1134 Clouds -26 1014 97 0 1.06 68 14:40 08.01.2020
1135 Clouds -27 1014 95 0 0.84 69 14:21 08.01.2020
1136 Clouds -27 1014 95 0 0.84 69 13:41 08.01.2020
1137 Clouds -27 1014 95 0 0.84 69 13:21 08.01.2020
1138 Clouds -27 1014 95 0 0.84 69 13:21 08.01.2020
1139 Clouds -27 1014 94 0 0.87 69 12:55 08.01.2020
1140 Clouds -27 1014 94 0 0.87 69 12:36 08.01.2020
1141 Clouds -27 1014 94 0 0.87 69 12:18 08.01.2020
1142 Clouds -27 1014 94 0 0.87 69 11:47 08.01.2020
1143 Clouds -28 1014 90 0 0.81 87 11:19 08.01.2020
1144 Clouds -28 1014 90 0 0.81 87 11:19 08.01.2020
1145 Clouds -28 1014 90 0 0.81 87 10:58 08.01.2020
1146 Clouds -28 1014 90 0 0.81 87 10:40 08.01.2020
1147 Clouds -28 1014 90 0 0.81 87 10:40 08.01.2020
1148 Clouds -28 1014 90 0 0.81 87 10:20 08.01.2020
1149 Clouds -28 1014 90 0 0.81 87 09:43 08.01.2020
1150 Clouds -28 1014 90 0 0.81 87 09:20 08.01.2020
1151 Clouds -28 1014 90 0 0.81 87 08:58 08.01.2020
1152 Clouds -28 1014 90 0 0.81 87 08:40 08.01.2020
1153 Clouds -30 1014 88 0 0.57 150 08:21 08.01.2020
1154 Clouds -30 1014 88 0 0.57 150 07:52 08.01.2020
1155 Clouds -30 1014 88 0 0.57 150 07:33 08.01.2020
1156 Clouds -30 1014 88 0 0.57 150 06:58 08.01.2020
1157 Clouds -30 1014 88 0 0.57 150 06:40 08.01.2020
1158 Clouds -30 1014 88 0 0.57 150 05:55 08.01.2020
1159 Clouds -30 1014 88 0 0.57 150 05:25 08.01.2020
1160 Clouds -30 1014 87 0 0.56 212 04:36 08.01.2020
1161 Clouds -30 1014 87 0 0.56 212 02:46 08.01.2020
1162 Clouds -30 1014 87 0 0.56 212 02:28 08.01.2020
1163 Clouds -30 1014 85 0 0.7 223 01:55 08.01.2020
1164 Clouds -30 1014 85 0 0.7 223 01:30 08.01.2020
1165 Clouds -29 1013 85 0 0.65 229 00:51 08.01.2020
1166 Clouds -29 1013 85 0 0.65 229 00:22 08.01.2020
1167 Clouds -29 1013 85 0 0.65 229 23:46 07.01.2020
1168 Clouds -28 1012 83 0 0.83 209 23:21 07.01.2020
1169 Clouds -28 1012 83 0 0.83 209 23:21 07.01.2020
1170 Clouds -28 1012 83 0 0.83 209 22:41 07.01.2020
1171 Clouds -28 1012 83 0 0.83 209 22:21 07.01.2020
1172 Clouds -28 1012 83 0 0.83 209 21:59 07.01.2020
1173 Clouds -28 1012 83 0 0.83 209 21:41 07.01.2020
1174 Clouds -28 1012 83 0 0.83 209 21:21 07.01.2020
1175 Clouds -28 1012 83 0 0.83 209 20:58 07.01.2020
1176 Clouds -28 1012 83 0 0.83 209 20:39 07.01.2020
1177 Clouds -29 1012 85 0 1.04 218 20:21 07.01.2020
1178 Clouds -27 1012 87 0 0.98 224 19:57 07.01.2020
1179 Clouds -27 1012 87 0 0.98 224 19:37 07.01.2020
1180 Clouds -27 1012 87 0 0.98 224 19:19 07.01.2020
1181 Clouds -27 1012 87 0 0.98 224 18:56 07.01.2020
1182 Clouds -27 1012 87 0 0.98 224 18:37 07.01.2020
1183 Clouds -27 1012 87 0 0.98 224 18:18 07.01.2020
1184 Clouds -27 1012 87 0 0.98 224 17:54 07.01.2020
1185 Clouds -27 1012 87 0 0.98 224 17:36 07.01.2020
1186 Clouds -27 1012 88 0 0.78 251 17:18 07.01.2020
1187 Clouds -27 1012 88 0 0.78 251 16:54 07.01.2020
1188 Clouds -27 1012 88 0 0.78 251 16:36 07.01.2020
1189 Clouds -27 1012 88 0 0.78 251 16:18 07.01.2020
1190 Clouds -27 1012 88 0 0.78 251 15:42 07.01.2020
1191 -273 0 0 0 0 0 15:23 07.01.2020
1192 Clouds -27 1012 88 0 0.78 251 14:58 07.01.2020
1193 Clouds -27 1012 88 0 0.78 251 14:38 07.01.2020
1194 Clouds -27 1012 87 0 0.67 275 14:19 07.01.2020
1195 Clouds -27 1012 87 0 0.67 275 13:46 07.01.2020
1196 Clouds -26 1012 88 0 0.53 264 13:21 07.01.2020
1197 Clouds -26 1012 88 0 0.53 264 13:21 07.01.2020
1198 Clouds -26 1012 88 0 0.53 264 12:56 07.01.2020
1199 Clouds -26 1012 88 0 0.53 264 12:37 07.01.2020
1200 Clouds -26 1012 88 0 0.53 264 12:19 07.01.2020
1201 Clouds -26 1012 88 0 0.53 264 11:41 07.01.2020
1202 Clouds -26 1012 88 0 0.53 264 11:23 07.01.2020
1203 Clouds -28 1012 88 0 0.63 337 10:57 07.01.2020
1204 Clouds -28 1012 88 0 0.63 337 10:57 07.01.2020
1205 Clouds -28 1012 88 0 0.63 337 10:39 07.01.2020
1206 Clouds -28 1012 88 0 0.63 337 10:21 07.01.2020
1207 Clouds -28 1012 88 0 0.63 337 09:39 07.01.2020
1208 Clouds -28 1012 88 0 0.63 337 09:21 07.01.2020
1209 Clouds -28 1012 88 0 0.63 337 09:21 07.01.2020
1210 Clouds -28 1012 88 0 0.63 337 08:59 07.01.2020
1211 Clouds -28 1012 88 0 0.63 337 08:41 07.01.2020
1212 Clouds -28 1011 88 0 0.47 312 08:18 07.01.2020
1213 Clouds -28 1011 88 0 0.47 312 07:47 07.01.2020
1214 Clouds -28 1011 88 0 0.47 312 07:23 07.01.2020
1215 Clouds -28 1011 88 0 0.47 312 06:50 07.01.2020
1216 Clouds -28 1011 88 0 0.47 312 06:30 07.01.2020
1217 Clouds -28 1011 88 0 0.47 312 05:41 07.01.2020
1218 Clouds -26 1012 84 0 0.34 1 03:52 07.01.2020
1219 Clouds -26 1012 84 0 0.34 1 03:52 07.01.2020
1220 Clouds -26 1012 84 0 0.34 1 03:25 07.01.2020
1221 Clouds -26 1013 82 0 0.71 109 02:20 07.01.2020
1222 Clouds -26 1013 82 0 0.71 109 01:40 07.01.2020
1223 Clouds -26 1013 82 0 0.71 109 01:40 07.01.2020
1224 Clouds -26 1013 82 0 0.71 109 01:40 07.01.2020
1225 Clouds -27 1013 83 0 0.51 103 01:18 07.01.2020
1226 Clouds -27 1013 83 0 0.51 103 00:21 07.01.2020
1227 Clouds -27 1013 83 0 0.51 103 23:57 06.01.2020
1228 Clouds -27 1013 83 0 0.51 103 23:38 06.01.2020
1229 Clouds -27 1015 82 0 1.01 135 23:20 06.01.2020
1230 Clouds -27 1015 82 0 1.01 135 22:55 06.01.2020
1231 Clouds -27 1015 82 0 1.01 135 22:37 06.01.2020
1232 Clouds -27 1015 82 0 1.01 135 22:18 06.01.2020
1233 Clouds -27 1015 82 0 1.01 135 21:54 06.01.2020
1234 Clouds -27 1015 82 0 1.01 135 21:36 06.01.2020
1235 Clouds -27 1015 82 0 1.01 135 21:18 06.01.2020
1236 Clouds -27 1015 82 0 1.01 135 20:54 06.01.2020
1237 Clouds -28 1015 83 0 0.82 132 20:36 06.01.2020
1238 Clouds -32 1016 87 0 0.85 175 20:18 06.01.2020
1239 Clouds -32 1016 87 0 0.85 175 20:18 06.01.2020
1240 Clouds -32 1016 87 0 0.85 175 19:54 06.01.2020
1241 Clouds -32 1016 87 0 0.85 175 19:36 06.01.2020
1242 Clouds -32 1016 87 0 0.85 175 19:18 06.01.2020
1243 Clouds -32 1016 87 0 0.85 175 18:41 06.01.2020
1244 Clouds -32 1016 87 0 0.85 175 18:19 06.01.2020
1245 Clouds -32 1016 87 0 0.85 175 17:39 06.01.2020
1246 Clear -32 1018 89 0 0.77 213 17:19 06.01.2020
1247 Clear -32 1018 89 0 0.77 213 16:55 06.01.2020
1248 Clear -32 1018 89 0 0.77 213 16:36 06.01.2020
1249 Clear -32 1018 89 0 0.77 213 16:18 06.01.2020
1250 Clear -32 1018 89 0 0.77 213 16:18 06.01.2020
1251 Clear -32 1018 89 0 0.77 213 15:42 06.01.2020
1252 Clear -32 1018 89 0 0.77 213 15:21 06.01.2020
1253 Clear -32 1018 89 0 0.77 213 14:59 06.01.2020
1254 Clear -32 1018 89 0 0.77 213 14:41 06.01.2020
1255 Clear -33 1020 89 0 0.58 188 14:22 06.01.2020
1256 Clear -33 1020 89 0 0.58 188 14:22 06.01.2020
1257 Clear -33 1020 89 0 0.58 188 13:58 06.01.2020
1258 Clear -33 1020 89 0 0.58 188 13:38 06.01.2020
1259 Clear -32 1020 88 0 0.73 179 13:20 06.01.2020
1260 Clear -32 1020 88 0 0.73 179 12:55 06.01.2020
1261 Clear -32 1020 88 0 0.73 179 12:37 06.01.2020
1262 Clear -32 1020 88 0 0.73 179 12:18 06.01.2020
1263 Clear -32 1020 88 0 0.73 179 11:41 06.01.2020
1264 Clear -32 1020 88 0 0.73 179 11:23 06.01.2020
1265 Clear -33 1021 88 0 0.3 247 10:59 06.01.2020
1266 Clear -33 1021 88 0 0.3 247 10:40 06.01.2020
1267 Clear -33 1021 88 0 0.3 247 10:20 06.01.2020
1268 Clear -33 1021 88 0 0.3 247 09:39 06.01.2020
1269 Clear -33 1021 88 0 0.3 247 09:20 06.01.2020
1270 Clear -33 1021 88 0 0.3 247 08:52 06.01.2020
1271 Clear -33 1021 88 0 0.3 247 08:34 06.01.2020
1272 Clear -33 1021 88 0 0.07 94 07:57 06.01.2020
1273 Clear -33 1021 88 0 0.07 94 07:36 06.01.2020
1274 Clear -33 1021 88 0 0.07 94 06:47 06.01.2020
1275 Clear -33 1021 88 0 0.07 94 06:27 06.01.2020
1276 Clear -33 1021 88 0 0.07 94 05:48 06.01.2020
1277 Clear -33 1022 86 0 0.28 319 04:55 06.01.2020
1278 Clear -33 1022 86 0 0.28 319 04:21 06.01.2020
1279 Clear -33 1022 86 0 0.28 319 03:25 06.01.2020
1280 Clear -33 1022 86 0 0.28 319 02:25 06.01.2020
1281 Clouds -33 1023 84 0 0.36 16 01:46 06.01.2020
1282 Clouds -33 1022 85 0 0.34 14 01:28 06.01.2020
1283 Clouds -33 1022 85 0 0.34 14 00:44 06.01.2020
1284 Clouds -33 1022 85 0 0.34 14 00:24 06.01.2020
1285 Clouds -33 1022 85 0 0.34 14 23:57 05.01.2020
1286 Clouds -33 1022 85 0 0.34 14 23:37 05.01.2020
1287 Clear -33 1023 83 0 0.22 70 23:19 05.01.2020
1288 Clear -33 1023 83 0 0.22 70 22:40 05.01.2020
1289 Clear -33 1023 83 0 0.22 70 22:20 05.01.2020
1290 Clear -33 1023 83 0 0.22 70 21:56 05.01.2020
1291 Clear -33 1023 83 0 0.22 70 21:38 05.01.2020
1292 Clear -33 1023 83 0 0.22 70 21:20 05.01.2020
1293 Clear -33 1023 83 0 0.22 70 20:56 05.01.2020
1294 Clear -33 1023 83 0 0.22 70 20:38 05.01.2020
1295 Clouds -34 1024 85 0 0.17 79 20:19 05.01.2020
1296 Clouds -34 1024 85 0 0.17 79 19:58 05.01.2020
1297 Clouds -34 1024 85 0 0.17 79 19:38 05.01.2020
1298 Clouds -34 1024 85 0 0.17 79 19:19 05.01.2020
1299 Clouds -34 1024 85 0 0.17 79 18:55 05.01.2020
1300 Clouds -34 1024 85 0 0.17 79 18:37 05.01.2020
1301 Clouds -34 1024 85 0 0.17 79 18:37 05.01.2020
1302 Clouds -34 1024 85 0 0.17 79 18:19 05.01.2020
1303 Clouds -34 1024 85 0 0.17 79 17:57 05.01.2020
1304 Clouds -34 1024 85 0 0.17 79 17:38 05.01.2020
1305 Clouds -34 1024 85 0 0.17 79 17:38 05.01.2020
1306 Clouds -33 1023 84 0 0.25 52 17:19 05.01.2020
1307 Clouds -33 1023 84 0 0.25 52 16:56 05.01.2020
1308 Clouds -33 1023 84 0 0.25 52 16:37 05.01.2020
1309 Clouds -33 1023 84 0 0.25 52 16:19 05.01.2020
1310 Clouds -33 1023 84 0 0.25 52 16:19 05.01.2020
1311 Clouds -33 1023 84 0 0.25 52 15:38 05.01.2020
1312 Clouds -33 1023 84 0 0.25 52 15:20 05.01.2020
1313 Clouds -33 1023 84 0 0.25 52 14:55 05.01.2020
1314 Clouds -33 1023 84 0 0.25 52 14:37 05.01.2020
1315 Clouds -33 1023 84 0 0.25 52 14:37 05.01.2020
1316 Clouds -34 1023 85 0 0.27 63 14:19 05.01.2020
1317 Clouds -34 1023 85 0 0.27 63 13:55 05.01.2020
1318 Clouds -34 1023 85 0 0.27 63 13:37 05.01.2020
1319 Clouds -34 1023 85 0 0.27 63 13:18 05.01.2020
1320 Clouds -35 1024 87 0 0.19 297 13:18 05.01.2020
1321 Clouds -34 1023 85 0 0.27 63 13:18 05.01.2020
1322 Clouds -35 1024 87 0 0.19 297 12:55 05.01.2020
1323 Clouds -35 1024 87 0 0.19 297 12:37 05.01.2020
1324 Clouds -35 1024 87 0 0.19 297 12:18 05.01.2020
1325 Clouds -35 1024 87 0 0.19 297 11:43 05.01.2020
1326 Clouds -35 1024 87 0 0.19 297 11:43 05.01.2020
1327 Clouds -35 1024 87 0 0.19 297 11:43 05.01.2020
1328 Clouds -35 1024 87 0 0.19 297 11:43 05.01.2020
1329 Clouds -35 1024 87 0 0.19 297 11:43 05.01.2020
1330 Clouds -35 1023 89 0 0.29 150 11:20 05.01.2020
1331 Clouds -35 1023 89 0 0.29 150 10:58 05.01.2020
1332 Clouds -35 1023 89 0 0.29 150 10:39 05.01.2020
1333 Clouds -35 1023 89 0 0.29 150 10:39 05.01.2020
1334 Clouds -35 1023 89 0 0.29 150 10:39 05.01.2020
1335 Clouds -35 1023 89 0 0.29 150 10:39 05.01.2020
1336 Clouds -35 1023 89 0 0.29 150 10:39 05.01.2020
1337 Clouds -35 1023 89 0 0.29 150 10:19 05.01.2020
1338 Clouds -35 1023 89 0 0.29 150 09:42 05.01.2020
1339 Clouds -35 1023 89 0 0.29 150 09:22 05.01.2020
1340 Clouds -35 1023 89 0 0.29 150 08:50 05.01.2020
1341 Clouds -35 1023 89 0 0.29 150 08:30 05.01.2020
1342 Clear -35 1022 92 0 0.5 140 07:57 05.01.2020
1343 Clear -35 1022 92 0 0.5 140 07:38 05.01.2020
1344 Clear -35 1022 92 0 0.5 140 07:20 05.01.2020
1345 Clear -35 1022 92 0 0.5 140 06:20 05.01.2020
1346 Clear -35 1022 92 0 0.5 140 05:33 05.01.2020
1347 Clear -35 1022 92 0 0.5 140 05:33 05.01.2020
1348 Clear -34 1021 92 0 0.41 209 04:44 05.01.2020
1349 Clear -34 1021 92 0 0.41 209 04:18 05.01.2020
1350 Clear -34 1021 92 0 0.41 209 02:46 05.01.2020
1351 Clear -34 1021 92 0 0.41 209 02:24 05.01.2020
1352 Clouds -34 1021 90 0 0.63 219 01:48 05.01.2020
1353 Clouds -34 1021 90 0 0.57 215 01:19 05.01.2020
1354 Clouds -34 1021 90 0 0.57 215 00:54 05.01.2020
1355 Clouds -34 1021 90 0 0.57 215 00:36 05.01.2020
1356 Clouds -34 1021 90 0 0.57 215 00:36 05.01.2020
1357 Clouds -34 1021 90 0 0.57 215 00:18 05.01.2020
1358 Clouds -34 1021 90 0 0.57 215 23:40 04.01.2020
1359 Clear -35 1020 90 0 0.97 236 23:20 04.01.2020
1360 Clear -35 1020 90 0 0.97 236 22:40 04.01.2020
1361 Clear -35 1020 90 0 0.97 236 22:22 04.01.2020
1362 Clear -35 1020 90 0 0.97 236 22:22 04.01.2020
1363 Clear -35 1020 90 0 0.97 236 21:58 04.01.2020
1364 Clear -35 1020 90 0 0.97 236 21:40 04.01.2020
1365 Clear -35 1020 90 0 0.97 236 21:22 04.01.2020
1366 Clear -35 1020 90 0 0.97 236 20:59 04.01.2020
1367 Clear -35 1020 90 0 0.97 236 20:40 04.01.2020
1368 Clear -35 1020 91 0 0.6 245 20:22 04.01.2020
1369 Clear -35 1021 92 0 0.61 231 19:57 04.01.2020
1370 Clear -35 1021 92 0 0.61 231 19:38 04.01.2020
1371 Clear -35 1021 92 0 0.61 231 19:20 04.01.2020
1372 Clear -35 1021 92 0 0.61 231 18:56 04.01.2020
1373 Clear -35 1021 92 0 0.61 231 18:37 04.01.2020
1374 Clear -35 1021 92 0 0.61 231 18:19 04.01.2020
1375 Clear -35 1021 92 0 0.61 231 17:41 04.01.2020
1376 Clear -35 1021 92 0 0.61 231 17:23 04.01.2020
1377 Clear -35 1020 93 0 0.39 263 16:59 04.01.2020
1378 Clear -35 1020 93 0 0.39 263 16:40 04.01.2020
1379 Clear -35 1020 93 0 0.39 263 16:22 04.01.2020
1380 Clear -35 1020 93 0 0.39 263 15:56 04.01.2020
1381 Clear -35 1020 93 0 0.39 263 15:38 04.01.2020
1382 Clear -35 1020 93 0 0.39 263 15:19 04.01.2020
1383 Clear -35 1020 93 0 0.39 263 14:54 04.01.2020
1384 Clear -35 1020 93 0 0.39 263 14:36 04.01.2020
1385 Clear -34 1021 95 0 0.76 292 14:18 04.01.2020
1386 Clear -34 1021 95 0 0.76 292 13:39 04.01.2020
1387 Clear -34 1021 95 0 0.76 292 13:39 04.01.2020
1388 Clear -35 1021 94 0 0.84 290 13:20 04.01.2020
1389 Clear -35 1021 94 0 0.84 290 12:59 04.01.2020
1390 Clear -35 1021 94 0 0.84 290 12:40 04.01.2020
1391 Clear -35 1021 94 0 0.84 290 12:19 04.01.2020
1392 Clear -35 1021 94 0 0.84 290 11:57 04.01.2020
1393 Clear -35 1021 94 0 0.84 290 11:38 04.01.2020
1394 Clear -34 1021 96 0 0.1 279 11:19 04.01.2020
1395 Clear -34 1021 96 0 0.1 279 10:41 04.01.2020
1396 Clear -34 1021 96 0 0.1 279 10:22 04.01.2020
1397 Clear -34 1021 96 0 0.1 279 09:57 04.01.2020
1398 Clear -34 1021 96 0 0.1 279 09:39 04.01.2020
1399 Clear -34 1021 96 0 0.1 279 09:20 04.01.2020
1400 Clear -34 1021 96 0 0.1 279 08:40 04.01.2020
1401 Clear -34 1021 99 0 0.22 329 08:20 04.01.2020
1402 Clear -34 1021 99 0 0.22 329 07:42 04.01.2020
1403 Clear -34 1021 99 0 0.22 329 07:19 04.01.2020
1404 Clear -34 1021 99 0 0.22 329 06:33 04.01.2020
1405 Clear -34 1020 99 0 0.24 90 05:20 04.01.2020
1406 Clear -34 1020 99 0 0.24 90 04:34 04.01.2020
1407 Clear -34 1020 99 0 0.24 90 03:52 04.01.2020
1408 Clear -34 1020 99 0 0.24 90 03:18 04.01.2020
1409 Clouds -33 1019 99 0 0.48 116 02:21 04.01.2020
1410 Clouds -33 1019 99 0 0.48 116 01:55 04.01.2020
1411 Clouds -33 1019 99 0 0.47 120 01:31 04.01.2020
1412 Clouds -33 1019 99 0 0.47 120 00:46 04.01.2020
1413 Clouds -33 1019 99 0 0.47 120 00:26 04.01.2020
1414 Clouds -33 1019 99 0 0.47 120 23:48 03.01.2020
1415 Clouds -33 1019 99 0 0.47 120 23:25 03.01.2020
1416 Clouds -31 1019 96 0 0.44 104 22:54 03.01.2020
1417 Clouds -31 1019 96 0 0.44 104 22:36 03.01.2020
1418 Clouds -31 1019 96 0 0.44 104 22:18 03.01.2020
1419 Clouds -31 1019 96 0 0.44 104 21:54 03.01.2020
1420 Clouds -31 1019 96 0 0.44 104 21:36 03.01.2020
1421 Clouds -31 1019 96 0 0.44 104 21:18 03.01.2020
1422 Clouds -31 1019 96 0 0.44 104 20:42 03.01.2020
1423 Snow -29 1018 97 0 0.58 106 20:19 03.01.2020
1424 Snow -29 1018 97 0 0.58 106 19:58 03.01.2020
1425 Snow -29 1018 97 0 0.58 106 19:39 03.01.2020
1426 Snow -29 1018 97 0 0.58 106 19:21 03.01.2020
1427 Snow -29 1018 97 0 0.58 106 18:44 03.01.2020
1428 Snow -29 1018 97 0 0.58 106 18:26 03.01.2020
1429 Snow -29 1018 97 0 0.58 106 17:57 03.01.2020
1430 Snow -29 1018 97 0 0.58 106 17:39 03.01.2020
1431 Clouds -30 1018 95 0 0.49 131 17:19 03.01.2020
1432 Clouds -30 1018 95 0 0.49 131 16:43 03.01.2020
1433 Clouds -30 1018 95 0 0.49 131 16:24 03.01.2020
1434 Clouds -30 1018 95 0 0.49 131 15:58 03.01.2020
1435 Clouds -30 1018 95 0 0.49 131 15:40 03.01.2020
1436 Clouds -30 1018 95 0 0.49 131 15:18 03.01.2020
1437 Clouds -30 1018 95 0 0.49 131 14:39 03.01.2020
1438 Clouds -32 1018 91 0 0.86 207 14:20 03.01.2020
1439 Clouds -32 1018 91 0 0.86 207 13:56 03.01.2020
1440 Clouds -32 1018 91 0 0.86 207 13:37 03.01.2020
1441 Clouds -32 1018 92 0 0.79 203 13:19 03.01.2020
1442 Clouds -32 1018 92 0 0.79 203 12:40 03.01.2020
1443 Clouds -32 1018 92 0 0.79 203 12:21 03.01.2020
1444 Clouds -32 1018 92 0 0.79 203 11:49 03.01.2020
1445 Clouds -32 1018 92 0 0.79 203 11:30 03.01.2020
1446 Clear -35 1019 91 0 0.8 242 10:48 03.01.2020
1447 Clear -35 1019 91 0 0.8 242 10:28 03.01.2020
1448 Clear -35 1019 91 0 0.8 242 09:59 03.01.2020
1449 Clear -35 1019 91 0 0.8 242 09:41 03.01.2020
1450 Clear -35 1019 91 0 0.8 242 09:23 03.01.2020
1451 Clear -35 1019 91 0 0.8 242 08:57 03.01.2020
1452 Clear -35 1019 91 0 0.8 242 08:39 03.01.2020
1453 Clouds -35 1020 90 0 0.3 103 08:21 03.01.2020
1454 Clouds -35 1020 90 0 0.3 103 07:42 03.01.2020
1455 Clouds -35 1020 90 0 0.3 103 07:19 03.01.2020
1456 Clouds -35 1020 90 0 0.3 103 06:57 03.01.2020
1457 Clouds -35 1020 90 0 0.3 103 06:39 03.01.2020
1458 Clouds -35 1020 90 0 0.3 103 06:20 03.01.2020
1459 Clouds -34 1020 89 0 0.71 82 04:43 03.01.2020
1460 Clouds -34 1020 89 0 0.71 82 03:37 03.01.2020
1461 Clouds -34 1020 89 0 0.71 82 02:50 03.01.2020
1462 Clouds -32 1021 86 0 0.72 95 01:50 03.01.2020
1463 Clouds -32 1022 86 0 0.69 91 01:18 03.01.2020
1464 Clouds -32 1022 86 0 0.69 91 00:34 03.01.2020
1465 Clouds -32 1022 86 0 0.69 91 23:59 02.01.2020
1466 Clouds -32 1022 86 0 0.69 91 23:39 02.01.2020
1467 Clouds -32 1023 87 0 0.33 148 23:20 02.01.2020
1468 Clouds -32 1023 87 0 0.33 148 22:58 02.01.2020
1469 Clouds -32 1023 87 0 0.33 148 22:40 02.01.2020
1470 Clouds -32 1023 87 0 0.33 148 22:19 02.01.2020
1471 Clouds -32 1023 87 0 0.33 148 21:55 02.01.2020
1472 Clouds -32 1023 87 0 0.33 148 21:37 02.01.2020
1473 Clouds -32 1023 87 0 0.33 148 21:18 02.01.2020
1474 Clouds -32 1023 87 0 0.33 148 20:56 02.01.2020
1475 Clouds -32 1023 87 0 0.33 148 20:36 02.01.2020
1476 Clouds -35 1023 90 0 0.97 180 20:18 02.01.2020
1477 Clouds -35 1023 90 0 0.97 180 19:54 02.01.2020
1478 Clouds -35 1023 90 0 0.97 180 19:36 02.01.2020
1479 Clouds -35 1023 90 0 0.97 180 19:18 02.01.2020
1480 Clouds -35 1023 90 0 0.97 180 18:42 02.01.2020
1481 Clouds -35 1023 90 0 0.97 180 18:23 02.01.2020
1482 Clouds -35 1023 90 0 0.97 180 17:58 02.01.2020
1483 Clouds -35 1023 90 0 0.97 180 17:38 02.01.2020
1484 Clear -35 1024 91 0 1.2 187 17:20 02.01.2020
1485 Clear -35 1024 91 0 1.2 187 16:58 02.01.2020
1486 Clear -35 1024 91 0 1.2 187 16:40 02.01.2020
1487 Clear -35 1024 91 0 1.2 187 16:20 02.01.2020
1488 Clear -35 1024 91 0 1.2 187 15:57 02.01.2020
1489 Clear -35 1024 91 0 1.2 187 15:39 02.01.2020
1490 Clear -35 1024 91 0 1.2 187 15:20 02.01.2020
1491 Clear -35 1024 91 0 1.2 187 14:56 02.01.2020
1492 Clear -35 1024 91 0 1.2 187 14:36 02.01.2020
1493 Clouds -35 1025 90 0 1.15 171 14:18 02.01.2020
1494 Clouds -35 1025 90 0 1.15 171 13:48 02.01.2020
1495 Clouds -35 1025 90 0 1.15 171 13:48 02.01.2020
1496 Clouds -36 1025 90 0 0.98 166 13:30 02.01.2020
1497 Clouds -36 1025 90 0 0.98 166 12:46 02.01.2020
1498 Clouds -36 1025 90 0 0.98 166 12:26 02.01.2020
1499 Clouds -36 1025 90 0 0.98 166 11:59 02.01.2020
1500 Clouds -36 1025 90 0 0.98 166 11:40 02.01.2020
1501 Clouds -35 1025 88 0 1.02 156 11:20 02.01.2020
1502 Clouds -35 1025 88 0 1.02 156 10:44 02.01.2020
1503 Clouds -35 1025 88 0 1.02 156 10:26 02.01.2020
1504 Clouds -35 1025 88 0 1.02 156 09:51 02.01.2020
1505 Clouds -35 1025 88 0 1.02 156 09:33 02.01.2020
1506 Clouds -35 1025 88 0 1.02 156 08:47 02.01.2020
1507 Clouds -35 1025 88 0 1.02 156 08:27 02.01.2020
1508 Clouds -34 1025 87 0 1.07 192 07:54 02.01.2020
1509 Clouds -34 1025 87 0 1.07 192 07:30 02.01.2020
1510 Clouds -34 1025 87 0 1.07 192 06:55 02.01.2020
1511 Clouds -34 1025 87 0 1.07 192 06:36 02.01.2020
1512 Clouds -34 1025 87 0 1.07 192 05:35 02.01.2020
1513 Clouds -34 1025 87 0 1.43 212 04:33 02.01.2020
1514 Clouds -34 1025 87 0 1.43 212 02:54 02.01.2020
1515 Clouds -36 1025 85 0 1.39 220 01:59 02.01.2020
1516 Clouds -36 1025 85 0 1.39 220 01:39 02.01.2020
1517 Clouds -36 1025 85 0 1.43 221 00:59 02.01.2020
1518 Clouds -36 1025 85 0 1.43 221 00:34 02.01.2020
1519 Clouds -36 1025 85 0 1.43 221 23:58 01.01.2020
1520 Clouds -36 1025 85 0 1.43 221 23:40 01.01.2020
1521 Clouds -37 1024 85 0 1.55 233 23:19 01.01.2020
1522 Clouds -37 1024 85 0 1.55 233 22:38 01.01.2020
1523 Clouds -37 1024 85 0 1.55 233 22:20 01.01.2020
1524 Clouds -37 1024 85 0 1.55 233 22:20 01.01.2020
1525 Clouds -37 1024 85 0 1.55 233 21:56 01.01.2020
1526 Clouds -37 1024 85 0 1.55 233 21:38 01.01.2020
1527 Clouds -37 1024 85 0 1.55 233 21:19 01.01.2020
1528 Clouds -37 1024 85 0 1.55 233 20:56 01.01.2020
1529 Clouds -37 1024 85 0 1.55 233 20:38 01.01.2020
1530 Clouds -37 1023 85 0 1.35 252 20:19 01.01.2020
1531 Clouds -37 1023 85 0 1.35 252 19:55 01.01.2020
1532 Clouds -37 1023 85 0 1.35 252 19:55 01.01.2020
1533 Clouds -37 1023 85 0 1.35 252 19:55 01.01.2020
1534 Clouds -37 1023 85 0 1.35 252 19:55 01.01.2020
1535 Clouds -37 1023 85 0 1.35 252 19:55 01.01.2020
1536 Clouds -37 1023 85 0 1.35 252 19:37 01.01.2020
1537 Clouds -37 1023 85 0 1.35 252 19:37 01.01.2020
1538 Clouds -37 1023 85 0 1.35 252 19:19 01.01.2020
1539 Clouds -37 1023 85 0 1.35 252 18:56 01.01.2020
1540 Clouds -37 1023 85 0 1.35 252 18:36 01.01.2020
1541 Clouds -37 1023 85 0 1.35 252 18:18 01.01.2020
1542 Clouds -37 1023 85 0 1.35 252 17:56 01.01.2020
1543 Clouds -37 1023 85 0 1.35 252 17:38 01.01.2020
1544 Clear -37 1023 85 0 1.27 252 17:19 01.01.2020
1545 Clear -37 1023 85 0 1.27 252 16:42 01.01.2020
1546 Clear -37 1023 85 0 1.27 252 16:23 01.01.2020
1547 Clear -37 1023 85 0 1.27 252 15:58 01.01.2020
1548 Clear -37 1023 85 0 1.27 252 15:40 01.01.2020
1549 Clear -37 1023 85 0 1.27 252 15:22 01.01.2020
1550 Clear -37 1023 85 0 1.27 252 14:59 01.01.2020
1551 Clear -37 1023 85 0 1.27 252 14:40 01.01.2020
1552 Clear -38 1022 82 0 0.96 256 14:22 01.01.2020
1553 Clear -38 1022 82 0 0.96 256 13:56 01.01.2020
1554 Clear -38 1022 82 0 0.96 256 13:37 01.01.2020
1555 Clear -38 1022 82 0 0.96 256 13:19 01.01.2020
1556 Clear -38 1023 83 0 0.96 254 12:57 01.01.2020
1557 Clear -38 1023 83 0 0.96 254 12:39 01.01.2020
1558 Clear -38 1023 83 0 0.96 254 12:19 01.01.2020
1559 Clear -38 1023 83 0 0.96 254 11:55 01.01.2020
1560 Clear -38 1023 83 0 0.96 254 11:36 01.01.2020
1561 Clear -37 1021 80 0 0.94 258 11:18 01.01.2020
1562 Clear -37 1021 80 0 0.94 258 10:41 01.01.2020
1563 Clear -37 1021 80 0 0.94 258 10:21 01.01.2020
1564 Clear -37 1021 80 0 0.94 258 09:59 01.01.2020
1565 Clear -37 1021 80 0 0.94 258 09:38 01.01.2020
1566 Clear -37 1021 80 0 0.94 258 09:38 01.01.2020
1567 Clear -37 1021 80 0 0.94 258 09:19 01.01.2020
1568 Clear -37 1021 80 0 0.94 258 08:55 01.01.2020
1569 Clear -37 1021 80 0 0.94 258 08:37 01.01.2020
1570 Clouds -36 1020 77 0 1.04 282 08:18 01.01.2020
1571 Clouds -37 1020 77 0 0.97 286 07:54 01.01.2020
1572 Clouds -37 1020 77 0 0.97 286 07:36 01.01.2020
1573 Clouds -37 1020 77 0 0.97 286 06:45 01.01.2020
1574 Clouds -37 1020 77 0 0.97 286 06:21 01.01.2020
1575 -273 0 0 0 0 0 05:22 01.01.2020
1576 Clouds -36 1019 77 0 0.89 313 03:46 01.01.2020
1577 Clouds -36 1019 77 0 0.89 313 03:23 01.01.2020
1578 Clouds -36 1019 77 0 0.89 313 03:23 01.01.2020
1579 Clouds -36 1019 77 0 0.89 313 02:57 01.01.2020
1580 Clouds -36 1019 77 0 0.89 313 02:36 01.01.2020
1581 Clouds -34 1019 74 0 0.61 326 01:57 01.01.2020
1582 Clouds -34 1019 74 0 0.61 326 01:38 01.01.2020
1583 Clouds -33 1019 75 0 0.54 323 01:20 01.01.2020
1584 Clouds -33 1019 75 0 0.54 323 00:44 01.01.2020
1585 Clouds -33 1019 75 0 0.54 323 00:25 01.01.2020
1586 Clouds -33 1019 75 0 0.54 323 23:41 31.12.2019
1587 Clouds -35 1018 76 0 0.83 345 23:22 31.12.2019
1588 Clouds -35 1018 76 0 0.83 345 22:58 31.12.2019
1589 Clouds -35 1018 76 0 0.83 345 22:39 31.12.2019
1590 Clouds -35 1018 76 0 0.83 345 22:20 31.12.2019
1591 Clouds -35 1018 76 0 0.83 345 21:59 31.12.2019
1592 Clouds -35 1018 76 0 0.83 345 21:40 31.12.2019
1593 Clouds -35 1018 76 0 0.83 345 21:22 31.12.2019
1594 Clouds -35 1018 76 0 0.83 345 20:57 31.12.2019
1595 Clouds -35 1018 76 0 0.83 345 20:37 31.12.2019
1596 Clouds -34 1018 75 0 0.68 34 20:19 31.12.2019
1597 Clouds -34 1018 75 0 0.68 34 19:55 31.12.2019
1598 Clouds -34 1018 75 0 0.68 34 19:36 31.12.2019
1599 Clouds -34 1018 75 0 0.68 34 19:18 31.12.2019
1600 Clouds -34 1018 75 0 0.68 34 18:54 31.12.2019
1601 Clouds -34 1018 75 0 0.68 34 18:36 31.12.2019
1602 Clouds -34 1018 75 0 0.68 34 18:18 31.12.2019
1603 Clouds -34 1018 75 0 0.68 34 18:18 31.12.2019
1604 Clouds -34 1018 75 0 0.68 34 17:54 31.12.2019
1605 Clouds -34 1018 75 0 0.68 34 17:36 31.12.2019
1606 Clear -35 1018 77 0 0.65 70 17:18 31.12.2019
1607 Clear -35 1018 77 0 0.65 70 16:55 31.12.2019
1608 Clear -35 1018 77 0 0.65 70 16:36 31.12.2019
1609 Clear -35 1018 77 0 0.65 70 16:18 31.12.2019
1610 Clear -35 1018 77 0 0.65 70 15:55 31.12.2019
1611 Clear -35 1018 77 0 0.65 70 15:37 31.12.2019
1612 Clear -35 1018 77 0 0.65 70 15:18 31.12.2019
1613 Clear -35 1018 77 0 0.65 70 14:55 31.12.2019
1614 Clear -35 1018 77 0 0.65 70 14:36 31.12.2019
1615 Clouds -34 1019 75 0 0.77 68 14:18 31.12.2019
1616 Clouds -34 1019 75 0 0.77 68 13:54 31.12.2019
1617 Clouds -34 1019 75 0 0.77 68 13:36 31.12.2019
1618 Clouds -34 1019 76 0 0.76 76 13:18 31.12.2019
1619 Clouds -34 1019 76 0 0.76 76 12:40 31.12.2019
1620 Clouds -34 1019 76 0 0.76 76 12:20 31.12.2019
1621 Clouds -34 1019 76 0 0.76 76 12:20 31.12.2019
1622 Clouds -34 1019 76 0 0.76 76 11:57 31.12.2019
1623 Clouds -34 1019 76 0 0.76 76 11:39 31.12.2019
1624 Clouds -34 1019 76 0 0.66 45 11:21 31.12.2019
1625 Clouds -34 1019 76 0 0.66 45 10:58 31.12.2019
1626 Clouds -34 1019 76 0 0.66 45 10:39 31.12.2019
1627 Clouds -34 1019 76 0 0.66 45 10:20 31.12.2019
1628 Clouds -34 1019 76 0 0.66 45 09:59 31.12.2019
1629 Clouds -34 1019 76 0 0.66 45 09:40 31.12.2019
1630 Clouds -34 1019 76 0 0.66 45 09:22 31.12.2019
1631 Clouds -34 1019 76 0 0.66 45 08:59 31.12.2019
1632 Clouds -34 1019 76 0 0.66 45 08:41 31.12.2019
1633 Clouds -35 1020 77 0 0.79 81 08:21 31.12.2019
1634 Clouds -35 1020 77 0 0.79 81 07:44 31.12.2019
1635 Clouds -35 1020 77 0 0.79 81 07:22 31.12.2019
1636 Clouds -35 1020 77 0 0.79 81 06:51 31.12.2019
1637 Clouds -35 1020 77 0 0.79 81 06:23 31.12.2019
1638 Clouds -35 1021 77 0 0.78 72 04:54 31.12.2019
1639 Clouds -35 1021 77 0 0.78 72 04:24 31.12.2019
1640 Clouds -35 1021 77 0 0.78 72 02:57 31.12.2019
1641 Clouds -34 1022 76 0 0.77 97 02:20 31.12.2019
1642 Clouds -34 1022 76 0 0.77 97 01:49 31.12.2019
1643 Clouds -34 1022 76 0 0.77 97 01:31 31.12.2019
1644 Clouds -35 1022 77 0 0.76 91 00:48 31.12.2019
1645 Clouds -35 1022 77 0 0.76 91 00:25 31.12.2019
1646 Clouds -35 1022 77 0 0.76 91 23:58 30.12.2019
1647 Clouds -35 1022 77 0 0.76 91 23:40 30.12.2019
1648 Clouds -34 1022 75 0 0.48 105 23:22 30.12.2019
1649 Clouds -34 1022 75 0 0.48 105 22:59 30.12.2019
1650 Clouds -34 1022 75 0 0.48 105 22:41 30.12.2019
1651 Clouds -34 1022 75 0 0.48 105 22:41 30.12.2019
1652 Clouds -34 1022 75 0 0.48 105 22:21 30.12.2019
1653 Clouds -34 1022 75 0 0.48 105 21:57 30.12.2019
1654 Clouds -34 1022 75 0 0.48 105 21:57 30.12.2019
1655 Clouds -34 1022 75 0 0.48 105 21:39 30.12.2019
1656 Clouds -34 1022 75 0 0.48 105 21:20 30.12.2019
1657 Clouds -34 1022 75 0 0.48 105 20:59 30.12.2019
1658 Clouds -34 1022 75 0 0.48 105 20:40 30.12.2019
1659 Clouds -35 1023 75 0 0.41 108 20:20 30.12.2019
1660 Clouds -35 1023 75 0 0.41 108 19:59 30.12.2019
1661 Clouds -35 1023 75 0 0.41 108 19:39 30.12.2019
1662 Clouds -35 1023 75 0 0.41 108 19:19 30.12.2019
1663 Clouds -35 1023 75 0 0.41 108 18:59 30.12.2019
1664 Clouds -35 1023 75 0 0.41 108 18:41 30.12.2019
1665 Clouds -35 1023 75 0 0.41 108 18:20 30.12.2019
1666 Clouds -35 1023 75 0 0.41 108 17:57 30.12.2019
1667 Clouds -35 1023 75 0 0.41 108 17:39 30.12.2019
1668 Clear -34 1023 75 0 0.8 127 17:19 30.12.2019
1669 Clear -34 1023 75 0 0.8 127 16:58 30.12.2019
1670 Clear -34 1023 75 0 0.8 127 16:37 30.12.2019
1671 Clear -34 1023 75 0 0.8 127 16:19 30.12.2019
1672 Clear -34 1023 75 0 0.8 127 15:56 30.12.2019
1673 Clear -34 1023 75 0 0.8 127 15:37 30.12.2019
1674 Clear -34 1023 75 0 0.8 127 15:19 30.12.2019
1675 Clear -34 1023 75 0 0.8 127 14:43 30.12.2019
1676 Clouds -34 1024 74 0 1.16 120 14:21 30.12.2019
1677 Clouds -34 1024 74 0 1.16 120 13:58 30.12.2019
1678 Clouds -34 1024 74 0 1.16 120 13:40 30.12.2019
1679 Clouds -34 1024 75 0 1.14 122 13:22 30.12.2019
1680 Clouds -34 1024 75 0 1.14 122 13:22 30.12.2019
1681 Clouds -34 1024 75 0 1.14 122 12:57 30.12.2019
1682 Clouds -34 1024 75 0 1.14 122 12:37 30.12.2019
1683 Clouds -34 1024 75 0 1.14 122 12:18 30.12.2019
1684 Clouds -34 1024 75 0 1.14 122 11:45 30.12.2019
1685 Clouds -34 1025 74 0 1.15 127 11:22 30.12.2019
1686 Clouds -34 1025 74 0 1.15 127 10:59 30.12.2019
1687 Clouds -34 1025 74 0 1.15 127 10:40 30.12.2019
1688 Clouds -34 1025 74 0 1.15 127 10:19 30.12.2019
1689 Clouds -34 1025 74 0 1.15 127 09:43 30.12.2019
1690 Clouds -34 1025 74 0 1.15 127 09:21 30.12.2019
1691 Clouds -34 1025 74 0 1.15 127 08:57 30.12.2019
1692 Clouds -34 1025 74 0 1.15 127 08:38 30.12.2019
1693 Clouds -33 1027 75 0 1.22 121 08:19 30.12.2019
1694 Clouds -33 1027 75 0 1.22 121 07:46 30.12.2019
1695 Clouds -33 1027 75 0 1.22 121 07:23 30.12.2019
1696 Clouds -33 1027 75 0 1.22 121 06:32 30.12.2019
1697 Clear -34 1028 75 0 1.21 126 04:31 30.12.2019
1698 Clear -34 1028 75 0 1.21 126 03:50 30.12.2019
1699 Clear -34 1028 75 0 1.21 126 02:47 30.12.2019
1700 Clear -34 1028 75 0 1.21 126 02:26 30.12.2019
1701 Clear -35 1029 76 0 1.13 129 01:29 30.12.2019
1702 Clear -35 1029 77 0 1.07 123 00:59 30.12.2019
1703 Clear -35 1029 77 0 1.07 123 00:39 30.12.2019
1704 Clear -35 1029 77 0 1.07 123 23:55 29.12.2019
1705 Clear -35 1029 77 0 1.07 123 23:36 29.12.2019
1706 Clear -36 1031 77 0 0.98 105 23:18 29.12.2019
1707 Clear -36 1031 77 0 0.98 105 22:40 29.12.2019
1708 Clear -36 1031 77 0 0.98 105 22:21 29.12.2019
1709 Clear -36 1031 77 0 0.98 105 21:56 29.12.2019
1710 Clear -36 1031 77 0 0.98 105 21:38 29.12.2019
1711 Clear -36 1031 77 0 0.98 105 21:19 29.12.2019
1712 Clear -36 1031 77 0 0.98 105 20:55 29.12.2019
1713 Clear -36 1031 77 0 0.98 105 20:37 29.12.2019
1714 Clear -36 1032 76 0 0.93 117 20:18 29.12.2019
1715 Clear -36 1033 80 0 0.83 122 19:56 29.12.2019
1716 Clear -36 1033 80 0 0.83 122 19:37 29.12.2019
1717 Clear -36 1033 80 0 0.83 122 19:19 29.12.2019
1718 Clear -36 1033 80 0 0.83 122 18:55 29.12.2019
1719 Clear -36 1033 80 0 0.83 122 18:37 29.12.2019
1720 Clear -36 1033 80 0 0.83 122 18:18 29.12.2019
1721 Clear -36 1033 80 0 0.83 122 17:56 29.12.2019
1722 Clear -36 1033 80 0 0.83 122 17:37 29.12.2019
1723 Clear -36 1033 80 0 0.83 122 17:37 29.12.2019
1724 Clear -36 1033 80 0 0.83 122 17:37 29.12.2019
1725 Clear -37 1033 80 0 0.69 146 17:19 29.12.2019
1726 Clear -37 1033 80 0 0.69 146 16:55 29.12.2019
1727 Clear -37 1033 80 0 0.69 146 16:36 29.12.2019
1728 Clear -37 1033 80 0 0.69 146 16:18 29.12.2019
1729 Clear -37 1033 80 0 0.69 146 15:56 29.12.2019
1730 Clear -37 1033 80 0 0.69 146 15:38 29.12.2019
1731 Clear -37 1033 80 0 0.69 146 15:18 29.12.2019
1732 Clear -37 1033 80 0 0.69 146 14:55 29.12.2019
1733 Clear -37 1033 80 0 0.69 146 14:37 29.12.2019
1734 Clear -37 1035 80 0 0.8 148 14:18 29.12.2019
1735 Clear -37 1035 80 0 0.8 148 13:55 29.12.2019
1736 Clear -37 1035 80 0 0.8 148 13:37 29.12.2019
1737 Clear -37 1035 80 0 0.8 148 13:18 29.12.2019
1738 Clear -37 1035 80 0 0.73 152 12:41 29.12.2019
1739 Clear -37 1035 80 0 0.73 152 12:23 29.12.2019
1740 Clear -37 1035 80 0 0.73 152 11:55 29.12.2019
1741 Clear -37 1035 80 0 0.73 152 11:37 29.12.2019
1742 Clear -38 1035 81 0 0.58 131 11:19 29.12.2019
1743 Clear -38 1035 81 0 0.58 131 10:41 29.12.2019
1744 Clear -38 1035 81 0 0.58 131 10:21 29.12.2019
1745 Clear -38 1035 81 0 0.58 131 09:54 29.12.2019
1746 Clear -38 1035 81 0 0.58 131 09:36 29.12.2019
1747 Clear -38 1035 81 0 0.58 131 09:18 29.12.2019
1748 Clear -38 1035 81 0 0.58 131 08:46 29.12.2019
1749 Clear -38 1035 81 0 0.58 131 08:24 29.12.2019
1750 Clear -38 1036 82 0 0.6 138 07:54 29.12.2019
1751 Clear -38 1036 82 0 0.6 138 07:28 29.12.2019
1752 Clear -38 1036 82 0 0.6 138 06:53 29.12.2019
1753 Clear -38 1036 82 0 0.6 138 06:24 29.12.2019
1754 Clear -38 1036 82 0 0.6 138 05:51 29.12.2019
1755 Clear -38 1035 81 0 0.74 125 04:36 29.12.2019
1756 Clear -38 1035 81 0 0.74 125 03:43 29.12.2019
1757 Clear -38 1035 81 0 0.74 125 03:20 29.12.2019
1758 Clear -39 1036 79 0 0.54 124 02:20 29.12.2019
1759 Clear -39 1036 79 0 0.54 124 01:31 29.12.2019
1760 Clear -39 1036 79 0 0.54 124 01:31 29.12.2019
1761 Clear -39 1036 80 0 0.55 132 00:57 29.12.2019
1762 Clear -39 1036 80 0 0.55 132 00:39 29.12.2019
1763 Clear -39 1036 80 0 0.55 132 00:21 29.12.2019
1764 Clear -39 1036 80 0 0.55 132 23:42 28.12.2019
1765 Clear -39 1036 80 0 0.55 132 23:42 28.12.2019
1766 Clear -39 1036 80 0 0.65 153 23:18 28.12.2019
1767 Clear -39 1036 80 0 0.65 153 22:39 28.12.2019
1768 Clear -39 1036 80 0 0.65 153 22:39 28.12.2019
1769 Clear -39 1036 80 0 0.65 153 22:39 28.12.2019
1770 Clear -39 1036 80 0 0.65 153 22:20 28.12.2019
1771 Clear -39 1036 80 0 0.65 153 21:58 28.12.2019
1772 Clear -39 1036 80 0 0.65 153 21:58 28.12.2019
1773 Clear -39 1036 80 0 0.65 153 21:39 28.12.2019
1774 Clear -39 1036 80 0 0.65 153 21:21 28.12.2019
1775 Clear -39 1036 80 0 0.65 153 20:57 28.12.2019
1776 Clear -39 1036 80 0 0.65 153 20:37 28.12.2019
1777 Clear -39 1036 80 0 0.65 153 20:37 28.12.2019
1778 Clear -39 1035 82 0 0.95 193 20:19 28.12.2019
1779 Clear -39 1035 81 0 0.99 197 19:57 28.12.2019
1780 Clear -39 1035 81 0 0.99 197 19:39 28.12.2019
1781 Clear -39 1035 81 0 0.99 197 19:20 28.12.2019
1782 Clear -39 1035 81 0 0.99 197 18:57 28.12.2019
1783 Clear -39 1035 81 0 0.99 197 18:39 28.12.2019
1784 Clear -39 1035 81 0 0.99 197 18:18 28.12.2019
1785 Clear -39 1035 81 0 0.99 197 18:18 28.12.2019
1786 Clear -39 1035 81 0 0.99 197 17:54 28.12.2019
1787 Clear -39 1035 81 0 0.99 197 17:36 28.12.2019
1788 Clear -40 1035 84 0 0.85 206 17:18 28.12.2019
1789 Clear -40 1035 84 0 0.85 206 16:46 28.12.2019
1790 Clear -40 1035 84 0 0.85 206 16:25 28.12.2019
1791 Clear -40 1035 84 0 0.85 206 15:44 28.12.2019
1792 Clear -40 1035 84 0 0.85 206 15:24 28.12.2019
1793 Clear -40 1035 84 0 0.85 206 14:59 28.12.2019
1794 Clear -40 1035 84 0 0.85 206 14:39 28.12.2019
1795 Clear -40 1035 87 0 0.53 243 14:20 28.12.2019
1796 Clear -40 1035 87 0 0.53 243 13:56 28.12.2019
1797 Clear -40 1035 87 0 0.53 243 13:36 28.12.2019
1798 Clear -40 1035 86 0 0.57 244 13:18 28.12.2019
1799 Clear -40 1035 86 0 0.57 244 12:42 28.12.2019
1800 Clear -40 1035 86 0 0.57 244 12:23 28.12.2019
1801 Clear -40 1035 86 0 0.57 244 11:56 28.12.2019
1802 Clear -40 1035 86 0 0.57 244 11:38 28.12.2019
1803 Clear -40 1033 91 0 0.12 285 11:19 28.12.2019
1804 Clear -40 1033 91 0 0.12 285 10:44 28.12.2019
1805 Clear -40 1033 91 0 0.12 285 10:22 28.12.2019
1806 Clear -40 1033 91 0 0.12 285 09:57 28.12.2019
1807 Clear -40 1033 91 0 0.12 285 09:39 28.12.2019
1808 Clear -40 1033 91 0 0.12 285 09:19 28.12.2019
1809 Clear -40 1033 91 0 0.12 285 08:44 28.12.2019
1810 Clear -40 1033 91 0 0.12 285 08:26 28.12.2019
1811 Clouds -40 1033 96 0 0.2 74 07:53 28.12.2019
1812 Clouds -40 1033 96 0 0.2 74 07:31 28.12.2019
1813 Clouds -40 1033 96 0 0.2 74 06:41 28.12.2019
1814 Clouds -40 1033 98 0 0.04 215 04:51 28.12.2019
1815 Clouds -40 1033 98 0 0.04 215 03:47 28.12.2019
1816 Clouds -40 1033 98 0 0.04 215 02:48 28.12.2019
1817 Clouds -40 1032 99 0 0.37 111 01:59 28.12.2019
1818 Clouds -40 1032 99 0 0.37 111 01:30 28.12.2019
1819 Clouds -40 1032 99 0 0.32 125 00:58 28.12.2019
1820 Clouds -40 1032 99 0 0.32 125 00:40 28.12.2019
1821 Clouds -40 1032 99 0 0.32 125 00:20 28.12.2019
1822 Clouds -40 1032 99 0 0.32 125 23:44 27.12.2019
1823 Clouds -40 1031 100 0 0.16 5 23:20 27.12.2019
1824 Clouds -40 1031 100 0 0.16 5 22:58 27.12.2019
1825 Clouds -40 1031 100 0 0.16 5 22:39 27.12.2019
1826 Clouds -40 1031 100 0 0.16 5 22:20 27.12.2019
1827 Clouds -40 1031 100 0 0.16 5 21:58 27.12.2019
1828 Clouds -40 1031 100 0 0.16 5 21:37 27.12.2019
1829 Clouds -40 1031 100 0 0.16 5 21:19 27.12.2019
1830 Clouds -40 1031 100 0 0.16 5 20:42 27.12.2019
1831 Clouds -40 1031 100 0 0.16 5 20:23 27.12.2019
1832 Clouds -40 1031 100 0 0.27 106 19:54 27.12.2019
1833 Clouds -40 1031 100 0 0.27 106 19:36 27.12.2019
1834 Clouds -40 1031 100 0 0.27 106 19:18 27.12.2019
1835 Clouds -40 1031 100 0 0.27 106 18:40 27.12.2019
1836 Clouds -40 1031 100 0 0.27 106 18:22 27.12.2019
1837 Clouds -40 1031 100 0 0.27 106 17:58 27.12.2019
1838 Clouds -40 1031 100 0 0.27 106 17:40 27.12.2019
1839 Clouds -38 1030 97 0 0.52 52 17:19 27.12.2019
1840 Clouds -38 1030 97 0 0.52 52 16:59 27.12.2019
1841 Clouds -38 1030 97 0 0.52 52 16:39 27.12.2019
1842 Clouds -38 1030 97 0 0.52 52 16:20 27.12.2019
1843 Clouds -38 1030 97 0 0.52 52 15:45 27.12.2019
1844 Clouds -38 1030 97 0 0.52 52 15:23 27.12.2019
1845 Clouds -38 1030 97 0 0.52 52 14:58 27.12.2019
1846 Clouds -38 1030 97 0 0.52 52 14:40 27.12.2019
1847 Clouds -42 1031 99 0 0.26 116 14:21 27.12.2019
1848 Clouds -42 1031 99 0 0.26 116 13:58 27.12.2019
1849 Clouds -42 1031 99 0 0.26 116 13:40 27.12.2019
1850 Clouds -41 1030 100 0 0.28 77 13:21 27.12.2019
1851 Clouds -41 1030 100 0 0.28 77 12:44 27.12.2019
1852 Clouds -41 1030 100 0 0.28 77 12:26 27.12.2019
1853 Clouds -41 1030 100 0 0.28 77 12:26 27.12.2019
1854 Clouds -41 1030 100 0 0.28 77 11:56 27.12.2019
1855 Clouds -41 1030 100 0 0.28 77 11:38 27.12.2019
1856 Clouds -42 1029 98 0 0.35 160 11:19 27.12.2019
1857 Clouds -42 1029 98 0 0.35 160 10:45 27.12.2019
1858 Clouds -42 1029 98 0 0.35 160 10:23 27.12.2019
1859 Clouds -42 1029 98 0 0.35 160 09:50 27.12.2019
1860 Clouds -42 1029 98 0 0.35 160 09:22 27.12.2019
1861 Clouds -42 1029 98 0 0.35 160 08:59 27.12.2019
1862 Clouds -42 1029 98 0 0.35 160 08:41 27.12.2019
1863 Clouds -41 1030 97 0 0.56 173 08:22 27.12.2019
1864 Clouds -41 1030 97 0 0.56 173 07:38 27.12.2019
1865 Clouds -41 1030 97 0 0.56 173 07:19 27.12.2019
1866 Clouds -41 1030 97 0 0.56 173 06:25 27.12.2019
1867 Clouds -42 1030 99 0 0.23 199 04:39 27.12.2019
1868 Clouds -42 1030 99 0 0.23 199 02:29 27.12.2019
1869 Clouds -42 1031 99 0 0.33 82 01:45 27.12.2019
1870 Clouds -42 1031 99 0 0.37 94 01:23 27.12.2019
1871 Clouds -42 1031 99 0 0.37 94 00:47 27.12.2019
1872 Clouds -42 1031 99 0 0.37 94 00:27 27.12.2019
1873 Clouds -42 1031 99 0 0.37 94 23:56 26.12.2019
1874 Clouds -42 1031 99 0 0.37 94 23:38 26.12.2019
1875 Clouds -41 1030 99 0 0.36 73 23:20 26.12.2019
1876 Clouds -41 1030 99 0 0.36 73 22:41 26.12.2019
1877 Clouds -41 1030 99 0 0.36 73 22:19 26.12.2019
1878 Clouds -41 1030 99 0 0.36 73 21:40 26.12.2019
1879 Clouds -41 1030 99 0 0.36 73 21:22 26.12.2019
1880 Clouds -41 1030 99 0 0.36 73 20:59 26.12.2019
1881 Clouds -41 1030 99 0 0.36 73 20:41 26.12.2019
1882 Clouds -42 1031 96 0 0.63 86 20:22 26.12.2019
1883 Clouds -42 1031 96 0 0.63 86 19:57 26.12.2019
1884 Clouds -42 1031 96 0 0.63 86 19:38 26.12.2019
1885 Clouds -42 1031 96 0 0.63 86 19:20 26.12.2019
1886 Clouds -42 1031 96 0 0.63 86 18:57 26.12.2019
1887 Clouds -42 1031 96 0 0.63 86 18:37 26.12.2019
1888 Clouds -42 1031 96 0 0.63 86 18:18 26.12.2019
1889 Clouds -42 1031 96 0 0.63 86 17:42 26.12.2019
1890 Clouds -42 1031 96 0 0.63 86 17:42 26.12.2019
1891 Clouds -42 1031 96 0 0.52 94 17:22 26.12.2019
1892 Clouds -42 1031 96 0 0.52 94 16:54 26.12.2019
1893 Clouds -42 1031 96 0 0.52 94 16:36 26.12.2019
1894 Clouds -42 1031 96 0 0.52 94 16:36 26.12.2019
1895 Clouds -42 1031 96 0 0.52 94 16:18 26.12.2019
1896 Clouds -42 1031 96 0 0.52 94 15:41 26.12.2019
1897 Clouds -42 1031 96 0 0.52 94 15:20 26.12.2019
1898 Clouds -42 1031 96 0 0.52 94 14:54 26.12.2019
1899 Clouds -42 1031 96 0 0.52 94 14:36 26.12.2019
1900 Clouds -42 1031 96 0 0.71 90 14:18 26.12.2019
1901 Clouds -42 1031 96 0 0.71 90 13:42 26.12.2019
1902 Clouds -42 1031 98 0 0.65 91 13:20 26.12.2019
1903 Clouds -42 1031 98 0 0.65 91 12:56 26.12.2019
1904 Clouds -42 1031 98 0 0.65 91 12:37 26.12.2019
1905 Clouds -42 1031 98 0 0.65 91 12:19 26.12.2019
1906 Clouds -42 1031 98 0 0.65 91 11:56 26.12.2019
1907 Clouds -42 1031 98 0 0.65 91 11:37 26.12.2019
1908 Clouds -42 1031 98 0 0.65 91 11:37 26.12.2019
1909 Clouds -42 1031 97 0 0.7 94 11:19 26.12.2019
1910 Clouds -42 1031 97 0 0.7 94 10:41 26.12.2019
1911 Clouds -42 1031 97 0 0.7 94 10:18 26.12.2019
1912 Clouds -42 1031 97 0 0.7 94 09:43 26.12.2019
1913 Clouds -42 1031 97 0 0.7 94 09:25 26.12.2019
1914 Clouds -42 1031 97 0 0.7 94 08:42 26.12.2019
1915 Clouds -42 1031 97 0 0.7 94 08:24 26.12.2019
1916 Clouds -41 1031 97 0 0.53 131 07:52 26.12.2019
1917 Clouds -41 1031 97 0 0.53 131 07:26 26.12.2019
1918 Clouds -41 1031 97 0 0.53 131 06:52 26.12.2019
1919 Clouds -41 1031 97 0 0.53 131 06:31 26.12.2019
1920 Clouds -41 1031 97 0 0.53 131 05:45 26.12.2019
1921 Clouds -41 1032 96 0 0.88 186 04:55 26.12.2019
1922 Clouds -41 1032 96 0 0.88 186 04:29 26.12.2019
1923 Clouds -41 1032 96 0 0.88 186 02:54 26.12.2019
1924 Clouds -41 1032 96 0 0.88 186 02:34 26.12.2019
1925 Clouds -40 1032 94 0 0.93 212 01:48 26.12.2019
1926 Clouds -40 1032 94 0 0.93 212 01:28 26.12.2019
1927 Clouds -40 1032 95 0 0.92 209 00:49 26.12.2019
1928 Clouds -40 1032 95 0 0.92 209 00:27 26.12.2019
1929 Clouds -40 1032 95 0 0.92 209 23:58 25.12.2019
1930 Clouds -40 1032 95 0 0.92 209 23:39 25.12.2019
1931 Clouds -40 1032 97 0 0.96 215 23:21 25.12.2019
1932 Clouds -40 1032 97 0 0.96 215 22:59 25.12.2019
1933 Clouds -40 1032 97 0 0.96 215 22:39 25.12.2019
1934 Clouds -40 1032 97 0 0.96 215 22:20 25.12.2019
1935 Clouds -40 1032 97 0 0.96 215 21:58 25.12.2019
1936 Clouds -40 1032 97 0 0.96 215 21:39 25.12.2019
1937 Clouds -40 1032 97 0 0.96 215 21:20 25.12.2019
1938 Clouds -40 1032 97 0 0.96 215 20:56 25.12.2019
1939 Clouds -40 1032 97 0 0.96 215 20:38 25.12.2019
1940 Clouds -40 1033 97 0 0.93 225 20:18 25.12.2019
1941 Clouds -40 1033 97 0 0.93 225 20:18 25.12.2019
1942 Clouds -40 1033 97 0 0.93 225 19:43 25.12.2019
1943 Clouds -40 1033 97 0 0.93 225 19:24 25.12.2019
1944 Clouds -40 1033 97 0 0.93 225 18:58 25.12.2019
1945 Clouds -40 1033 97 0 0.93 225 18:37 25.12.2019
1946 Clouds -40 1033 97 0 0.93 225 18:18 25.12.2019
1947 Clouds -40 1033 97 0 0.93 225 17:41 25.12.2019
1948 Clouds -41 1033 98 0 1.08 230 17:19 25.12.2019
1949 Clouds -41 1033 98 0 1.08 230 16:58 25.12.2019
1950 Clouds -41 1033 98 0 1.08 230 16:37 25.12.2019
1951 Clouds -41 1033 98 0 1.08 230 16:18 25.12.2019
1952 Clouds -41 1033 98 0 1.08 230 15:57 25.12.2019
1953 Clouds -41 1033 98 0 1.08 230 15:57 25.12.2019
1954 Clouds -41 1033 98 0 1.08 230 15:38 25.12.2019
1955 Clouds -41 1033 98 0 1.08 230 15:20 25.12.2019
1956 Clouds -41 1033 98 0 1.08 230 14:57 25.12.2019
1957 Clouds -41 1033 98 0 1.08 230 14:39 25.12.2019
1958 Clouds -41 1033 98 0 1.08 230 14:39 25.12.2019
1959 Clouds -41 1034 99 0 0.9 224 14:20 25.12.2019
1960 Clouds -41 1034 99 0 0.9 224 13:44 25.12.2019
1961 Clouds -41 1034 98 0 0.81 224 13:21 25.12.2019
1962 Clouds -41 1034 98 0 0.81 224 12:57 25.12.2019
1963 Clouds -41 1034 98 0 0.81 224 12:38 25.12.2019
1964 Clouds -41 1034 98 0 0.81 224 12:19 25.12.2019
1965 Clouds -41 1034 98 0 0.81 224 11:43 25.12.2019
1966 Clouds -41 1034 98 0 0.81 224 11:22 25.12.2019
1967 Clouds -41 1034 97 0 1.25 215 10:59 25.12.2019
1968 Clouds -41 1034 97 0 1.25 215 10:59 25.12.2019
1969 Clouds -41 1034 97 0 1.25 215 10:37 25.12.2019
1970 Clouds -41 1034 97 0 1.25 215 10:19 25.12.2019
1971 Clouds -41 1034 97 0 1.25 215 09:45 25.12.2019
1972 Clouds -41 1034 97 0 1.25 215 09:27 25.12.2019
1973 Clouds -41 1034 97 0 1.25 215 08:47 25.12.2019
1974 Clouds -41 1034 97 0 1.25 215 08:28 25.12.2019
1975 Clouds -41 1034 99 0 1.05 226 07:49 25.12.2019
1976 Clouds -41 1034 99 0 1.05 226 07:31 25.12.2019
1977 Clouds -41 1034 99 0 1.05 226 06:49 25.12.2019
1978 Clouds -41 1034 99 0 1.05 226 06:22 25.12.2019
1979 Clouds -41 1033 99 0 1.04 222 05:18 25.12.2019
1980 Clouds -41 1033 99 0 1.04 222 04:38 25.12.2019
1981 Clouds -41 1033 99 0 1.04 222 04:18 25.12.2019
1982 Clouds -41 1033 99 0 1.04 222 03:40 25.12.2019
1983 Clouds -41 1033 99 0 1.04 222 02:51 25.12.2019
1984 Clear -41 1032 99 0 0.77 237 02:20 25.12.2019
1985 Clear -41 1032 99 0 0.77 237 01:25 25.12.2019
1986 Clear -41 1032 99 0 0.8 233 00:53 25.12.2019
1987 Clear -41 1032 99 0 0.8 233 00:30 25.12.2019
1988 Clear -41 1032 99 0 0.8 233 23:57 24.12.2019
1989 Clear -41 1032 99 0 0.8 233 23:38 24.12.2019
1990 Clear -40 1031 99 0 0.56 260 23:20 24.12.2019
1991 Clear -40 1031 99 0 0.56 260 22:41 24.12.2019
1992 Clear -40 1031 99 0 0.56 260 22:21 24.12.2019
1993 Clear -40 1031 99 0 0.56 260 21:44 24.12.2019
1994 Clear -40 1031 99 0 0.56 260 21:23 24.12.2019
1995 Clear -40 1031 99 0 0.56 260 20:57 24.12.2019
1996 Clear -40 1031 99 0 0.56 260 20:39 24.12.2019
1997 Clear -40 1030 99 0 0.21 220 20:19 24.12.2019
1998 Clear -40 1030 99 0 0.21 220 19:44 24.12.2019
1999 Clear -40 1030 99 0 0.21 220 19:20 24.12.2019
2000 Clear -40 1030 99 0 0.21 220 18:57 24.12.2019
2001 Clear -40 1030 99 0 0.21 220 18:38 24.12.2019
2002 Clear -40 1030 99 0 0.21 220 18:18 24.12.2019
2003 Clear -40 1030 99 0 0.21 220 17:39 24.12.2019
2004 Clear -40 1029 98 0 0.21 86 17:21 24.12.2019
2005 Clear -40 1029 98 0 0.21 86 16:55 24.12.2019
2006 Clear -40 1029 98 0 0.21 86 16:37 24.12.2019
2007 Clear -40 1029 98 0 0.21 86 16:19 24.12.2019
2008 Clear -40 1029 98 0 0.21 86 15:55 24.12.2019
2009 Clear -40 1029 98 0 0.21 86 15:36 24.12.2019
2010 Clear -40 1029 98 0 0.21 86 15:18 24.12.2019
2011 Clear -40 1029 98 0 0.21 86 14:56 24.12.2019
2012 Clear -40 1029 98 0 0.21 86 14:38 24.12.2019
2013 Clear -40 1028 99 0 0.69 71 14:20 24.12.2019
2014 Clear -40 1028 99 0 0.69 71 13:55 24.12.2019
2015 Clear -40 1028 99 0 0.69 71 13:37 24.12.2019
2016 Clear -40 1027 99 0 0.75 78 13:19 24.12.2019
2017 Clear -40 1027 99 0 0.75 78 13:19 24.12.2019
2018 Clear -40 1027 99 0 0.75 78 12:55 24.12.2019
2019 Clear -40 1027 99 0 0.75 78 12:36 24.12.2019
2020 Clear -40 1027 99 0 0.75 78 12:18 24.12.2019
2021 Clear -40 1027 99 0 0.75 78 11:55 24.12.2019
2022 Clear -40 1027 99 0 0.75 78 11:55 24.12.2019
2023 Clear -40 1027 99 0 0.75 78 11:37 24.12.2019
2024 Clear -40 1027 99 0 0.75 78 11:37 24.12.2019
2025 Clear -40 1026 99 0 0.95 79 11:18 24.12.2019
2026 Clear -40 1026 99 0 0.95 79 10:56 24.12.2019
2027 Clear -40 1026 99 0 0.95 79 10:37 24.12.2019
2028 Clear -40 1026 99 0 0.95 79 10:19 24.12.2019
2029 Clear -40 1026 99 0 0.95 79 09:55 24.12.2019
2030 Clear -40 1026 99 0 0.95 79 09:36 24.12.2019
2031 Clear -40 1026 99 0 0.95 79 09:18 24.12.2019
2032 Clear -40 1026 99 0 0.95 79 08:44 24.12.2019
2033 Clouds -40 1025 98 0 1.32 86 08:20 24.12.2019
2034 Clouds -40 1025 98 0 1.32 86 07:46 24.12.2019
2035 Clouds -40 1025 98 0 1.32 86 07:25 24.12.2019
2036 Clouds -40 1025 98 0 1.32 86 06:58 24.12.2019
2037 Clouds -40 1025 98 0 1.32 86 06:38 24.12.2019
2038 Clouds -40 1025 98 0 1.32 86 06:19 24.12.2019
2039 Clouds -38 1024 99 0 1.55 85 05:21 24.12.2019
2040 Clouds -38 1024 99 0 1.55 85 04:59 24.12.2019
2041 Clouds -38 1024 99 0 1.55 85 03:50 24.12.2019
2042 Clouds -38 1024 99 0 1.55 85 03:22 24.12.2019
2043 Clouds -38 1024 99 0 1.55 85 02:23 24.12.2019
2044 Clouds -34 1023 99 0 1.68 85 01:51 24.12.2019
2045 Clouds -33 1023 98 0 1.65 84 01:23 24.12.2019
2046 Clouds -33 1023 98 0 1.65 84 00:46 24.12.2019
2047 Clouds -33 1023 98 0 1.65 84 00:26 24.12.2019
2048 Clouds -33 1023 98 0 1.65 84 23:59 23.12.2019
2049 Clouds -33 1023 98 0 1.65 84 23:41 23.12.2019
2050 Clouds -33 1023 98 0 1.65 84 23:23 23.12.2019
2051 Clouds -31 1022 97 0 1.49 84 22:56 23.12.2019
2052 Clouds -31 1022 97 0 1.49 84 22:37 23.12.2019
2053 Clouds -31 1022 97 0 1.49 84 22:19 23.12.2019
2054 Clouds -31 1022 97 0 1.49 84 21:55 23.12.2019
2055 Clouds -31 1022 97 0 1.49 84 21:36 23.12.2019
2056 Clouds -31 1022 97 0 1.49 84 21:36 23.12.2019
2057 Clouds -31 1022 97 0 1.49 84 21:36 23.12.2019
2058 Clouds -31 1022 97 0 1.49 84 21:18 23.12.2019
2059 Clouds -31 1022 97 0 1.49 84 20:57 23.12.2019
2060 Clouds -31 1022 97 0 1.49 84 20:39 23.12.2019
2061 Snow -31 1022 98 0 1.32 85 20:18 23.12.2019
2062 Snow -31 1022 98 0 1.32 85 19:56 23.12.2019
2063 Snow -31 1022 98 0 1.32 85 19:38 23.12.2019
2064 Snow -31 1022 98 0 1.32 85 19:19 23.12.2019
2065 Snow -31 1022 98 0 1.32 85 18:57 23.12.2019
2066 Snow -31 1022 98 0 1.32 85 18:38 23.12.2019
2067 Snow -31 1022 98 0 1.32 85 18:20 23.12.2019
2068 Snow -31 1022 98 0 1.32 85 17:56 23.12.2019
2069 Snow -31 1022 98 0 1.32 85 17:37 23.12.2019
2070 Snow -30 1022 98 0 1.31 83 17:19 23.12.2019
2071 Snow -30 1022 98 0 1.31 83 16:54 23.12.2019
2072 Snow -30 1022 98 0 1.31 83 16:36 23.12.2019
2073 Snow -30 1022 98 0 1.31 83 16:18 23.12.2019
2074 Snow -30 1022 98 0 1.31 83 15:55 23.12.2019
2075 Snow -30 1022 98 0 1.31 83 15:36 23.12.2019
2076 Snow -30 1022 98 0 1.31 83 15:18 23.12.2019
2077 Snow -30 1022 98 0 1.31 83 14:42 23.12.2019
2078 Snow -30 1022 98 0 1.31 83 14:24 23.12.2019
2079 Snow -29 1021 98 0 1.28 89 13:59 23.12.2019
2080 Snow -29 1021 98 0 1.28 89 13:41 23.12.2019
2081 Snow -29 1021 98 0 1.38 87 13:22 23.12.2019
2082 Snow -29 1021 98 0 1.38 87 12:58 23.12.2019
2083 Snow -29 1021 98 0 1.38 87 12:58 23.12.2019
2084 Snow -29 1021 98 0 1.38 87 12:39 23.12.2019
2085 Snow -29 1021 98 0 1.38 87 12:20 23.12.2019
2086 Snow -29 1021 98 0 1.38 87 11:55 23.12.2019
2087 Snow -29 1021 98 0 1.38 87 11:37 23.12.2019
2088 Clouds -29 1021 97 0 1.22 90 11:18 23.12.2019
2089 Clouds -29 1021 97 0 1.22 90 10:54 23.12.2019
2090 Clouds -29 1021 97 0 1.22 90 10:36 23.12.2019
2091 Clouds -29 1021 97 0 1.22 90 10:18 23.12.2019
2092 Clouds -29 1021 97 0 1.22 90 10:18 23.12.2019
2093 Clouds -29 1021 97 0 1.22 90 09:40 23.12.2019
2094 Clouds -29 1021 97 0 1.22 90 09:22 23.12.2019
2095 Clouds -29 1021 97 0 1.22 90 08:58 23.12.2019
2096 Clouds -29 1021 97 0 1.22 90 08:40 23.12.2019
2097 Clouds -30 1023 97 0 0.83 114 08:22 23.12.2019
2098 Clouds -30 1023 97 0 0.83 114 07:48 23.12.2019
2099 Clouds -30 1023 97 0 0.83 114 07:21 23.12.2019
2100 Clouds -30 1023 97 0 0.83 114 06:57 23.12.2019
2101 Clouds -30 1023 97 0 0.83 114 06:30 23.12.2019
2102 Clouds -30 1023 97 0 0.83 114 05:56 23.12.2019
2103 Clouds -30 1023 97 0 0.83 114 05:30 23.12.2019
2104 Clouds -30 1022 97 0 0.53 124 04:40 23.12.2019
2105 Clouds -30 1022 97 0 0.53 124 03:36 23.12.2019
2106 Clouds -30 1022 97 0 0.53 124 02:43 23.12.2019
2107 Clouds -31 1023 97 0 0.51 180 02:19 23.12.2019
2108 Clouds -31 1023 97 0 0.51 180 01:45 23.12.2019
2109 Clouds -31 1023 97 0 0.59 167 01:27 23.12.2019
2110 Clouds -31 1023 97 0 0.59 167 00:45 23.12.2019
2111 Clouds -31 1023 97 0 0.59 167 00:25 23.12.2019
2112 Clouds -31 1023 97 0 0.59 167 23:56 22.12.2019
2113 Clouds -31 1023 97 0 0.59 167 23:37 22.12.2019
2114 Clouds -33 1023 100 0 0.81 170 23:18 22.12.2019
2115 Clouds -33 1023 100 0 0.81 170 22:41 22.12.2019
2116 Clouds -33 1023 100 0 0.81 170 22:22 22.12.2019
2117 Clouds -33 1023 100 0 0.81 170 21:59 22.12.2019
2118 Clouds -33 1023 100 0 0.81 170 21:40 22.12.2019
2119 Clouds -33 1023 100 0 0.81 170 21:21 22.12.2019
2120 Clouds -33 1023 100 0 0.81 170 21:21 22.12.2019
2121 Clouds -33 1023 100 0 0.81 170 20:59 22.12.2019
2122 Clouds -33 1023 100 0 0.81 170 20:39 22.12.2019
2123 Clouds -33 1022 100 0 0.43 158 20:19 22.12.2019
2124 Clouds -33 1022 100 0 0.43 158 19:57 22.12.2019
2125 Clouds -33 1022 100 0 0.43 158 19:39 22.12.2019
2126 Clouds -33 1022 100 0 0.43 158 19:20 22.12.2019
2127 Clouds -33 1022 100 0 0.43 158 18:43 22.12.2019
2128 Clouds -33 1022 100 0 0.43 158 18:25 22.12.2019
2129 Clouds -33 1022 100 0 0.43 158 17:57 22.12.2019
2130 Clouds -33 1022 100 0 0.43 158 17:39 22.12.2019
2131 Clouds -33 1022 100 0 0.67 159 17:19 22.12.2019
2132 Clouds -33 1022 100 0 0.67 159 17:19 22.12.2019
2133 Clouds -33 1022 100 0 0.67 159 16:59 22.12.2019
2134 Clouds -33 1022 100 0 0.67 159 16:41 22.12.2019
2135 Clouds -33 1022 100 0 0.67 159 16:22 22.12.2019
2136 Clouds -33 1022 100 0 0.67 159 16:22 22.12.2019
2137 Clouds -33 1022 100 0 0.67 159 15:57 22.12.2019
2138 Clouds -33 1022 100 0 0.67 159 15:39 22.12.2019
2139 Clouds -33 1022 100 0 0.67 159 15:39 22.12.2019
2140 Clouds -33 1022 100 0 0.67 159 15:20 22.12.2019
2141 Clouds -33 1022 100 0 0.67 159 14:56 22.12.2019
2142 Clouds -33 1022 100 0 0.67 159 14:38 22.12.2019
2143 Clouds -33 1022 99 0 0.46 149 14:19 22.12.2019
2144 Clouds -33 1022 99 0 0.46 149 14:19 22.12.2019
2145 Clouds -33 1022 99 0 0.46 149 13:55 22.12.2019
2146 Clouds -33 1022 99 0 0.46 149 13:37 22.12.2019
2147 Clouds -33 1022 100 0 0.58 119 13:19 22.12.2019
2148 Clouds -33 1022 100 0 0.58 119 13:19 22.12.2019
2149 Clouds -33 1022 100 0 0.58 119 13:19 22.12.2019
2150 Clouds -33 1022 100 0 0.58 119 12:56 22.12.2019
2151 Clouds -33 1022 100 0 0.58 119 12:38 22.12.2019
2152 Clouds -33 1022 100 0 0.58 119 12:19 22.12.2019
2153 Clouds -33 1022 100 0 0.58 119 11:56 22.12.2019
2154 Clouds -33 1022 100 0 0.58 119 11:38 22.12.2019
2155 Clouds -32 1021 99 0 0.55 98 11:19 22.12.2019
2156 Clouds -32 1021 99 0 0.55 98 10:56 22.12.2019
2157 Clouds -32 1021 99 0 0.55 98 10:38 22.12.2019
2158 Clouds -32 1021 99 0 0.55 98 10:19 22.12.2019
2159 Clouds -32 1021 99 0 0.55 98 10:19 22.12.2019
2160 Clouds -32 1021 99 0 0.55 98 09:57 22.12.2019
2161 Clouds -32 1021 99 0 0.55 98 09:39 22.12.2019
2162 Clouds -32 1021 99 0 0.55 98 09:20 22.12.2019
2163 Clouds -32 1021 99 0 0.55 98 08:42 22.12.2019
2164 Clouds -32 1020 98 0 0.7 98 08:22 22.12.2019
2165 Clouds -32 1020 98 0 0.7 98 07:44 22.12.2019
2166 Clouds -32 1020 98 0 0.7 98 07:21 22.12.2019
2167 Clouds -32 1020 98 0 0.7 98 06:53 22.12.2019
2168 Clouds -32 1020 98 0 0.7 98 06:26 22.12.2019
2169 Clouds -32 1020 98 0 0.7 98 05:33 22.12.2019
2170 Clouds -32 1019 99 0 0.55 84 04:46 22.12.2019
2171 Clouds -32 1019 99 0 0.55 84 04:25 22.12.2019
2172 Clouds -32 1019 99 0 0.55 84 02:46 22.12.2019
2173 Snow -31 1019 97 0 0.58 137 02:21 22.12.2019
2174 Snow -31 1019 97 0 0.58 137 01:31 22.12.2019
2175 Snow -31 1019 97 0 0.63 133 00:56 22.12.2019
2176 Snow -31 1019 97 0 0.63 133 00:36 22.12.2019
2177 Snow -31 1019 97 0 0.63 133 00:18 22.12.2019
2178 Snow -31 1019 97 0 0.63 133 23:40 21.12.2019
2179 Snow -31 1018 98 0 1.02 181 23:21 21.12.2019
2180 Snow -31 1018 98 0 1.02 181 22:56 21.12.2019
2181 Snow -31 1018 98 0 1.02 181 22:37 21.12.2019
2182 Snow -31 1018 98 0 1.02 181 22:18 21.12.2019
2183 Snow -31 1018 98 0 1.02 181 21:54 21.12.2019
2184 Snow -31 1018 98 0 1.02 181 21:36 21.12.2019
2185 Snow -31 1018 98 0 1.02 181 21:18 21.12.2019
2186 Snow -31 1018 98 0 1.02 181 20:55 21.12.2019
2187 Snow -31 1018 98 0 1.02 181 20:37 21.12.2019
2188 Snow -31 1017 98 0 1.05 205 20:18 21.12.2019
2189 Snow -30 1017 98 0 1.12 204 19:55 21.12.2019
2190 Snow -30 1017 98 0 1.12 204 19:36 21.12.2019
2191 Snow -30 1017 98 0 1.12 204 19:18 21.12.2019
2192 Snow -30 1017 98 0 1.12 204 18:41 21.12.2019
2193 Snow -30 1017 98 0 1.12 204 18:22 21.12.2019
2194 Snow -30 1017 98 0 1.12 204 17:56 21.12.2019
2195 Snow -30 1017 98 0 1.12 204 17:37 21.12.2019
2196 Snow -31 1017 98 0 1.08 218 17:19 21.12.2019
2197 Snow -31 1017 98 0 1.08 218 16:56 21.12.2019
2198 Snow -31 1017 98 0 1.08 218 16:38 21.12.2019
2199 Snow -31 1017 98 0 1.08 218 16:18 21.12.2019
2200 Snow -31 1017 98 0 1.08 218 15:55 21.12.2019
2201 Snow -31 1017 98 0 1.08 218 15:37 21.12.2019
2202 Snow -31 1017 98 0 1.08 218 15:18 21.12.2019
2203 Snow -31 1017 98 0 1.08 218 14:41 21.12.2019
2204 Snow -31 1017 98 0 1.08 218 14:23 21.12.2019
2205 Snow -33 1017 98 0 0.81 214 13:58 21.12.2019
2206 Snow -33 1017 98 0 0.81 214 13:58 21.12.2019
2207 Snow -33 1017 98 0 0.81 214 13:39 21.12.2019
2208 Snow -33 1017 98 0 0.83 211 13:19 21.12.2019
2209 Snow -33 1017 98 0 0.83 211 13:19 21.12.2019
2210 Snow -33 1017 98 0 0.83 211 12:56 21.12.2019
2211 Snow -33 1017 98 0 0.83 211 12:38 21.12.2019
2212 Snow -33 1017 98 0 0.83 211 12:20 21.12.2019
2213 Snow -33 1017 98 0 0.83 211 11:46 21.12.2019
2214 Snow -33 1017 98 0 0.83 211 11:27 21.12.2019
2215 Snow -34 1017 98 0 0.89 219 10:59 21.12.2019
2216 Snow -34 1017 98 0 0.89 219 10:40 21.12.2019
2217 Snow -34 1017 98 0 0.89 219 10:21 21.12.2019
2218 Snow -34 1017 98 0 0.89 219 09:58 21.12.2019
2219 Snow -34 1017 98 0 0.89 219 09:39 21.12.2019
2220 Snow -34 1017 98 0 0.89 219 09:19 21.12.2019
2221 Snow -34 1017 98 0 0.89 219 08:51 21.12.2019
2222 Snow -34 1017 98 0 0.89 219 08:27 21.12.2019
2223 Snow -34 1017 98 0 0.89 219 08:27 21.12.2019
2224 Snow -35 1018 98 0 0.4 227 07:58 21.12.2019
2225 Snow -35 1018 98 0 0.4 227 07:40 21.12.2019
2226 Snow -35 1018 98 0 0.4 227 07:21 21.12.2019
2227 Snow -35 1018 98 0 0.4 227 06:41 21.12.2019
2228 Snow -35 1018 98 0 0.4 227 06:23 21.12.2019
2229 Snow -35 1018 98 0 0.4 227 05:37 21.12.2019
2230 Clouds -36 1017 97 0 0.33 246 04:55 21.12.2019
2231 Clouds -36 1017 97 0 0.33 246 03:56 21.12.2019
2232 Clouds -36 1017 97 0 0.33 246 02:26 21.12.2019
2233 Clouds -38 1018 97 0 0.2 95 01:53 21.12.2019
2234 Clouds -38 1018 97 0 0.2 95 01:26 21.12.2019
2235 Clouds -38 1018 97 0 0.05 258 00:49 21.12.2019
2236 Clouds -38 1018 97 0 0.05 258 00:28 21.12.2019
2237 Clouds -38 1018 97 0 0.05 258 23:40 20.12.2019
2238 Clouds -38 1018 97 0 0.05 258 23:40 20.12.2019
2239 Clouds -39 1017 98 0 0.34 90 23:21 20.12.2019
2240 Clouds -39 1017 98 0 0.34 90 22:59 20.12.2019
2241 Clouds -39 1017 98 0 0.34 90 22:40 20.12.2019
2242 Clouds -39 1017 98 0 0.34 90 22:20 20.12.2019
2243 Clouds -39 1017 98 0 0.34 90 21:57 20.12.2019
2244 Clouds -39 1017 98 0 0.34 90 21:39 20.12.2019
2245 Clouds -39 1017 98 0 0.34 90 21:18 20.12.2019
2246 Clouds -39 1017 98 0 0.34 90 20:39 20.12.2019
2247 Clouds -39 1017 97 0 0.35 90 20:19 20.12.2019
2248 Clouds -39 1017 97 0 0.35 90 19:57 20.12.2019
2249 Clouds -39 1017 97 0 0.35 90 19:39 20.12.2019
2250 Clouds -39 1017 97 0 0.35 90 19:19 20.12.2019
2251 Clouds -39 1017 97 0 0.35 90 18:42 20.12.2019
2252 Clouds -39 1017 97 0 0.35 90 18:24 20.12.2019
2253 Clouds -39 1017 97 0 0.35 90 17:59 20.12.2019
2254 Clouds -39 1017 97 0 0.35 90 17:41 20.12.2019
2255 Clouds -41 1016 100 0 0.85 95 17:21 20.12.2019
2256 Clouds -41 1016 100 0 0.85 95 17:21 20.12.2019
2257 Clouds -41 1016 100 0 0.85 95 16:59 20.12.2019
2258 Clouds -41 1016 100 0 0.85 95 16:39 20.12.2019
2259 Clouds -41 1016 100 0 0.85 95 16:20 20.12.2019
2260 Clouds -41 1016 100 0 0.85 95 15:56 20.12.2019
2261 Clouds -41 1016 100 0 0.85 95 15:38 20.12.2019
2262 Clouds -41 1016 100 0 0.85 95 15:19 20.12.2019
2263 Clouds -41 1016 100 0 0.85 95 14:54 20.12.2019
2264 Clouds -41 1016 100 0 0.85 95 14:36 20.12.2019
2265 Clouds -41 1017 100 0 0.87 85 14:18 20.12.2019
2266 Clouds -41 1017 100 0 0.87 85 13:41 20.12.2019
2267 Clouds -41 1017 100 0 0.93 87 13:20 20.12.2019
2268 Clouds -41 1017 100 0 0.93 87 12:57 20.12.2019
2269 Clouds -41 1017 100 0 0.93 87 12:38 20.12.2019
2270 Clouds -41 1017 100 0 0.93 87 12:19 20.12.2019
2271 Clouds -41 1017 100 0 0.93 87 11:58 20.12.2019
2272 Clouds -41 1017 100 0 0.93 87 11:39 20.12.2019
2273 Clouds -41 1016 100 0 0.78 98 11:19 20.12.2019
2274 Clouds -41 1016 100 0 0.78 98 10:57 20.12.2019
2275 Clouds -41 1016 100 0 0.78 98 10:39 20.12.2019
2276 Clouds -41 1016 100 0 0.78 98 10:20 20.12.2019
2277 Clouds -41 1016 100 0 0.78 98 09:54 20.12.2019
2278 Clouds -41 1016 100 0 0.78 98 09:36 20.12.2019
2279 Clouds -41 1016 100 0 0.78 98 09:18 20.12.2019
2280 Clouds -41 1016 100 0 0.78 98 08:42 20.12.2019
2281 Clouds -41 1016 100 0 0.86 107 08:22 20.12.2019
2282 Clouds -40 1016 100 0 0.88 109 07:58 20.12.2019
2283 Clouds -40 1016 100 0 0.88 109 07:40 20.12.2019
2284 Clouds -40 1016 100 0 0.88 109 07:19 20.12.2019
2285 Clouds -40 1016 100 0 0.88 109 07:19 20.12.2019
2286 Clouds -40 1016 100 0 0.88 109 06:50 20.12.2019
2287 Clouds -40 1016 100 0 0.88 109 06:31 20.12.2019
2288 Clouds -40 1016 100 0 0.88 109 05:52 20.12.2019
2289 Clouds -40 1016 100 0 0.88 109 05:34 20.12.2019
2290 Clouds -40 1016 100 0 0.72 101 04:30 20.12.2019
2291 Clouds -40 1016 100 0 0.72 101 03:30 20.12.2019
2292 Clouds -40 1016 100 0 0.72 101 02:42 20.12.2019
2293 Clouds -39 1016 100 0 0.84 105 01:47 20.12.2019
2294 Clouds -39 1016 100 0 0.84 105 01:29 20.12.2019
2295 Clouds -39 1017 100 0 0.83 105 00:42 20.12.2019
2296 Clouds -39 1017 100 0 0.83 105 00:23 20.12.2019
2297 Clouds -39 1017 100 0 0.83 105 23:44 19.12.2019
2298 Clouds -39 1017 100 0 0.83 105 23:25 19.12.2019
2299 Clouds -38 1017 99 0 0.89 107 22:59 19.12.2019
2300 Clouds -38 1017 99 0 0.89 107 22:59 19.12.2019
2301 Clouds -38 1017 99 0 0.89 107 22:37 19.12.2019
2302 Clouds -38 1017 99 0 0.89 107 22:18 19.12.2019
2303 Clouds -38 1017 99 0 0.89 107 21:55 19.12.2019
2304 Clouds -38 1017 99 0 0.89 107 21:37 19.12.2019
2305 Clouds -38 1017 99 0 0.89 107 21:18 19.12.2019
2306 Clouds -38 1017 99 0 0.89 107 20:55 19.12.2019
2307 Clouds -38 1017 99 0 0.89 107 20:36 19.12.2019
2308 Clouds -38 1017 99 0 0.85 114 20:18 19.12.2019
2309 Clouds -38 1017 99 0 0.85 114 19:54 19.12.2019
2310 Clouds -38 1017 99 0 0.85 114 19:36 19.12.2019
2311 Clouds -38 1017 99 0 0.85 114 19:18 19.12.2019
2312 Clouds -38 1017 99 0 0.85 114 18:41 19.12.2019
2313 Clouds -38 1017 99 0 0.85 114 18:22 19.12.2019
2314 Clouds -38 1017 99 0 0.85 114 17:57 19.12.2019
2315 Clouds -38 1017 99 0 0.85 114 17:39 19.12.2019
2316 Clouds -37 1018 98 0 0.96 152 17:19 19.12.2019
2317 Clouds -37 1018 98 0 0.96 152 16:57 19.12.2019
2318 Clouds -37 1018 98 0 0.96 152 16:39 19.12.2019
2319 Clouds -37 1018 98 0 0.96 152 16:21 19.12.2019
2320 Clouds -37 1018 98 0 0.96 152 15:58 19.12.2019
2321 Clouds -37 1018 98 0 0.96 152 15:39 19.12.2019
2322 Clouds -37 1018 98 0 0.96 152 15:20 19.12.2019
2323 Clouds -37 1018 98 0 0.96 152 14:59 19.12.2019
2324 Clouds -37 1018 98 0 0.96 152 14:40 19.12.2019
2325 Clouds -36 1019 97 0 1.17 181 14:19 19.12.2019
2326 Clouds -36 1019 97 0 1.17 181 13:57 19.12.2019
2327 Clouds -36 1019 97 0 1.17 181 13:37 19.12.2019
2328 Clouds -36 1019 97 0 1.13 175 13:18 19.12.2019
2329 Clouds -36 1019 97 0 1.13 175 12:55 19.12.2019
2330 Clouds -36 1019 97 0 1.13 175 12:36 19.12.2019
2331 Clouds -36 1019 97 0 1.13 175 12:18 19.12.2019
2332 Clouds -36 1019 97 0 1.13 175 11:56 19.12.2019
2333 Clouds -36 1019 97 0 1.13 175 11:38 19.12.2019
2334 Clouds -36 1020 97 0 1.1 196 11:18 19.12.2019
2335 Clouds -36 1020 97 0 1.1 196 10:39 19.12.2019
2336 Clouds -36 1020 97 0 1.1 196 10:20 19.12.2019
2337 Clouds -36 1020 97 0 1.1 196 09:59 19.12.2019
2338 Clouds -36 1020 97 0 1.1 196 09:38 19.12.2019
2339 Clouds -36 1020 97 0 1.1 196 09:20 19.12.2019
2340 Clouds -36 1020 97 0 1.1 196 08:57 19.12.2019
2341 Clouds -36 1020 97 0 1.1 196 08:39 19.12.2019
2342 Clouds -36 1021 97 0 0.73 212 08:19 19.12.2019
2343 Clouds -36 1021 97 0 0.73 212 07:56 19.12.2019
2344 Clouds -36 1021 97 0 0.73 212 07:37 19.12.2019
2345 Clouds -36 1021 97 0 0.73 212 07:19 19.12.2019
2346 Clouds -36 1021 97 0 0.73 212 06:46 19.12.2019
2347 Clouds -36 1021 97 0 0.73 212 06:27 19.12.2019
2348 Clouds -36 1021 97 0 0.73 212 05:52 19.12.2019
2349 Clouds -36 1021 97 0 0.73 212 05:32 19.12.2019
2350 Clouds -37 1022 97 0 0.87 231 04:43 19.12.2019
2351 Clouds -37 1022 97 0 0.87 231 02:48 19.12.2019
2352 Clouds -38 1023 98 0 0.81 232 01:46 19.12.2019
2353 Clouds -37 1023 97 0 0.93 235 01:21 19.12.2019
2354 Clouds -37 1023 97 0 0.93 235 00:39 19.12.2019
2355 Clouds -37 1023 97 0 0.93 235 00:39 19.12.2019
2356 Clouds -37 1023 97 0 0.93 235 00:39 19.12.2019
2357 Clouds -37 1023 97 0 0.93 235 00:39 19.12.2019
2358 Clouds -37 1023 97 0 0.93 235 00:20 19.12.2019
2359 Clouds -37 1023 97 0 0.93 235 23:55 18.12.2019
2360 Clouds -37 1023 97 0 0.93 235 23:36 18.12.2019
2361 Clouds -39 1024 100 0 0.99 227 23:18 18.12.2019
2362 Clouds -39 1024 100 0 0.99 227 22:55 18.12.2019
2363 Clouds -39 1024 100 0 0.99 227 22:36 18.12.2019
2364 Clouds -39 1024 100 0 0.99 227 22:18 18.12.2019
2365 Clouds -39 1024 100 0 0.99 227 21:55 18.12.2019
2366 Clouds -39 1024 100 0 0.99 227 21:36 18.12.2019
2367 Clouds -39 1024 100 0 0.99 227 21:18 18.12.2019
2368 Clouds -39 1024 100 0 0.99 227 20:54 18.12.2019
2369 Clouds -39 1024 100 0 0.99 227 20:36 18.12.2019
2370 Clouds -40 1024 100 0 0.94 235 20:18 18.12.2019
2371 Clouds -40 1024 100 0 0.96 236 19:54 18.12.2019
2372 Clouds -40 1024 100 0 0.96 236 19:36 18.12.2019
2373 Clouds -40 1024 100 0 0.96 236 19:18 18.12.2019
2374 Clouds -40 1024 100 0 0.96 236 18:43 18.12.2019
2375 Clouds -40 1024 100 0 0.96 236 18:25 18.12.2019
2376 Clouds -40 1024 100 0 0.96 236 17:56 18.12.2019
2377 Clouds -40 1024 100 0 0.96 236 17:38 18.12.2019
2378 Clouds -40 1024 100 0 0.96 240 17:19 18.12.2019
2379 Clouds -40 1024 100 0 0.96 240 16:43 18.12.2019
2380 Clouds -40 1024 100 0 0.96 240 16:43 18.12.2019
2381 Clouds -40 1024 100 0 0.96 240 16:43 18.12.2019
2382 Clouds -40 1024 100 0 0.96 240 16:25 18.12.2019
2383 Clouds -40 1024 100 0 0.96 240 15:59 18.12.2019
2384 Clouds -40 1024 100 0 0.96 240 15:40 18.12.2019
2385 Clouds -40 1024 100 0 0.96 240 15:21 18.12.2019
2386 Clouds -40 1024 100 0 0.96 240 14:59 18.12.2019
2387 Clouds -40 1024 100 0 0.96 240 14:40 18.12.2019
2388 Clouds -40 1025 100 0 0.71 238 14:20 18.12.2019
2389 Clouds -40 1025 100 0 0.71 238 13:56 18.12.2019
2390 Clouds -40 1025 100 0 0.71 238 13:37 18.12.2019
2391 Clouds -40 1026 100 0 0.74 234 13:19 18.12.2019
2392 Clouds -40 1025 100 0 0.71 238 13:19 18.12.2019
2393 Clouds -40 1026 100 0 0.74 234 12:57 18.12.2019
2394 Clouds -40 1026 100 0 0.74 234 12:37 18.12.2019
2395 Clouds -40 1026 100 0 0.74 234 12:19 18.12.2019
2396 Clouds -40 1026 100 0 0.74 234 11:55 18.12.2019
2397 Clouds -40 1026 100 0 0.74 234 11:37 18.12.2019
2398 Clouds -40 1025 100 0 0.89 250 11:18 18.12.2019
2399 Clouds -40 1025 100 0 0.89 250 10:55 18.12.2019
2400 Clouds -40 1025 100 0 0.89 250 10:37 18.12.2019
2401 Clouds -40 1025 100 0 0.89 250 10:18 18.12.2019
2402 Clouds -40 1025 100 0 0.89 250 09:42 18.12.2019
2403 Clouds -40 1025 100 0 0.89 250 09:18 18.12.2019
2404 Clouds -40 1025 100 0 0.89 250 08:40 18.12.2019
2405 Clear -39 1025 100 0 0.57 250 08:21 18.12.2019
2406 Clear -39 1025 100 0 0.57 250 07:43 18.12.2019
2407 Clear -39 1025 100 0 0.57 250 07:22 18.12.2019
2408 Clear -39 1025 100 0 0.57 250 06:55 18.12.2019
2409 Clear -39 1025 100 0 0.57 250 06:27 18.12.2019
2410 Clear -39 1025 100 0 0.57 250 05:44 18.12.2019
2411 Clear -39 1025 100 0 0.3 238 04:52 18.12.2019
2412 Clear -39 1025 100 0 0.3 238 02:55 18.12.2019
2413 Clear -39 1025 100 0 0.3 238 02:36 18.12.2019
2414 Clouds -38 1025 100 0 0.14 128 02:18 18.12.2019
2415 Clouds -38 1025 100 0 0.14 128 01:40 18.12.2019
2416 Clouds -38 1025 100 0 0.14 128 01:21 18.12.2019
2417 Clouds -38 1025 100 0 0.18 150 00:40 18.12.2019
2418 Clouds -38 1025 100 0 0.18 150 00:22 18.12.2019
2419 Clouds -38 1025 100 0 0.18 150 23:56 17.12.2019
2420 Clouds -38 1025 100 0 0.18 150 23:37 17.12.2019
2421 Clouds -38 1023 100 0 0.38 60 23:18 17.12.2019
2422 Clouds -38 1023 100 0 0.38 60 22:55 17.12.2019
2423 Clouds -38 1023 100 0 0.38 60 22:37 17.12.2019
2424 Clouds -38 1023 100 0 0.38 60 22:18 17.12.2019
2425 Clouds -38 1023 100 0 0.38 60 21:55 17.12.2019
2426 Clouds -38 1023 100 0 0.38 60 21:55 17.12.2019
2427 Clouds -38 1023 100 0 0.38 60 21:37 17.12.2019
2428 Clouds -38 1023 100 0 0.38 60 21:18 17.12.2019
2429 Clouds -38 1023 100 0 0.38 60 20:56 17.12.2019
2430 Clouds -38 1023 100 0 0.38 60 20:37 17.12.2019
2431 Clouds -37 1023 100 0 0.48 97 20:18 17.12.2019
2432 Clouds -35 1023 100 0 0.48 82 19:54 17.12.2019
2433 Clouds -35 1023 100 0 0.48 82 19:36 17.12.2019
2434 Clouds -35 1023 100 0 0.48 82 19:18 17.12.2019
2435 Clouds -35 1023 100 0 0.48 82 18:41 17.12.2019
2436 Clouds -35 1023 100 0 0.48 82 18:22 17.12.2019
2437 Clouds -35 1023 100 0 0.48 82 17:59 17.12.2019
2438 Clouds -35 1023 100 0 0.48 82 17:41 17.12.2019
2439 Clouds -33 1022 99 0 0.56 70 17:19 17.12.2019
2440 Clouds -33 1022 99 0 0.56 70 16:56 17.12.2019
2441 Clouds -33 1022 99 0 0.56 70 16:37 17.12.2019
2442 Clouds -33 1022 99 0 0.56 70 16:19 17.12.2019
2443 Clouds -33 1022 99 0 0.56 70 15:56 17.12.2019
2444 Clouds -33 1022 99 0 0.56 70 15:37 17.12.2019
2445 Clouds -33 1022 99 0 0.56 70 15:37 17.12.2019
2446 Clouds -33 1022 99 0 0.56 70 15:19 17.12.2019
2447 Clouds -33 1022 99 0 0.56 70 15:19 17.12.2019
2448 Clouds -33 1022 99 0 0.56 70 14:55 17.12.2019
2449 Clouds -33 1022 99 0 0.56 70 14:36 17.12.2019
2450 Clouds -33 1021 99 0 0.44 66 14:18 17.12.2019
2451 Clouds -33 1021 99 0 0.44 66 13:55 17.12.2019
2452 Clouds -33 1021 99 0 0.44 66 13:55 17.12.2019
2453 Clouds -33 1021 99 0 0.44 66 13:37 17.12.2019
2454 Clouds -33 1021 99 0 0.44 78 13:18 17.12.2019
2455 Clouds -33 1021 99 0 0.44 78 12:41 17.12.2019
2456 Clouds -33 1021 99 0 0.44 78 12:19 17.12.2019
2457 Clouds -33 1021 99 0 0.44 78 12:19 17.12.2019
2458 Clouds -33 1021 99 0 0.44 78 12:19 17.12.2019
2459 Clouds -33 1021 99 0 0.44 78 11:59 17.12.2019
2460 Clouds -33 1021 99 0 0.44 78 11:37 17.12.2019
2461 Clouds -33 1020 99 0 0.7 55 11:19 17.12.2019
2462 Clouds -33 1020 99 0 0.7 55 10:59 17.12.2019
2463 Clouds -33 1020 99 0 0.7 55 10:41 17.12.2019
2464 Clouds -33 1020 99 0 0.7 55 10:41 17.12.2019
2465 Clouds -33 1020 99 0 0.7 55 10:22 17.12.2019
2466 Clouds -33 1020 99 0 0.7 55 09:59 17.12.2019
2467 Clouds -33 1020 99 0 0.7 55 09:41 17.12.2019
2468 Clouds -33 1020 99 0 0.7 55 09:20 17.12.2019
2469 Clouds -33 1020 99 0 0.7 55 08:56 17.12.2019
2470 Clouds -33 1020 99 0 0.7 55 08:38 17.12.2019
2471 Clouds -33 1019 100 0 0.67 85 08:19 17.12.2019
2472 Clouds -33 1019 100 0 0.67 85 07:47 17.12.2019
2473 Clouds -33 1019 100 0 0.67 85 07:27 17.12.2019
2474 Clouds -33 1019 100 0 0.67 85 06:59 17.12.2019
2475 Clouds -33 1019 100 0 0.67 85 06:35 17.12.2019
2476 Clouds -33 1019 100 0 0.67 85 05:54 17.12.2019
2477 Clouds -33 1019 100 0 0.67 85 05:36 17.12.2019
2478 Clouds -32 1017 99 0 0.76 86 04:31 17.12.2019
2479 Clouds -32 1017 99 0 0.76 86 02:45 17.12.2019
2480 Clouds -31 1017 98 0 0.52 61 01:56 17.12.2019
2481 Clouds -31 1017 98 0 0.56 52 01:18 17.12.2019
2482 Clouds -31 1017 98 0 0.56 52 00:38 17.12.2019
2483 Clouds -31 1017 98 0 0.56 52 00:38 17.12.2019
2484 Clouds -31 1017 98 0 0.56 52 00:19 17.12.2019
2485 Clouds -31 1017 98 0 0.56 52 23:42 16.12.2019
2486 Clouds -31 1016 98 0 0.68 89 23:19 16.12.2019
2487 Clouds -31 1016 98 0 0.68 89 22:58 16.12.2019
2488 Clouds -31 1016 98 0 0.68 89 22:37 16.12.2019
2489 Clouds -31 1016 98 0 0.68 89 22:19 16.12.2019
2490 Clouds -31 1016 98 0 0.68 89 22:19 16.12.2019
2491 Clouds -31 1016 98 0 0.68 89 22:19 16.12.2019
2492 Clouds -31 1016 98 0 0.68 89 21:56 16.12.2019
2493 Clouds -31 1016 98 0 0.68 89 21:37 16.12.2019
2494 Clouds -31 1016 98 0 0.68 89 21:19 16.12.2019
2495 Clouds -31 1016 98 0 0.68 89 20:57 16.12.2019
2496 Clouds -31 1016 98 0 0.68 89 20:38 16.12.2019
2497 Clouds -31 1016 97 0 0.56 75 20:19 16.12.2019
2498 Clouds -31 1016 97 0 0.56 75 19:56 16.12.2019
2499 Clouds -31 1016 97 0 0.56 75 19:37 16.12.2019
2500 Clouds -31 1016 97 0 0.56 75 19:19 16.12.2019
2501 Clouds -31 1016 97 0 0.56 75 18:56 16.12.2019
2502 Clouds -31 1016 97 0 0.56 75 18:56 16.12.2019
2503 Clouds -31 1016 97 0 0.56 75 18:38 16.12.2019
2504 Clouds -31 1016 97 0 0.56 75 18:19 16.12.2019
2505 Clouds -31 1016 97 0 0.56 75 17:57 16.12.2019
2506 Clouds -31 1016 97 0 0.56 75 17:38 16.12.2019
2507 Clouds -30 1015 97 0 0.62 78 17:20 16.12.2019
2508 Clouds -30 1015 97 0 0.62 78 16:57 16.12.2019
2509 Clouds -30 1015 97 0 0.62 78 16:38 16.12.2019
2510 Clouds -30 1015 97 0 0.62 78 16:19 16.12.2019
2511 Clouds -30 1015 97 0 0.62 78 15:57 16.12.2019
2512 Clouds -30 1015 97 0 0.62 78 15:38 16.12.2019
2513 Clouds -30 1015 97 0 0.62 78 15:20 16.12.2019
2514 Clouds -30 1015 97 0 0.62 78 14:55 16.12.2019
2515 Clouds -30 1015 97 0 0.62 78 14:37 16.12.2019
2516 Clouds -32 1016 97 0 0.73 95 14:18 16.12.2019
2517 Clouds -32 1016 97 0 0.73 95 14:18 16.12.2019
2518 Clouds -32 1016 97 0 0.73 95 13:56 16.12.2019
2519 Clouds -32 1016 97 0 0.73 95 13:37 16.12.2019
2520 Clouds -32 1016 97 0 0.73 95 13:19 16.12.2019
2521 Clouds -31 1015 97 0 0.68 103 12:57 16.12.2019
2522 Clouds -31 1015 97 0 0.68 103 12:39 16.12.2019
2523 Clouds -31 1015 97 0 0.68 103 12:18 16.12.2019
2524 Clouds -31 1015 97 0 0.6 99 11:57 16.12.2019
2525 Clouds -31 1015 97 0 0.68 103 11:39 16.12.2019
2526 Clouds -31 1014 97 0 0.35 60 11:19 16.12.2019
2527 Clouds -31 1014 97 0 0.51 75 10:54 16.12.2019
2528 Clouds -31 1014 97 0 0.51 75 10:36 16.12.2019
2529 Clouds -31 1014 97 0 0.35 60 10:18 16.12.2019
2530 Clouds -31 1014 97 0 0.51 75 09:44 16.12.2019
2531 Clouds -31 1014 97 0 0.51 75 09:26 16.12.2019
2532 Clouds -31 1014 97 0 0.51 75 08:41 16.12.2019
2533 Clouds -31 1014 97 0 0.49 114 08:20 16.12.2019
2534 Clouds -31 1014 97 0 0.49 114 07:53 16.12.2019
2535 Clouds -31 1014 97 0 0.49 114 07:31 16.12.2019
2536 Clouds -31 1014 97 0 0.49 114 06:59 16.12.2019
2537 Clouds -31 1014 97 0 0.49 114 06:40 16.12.2019
2538 Clouds -31 1014 97 0 0.49 114 06:21 16.12.2019
2539 Clouds -31 1014 97 0 0.49 114 05:41 16.12.2019
2540 Clouds -31 1014 97 0 0.49 114 05:23 16.12.2019
2541 Clouds -32 1013 96 0 0.75 85 03:29 16.12.2019
2542 Clouds -33 1014 93 0 0.51 81 01:52 16.12.2019
2543 Clouds -33 1014 93 0 0.51 81 01:33 16.12.2019
2544 Clouds -33 1014 95 0 0.51 83 00:41 16.12.2019
2545 Clouds -33 1014 95 0 0.51 83 00:21 16.12.2019
2546 Clouds -33 1014 95 0 0.51 83 23:57 15.12.2019
2547 Clouds -33 1014 95 0 0.51 83 23:37 15.12.2019
2548 Clouds -34 1013 91 0 0.99 85 23:19 15.12.2019
2549 Clouds -34 1013 91 0 0.99 85 22:54 15.12.2019
2550 Clouds -34 1013 91 0 0.99 85 22:36 15.12.2019
2551 Clouds -34 1013 91 0 0.99 85 22:18 15.12.2019
2552 Clouds -34 1013 91 0 0.99 85 21:55 15.12.2019
2553 Clouds -34 1013 91 0 0.99 85 21:36 15.12.2019
2554 Clouds -34 1013 91 0 0.99 85 21:18 15.12.2019
2555 Clouds -34 1013 91 0 0.99 85 20:54 15.12.2019
2556 Clouds -34 1013 91 0 0.99 85 20:36 15.12.2019
2557 Clouds -34 1014 87 0 0.86 74 20:18 15.12.2019
2558 Clouds -34 1013 87 0 0.8 78 19:54 15.12.2019
2559 Clouds -36 1013 90 0 0.83 79 19:36 15.12.2019
2560 Clouds -34 1013 87 0 0.8 78 19:18 15.12.2019
2561 Clouds -34 1013 87 0 0.8 78 18:54 15.12.2019
2562 Clouds -34 1013 87 0 0.8 78 18:36 15.12.2019
2563 Clouds -34 1013 87 0 0.8 78 18:18 15.12.2019
2564 Clouds -36 1013 90 0 0.83 79 17:55 15.12.2019
2565 Clouds -36 1013 90 0 0.83 79 17:36 15.12.2019
2566 Clouds -36 1013 87 0 0.96 81 17:18 15.12.2019
2567 Clouds -36 1013 87 0 0.96 81 16:42 15.12.2019
2568 Clouds -36 1013 87 0 0.96 81 16:22 15.12.2019
2569 Clouds -37 1013 89 0 0.99 78 15:57 15.12.2019
2570 Clouds -37 1013 89 0 0.99 78 15:39 15.12.2019
2571 Clouds -37 1013 89 0 0.99 78 15:19 15.12.2019
2572 Clouds -36 1013 87 0 0.96 81 14:56 15.12.2019
2573 Clouds -37 1013 89 0 0.99 78 14:37 15.12.2019
2574 Clouds -38 1013 86 0 0.85 74 14:19 15.12.2019
2575 Clouds -38 1013 88 0 0.8 74 13:58 15.12.2019
2576 Clouds -38 1013 86 0 0.85 74 13:39 15.12.2019
2577 Clouds -38 1013 88 0 0.8 74 13:20 15.12.2019
2578 Clouds -38 1013 88 0 0.8 74 12:57 15.12.2019
2579 Clouds -38 1013 88 0 0.8 74 12:57 15.12.2019
2580 Clouds -38 1013 88 0 0.8 74 12:39 15.12.2019
2581 Clouds -38 1013 88 0 0.8 74 12:21 15.12.2019
2582 Clouds -38 1013 88 0 0.8 74 11:59 15.12.2019
2583 Clouds -38 1013 88 0 0.8 74 11:37 15.12.2019
2584 Clouds -38 1013 85 0 1.06 72 11:19 15.12.2019
2585 Clouds -38 1013 85 0 1.06 72 11:19 15.12.2019
2586 Clouds -38 1013 85 0 1.06 72 10:55 15.12.2019
2587 Clouds -38 1013 85 0 1.06 72 10:37 15.12.2019
2588 Clouds -38 1013 85 0 1.06 72 10:19 15.12.2019
2589 Clouds -38 1013 85 0 1.06 72 09:56 15.12.2019
2590 Clouds -38 1013 85 0 1.06 72 09:37 15.12.2019
2591 Clouds -38 1013 85 0 1.06 72 09:18 15.12.2019
2592 Clouds -38 1013 85 0 1.06 72 08:41 15.12.2019
2593 Clouds -38 1013 87 0 0.56 92 08:22 15.12.2019
2594 Clouds -38 1013 87 0 0.56 92 07:57 15.12.2019
2595 Clouds -38 1013 87 0 0.56 92 07:37 15.12.2019
2596 Clouds -38 1013 87 0 0.56 92 06:57 15.12.2019
2597 Clouds -38 1013 87 0 0.56 92 06:23 15.12.2019
2598 Clouds -38 1013 87 0 0.56 92 05:42 15.12.2019
2599 Clouds -38 1013 87 0 0.38 69 05:20 15.12.2019
2600 Clouds -38 1013 87 0 0.38 69 04:18 15.12.2019
2601 Clouds -38 1013 87 0 0.38 69 02:35 15.12.2019
2602 Clouds -40 1013 90 0 0.17 253 01:57 15.12.2019
2603 Clouds -40 1013 90 0 0.17 253 01:39 15.12.2019
2604 Clouds -38 1013 89 0 0.04 105 01:18 15.12.2019
2605 Clouds -38 1013 89 0 0.04 105 00:44 15.12.2019
2606 Clouds -38 1013 89 0 0.04 105 00:44 15.12.2019
2607 Clouds -38 1013 89 0 0.04 105 00:25 15.12.2019
2608 Clouds -38 1013 89 0 0.04 105 23:41 14.12.2019
2609 Clouds -40 1013 92 0 0.49 253 23:22 14.12.2019
2610 Clouds -40 1013 92 0 0.49 253 22:59 14.12.2019
2611 Clouds -40 1013 92 0 0.49 253 22:41 14.12.2019
2612 Clouds -40 1013 92 0 0.49 253 22:22 14.12.2019
2613 Clouds -40 1013 92 0 0.49 253 21:56 14.12.2019
2614 Clouds -40 1013 92 0 0.49 253 21:38 14.12.2019
2615 Clouds -40 1013 92 0 0.49 253 21:19 14.12.2019
2616 Clouds -40 1013 92 0 0.49 253 20:58 14.12.2019
2617 Clouds -40 1013 92 0 0.49 253 20:39 14.12.2019
2618 Clouds -40 1014 99 0 0.44 276 20:20 14.12.2019
2619 Clouds -40 1014 99 0 0.44 276 19:57 14.12.2019
2620 Clouds -40 1014 99 0 0.44 276 19:37 14.12.2019
2621 Clouds -40 1014 99 0 0.44 276 19:19 14.12.2019
2622 Clouds -40 1014 99 0 0.44 276 18:56 14.12.2019
2623 Clouds -40 1014 99 0 0.44 276 18:37 14.12.2019
2624 Clouds -40 1014 99 0 0.44 276 18:19 14.12.2019
2625 Clouds -40 1014 99 0 0.44 276 17:44 14.12.2019
2626 Clouds -40 1014 99 0 0.44 276 17:24 14.12.2019
2627 Clouds -39 1015 99 0 0.23 56 16:58 14.12.2019
2628 Clouds -39 1015 99 0 0.23 56 16:39 14.12.2019
2629 Clouds -39 1015 99 0 0.23 56 16:18 14.12.2019
2630 Clouds -39 1015 99 0 0.23 56 15:43 14.12.2019
2631 Clouds -39 1015 99 0 0.23 56 15:22 14.12.2019
2632 Clouds -39 1015 99 0 0.23 56 14:59 14.12.2019
2633 Clouds -39 1015 99 0 0.23 56 14:39 14.12.2019
2634 Clouds -39 1016 98 0 0.33 48 14:20 14.12.2019
2635 Clouds -39 1016 98 0 0.33 48 13:57 14.12.2019
2636 Clouds -39 1016 98 0 0.33 48 13:38 14.12.2019
2637 Clouds -39 1016 98 0 0.33 48 13:18 14.12.2019
2638 Clouds -39 1016 96 0 0.41 57 12:55 14.12.2019
2639 Clouds -40 1016 97 0 0.28 40 12:37 14.12.2019
2640 Clouds -40 1016 97 0 0.28 40 12:18 14.12.2019
2641 Clouds -39 1016 96 0 0.41 57 11:55 14.12.2019
2642 Clouds -40 1016 97 0 0.28 40 11:36 14.12.2019
2643 Clear -39 1017 94 0 0.73 70 11:18 14.12.2019
2644 Clear -39 1017 93 0 0.77 71 10:55 14.12.2019
2645 Clear -39 1017 93 0 0.77 71 10:37 14.12.2019
2646 Clear -39 1017 93 0 0.77 71 10:18 14.12.2019
2647 Clear -39 1017 93 0 0.77 71 09:40 14.12.2019
2648 Clear -39 1017 93 0 0.77 71 09:20 14.12.2019
2649 Clear -39 1017 93 0 0.77 71 09:20 14.12.2019
2650 Clear -39 1017 93 0 0.77 71 08:44 14.12.2019
2651 Clear -39 1018 91 0 0.72 81 08:20 14.12.2019
2652 Clear -39 1018 91 0 0.72 81 07:57 14.12.2019
2653 Clear -39 1018 91 0 0.72 81 07:38 14.12.2019
2654 Clear -39 1018 91 0 0.72 81 07:19 14.12.2019
2655 Clear -39 1018 91 0 0.72 81 06:41 14.12.2019
2656 Clear -39 1018 91 0 0.72 81 06:22 14.12.2019
2657 Clear -39 1018 90 0 0.14 66 05:22 14.12.2019
2658 Clear -39 1018 90 0 0.14 66 02:50 14.12.2019
2659 Clear -39 1020 89 0 0.66 98 02:22 14.12.2019
2660 Clear -39 1020 89 0 0.66 98 01:43 14.12.2019
2661 Clear -39 1020 86 0 0.6 104 00:55 14.12.2019
2662 Clear -39 1020 86 0 0.6 104 00:37 14.12.2019
2663 Clear -39 1020 86 0 0.6 104 00:18 14.12.2019
2664 Clear -39 1020 86 0 0.6 104 23:41 13.12.2019
2665 Clear -39 1020 87 0 0.2 181 23:19 13.12.2019
2666 Clear -39 1020 87 0 0.2 181 22:56 13.12.2019
2667 Clear -39 1020 87 0 0.2 181 22:37 13.12.2019
2668 Clear -39 1020 87 0 0.2 181 22:18 13.12.2019
2669 Clear -39 1020 87 0 0.2 181 21:42 13.12.2019
2670 Clear -39 1020 87 0 0.2 181 21:21 13.12.2019
2671 Clear -39 1020 87 0 0.2 181 20:58 13.12.2019
2672 Clear -39 1020 87 0 0.2 181 20:39 13.12.2019
2673 Clouds -36 1020 96 0 0.3 122 20:20 13.12.2019
2674 Clouds -36 1020 96 0 0.3 122 19:56 13.12.2019
2675 Clouds -36 1020 96 0 0.3 122 19:38 13.12.2019
2676 Clouds -36 1020 96 0 0.3 122 19:19 13.12.2019
2677 Clouds -36 1020 96 0 0.3 122 18:54 13.12.2019
2678 Clouds -36 1020 96 0 0.3 122 18:36 13.12.2019
2679 Clouds -36 1020 96 0 0.3 122 18:18 13.12.2019
2680 Clouds -36 1020 96 0 0.3 122 17:40 13.12.2019
2681 Clouds -36 1019 94 0 0.15 125 17:18 13.12.2019
2682 Clouds -36 1019 94 0 0.15 125 16:56 13.12.2019
2683 Clouds -36 1019 94 0 0.15 125 16:38 13.12.2019
2684 Clouds -36 1019 94 0 0.15 125 16:20 13.12.2019
2685 Clouds -36 1019 94 0 0.15 125 15:42 13.12.2019
2686 Clouds -36 1019 94 0 0.15 125 15:21 13.12.2019
2687 Clouds -36 1019 94 0 0.15 125 14:57 13.12.2019
2688 Clouds -36 1019 94 0 0.15 125 14:38 13.12.2019
2689 Clouds -35 1020 92 0 0.63 99 14:19 13.12.2019
2690 Clouds -35 1020 92 0 0.63 99 13:44 13.12.2019
2691 Clouds -34 1020 91 0 0.49 101 13:26 13.12.2019
2692 Clouds -34 1020 91 0 0.49 101 12:58 13.12.2019
2693 Clouds -34 1020 91 0 0.49 101 12:40 13.12.2019
2694 Clouds -34 1020 91 0 0.49 101 12:19 13.12.2019
2695 Clouds -34 1020 91 0 0.49 101 12:19 13.12.2019
2696 Clouds -34 1020 91 0 0.49 101 11:45 13.12.2019
2697 Clouds -34 1020 91 0 0.49 101 11:26 13.12.2019
2698 Clouds -35 1020 91 0 0.13 51 10:58 13.12.2019
2699 Clouds -35 1020 91 0 0.13 51 10:40 13.12.2019
2700 Clouds -35 1020 91 0 0.13 51 10:21 13.12.2019
2701 Clouds -35 1020 91 0 0.13 51 09:43 13.12.2019
2702 Clouds -35 1020 91 0 0.13 51 09:22 13.12.2019
2703 Clouds -35 1020 91 0 0.13 51 08:55 13.12.2019
2704 Clouds -35 1020 91 0 0.13 51 08:55 13.12.2019
2705 Clouds -35 1020 91 0 0.13 51 08:36 13.12.2019
2706 Clouds -36 1020 95 0 0.71 123 08:18 13.12.2019
2707 Clouds -36 1020 95 0 0.71 123 07:42 13.12.2019
2708 Clouds -36 1020 95 0 0.71 123 07:19 13.12.2019
2709 Clouds -36 1020 95 0 0.71 123 06:46 13.12.2019
2710 Clouds -36 1020 95 0 0.71 123 06:27 13.12.2019
2711 Clouds -36 1020 95 0 0.71 123 05:41 13.12.2019
2712 Clouds -35 1019 93 0 0.54 73 05:20 13.12.2019
2713 Clouds -35 1019 93 0 0.54 73 04:29 13.12.2019
2714 Clouds -35 1019 93 0 0.54 73 02:57 13.12.2019
2715 Clouds -35 1019 93 0 0.54 73 02:30 13.12.2019
2716 Clouds -37 1019 94 0 0.59 79 01:39 13.12.2019
2717 Clouds -36 1019 93 0 0.57 70 00:51 13.12.2019
2718 Clouds -36 1019 93 0 0.57 70 00:29 13.12.2019
2719 Clouds -36 1019 93 0 0.57 70 23:46 12.12.2019
2720 Clouds -36 1019 93 0 0.57 70 23:27 12.12.2019
2721 Clouds -36 1018 93 0 0.37 98 22:57 12.12.2019
2722 Clouds -36 1018 93 0 0.37 98 22:39 12.12.2019
2723 Clouds -36 1018 93 0 0.37 98 22:21 12.12.2019
2724 Clouds -36 1018 93 0 0.37 98 21:56 12.12.2019
2725 Clouds -36 1018 93 0 0.37 98 21:38 12.12.2019
2726 Clouds -36 1018 93 0 0.37 98 21:20 12.12.2019
2727 Clouds -36 1018 93 0 0.37 98 21:20 12.12.2019
2728 Clouds -36 1018 93 0 0.37 98 20:59 12.12.2019
2729 Clouds -36 1018 93 0 0.37 98 20:40 12.12.2019
2730 Clear -38 1018 94 0 0.35 103 20:22 12.12.2019
2731 Clear -38 1018 94 0 0.35 103 19:56 12.12.2019
2732 Clear -38 1018 94 0 0.35 103 19:38 12.12.2019
2733 Clear -38 1018 94 0 0.35 103 19:20 12.12.2019
2734 Clear -38 1018 94 0 0.35 103 18:56 12.12.2019
2735 Clear -38 1018 94 0 0.35 103 18:56 12.12.2019
2736 Clear -38 1018 94 0 0.35 103 18:38 12.12.2019
2737 Clear -38 1018 94 0 0.35 103 18:19 12.12.2019
2738 Clear -38 1018 94 0 0.35 103 17:57 12.12.2019
2739 Clear -38 1018 94 0 0.35 103 17:38 12.12.2019
2740 Clouds -38 1017 92 0 0.23 106 17:19 12.12.2019
2741 Clouds -38 1017 92 0 0.23 106 16:56 12.12.2019
2742 Clouds -38 1017 92 0 0.23 106 16:37 12.12.2019
2743 Clouds -38 1017 92 0 0.23 106 16:19 12.12.2019
2744 Clouds -38 1017 92 0 0.23 106 15:54 12.12.2019
2745 Clouds -38 1017 92 0 0.23 106 15:36 12.12.2019
2746 Clouds -38 1017 92 0 0.23 106 15:18 12.12.2019
2747 Clouds -38 1017 92 0 0.23 106 14:38 12.12.2019
2748 Clear -39 1017 91 0 0.57 118 14:20 12.12.2019
2749 Clear -39 1017 91 0 0.57 118 13:57 12.12.2019
2750 Clear -39 1017 91 0 0.57 118 13:39 12.12.2019
2751 Clear -39 1017 89 0 0.53 119 13:21 12.12.2019
2752 Clear -39 1017 89 0 0.53 119 12:57 12.12.2019
2753 Clear -39 1017 89 0 0.53 119 12:39 12.12.2019
2754 Clear -39 1017 89 0 0.53 119 12:20 12.12.2019
2755 Clear -39 1017 89 0 0.53 119 11:56 12.12.2019
2756 Clear -39 1017 89 0 0.53 119 11:37 12.12.2019
2757 Clear -39 1016 90 0 0.11 144 11:19 12.12.2019
2758 Clear -39 1016 90 0 0.11 144 10:55 12.12.2019
2759 Clear -39 1016 90 0 0.11 144 10:37 12.12.2019
2760 Clear -39 1016 90 0 0.11 144 10:18 12.12.2019
2761 Clear -39 1016 90 0 0.11 144 09:42 12.12.2019
2762 Clear -39 1016 90 0 0.11 144 09:24 12.12.2019
2763 Clear -39 1016 90 0 0.11 144 08:58 12.12.2019
2764 Clear -39 1016 90 0 0.11 144 08:38 12.12.2019
2765 Clear -39 1016 90 0 0.11 144 08:38 12.12.2019
2766 Clear -39 1016 90 0 0.72 79 08:20 12.12.2019
2767 Clear -39 1016 91 0 0.57 70 07:46 12.12.2019
2768 Clear -39 1016 91 0 0.57 70 07:25 12.12.2019
2769 Clear -39 1016 91 0 0.57 70 06:54 12.12.2019
2770 Clear -39 1016 91 0 0.57 70 06:33 12.12.2019
2771 Clear -39 1016 91 0 0.57 70 05:40 12.12.2019
2772 Clear -39 1016 92 0 0.34 104 04:54 12.12.2019
2773 Clear -39 1016 92 0 0.34 104 03:37 12.12.2019
2774 Clear -39 1016 92 0 0.34 104 02:39 12.12.2019
2775 Clear -39 1016 92 0 0.58 79 02:20 12.12.2019
2776 Clear -39 1016 92 0 0.58 79 01:43 12.12.2019
2777 Clear -39 1016 92 0 0.58 79 01:24 12.12.2019
2778 Clear -39 1016 93 0 0.58 74 00:47 12.12.2019
2779 Clear -39 1016 93 0 0.58 74 00:20 12.12.2019
2780 Clear -39 1016 93 0 0.58 74 23:44 11.12.2019
2781 Clear -38 1016 93 0 0.51 69 23:21 11.12.2019
2782 Clear -38 1016 93 0 0.51 69 22:58 11.12.2019
2783 Clear -38 1016 93 0 0.51 69 22:39 11.12.2019
2784 Clear -38 1016 93 0 0.51 69 22:20 11.12.2019
2785 Clear -38 1016 93 0 0.51 69 21:57 11.12.2019
2786 Clear -38 1016 93 0 0.51 69 21:39 11.12.2019
2787 Clear -38 1016 93 0 0.51 69 21:20 11.12.2019
2788 Clear -38 1016 93 0 0.51 69 20:56 11.12.2019
2789 Clear -38 1016 93 0 0.51 69 20:56 11.12.2019
2790 Clear -38 1016 93 0 0.51 69 20:38 11.12.2019
2791 Clouds -38 1016 98 0 0.6 78 20:19 11.12.2019
2792 Clouds -38 1016 98 0 0.6 78 19:58 11.12.2019
2793 Clouds -38 1016 98 0 0.6 78 19:40 11.12.2019
2794 Clouds -38 1016 98 0 0.6 78 19:19 11.12.2019
2795 Clouds -38 1016 98 0 0.6 78 18:55 11.12.2019
2796 Clouds -38 1016 98 0 0.6 78 18:37 11.12.2019
2797 Clouds -38 1016 98 0 0.6 78 18:37 11.12.2019
2798 Clouds -38 1016 98 0 0.6 78 18:18 11.12.2019
2799 Clouds -38 1016 98 0 0.6 78 17:54 11.12.2019
2800 Clouds -38 1016 98 0 0.6 78 17:36 11.12.2019
2801 Clouds -38 1016 98 0 0.42 65 17:18 11.12.2019
2802 Clouds -38 1016 98 0 0.42 65 16:55 11.12.2019
2803 Clouds -38 1016 98 0 0.42 65 16:36 11.12.2019
2804 Clouds -38 1016 98 0 0.42 65 16:18 11.12.2019
2805 Clouds -38 1016 98 0 0.42 65 15:41 11.12.2019
2806 Clouds -38 1016 98 0 0.42 65 15:23 11.12.2019
2807 Clouds -38 1016 98 0 0.42 65 15:23 11.12.2019
2808 Clouds -38 1016 98 0 0.42 65 14:57 11.12.2019
2809 Clouds -38 1016 98 0 0.42 65 14:39 11.12.2019
2810 Clouds -38 1017 97 0 0.84 88 14:20 11.12.2019
2811 Clouds -38 1017 97 0 0.84 88 13:58 11.12.2019
2812 Clouds -38 1017 97 0 0.84 88 13:39 11.12.2019
2813 Clouds -38 1017 97 0 0.84 88 13:20 11.12.2019
2814 Clouds -38 1017 98 0 0.77 88 13:20 11.12.2019
2815 Clouds -38 1017 98 0 0.77 88 12:57 11.12.2019
2816 Clouds -38 1017 98 0 0.77 88 12:38 11.12.2019
2817 Clouds -38 1017 98 0 0.77 88 12:20 11.12.2019
2818 Clouds -38 1017 98 0 0.77 88 11:57 11.12.2019
2819 Clouds -38 1017 98 0 0.77 88 11:38 11.12.2019
2820 Clouds -38 1017 98 0 0.77 88 11:38 11.12.2019
2821 Clouds -38 1017 99 0 0.69 86 11:18 11.12.2019
2822 Clouds -38 1017 99 0 0.69 86 11:18 11.12.2019
2823 Clouds -38 1017 99 0 0.69 86 11:18 11.12.2019
2824 Clouds -38 1017 99 0 0.69 86 10:55 11.12.2019
2825 Clouds -38 1017 99 0 0.69 86 10:37 11.12.2019
2826 Clouds -38 1017 99 0 0.69 86 10:19 11.12.2019
2827 Clouds -38 1017 99 0 0.69 86 09:41 11.12.2019
2828 Clouds -38 1017 99 0 0.69 86 09:21 11.12.2019
2829 Clouds -38 1017 99 0 0.69 86 08:58 11.12.2019
2830 Clouds -38 1017 99 0 0.69 86 08:38 11.12.2019
2831 Clouds -38 1018 99 0 0.64 95 08:19 11.12.2019
2832 Clouds -38 1018 99 0 0.64 95 07:55 11.12.2019
2833 Clouds -38 1018 99 0 0.64 95 07:37 11.12.2019
2834 Clouds -38 1018 99 0 0.64 95 07:18 11.12.2019
2835 Clouds -38 1018 99 0 0.64 95 07:18 11.12.2019
2836 Clouds -38 1018 99 0 0.64 95 06:43 11.12.2019
2837 Clouds -38 1018 99 0 0.64 95 06:22 11.12.2019
2838 Clouds -38 1018 99 0 0.64 95 05:41 11.12.2019
2839 Clear -38 1019 99 0 0.66 101 05:20 11.12.2019
2840 Clear -38 1019 99 0 0.66 101 04:28 11.12.2019
2841 Clear -38 1019 99 0 0.66 101 02:49 11.12.2019
2842 Clouds -38 1020 99 0 0.72 99 01:25 11.12.2019
2843 Clouds -38 1020 99 0 0.72 99 00:47 11.12.2019
2844 Clouds -38 1020 99 0 0.72 99 00:21 11.12.2019
2845 Clouds -38 1020 99 0 0.72 99 23:50 10.12.2019
2846 Clouds -38 1020 99 0 0.72 99 23:30 10.12.2019
2847 Clouds -37 1020 99 0 0.68 114 22:59 10.12.2019
2848 Clouds -37 1020 99 0 0.68 114 22:40 10.12.2019
2849 Clouds -37 1020 99 0 0.68 114 22:40 10.12.2019
2850 Clouds -37 1020 99 0 0.68 114 22:22 10.12.2019
2851 Clouds -37 1020 99 0 0.68 114 21:57 10.12.2019
2852 Clouds -37 1020 99 0 0.68 114 21:39 10.12.2019
2853 Clouds -37 1020 99 0 0.68 114 21:21 10.12.2019
2854 Clouds -37 1020 99 0 0.68 114 20:57 10.12.2019
2855 Clouds -37 1020 99 0 0.68 114 20:38 10.12.2019
2856 Clouds -37 1020 99 0 0.68 114 20:38 10.12.2019
2857 Clouds -37 1021 99 0 0.61 119 20:19 10.12.2019
2858 Clouds -37 1021 99 0 0.61 119 19:55 10.12.2019
2859 Clouds -37 1021 99 0 0.61 119 19:37 10.12.2019
2860 Clouds -37 1021 99 0 0.61 119 19:19 10.12.2019
2861 Clouds -37 1021 99 0 0.61 119 18:41 10.12.2019
2862 Clouds -37 1021 99 0 0.61 119 18:21 10.12.2019
2863 Clouds -37 1021 99 0 0.61 119 17:58 10.12.2019
2864 Clouds -37 1021 99 0 0.61 119 17:40 10.12.2019
2865 Clouds -37 1021 99 0 0.61 119 17:40 10.12.2019
2866 Clouds -37 1021 98 0 0.67 134 17:20 10.12.2019
2867 Clouds -37 1021 98 0 0.67 134 16:54 10.12.2019
2868 Clouds -37 1021 98 0 0.67 134 16:36 10.12.2019
2869 Clouds -37 1021 98 0 0.67 134 16:18 10.12.2019
2870 Clouds -37 1021 98 0 0.67 134 15:38 10.12.2019
2871 Clouds -37 1021 98 0 0.67 134 15:18 10.12.2019
2872 Clouds -37 1021 98 0 0.67 134 14:56 10.12.2019
2873 Clouds -37 1021 98 0 0.67 134 14:38 10.12.2019
2874 Clouds -36 1022 96 0 0.55 147 14:19 10.12.2019
2875 Clouds -36 1022 96 0 0.55 147 13:57 10.12.2019
2876 Clouds -36 1022 96 0 0.55 147 13:39 10.12.2019
2877 Clouds -36 1022 98 0 0.66 162 13:20 10.12.2019
2878 Clouds -36 1022 98 0 0.66 162 12:48 10.12.2019
2879 Clouds -36 1022 98 0 0.66 162 12:28 10.12.2019
2880 Clouds -36 1022 98 0 0.66 162 11:56 10.12.2019
2881 Clouds -36 1022 98 0 0.66 162 11:38 10.12.2019
2882 Clouds -36 1022 98 0 0.48 114 11:19 10.12.2019
2883 Clouds -36 1022 98 0 0.48 114 10:43 10.12.2019
2884 Clouds -36 1022 98 0 0.48 114 10:24 10.12.2019
2885 Clouds -36 1022 98 0 0.48 114 09:57 10.12.2019
2886 Clouds -36 1022 98 0 0.48 114 09:39 10.12.2019
2887 Clouds -36 1022 98 0 0.48 114 09:20 10.12.2019
2888 Clouds -36 1022 98 0 0.48 114 08:58 10.12.2019
2889 Clouds -36 1022 98 0 0.48 114 08:39 10.12.2019
2890 Clouds -35 1022 89 0 0.52 109 08:20 10.12.2019
2891 Clouds -35 1022 89 0 0.52 109 07:45 10.12.2019
2892 Clouds -35 1022 89 0 0.52 109 07:27 10.12.2019
2893 Clouds -35 1022 89 0 0.52 109 06:55 10.12.2019
2894 Clouds -35 1022 89 0 0.52 109 06:37 10.12.2019
2895 Clouds -35 1022 89 0 0.52 109 06:19 10.12.2019
2896 Clouds -35 1022 89 0 0.52 109 05:47 10.12.2019
2897 Clouds -34 1021 85 0 0.27 113 04:23 10.12.2019
2898 Clouds -34 1021 85 0 0.27 113 03:25 10.12.2019
2899 Clouds -34 1022 83 0 0.43 60 01:57 10.12.2019
2900 Clouds -34 1022 83 0 0.43 60 01:38 10.12.2019
2901 Clouds -34 1022 83 0 0.55 63 01:18 10.12.2019
2902 Clouds -34 1022 83 0 0.55 63 00:29 10.12.2019
2903 Clouds -34 1022 83 0 0.55 63 23:59 09.12.2019
2904 Clouds -34 1022 83 0 0.55 63 23:39 09.12.2019
2905 Clouds -31 1021 81 0 0.46 91 23:20 09.12.2019
2906 Clouds -31 1021 81 0 0.46 91 22:56 09.12.2019
2907 Clouds -31 1021 81 0 0.46 91 22:38 09.12.2019
2908 Clouds -31 1021 81 0 0.46 91 22:38 09.12.2019
2909 Clouds -31 1021 81 0 0.46 91 22:18 09.12.2019
2910 Clouds -31 1021 81 0 0.46 91 22:18 09.12.2019
2911 Clouds -31 1021 81 0 0.46 91 21:55 09.12.2019
2912 Clouds -31 1021 81 0 0.46 91 21:37 09.12.2019
2913 Clouds -31 1021 81 0 0.46 91 21:18 09.12.2019
2914 Clouds -31 1021 81 0 0.46 91 20:55 09.12.2019
2915 Clouds -31 1021 81 0 0.46 91 20:37 09.12.2019
2916 Clouds -31 1021 79 0 0.36 274 20:19 09.12.2019
2917 Clouds -31 1021 80 0 0.3 307 19:55 09.12.2019
2918 Clouds -31 1021 80 0 0.3 307 19:37 09.12.2019
2919 Clouds -31 1021 80 0 0.3 307 19:18 09.12.2019
2920 Clouds -31 1021 80 0 0.3 307 18:54 09.12.2019
2921 Clouds -31 1021 80 0 0.3 307 18:36 09.12.2019
2922 Clouds -31 1021 80 0 0.3 307 18:18 09.12.2019
2923 Clouds -31 1021 80 0 0.3 307 18:18 09.12.2019
2924 Clouds -31 1021 80 0 0.3 307 18:18 09.12.2019
2925 Clouds -31 1021 80 0 0.3 307 17:55 09.12.2019
2926 Clouds -31 1021 80 0 0.3 307 17:37 09.12.2019
2927 Clouds -31 1021 79 0 0.37 267 17:18 09.12.2019
2928 Clouds -31 1021 79 0 0.37 267 17:18 09.12.2019
2929 -273 0 0 0 0 0 16:54 09.12.2019
2930 Clouds -31 1021 79 0 0.37 267 16:54 09.12.2019
2931 Clouds -31 1021 79 0 0.37 267 16:36 09.12.2019
2932 Clouds -31 1021 79 0 0.37 267 16:18 09.12.2019
2933 Clouds -31 1021 79 0 0.37 267 15:54 09.12.2019
2934 Clouds -31 1021 79 0 0.37 267 15:36 09.12.2019
2935 Clouds -31 1021 79 0 0.37 267 15:18 09.12.2019
2936 Clouds -31 1021 79 0 0.37 267 14:42 09.12.2019
2937 Clouds -31 1021 80 0 0.47 281 14:19 09.12.2019
2938 Clouds -31 1021 80 0 0.47 281 13:57 09.12.2019
2939 Clouds -31 1021 80 0 0.47 281 13:38 09.12.2019
2940 Clouds -31 1022 80 0 0.47 281 13:19 09.12.2019
2941 Clouds -31 1022 80 0 0.47 281 12:56 09.12.2019
2942 Clouds -31 1022 80 0 0.47 281 12:37 09.12.2019
2943 Clouds -31 1022 80 0 0.47 281 12:19 09.12.2019
2944 Clouds -31 1022 80 0 0.47 281 11:55 09.12.2019
2945 Clouds -31 1022 80 0 0.47 281 11:37 09.12.2019
2946 Clouds -32 1022 79 0 0.46 241 11:18 09.12.2019
2947 Clouds -32 1022 79 0 0.46 241 11:18 09.12.2019
2948 Clouds -32 1022 79 0 0.46 241 10:40 09.12.2019
2949 Clouds -32 1022 79 0 0.46 241 10:20 09.12.2019
2950 Clouds -32 1022 79 0 0.46 241 09:59 09.12.2019
2951 Clouds -32 1022 79 0 0.46 241 09:40 09.12.2019
2952 Clouds -32 1022 79 0 0.46 241 09:21 09.12.2019
2953 Clouds -32 1022 79 0 0.46 241 08:44 09.12.2019
2954 Clouds -32 1022 80 0 0.53 253 08:26 09.12.2019
2955 Clouds -33 1021 79 0 0.87 245 07:57 09.12.2019
2956 Clouds -33 1021 79 0 0.87 245 07:38 09.12.2019
2957 Clouds -33 1021 79 0 0.87 245 07:20 09.12.2019
2958 Clouds -33 1021 79 0 0.87 245 06:43 09.12.2019
2959 Clouds -33 1021 79 0 0.87 245 06:24 09.12.2019
2960 Clouds -33 1021 79 0 0.87 245 05:27 09.12.2019
2961 Clouds -34 1022 79 0 0.79 239 04:46 09.12.2019
2962 Clouds -34 1022 79 0 0.79 239 03:21 09.12.2019
2963 Clouds -34 1022 79 0 0.79 239 02:24 09.12.2019
2964 Clouds -35 1022 78 0 0.96 225 01:42 09.12.2019
2965 Clear -35 1022 80 0 0.93 221 00:51 09.12.2019
2966 Clear -35 1022 80 0 0.93 221 00:31 09.12.2019
2967 Clear -35 1022 80 0 0.93 221 23:43 08.12.2019
2968 Clear -35 1022 80 0 0.93 221 23:24 08.12.2019
2969 Clear -36 1022 79 0 0.74 226 22:58 08.12.2019
2970 Clear -36 1022 79 0 0.74 226 22:39 08.12.2019
2971 Clear -36 1022 79 0 0.74 226 22:20 08.12.2019
2972 Clear -36 1022 79 0 0.74 226 21:58 08.12.2019
2973 Clear -36 1022 79 0 0.74 226 21:40 08.12.2019
2974 Clear -36 1022 79 0 0.74 226 21:22 08.12.2019
2975 Clear -36 1022 79 0 0.74 226 20:57 08.12.2019
2976 Clear -36 1022 79 0 0.74 226 20:38 08.12.2019
2977 Clear -36 1022 80 0 0.67 185 20:20 08.12.2019
2978 Clear -36 1022 80 0 0.67 185 19:59 08.12.2019
2979 Clear -36 1022 80 0 0.67 185 19:41 08.12.2019
2980 Clear -36 1022 80 0 0.67 185 19:23 08.12.2019
2981 Clear -36 1022 80 0 0.67 185 19:23 08.12.2019
2982 Clear -36 1022 80 0 0.67 185 18:56 08.12.2019
2983 Clear -36 1022 80 0 0.67 185 18:37 08.12.2019
2984 Clear -36 1022 80 0 0.67 185 18:19 08.12.2019
2985 Clear -36 1022 80 0 0.67 185 17:57 08.12.2019
2986 Clear -36 1022 80 0 0.67 185 17:39 08.12.2019
2987 Clear -36 1022 81 0 0.96 198 17:20 08.12.2019
2988 Clear -36 1022 81 0 0.96 198 16:57 08.12.2019
2989 Clear -36 1022 81 0 0.96 198 16:39 08.12.2019
2990 Clear -36 1022 81 0 0.96 198 16:21 08.12.2019
2991 Clear -36 1022 81 0 0.96 198 15:57 08.12.2019
2992 Clear -36 1022 81 0 0.96 198 15:37 08.12.2019
2993 Clear -36 1022 81 0 0.96 198 15:18 08.12.2019
2994 Clear -36 1022 81 0 0.96 198 14:44 08.12.2019
2995 Clear -36 1022 81 0 0.96 198 14:25 08.12.2019
2996 Clear -36 1023 82 0 0.76 207 13:59 08.12.2019
2997 Clear -36 1023 82 0 0.76 207 13:40 08.12.2019
2998 Clear -36 1023 82 0 0.76 207 13:22 08.12.2019
2999 Clear -37 1023 82 0 0.62 190 12:59 08.12.2019
3000 Clear -37 1023 82 0 0.62 190 12:39 08.12.2019
3001 Clear -37 1023 82 0 0.62 190 12:19 08.12.2019
3002 Clear -37 1023 82 0 0.62 190 11:58 08.12.2019
3003 Clear -37 1023 82 0 0.62 190 11:37 08.12.2019
3004 Clear -38 1023 83 0 0.49 176 11:19 08.12.2019
3005 Clear -38 1023 83 0 0.49 176 10:55 08.12.2019
3006 Clear -38 1023 83 0 0.49 176 10:37 08.12.2019
3007 Clear -38 1023 83 0 0.49 176 10:19 08.12.2019
3008 Clear -38 1023 83 0 0.49 176 09:55 08.12.2019
3009 Clear -38 1023 83 0 0.49 176 09:36 08.12.2019
3010 Clear -38 1023 83 0 0.49 176 09:18 08.12.2019
3011 Clear -38 1023 83 0 0.49 176 09:18 08.12.2019
3012 Clear -38 1023 83 0 0.49 176 08:42 08.12.2019
3013 Clear -37 1024 83 0 0.53 166 08:23 08.12.2019
3014 Clear -38 1024 85 0 0.5 156 07:55 08.12.2019
3015 Clear -38 1024 85 0 0.5 156 07:36 08.12.2019
3016 Clear -38 1024 85 0 0.5 156 07:18 08.12.2019
3017 Clear -38 1024 85 0 0.5 156 06:40 08.12.2019
3018 Clear -38 1024 85 0 0.5 156 06:20 08.12.2019
3019 Clear -38 1024 85 0 0.5 156 05:26 08.12.2019
3020 Clear -39 1025 86 0 0.22 148 04:54 08.12.2019
3021 Clear -39 1025 86 0 0.22 148 03:40 08.12.2019
3022 Clear -39 1025 86 0 0.22 148 02:46 08.12.2019
3023 Clear -39 1025 86 0 0.22 148 02:27 08.12.2019
3024 Clear -40 1026 87 0 0.36 132 01:41 08.12.2019
3025 Clear -40 1025 87 0 0.54 127 00:56 08.12.2019
3026 Clear -40 1025 87 0 0.54 127 00:56 08.12.2019
3027 Clear -40 1025 87 0 0.54 127 00:36 08.12.2019
3028 Clear -40 1025 87 0 0.54 127 00:18 08.12.2019
3029 Clear -40 1025 87 0 0.54 127 23:39 07.12.2019
3030 Clear -40 1026 87 0 0.57 99 23:20 07.12.2019
3031 Clear -40 1026 87 0 0.57 99 22:56 07.12.2019
3032 Clear -40 1026 87 0 0.57 99 22:37 07.12.2019
3033 Clear -40 1026 87 0 0.57 99 22:19 07.12.2019
3034 Clear -40 1026 87 0 0.57 99 21:56 07.12.2019
3035 Clear -40 1026 87 0 0.57 99 21:37 07.12.2019
3036 Clear -40 1026 87 0 0.57 99 21:19 07.12.2019
3037 Clear -40 1026 87 0 0.57 99 21:19 07.12.2019
3038 Clear -40 1026 87 0 0.57 99 20:54 07.12.2019
3039 Clear -40 1026 87 0 0.57 99 20:36 07.12.2019
3040 Clear -41 1027 87 0 0.62 72 20:18 07.12.2019
3041 Clear -41 1027 89 0 0.64 88 19:54 07.12.2019
3042 Clear -41 1027 89 0 0.64 88 19:36 07.12.2019
3043 Clear -41 1027 89 0 0.64 88 19:36 07.12.2019
3044 Clear -41 1027 89 0 0.64 88 19:18 07.12.2019
3045 Clear -41 1027 89 0 0.64 88 18:42 07.12.2019
3046 Clear -41 1027 89 0 0.64 88 18:19 07.12.2019
3047 Clear -41 1027 89 0 0.64 88 17:57 07.12.2019
3048 Clear -41 1027 89 0 0.64 88 17:38 07.12.2019
3049 Clear -41 1028 88 0 0.98 103 17:20 07.12.2019
3050 Clear -41 1028 88 0 0.98 103 16:56 07.12.2019
3051 Clear -41 1028 88 0 0.98 103 16:37 07.12.2019
3052 Clear -41 1028 88 0 0.98 103 16:18 07.12.2019
3053 Clear -41 1028 88 0 0.98 103 15:42 07.12.2019
3054 Clear -41 1028 88 0 0.98 103 15:23 07.12.2019
3055 Clear -41 1028 88 0 0.98 103 14:57 07.12.2019
3056 Clear -41 1028 88 0 0.98 103 14:39 07.12.2019
3057 Clear -42 1029 89 0 0.81 94 14:18 07.12.2019
3058 Clear -42 1029 89 0 0.81 94 13:41 07.12.2019
3059 Clear -42 1029 90 0 0.87 94 13:21 07.12.2019
3060 Clear -42 1029 90 0 0.87 94 13:21 07.12.2019
3061 Clear -42 1029 90 0 0.87 94 12:58 07.12.2019
3062 Clear -42 1029 90 0 0.87 94 12:40 07.12.2019
3063 Clear -42 1029 90 0 0.87 94 12:22 07.12.2019
3064 Clear -42 1029 90 0 0.87 94 11:57 07.12.2019
3065 Clear -42 1029 90 0 0.87 94 11:38 07.12.2019
3066 Clear -42 1030 90 0 0.98 91 11:20 07.12.2019
3067 Clear -42 1030 90 0 0.98 91 10:38 07.12.2019
3068 Clear -42 1030 90 0 0.98 91 10:19 07.12.2019
3069 Clear -42 1030 90 0 0.98 91 10:19 07.12.2019
3070 Clear -42 1030 90 0 0.98 91 09:41 07.12.2019
3071 Clear -42 1030 90 0 0.98 91 09:22 07.12.2019
3072 Clear -42 1030 90 0 0.98 91 08:56 07.12.2019
3073 Clear -42 1030 90 0 0.98 91 08:37 07.12.2019
3074 Clouds -41 1031 92 0 1.3 97 08:19 07.12.2019
3075 Clouds -41 1031 92 0 1.3 97 07:44 07.12.2019
3076 Clouds -41 1031 92 0 1.3 97 07:23 07.12.2019
3077 Clouds -41 1031 92 0 1.3 97 06:48 07.12.2019
3078 Clouds -41 1031 92 0 1.3 97 06:24 07.12.2019
3079 Clouds -41 1031 92 0 1.3 97 05:25 07.12.2019
3080 Clouds -41 1031 92 0 1.23 102 03:55 07.12.2019
3081 Clouds -41 1031 92 0 1.23 102 03:18 07.12.2019
3082 Clouds -41 1033 92 0 1.27 113 02:21 07.12.2019
3083 Clouds -41 1033 91 0 1.32 108 01:34 07.12.2019
3084 Clouds -41 1033 91 0 1.32 108 00:52 07.12.2019
3085 Clouds -41 1033 91 0 1.32 108 00:19 07.12.2019
3086 Clouds -41 1033 91 0 1.32 108 00:19 07.12.2019
3087 Clouds -41 1033 91 0 1.32 108 23:55 06.12.2019
3088 Clouds -41 1033 91 0 1.32 108 23:36 06.12.2019
3089 Clouds -40 1033 92 0 1.21 133 23:18 06.12.2019
3090 Clouds -40 1033 92 0 1.21 133 22:37 06.12.2019
3091 Clouds -40 1033 92 0 1.21 133 22:19 06.12.2019
3092 Clouds -40 1033 92 0 1.21 133 21:57 06.12.2019
3093 Clouds -40 1033 92 0 1.21 133 21:38 06.12.2019
3094 Clouds -40 1033 92 0 1.21 133 21:19 06.12.2019
3095 Clouds -40 1033 92 0 1.21 133 20:42 06.12.2019
3096 Clouds -40 1033 92 0 1.21 133 20:42 06.12.2019
3097 Clouds -40 1032 93 0 1.17 120 20:24 06.12.2019
3098 Clouds -40 1032 93 0 1.17 120 20:24 06.12.2019
3099 Clouds -39 1032 95 0 1.31 156 19:59 06.12.2019
3100 Clouds -39 1032 95 0 1.31 156 19:40 06.12.2019
3101 Clouds -39 1032 95 0 1.31 156 19:22 06.12.2019
3102 Clouds -39 1032 95 0 1.31 156 19:22 06.12.2019
3103 Clouds -39 1032 95 0 1.31 156 18:57 06.12.2019
3104 Clouds -39 1032 95 0 1.31 156 18:39 06.12.2019
3105 Clouds -39 1032 95 0 1.31 156 18:19 06.12.2019
3106 Clouds -39 1032 95 0 1.31 156 18:19 06.12.2019
3107 Clouds -39 1032 95 0 1.31 156 17:56 06.12.2019
3108 Clouds -39 1032 95 0 1.31 156 17:37 06.12.2019
3109 Clouds -39 1032 95 0 1.96 196 17:19 06.12.2019
3110 Clouds -39 1032 95 0 1.96 196 16:43 06.12.2019
3111 Clouds -39 1032 95 0 1.96 196 16:25 06.12.2019
3112 Clouds -39 1032 95 0 1.96 196 15:59 06.12.2019
3113 Clouds -39 1032 95 0 1.96 196 15:40 06.12.2019
3114 Clouds -39 1032 95 0 1.96 196 15:19 06.12.2019
3115 Clouds -39 1032 95 0 1.96 196 14:57 06.12.2019
3116 Clouds -39 1032 95 0 1.96 196 14:38 06.12.2019
3117 Clouds -39 1032 95 0 1.96 196 14:38 06.12.2019
3118 Clouds -39 1032 95 0 1.91 199 14:19 06.12.2019
3119 Clouds -39 1032 95 0 1.91 199 13:43 06.12.2019
3120 Clouds -39 1032 94 0 1.86 198 13:25 06.12.2019
3121 Clouds -39 1032 94 0 1.86 198 12:43 06.12.2019
3122 Clouds -39 1032 94 0 1.86 198 12:23 06.12.2019
3123 Clouds -39 1032 94 0 1.86 198 12:23 06.12.2019
3124 Clouds -39 1032 94 0 1.86 198 11:58 06.12.2019
3125 Clouds -39 1032 94 0 1.86 198 11:39 06.12.2019
3126 Clouds -39 1031 95 0 1.66 215 11:21 06.12.2019
3127 Clouds -39 1031 95 0 1.66 215 10:44 06.12.2019
3128 Clouds -39 1031 95 0 1.66 215 10:22 06.12.2019
3129 Clouds -39 1031 95 0 1.66 215 09:59 06.12.2019
3130 Clouds -39 1031 95 0 1.66 215 09:38 06.12.2019
3131 Clouds -39 1031 95 0 1.66 215 09:20 06.12.2019
3132 Clouds -39 1031 95 0 1.66 215 08:57 06.12.2019
3133 Clouds -39 1031 95 0 1.66 215 08:38 06.12.2019
3134 Clouds -39 1030 96 0 1.57 209 08:20 06.12.2019
3135 Clouds -39 1030 96 0 1.57 209 07:37 06.12.2019
3136 Clouds -39 1030 96 0 1.57 209 07:19 06.12.2019
3137 Clouds -39 1030 96 0 1.57 209 06:30 06.12.2019
3138 Clouds -39 1030 96 0 1.57 209 05:54 06.12.2019
3139 Clouds -39 1030 96 0 1.57 209 05:35 06.12.2019
3140 Clouds -38 1028 95 0 1.07 223 02:19 06.12.2019
3141 Clouds -38 1028 95 0 1.07 223 01:43 06.12.2019
3142 Clouds -38 1029 95 0 1.09 224 00:48 06.12.2019
3143 Clouds -38 1029 95 0 1.09 224 00:22 06.12.2019
3144 Clouds -38 1029 95 0 1.09 224 23:50 05.12.2019
3145 Clouds -40 1028 97 0 0.82 232 23:20 05.12.2019
3146 Clouds -40 1028 97 0 0.82 232 22:58 05.12.2019
3147 Clouds -40 1028 97 0 0.82 232 22:38 05.12.2019
3148 Clouds -40 1028 97 0 0.82 232 22:18 05.12.2019
3149 Clouds -40 1028 97 0 0.82 232 21:55 05.12.2019
3150 Clouds -40 1028 97 0 0.82 232 21:37 05.12.2019
3151 Clouds -40 1028 97 0 0.82 232 21:37 05.12.2019
3152 Clouds -40 1028 97 0 0.82 232 21:19 05.12.2019
3153 Clouds -40 1028 97 0 0.82 232 20:55 05.12.2019
3154 Clouds -40 1028 97 0 0.82 232 20:36 05.12.2019
3155 Clouds -40 1028 97 0 0.82 232 20:36 05.12.2019
3156 Clouds -41 1027 100 0 0.62 240 20:18 05.12.2019
3157 Clouds -42 1028 100 0 0.69 240 20:18 05.12.2019
3158 Clouds -41 1027 100 0 0.62 240 19:40 05.12.2019
3159 Clouds -41 1027 100 0 0.62 240 19:21 05.12.2019
3160 Clouds -41 1027 100 0 0.62 240 18:58 05.12.2019
3161 Clouds -41 1027 100 0 0.62 240 18:38 05.12.2019
3162 Clouds -41 1027 100 0 0.62 240 18:20 05.12.2019
3163 Clouds -41 1027 100 0 0.62 240 17:41 05.12.2019
3164 Clouds -41 1027 100 0 0.69 253 17:20 05.12.2019
3165 Clouds -41 1027 100 0 0.69 253 16:59 05.12.2019
3166 Clouds -41 1027 100 0 0.69 253 16:40 05.12.2019
3167 Clouds -41 1027 100 0 0.69 253 16:21 05.12.2019
3168 Clouds -41 1027 100 0 0.69 253 15:58 05.12.2019
3169 Clouds -41 1027 100 0 0.69 253 15:58 05.12.2019
3170 Clouds -41 1027 100 0 0.69 253 15:40 05.12.2019
3171 Clouds -41 1027 100 0 0.69 253 15:20 05.12.2019
3172 Clouds -41 1027 100 0 0.69 253 14:56 05.12.2019
3173 Clouds -41 1027 100 0 0.69 253 14:38 05.12.2019
3174 Clouds -41 1027 100 0 0.45 265 14:20 05.12.2019
3175 Clouds -41 1027 100 0 0.45 265 13:58 05.12.2019
3176 Clouds -41 1027 100 0 0.45 265 13:39 05.12.2019
3177 Clouds -41 1028 100 0 0.48 263 13:20 05.12.2019
3178 Clouds -41 1028 100 0 0.48 263 12:58 05.12.2019
3179 Clouds -41 1028 100 0 0.48 263 12:39 05.12.2019
3180 Clouds -41 1028 100 0 0.48 263 12:21 05.12.2019
3181 Clouds -41 1028 100 0 0.48 263 11:40 05.12.2019
3182 Clouds -41 1027 100 0 0.68 245 11:22 05.12.2019
3183 Clouds -41 1027 100 0 0.68 245 10:59 05.12.2019
3184 Clouds -41 1027 100 0 0.68 245 10:40 05.12.2019
3185 Clouds -41 1027 100 0 0.68 245 10:19 05.12.2019
3186 Clouds -41 1027 100 0 0.68 245 10:19 05.12.2019
3187 Clouds -41 1027 100 0 0.68 245 09:57 05.12.2019
3188 Clouds -41 1027 100 0 0.68 245 09:38 05.12.2019
3189 Clouds -41 1027 100 0 0.68 245 09:20 05.12.2019
3190 Clouds -41 1027 100 0 0.68 245 09:20 05.12.2019
3191 Clouds -41 1027 100 0 0.68 245 08:56 05.12.2019
3192 Clouds -41 1027 100 0 0.68 245 08:37 05.12.2019
3193 Clouds -41 1028 100 0 0.27 309 08:18 05.12.2019
3194 Clouds -41 1028 100 0 0.18 344 08:18 05.12.2019
3195 Clouds -41 1028 100 0 0.18 344 07:41 05.12.2019
3196 Clouds -41 1028 100 0 0.18 344 07:22 05.12.2019
3197 Clouds -41 1028 100 0 0.18 344 06:48 05.12.2019
3198 Clouds -41 1028 100 0 0.18 344 06:24 05.12.2019
3199 Clouds -41 1028 100 0 0.18 344 05:54 05.12.2019
3200 Clouds -41 1028 100 0 0.18 344 05:24 05.12.2019
3201 Clouds -39 1028 96 0 0.34 27 04:59 05.12.2019
3202 Clouds -39 1028 96 0 0.34 27 03:40 05.12.2019
3203 Clouds -39 1028 96 0 0.34 27 02:42 05.12.2019
3204 Clouds -38 1029 95 0 0.3 333 02:22 05.12.2019
3205 Clouds -38 1029 95 0 0.3 333 01:51 05.12.2019
3206 Clouds -38 1029 95 0 0.3 333 01:23 05.12.2019
3207 Clouds -37 1029 95 0 0.29 353 00:44 05.12.2019
3208 Clouds -37 1029 95 0 0.29 353 00:21 05.12.2019
3209 Clouds -37 1029 95 0 0.29 353 23:55 04.12.2019
3210 Clouds -37 1029 95 0 0.29 353 23:37 04.12.2019
3211 Clouds -38 1030 95 0 0.36 359 23:18 04.12.2019
3212 Clouds -38 1030 95 0 0.36 359 22:39 04.12.2019
3213 Clouds -38 1030 95 0 0.36 359 22:20 04.12.2019
3214 Clouds -38 1030 95 0 0.36 359 21:58 04.12.2019
3215 Clouds -38 1030 95 0 0.36 359 21:39 04.12.2019
3216 Clouds -38 1030 95 0 0.36 359 21:20 04.12.2019
3217 Clouds -38 1030 95 0 0.36 359 20:58 04.12.2019
3218 Clouds -38 1030 95 0 0.36 359 20:40 04.12.2019
3219 Clouds -40 1032 98 0 0.12 209 20:21 04.12.2019
3220 Clouds -40 1032 98 0 0.12 209 19:58 04.12.2019
3221 Clouds -40 1032 98 0 0.12 209 19:38 04.12.2019
3222 Clouds -40 1032 98 0 0.12 209 19:20 04.12.2019
3223 Clouds -40 1032 98 0 0.12 209 18:56 04.12.2019
3224 Clouds -40 1032 98 0 0.12 209 18:38 04.12.2019
3225 Clouds -40 1032 98 0 0.12 209 18:20 04.12.2019
3226 Clouds -40 1032 98 0 0.12 209 17:40 04.12.2019
3227 Clouds -40 1033 99 0 0.1 198 17:21 04.12.2019
3228 Clouds -40 1033 99 0 0.1 198 16:59 04.12.2019
3229 Clouds -40 1033 99 0 0.1 198 16:39 04.12.2019
3230 Clouds -40 1033 99 0 0.1 198 16:19 04.12.2019
3231 Clouds -40 1033 99 0 0.1 198 15:55 04.12.2019
3232 Clouds -40 1033 99 0 0.1 198 15:37 04.12.2019
3233 Clouds -40 1033 99 0 0.1 198 15:19 04.12.2019
3234 Clouds -40 1033 99 0 0.1 198 14:44 04.12.2019
3235 Clouds -40 1033 99 0 0.1 198 14:23 04.12.2019
3236 Clouds -40 1036 99 0 0.38 212 13:59 04.12.2019
3237 Clouds -40 1036 99 0 0.38 212 13:38 04.12.2019
3238 Clouds -40 1036 99 0 0.38 212 13:20 04.12.2019
3239 Clouds -41 1035 100 0 0.44 180 12:45 04.12.2019
3240 Clouds -41 1035 100 0 0.44 180 12:25 04.12.2019
3241 Clouds -41 1035 100 0 0.44 180 11:57 04.12.2019
3242 Clouds -41 1035 100 0 0.44 180 11:39 04.12.2019
3243 Clouds -41 1037 100 0 0.31 208 11:21 04.12.2019
3244 Clouds -41 1037 100 0 0.31 208 10:44 04.12.2019
3245 Clouds -41 1037 100 0 0.31 208 10:24 04.12.2019
3246 Clouds -41 1037 100 0 0.31 208 09:57 04.12.2019
3247 Clouds -41 1037 100 0 0.31 208 09:38 04.12.2019
3248 Clouds -41 1037 100 0 0.31 208 09:20 04.12.2019
3249 Clouds -41 1037 100 0 0.31 208 08:41 04.12.2019
3250 Clouds -41 1037 100 0 0.48 207 08:23 04.12.2019
3251 Clouds -40 1039 99 0 0.81 217 07:50 04.12.2019
3252 Clouds -40 1039 99 0 0.81 217 07:30 04.12.2019
3253 Clouds -40 1039 99 0 0.81 217 06:47 04.12.2019
3254 Clouds -40 1039 99 0 0.81 217 06:25 04.12.2019
3255 Clouds -40 1039 99 0 0.81 217 05:42 04.12.2019
3256 Clouds -40 1040 99 0 0.79 219 04:31 04.12.2019
3257 Clouds -40 1040 99 0 0.79 219 03:25 04.12.2019
3258 Clouds -40 1041 99 0 1.01 233 01:21 04.12.2019
3259 Clouds -40 1041 99 0 0.95 236 00:40 04.12.2019
3260 Clouds -40 1041 99 0 0.95 236 00:19 04.12.2019
3261 Clouds -40 1041 99 0 0.95 236 23:41 03.12.2019
3262 Clouds -40 1041 100 0 0.74 238 23:20 03.12.2019
3263 Clouds -40 1041 100 0 0.74 238 22:57 03.12.2019
3264 Clouds -40 1041 100 0 0.74 238 22:38 03.12.2019
3265 Clouds -40 1041 100 0 0.74 238 22:18 03.12.2019
3266 Clouds -40 1041 100 0 0.74 238 21:55 03.12.2019
3267 Clouds -40 1041 100 0 0.74 238 21:36 03.12.2019
3268 Clouds -40 1041 100 0 0.74 238 21:18 03.12.2019
3269 Clouds -40 1041 100 0 0.74 238 20:41 03.12.2019
3270 Clouds -39 1042 100 0 0.72 239 20:19 03.12.2019
3271 Clouds -39 1042 100 0 0.72 239 19:57 03.12.2019
3272 Clouds -39 1042 100 0 0.72 239 19:38 03.12.2019
3273 Clouds -39 1042 100 0 0.72 239 19:20 03.12.2019
3274 Clouds -39 1042 100 0 0.72 239 18:58 03.12.2019
3275 Clouds -39 1042 100 0 0.72 239 18:40 03.12.2019
3276 Clouds -39 1042 100 0 0.72 239 18:21 03.12.2019
3277 Clouds -39 1042 100 0 0.72 239 17:58 03.12.2019
3278 Clouds -39 1042 100 0 0.72 239 17:38 03.12.2019
3279 Clouds -39 1042 100 0 0.63 267 17:18 03.12.2019
3280 Clouds -39 1042 100 0 0.63 267 16:58 03.12.2019
3281 Clouds -39 1042 100 0 0.63 267 16:39 03.12.2019
3282 Clouds -39 1042 100 0 0.63 267 16:20 03.12.2019
3283 Clouds -39 1042 100 0 0.63 267 15:57 03.12.2019
3284 Clouds -39 1042 100 0 0.63 267 15:38 03.12.2019
3285 Clouds -39 1042 100 0 0.63 267 15:19 03.12.2019
3286 Clouds -39 1042 100 0 0.63 267 14:43 03.12.2019
3287 Clouds -39 1043 100 0 0.51 232 14:20 03.12.2019
3288 Clouds -39 1043 100 0 0.51 232 13:57 03.12.2019
3289 Clouds -39 1043 100 0 0.51 232 13:37 03.12.2019
3290 Clear -39 1042 100 0 0.58 240 13:19 03.12.2019
3291 Clear -39 1042 100 0 0.58 240 12:42 03.12.2019
3292 Clear -39 1042 100 0 0.58 240 12:19 03.12.2019
3293 Clear -39 1042 100 0 0.58 240 11:59 03.12.2019
3294 Clear -39 1042 100 0 0.58 240 11:39 03.12.2019
3295 Clear -39 1042 100 0 0.63 252 11:21 03.12.2019
3296 Clear -39 1042 100 0 0.63 252 10:59 03.12.2019
3297 Clear -39 1042 100 0 0.63 252 10:41 03.12.2019
3298 Clear -39 1042 100 0 0.63 252 10:21 03.12.2019
3299 Clear -39 1042 100 0 0.63 252 09:57 03.12.2019
3300 Clear -39 1042 100 0 0.63 252 09:39 03.12.2019
3301 Clear -39 1042 100 0 0.63 252 09:20 03.12.2019
3302 Clear -39 1042 100 0 0.63 252 08:54 03.12.2019
3303 Clear -39 1042 100 0 0.63 252 08:36 03.12.2019
3304 Clear -39 1041 100 0 0.7 244 08:18 03.12.2019
3305 Clear -39 1041 100 0 0.7 244 07:49 03.12.2019
3306 Clear -39 1041 100 0 0.7 244 07:23 03.12.2019
3307 Clear -39 1041 100 0 0.7 244 06:23 03.12.2019
3308 Clear -39 1041 100 0 0.7 244 05:59 03.12.2019
3309 Clear -38 1041 100 0 0.63 268 04:55 03.12.2019
3310 Clear -38 1041 100 0 0.63 268 03:40 03.12.2019
3311 Clear -38 1041 100 0 0.63 268 03:20 03.12.2019
3312 Clear -38 1041 100 0 0.63 268 02:49 03.12.2019
3313 Clear -38 1041 100 0 0.63 268 02:31 03.12.2019
3314 Clouds -38 1040 100 0 0.5 237 01:46 03.12.2019
3315 Clouds -38 1040 100 0 0.5 237 01:28 03.12.2019
3316 Clouds -38 1040 100 0 0.39 235 00:56 03.12.2019
3317 Clouds -38 1040 100 0 0.39 235 00:38 03.12.2019
3318 Clouds -38 1040 100 0 0.39 235 00:20 03.12.2019
3319 Clouds -38 1040 100 0 0.39 235 23:43 02.12.2019
3320 Clouds -37 1039 100 0 0.46 265 23:20 02.12.2019
3321 Clouds -37 1039 100 0 0.46 265 22:42 02.12.2019
3322 Clouds -37 1039 100 0 0.46 265 22:23 02.12.2019
3323 Clouds -37 1039 100 0 0.46 265 21:59 02.12.2019
3324 Clouds -37 1039 100 0 0.46 265 21:59 02.12.2019
3325 Clouds -37 1039 100 0 0.46 265 21:38 02.12.2019
3326 Clouds -37 1039 100 0 0.46 265 21:19 02.12.2019
3327 Clouds -37 1039 100 0 0.46 265 20:56 02.12.2019
3328 Clouds -37 1039 100 0 0.46 265 20:56 02.12.2019
3329 Clouds -37 1039 100 0 0.46 265 20:38 02.12.2019
3330 Clouds -36 1038 100 0 0.5 277 20:20 02.12.2019
3331 Clouds -36 1038 100 0 0.5 277 19:56 02.12.2019
3332 Clouds -36 1038 100 0 0.5 277 19:38 02.12.2019
3333 Clouds -36 1038 100 0 0.5 277 19:19 02.12.2019
3334 Clouds -36 1038 100 0 0.5 277 18:46 02.12.2019
3335 Clouds -36 1038 100 0 0.5 277 18:20 02.12.2019
3336 Clouds -36 1038 100 0 0.5 277 17:59 02.12.2019
3337 Clouds -36 1038 100 0 0.5 277 17:40 02.12.2019
3338 Clouds -36 1037 100 0 0.32 262 17:20 02.12.2019
3339 Clouds -36 1037 100 0 0.32 262 16:57 02.12.2019
3340 Clouds -36 1037 100 0 0.32 262 16:38 02.12.2019
3341 Clouds -36 1037 100 0 0.32 262 16:18 02.12.2019
3342 Clouds -36 1037 100 0 0.32 262 16:18 02.12.2019
3343 Clouds -36 1037 100 0 0.32 262 15:55 02.12.2019
3344 Clouds -36 1037 100 0 0.32 262 15:37 02.12.2019
3345 Clouds -36 1037 100 0 0.32 262 15:19 02.12.2019
3346 -273 0 0 0 0 0 14:40 02.12.2019
3347 Clouds -35 1036 100 0 0.56 248 14:20 02.12.2019
3348 Clouds -35 1036 100 0 0.56 248 13:58 02.12.2019
3349 Clouds -35 1036 100 0 0.56 248 13:40 02.12.2019
3350 Clouds -35 1036 100 0 0.58 249 13:20 02.12.2019
3351 Clouds -35 1036 100 0 0.58 249 12:59 02.12.2019
3352 Clouds -35 1036 100 0 0.58 249 12:40 02.12.2019
3353 Clouds -35 1036 100 0 0.58 249 12:20 02.12.2019
3354 Clouds -35 1036 100 0 0.58 249 11:56 02.12.2019
3355 Clouds -35 1036 100 0 0.58 249 11:37 02.12.2019
3356 Clouds -34 1034 100 0 0.78 247 11:18 02.12.2019
3357 Clouds -34 1034 100 0 0.78 247 10:55 02.12.2019
3358 Clouds -34 1034 100 0 0.78 247 10:37 02.12.2019
3359 Clouds -34 1034 100 0 0.78 247 10:19 02.12.2019
3360 Clouds -34 1034 100 0 0.78 247 09:41 02.12.2019
3361 Clouds -34 1034 100 0 0.78 247 09:19 02.12.2019
3362 Clouds -34 1034 100 0 0.78 247 08:58 02.12.2019
3363 Clouds -34 1034 100 0 0.78 247 08:40 02.12.2019
3364 Clouds -31 1032 99 0 0.47 239 08:21 02.12.2019
3365 Clouds -31 1032 99 0 0.47 239 07:44 02.12.2019
3366 Clouds -31 1032 99 0 0.47 239 07:23 02.12.2019
3367 Clouds -31 1032 99 0 0.47 239 06:57 02.12.2019
3368 Clouds -31 1032 99 0 0.47 239 06:39 02.12.2019
3369 Clouds -31 1032 99 0 0.47 239 05:36 02.12.2019
3370 Clouds -31 1031 99 0 0.77 263 04:50 02.12.2019
3371 Clouds -31 1031 99 0 0.77 263 02:56 02.12.2019
3372 Clouds -31 1031 99 0 0.77 263 02:36 02.12.2019
3373 Clouds -30 1029 98 0 0.73 258 01:28 02.12.2019
3374 Clouds -30 1029 98 0 0.73 258 00:59 02.12.2019
3375 Clouds -30 1029 98 0 0.73 258 00:30 02.12.2019
3376 Clouds -30 1029 98 0 0.73 258 23:57 01.12.2019
3377 Clouds -30 1029 98 0 0.73 258 23:38 01.12.2019
3378 Clouds -29 1028 98 0 0.71 268 23:19 01.12.2019
3379 Clouds -29 1028 98 0 0.71 268 22:56 01.12.2019
3380 Clouds -29 1028 98 0 0.71 268 22:37 01.12.2019
3381 Clouds -29 1028 98 0 0.71 268 22:18 01.12.2019
3382 Clouds -29 1028 98 0 0.71 268 21:56 01.12.2019
3383 Clouds -29 1028 98 0 0.71 268 21:56 01.12.2019
3384 Clouds -29 1028 98 0 0.71 268 21:38 01.12.2019
3385 Clouds -29 1028 98 0 0.71 268 21:19 01.12.2019
3386 Clouds -29 1028 98 0 0.71 268 20:56 01.12.2019
3387 Clouds -29 1028 98 0 0.71 268 20:37 01.12.2019
3388 Clouds -29 1028 98 0 0.71 268 20:37 01.12.2019
3389 Clouds -29 1028 98 0 0.71 268 20:37 01.12.2019
3390 Clouds -32 1027 100 0 0.8 262 20:19 01.12.2019
3391 Clouds -32 1027 100 0 0.8 262 19:55 01.12.2019
3392 Clouds -32 1027 100 0 0.8 262 19:37 01.12.2019
3393 Clouds -32 1027 100 0 0.8 262 19:18 01.12.2019
3394 Clouds -32 1027 100 0 0.8 262 18:55 01.12.2019
3395 Clouds -32 1027 100 0 0.8 262 18:37 01.12.2019
3396 Clouds -32 1027 100 0 0.8 262 18:18 01.12.2019
3397 Clouds -32 1027 100 0 0.8 262 18:18 01.12.2019
3398 Clouds -32 1027 100 0 0.8 262 17:56 01.12.2019
3399 Clouds -32 1027 100 0 0.8 262 17:38 01.12.2019
3400 Clouds -31 1026 100 0 0.75 269 17:19 01.12.2019
3401 Clouds -31 1026 100 0 0.75 269 16:43 01.12.2019
3402 Clouds -31 1026 100 0 0.75 269 16:24 01.12.2019
3403 Clouds -31 1026 100 0 0.75 269 15:53 01.12.2019
3404 Clouds -31 1026 100 0 0.75 269 15:33 01.12.2019
3405 Clouds -31 1026 100 0 0.75 269 14:59 01.12.2019
3406 Clouds -31 1026 100 0 0.75 269 14:38 01.12.2019
3407 Clouds -30 1025 99 0 0.81 267 14:19 01.12.2019
3408 Clouds -30 1025 99 0 0.81 267 13:40 01.12.2019
3409 Clouds -30 1025 99 0 0.81 267 13:21 01.12.2019
3410 Clouds -30 1025 99 0 0.81 267 13:21 01.12.2019
3411 Clouds -30 1025 99 0 0.84 266 12:47 01.12.2019
3412 Clouds -30 1025 99 0 0.84 266 12:20 01.12.2019
3413 Clouds -30 1025 99 0 0.84 266 11:44 01.12.2019
3414 Clouds -30 1025 99 0 0.84 266 11:24 01.12.2019
3415 Clouds -28 1024 97 0 0.8 261 10:55 01.12.2019
3416 Clouds -28 1024 97 0 0.8 261 10:55 01.12.2019
3417 Clouds -28 1024 97 0 0.8 261 10:37 01.12.2019
3418 Clouds -28 1024 97 0 0.8 261 10:19 01.12.2019
3419 Clouds -28 1024 97 0 0.8 261 09:41 01.12.2019
3420 Clouds -28 1024 97 0 0.8 261 09:21 01.12.2019
3421 Clouds -28 1024 97 0 0.8 261 08:49 01.12.2019
3422 Clouds -33 1025 99 0 0.68 278 08:23 01.12.2019
3423 Clouds -33 1023 98 0 0.74 279 07:54 01.12.2019
3424 Clouds -33 1023 98 0 0.74 279 07:36 01.12.2019
3425 Clouds -33 1023 98 0 0.74 279 07:18 01.12.2019
3426 Clouds -33 1023 98 0 0.74 279 06:49 01.12.2019
3427 Clouds -33 1023 98 0 0.74 279 05:58 01.12.2019
3428 Clouds -31 1022 91 0 0.68 284 04:55 01.12.2019
3429 Clouds -31 1022 91 0 0.68 284 04:27 01.12.2019
3430 Clouds -31 1022 91 0 0.68 284 02:44 01.12.2019
3431 Clouds -31 1022 91 0 0.68 284 02:26 01.12.2019
3432 Clouds -30 1020 89 0 0.44 344 01:53 01.12.2019
3433 Clouds -31 1020 89 0 0.4 351 01:30 01.12.2019
3434 Clouds -31 1020 89 0 0.4 351 00:47 01.12.2019
3435 Clouds -31 1020 89 0 0.4 351 00:26 01.12.2019
3436 Clouds -31 1020 89 0 0.4 351 23:56 30.11.2019
3437 Clouds -31 1020 89 0 0.4 351 23:37 30.11.2019
3438 Clouds -30 1019 88 0 0.64 30 23:18 30.11.2019
3439 Clouds -30 1019 88 0 0.64 30 22:41 30.11.2019
3440 Clouds -30 1019 88 0 0.64 30 22:20 30.11.2019
3441 Clouds -30 1019 88 0 0.64 30 22:20 30.11.2019
3442 Clouds -30 1019 88 0 0.64 30 21:48 30.11.2019
3443 Clouds -30 1019 88 0 0.64 30 21:28 30.11.2019
3444 Clouds -30 1019 88 0 0.64 30 20:58 30.11.2019
3445 Clouds -30 1019 88 0 0.64 30 20:40 30.11.2019
3446 Clouds -33 1018 93 0 0.34 44 20:20 30.11.2019
3447 Clouds -33 1018 97 0 0.46 20 19:57 30.11.2019
3448 Clouds -33 1018 97 0 0.46 20 19:39 30.11.2019
3449 Clouds -33 1018 97 0 0.46 20 19:21 30.11.2019
3450 Clouds -33 1018 97 0 0.46 20 18:59 30.11.2019
3451 Clouds -33 1018 97 0 0.46 20 18:39 30.11.2019
3452 Clouds -33 1018 97 0 0.46 20 18:21 30.11.2019
3453 Clouds -33 1018 97 0 0.46 20 17:59 30.11.2019
3454 Clouds -33 1018 97 0 0.46 20 17:41 30.11.2019
3455 Clouds -32 1017 95 0 0.92 57 17:22 30.11.2019
3456 Clouds -32 1017 95 0 0.92 57 16:58 30.11.2019
3457 Clouds -32 1017 95 0 0.92 57 16:40 30.11.2019
3458 Clouds -32 1017 95 0 0.92 57 16:21 30.11.2019
3459 Clouds -32 1017 95 0 0.92 57 15:54 30.11.2019
3460 Clouds -32 1017 95 0 0.92 57 15:36 30.11.2019
3461 Clouds -32 1017 95 0 0.92 57 15:18 30.11.2019
3462 Clouds -32 1017 95 0 0.92 57 14:54 30.11.2019
3463 Clouds -32 1017 95 0 0.92 57 14:36 30.11.2019
3464 Clouds -31 1016 92 0 1.1 48 14:18 30.11.2019
3465 Clouds -31 1016 92 0 1.1 48 13:42 30.11.2019
3466 Clouds -31 1017 92 0 1.01 52 13:24 30.11.2019
3467 Clouds -31 1017 92 0 1.01 52 12:57 30.11.2019
3468 Clouds -31 1017 92 0 1.01 52 12:39 30.11.2019
3469 Clouds -31 1017 92 0 1.01 52 12:18 30.11.2019
3470 Clouds -31 1017 92 0 1.01 52 11:41 30.11.2019
3471 Clouds -30 1015 91 0 1.35 66 11:19 30.11.2019
3472 Clouds -30 1015 91 0 1.35 66 10:55 30.11.2019
3473 Clouds -30 1015 91 0 1.35 66 10:37 30.11.2019
3474 Clouds -30 1015 91 0 1.35 66 10:18 30.11.2019
3475 Clouds -30 1015 91 0 1.35 66 09:43 30.11.2019
3476 Clouds -30 1015 91 0 1.35 66 09:21 30.11.2019
3477 Clouds -30 1015 91 0 1.35 66 08:43 30.11.2019
3478 Clear -30 1015 92 0 1.22 71 08:20 30.11.2019
3479 Clear -30 1015 92 0 1.22 71 07:56 30.11.2019
3480 Clear -30 1015 92 0 1.22 71 07:37 30.11.2019
3481 Clear -30 1015 92 0 1.22 71 06:55 30.11.2019
3482 Clear -30 1015 92 0 1.22 71 06:29 30.11.2019
3483 Clear -30 1015 92 0 1.22 71 05:40 30.11.2019
3484 Clear -29 1013 91 0 1.22 81 03:44 30.11.2019
3485 Clear -29 1013 91 0 1.22 81 02:39 30.11.2019
3486 Clouds -28 1012 91 0 1.17 90 02:21 30.11.2019
3487 Clouds -29 1012 93 0 1.27 82 01:25 30.11.2019
3488 Clouds -29 1012 93 0 1.27 82 00:50 30.11.2019
3489 Clouds -29 1012 93 0 1.27 82 00:31 30.11.2019
3490 Clouds -29 1012 93 0 1.27 82 23:59 29.11.2019
3491 Clouds -29 1012 93 0 1.27 82 23:40 29.11.2019
3492 Clouds -28 1011 91 0 1.38 75 23:21 29.11.2019
3493 Clouds -28 1011 91 0 1.38 75 22:44 29.11.2019
3494 Clouds -28 1011 91 0 1.38 75 22:25 29.11.2019
3495 Clouds -28 1011 91 0 1.38 75 22:25 29.11.2019
3496 Clouds -28 1011 91 0 1.38 75 21:44 29.11.2019
3497 Clouds -28 1011 91 0 1.38 75 21:24 29.11.2019
3498 Clouds -28 1011 91 0 1.38 75 20:58 29.11.2019
3499 Clouds -28 1011 91 0 1.38 75 20:38 29.11.2019
3500 Clouds -26 1009 88 0 1.53 86 20:19 29.11.2019
3501 Clouds -27 1010 85 0 1.43 91 19:58 29.11.2019
3502 Clouds -27 1010 85 0 1.43 91 19:39 29.11.2019
3503 Clouds -27 1010 85 0 1.43 91 19:39 29.11.2019
3504 Clouds -27 1010 85 0 1.43 91 19:20 29.11.2019
3505 Clouds -27 1010 85 0 1.43 91 18:58 29.11.2019
3506 Clouds -27 1010 85 0 1.43 91 18:39 29.11.2019
3507 Clouds -27 1010 85 0 1.43 91 18:20 29.11.2019
3508 Clouds -27 1010 85 0 1.43 91 17:44 29.11.2019
3509 Clouds -27 1010 85 0 1.43 91 17:25 29.11.2019
3510 Clouds -26 1009 85 0 1.66 86 16:57 29.11.2019
3511 Clouds -26 1009 85 0 1.66 86 16:57 29.11.2019
3512 Clouds -26 1009 85 0 1.66 86 16:38 29.11.2019
3513 Clouds -26 1009 85 0 1.66 86 16:18 29.11.2019
3514 Clouds -26 1009 85 0 1.66 86 15:41 29.11.2019
3515 Clouds -26 1009 85 0 1.66 86 15:23 29.11.2019
3516 Clouds -26 1009 85 0 1.66 86 14:56 29.11.2019
3517 Clouds -26 1009 85 0 1.66 86 14:38 29.11.2019
3518 Clouds -27 1009 83 0 1.71 108 14:19 29.11.2019
3519 Clouds -27 1009 83 0 1.71 108 13:41 29.11.2019
3520 Clouds -27 1010 83 0 1.61 101 13:21 29.11.2019
3521 Clouds -27 1010 83 0 1.61 101 13:21 29.11.2019
3522 Clouds -27 1010 83 0 1.61 101 12:57 29.11.2019
3523 Clouds -27 1010 83 0 1.61 101 12:39 29.11.2019
3524 Clouds -27 1010 83 0 1.61 101 12:21 29.11.2019
3525 Clouds -27 1010 83 0 1.61 101 11:55 29.11.2019
3526 Clouds -27 1010 83 0 1.61 101 11:36 29.11.2019
3527 Clouds -28 1012 81 0 1.75 98 11:18 29.11.2019
3528 Clouds -28 1012 81 0 1.75 98 10:55 29.11.2019
3529 Clouds -28 1012 81 0 1.75 98 10:37 29.11.2019
3530 Clouds -28 1012 81 0 1.75 98 10:18 29.11.2019
3531 Clouds -28 1012 81 0 1.75 98 09:55 29.11.2019
3532 Clouds -28 1012 81 0 1.75 98 09:36 29.11.2019
3533 Clouds -28 1012 81 0 1.75 98 09:18 29.11.2019
3534 Clouds -28 1012 81 0 1.75 98 08:39 29.11.2019
3535 Clouds -30 1014 73 0 1.67 119 08:21 29.11.2019
3536 Clouds -29 1014 74 0 1.76 129 07:58 29.11.2019
3537 Clouds -29 1014 74 0 1.76 129 07:39 29.11.2019
3538 Clouds -29 1014 74 0 1.76 129 07:21 29.11.2019
3539 Clouds -29 1014 74 0 1.76 129 06:42 29.11.2019
3540 Clouds -29 1014 74 0 1.76 129 05:48 29.11.2019
3541 Clouds -29 1014 74 0 1.76 129 05:25 29.11.2019
3542 Clear -30 1016 73 0 1.91 185 04:32 29.11.2019
3543 Clear -30 1016 73 0 1.91 185 03:22 29.11.2019
3544 Clear -30 1016 73 0 1.91 185 02:30 29.11.2019
3545 Clear -30 1016 78 0 2.09 200 01:53 29.11.2019
3546 Clear -30 1016 78 0 2.09 200 01:26 29.11.2019
3547 Clear -30 1016 77 0 1.99 197 00:44 29.11.2019
3548 Clear -30 1016 77 0 1.99 197 00:21 29.11.2019
3549 Clear -30 1016 77 0 1.99 197 23:56 28.11.2019
3550 Clear -30 1016 77 0 1.99 197 23:38 28.11.2019
3551 Clear -30 1015 89 0 1.64 179 23:19 28.11.2019
3552 Clear -30 1015 89 0 1.64 179 22:38 28.11.2019
3553 Clear -30 1015 89 0 1.64 179 22:20 28.11.2019
3554 Clear -30 1015 89 0 1.64 179 21:59 28.11.2019
3555 Clear -30 1015 89 0 1.64 179 21:41 28.11.2019
3556 Clear -30 1015 89 0 1.64 179 21:20 28.11.2019
3557 Clear -30 1015 89 0 1.64 179 20:57 28.11.2019
3558 Clear -30 1015 89 0 1.64 179 20:39 28.11.2019
3559 Clouds -31 1013 99 0 0.85 196 20:20 28.11.2019
3560 Clouds -31 1013 99 0 0.85 196 19:56 28.11.2019
3561 Clouds -31 1013 99 0 0.85 196 19:37 28.11.2019
3562 Clouds -31 1013 99 0 0.85 196 19:19 28.11.2019
3563 Clouds -31 1013 99 0 0.85 196 18:56 28.11.2019
3564 Clouds -31 1013 99 0 0.85 196 18:38 28.11.2019
3565 Clouds -31 1013 99 0 0.85 196 18:18 28.11.2019
3566 Clouds -31 1013 99 0 0.85 196 17:43 28.11.2019
3567 Clouds -31 1013 99 0 0.85 196 17:25 28.11.2019
3568 Clouds -31 1013 99 0 0.85 196 17:25 28.11.2019
3569 Snow -27 1011 97 0 0.67 288 16:59 28.11.2019
3570 Snow -27 1011 97 0 0.67 288 16:40 28.11.2019
3571 Snow -27 1011 97 0 0.67 288 16:19 28.11.2019
3572 Snow -27 1011 97 0 0.67 288 15:57 28.11.2019
3573 Snow -27 1011 97 0 0.67 288 15:38 28.11.2019
3574 Snow -27 1011 97 0 0.67 288 15:19 28.11.2019
3575 Snow -27 1011 97 0 0.67 288 14:57 28.11.2019
3576 Snow -27 1011 97 0 0.67 288 14:38 28.11.2019
3577 Snow -27 1008 99 0 1.32 25 14:19 28.11.2019
3578 Snow -27 1008 99 0 1.32 25 13:41 28.11.2019
3579 Snow -27 1008 99 0 1.32 25 13:23 28.11.2019
3580 Snow -28 1008 99 0 1.34 35 12:55 28.11.2019
3581 Snow -28 1008 99 0 1.34 35 12:55 28.11.2019
3582 Snow -28 1008 99 0 1.34 35 12:36 28.11.2019
3583 Snow -28 1008 99 0 1.34 35 12:18 28.11.2019
3584 Snow -28 1008 99 0 1.34 35 11:54 28.11.2019
3585 Snow -28 1008 99 0 1.34 35 11:36 28.11.2019
3586 Clouds -30 1007 86 0 1.41 83 11:18 28.11.2019
3587 Clouds -30 1007 86 0 1.41 83 10:41 28.11.2019
3588 Clouds -30 1007 86 0 1.41 83 10:20 28.11.2019
3589 Clouds -30 1007 86 0 1.41 83 09:55 28.11.2019
3590 Clouds -30 1007 86 0 1.41 83 09:37 28.11.2019
3591 Clouds -30 1007 86 0 1.41 83 09:18 28.11.2019
3592 Clouds -30 1007 86 0 1.41 83 08:40 28.11.2019
3593 Clouds -32 1008 84 0 1.79 126 08:21 28.11.2019
3594 Clouds -32 1008 84 0 1.79 126 07:43 28.11.2019
3595 Clouds -32 1008 84 0 1.79 126 07:25 28.11.2019
3596 Clouds -32 1008 84 0 1.79 126 06:58 28.11.2019
3597 Clouds -32 1008 84 0 1.79 126 06:37 28.11.2019
3598 Clouds -32 1008 84 0 1.79 126 05:53 28.11.2019
3599 Clouds -32 1008 84 0 1.79 126 05:33 28.11.2019
3600 Clouds -33 1011 84 0 1.74 127 03:43 28.11.2019
3601 Clouds -33 1011 84 0 1.74 127 02:30 28.11.2019
3602 Clouds -33 1014 82 0 1.48 114 01:21 28.11.2019
3603 Clouds -33 1014 82 0 1.48 114 00:37 28.11.2019
3604 Clouds -33 1014 82 0 1.48 114 00:18 28.11.2019
3605 Clouds -33 1014 82 0 1.48 114 23:38 27.11.2019
3606 Clouds -34 1016 78 0 1.39 109 23:20 27.11.2019
3607 Clouds -34 1016 78 0 1.39 109 22:55 27.11.2019
3608 Clouds -34 1016 78 0 1.39 109 22:36 27.11.2019
3609 Clouds -34 1016 78 0 1.39 109 22:18 27.11.2019
3610 Clouds -34 1016 78 0 1.39 109 21:55 27.11.2019
3611 Clouds -34 1016 78 0 1.39 109 21:36 27.11.2019
3612 Clouds -34 1016 78 0 1.39 109 21:18 27.11.2019
3613 Clouds -34 1016 78 0 1.39 109 20:55 27.11.2019
3614 Clouds -34 1016 78 0 1.39 109 20:55 27.11.2019
3615 Clouds -34 1016 78 0 1.39 109 20:36 27.11.2019
3616 Clouds -36 1017 81 0 1.27 109 20:18 27.11.2019
3617 Clouds -36 1017 81 0 1.27 109 19:54 27.11.2019
3618 Clouds -36 1017 81 0 1.27 109 19:54 27.11.2019
3619 Clouds -36 1017 81 0 1.27 109 19:36 27.11.2019
3620 Clouds -36 1017 81 0 1.27 109 19:18 27.11.2019
3621 Clouds -36 1017 81 0 1.27 109 19:18 27.11.2019
3622 Clouds -36 1017 81 0 1.27 109 18:38 27.11.2019
3623 Clouds -36 1017 81 0 1.27 109 18:38 27.11.2019
3624 Clouds -36 1017 81 0 1.27 109 18:19 27.11.2019
3625 Clouds -36 1017 81 0 1.27 109 17:59 27.11.2019
3626 Clouds -36 1017 81 0 1.27 109 17:40 27.11.2019
3627 Clouds -36 1017 81 0 1.27 109 17:40 27.11.2019
3628 Clouds -37 1017 83 0 1.03 106 17:22 27.11.2019
3629 Clouds -37 1017 83 0 1.03 106 16:58 27.11.2019
3630 Clouds -37 1017 83 0 1.03 106 16:58 27.11.2019
3631 Clouds -37 1017 83 0 1.03 106 16:39 27.11.2019
3632 Clouds -37 1017 83 0 1.03 106 16:21 27.11.2019
3633 Clouds -37 1017 83 0 1.03 106 15:58 27.11.2019
3634 Clouds -37 1017 83 0 1.03 106 15:58 27.11.2019
3635 Clouds -37 1017 83 0 1.03 106 15:40 27.11.2019
3636 Clouds -37 1017 83 0 1.03 106 15:21 27.11.2019
3637 Clouds -37 1017 83 0 1.03 106 14:58 27.11.2019
3638 Clouds -37 1017 83 0 1.03 106 14:39 27.11.2019
3639 Clouds -37 1017 83 0 1.03 106 14:39 27.11.2019
3640 Clouds -37 1017 84 0 0.97 83 14:21 27.11.2019
3641 Clouds -37 1017 84 0 0.97 83 14:21 27.11.2019
3642 Clouds -37 1017 84 0 0.97 83 13:58 27.11.2019
3643 Clouds -37 1017 84 0 0.97 83 13:39 27.11.2019
3644 Clouds -37 1017 85 0 1.11 83 13:19 27.11.2019
3645 Clouds -37 1017 85 0 1.11 83 13:19 27.11.2019
3646 Clouds -37 1017 85 0 1.11 83 12:57 27.11.2019
3647 Clouds -37 1017 85 0 1.11 83 12:39 27.11.2019
3648 Clouds -37 1017 85 0 1.11 83 12:19 27.11.2019
3649 Clouds -37 1017 85 0 1.11 83 11:38 27.11.2019
3650 Clouds -37 1017 85 0 1.11 83 11:38 27.11.2019
3651 Clouds -38 1016 87 0 1.26 77 11:19 27.11.2019
3652 Clouds -38 1016 87 0 1.26 77 10:59 27.11.2019
3653 Clouds -38 1016 87 0 1.26 77 10:41 27.11.2019
3654 Clouds -38 1016 87 0 1.26 77 10:22 27.11.2019
3655 Clouds -38 1016 87 0 1.26 77 10:22 27.11.2019
3656 Clouds -38 1016 87 0 1.26 77 09:45 27.11.2019
3657 Clouds -38 1016 87 0 1.26 77 09:26 27.11.2019
3658 Clouds -38 1016 87 0 1.26 77 08:58 27.11.2019
3659 Clouds -38 1016 87 0 1.26 77 08:39 27.11.2019
3660 Clouds -38 1016 86 0 1.33 89 08:21 27.11.2019
3661 Clouds -38 1016 86 0 1.33 89 07:46 27.11.2019
3662 Clouds -38 1016 86 0 1.33 89 07:28 27.11.2019
3663 Clouds -38 1016 86 0 1.33 89 06:48 27.11.2019
3664 Clouds -38 1016 86 0 1.33 89 06:29 27.11.2019
3665 Clouds -38 1016 86 0 1.33 89 05:43 27.11.2019
3666 Clouds -38 1017 87 0 1.41 83 05:19 27.11.2019
3667 Clouds -38 1017 87 0 1.41 83 04:43 27.11.2019
3668 Clouds -38 1017 87 0 1.41 83 03:55 27.11.2019
3669 Clouds -38 1017 87 0 1.41 83 03:24 27.11.2019
3670 Clouds -38 1017 87 0 1.41 83 02:55 27.11.2019
3671 Clouds -39 1017 86 0 1.39 82 01:41 27.11.2019
3672 Clouds -40 1018 88 0 1.31 82 00:46 27.11.2019
3673 Clouds -40 1018 88 0 1.31 82 00:26 27.11.2019
3674 Clouds -40 1018 88 0 1.31 82 23:50 26.11.2019
3675 Clouds -40 1018 88 0 1.31 82 23:28 26.11.2019
3676 Clear -40 1019 87 0 1.37 86 22:59 26.11.2019
3677 Clear -40 1019 87 0 1.37 86 22:38 26.11.2019
3678 Clear -40 1019 87 0 1.37 86 22:19 26.11.2019
3679 Clear -40 1019 87 0 1.37 86 21:58 26.11.2019
3680 Clear -40 1019 87 0 1.37 86 21:38 26.11.2019
3681 Clear -40 1019 87 0 1.37 86 21:19 26.11.2019
3682 Clear -40 1019 87 0 1.37 86 20:55 26.11.2019
3683 Clear -40 1019 87 0 1.37 86 20:37 26.11.2019
3684 Clear -41 1020 87 0 1.17 91 20:18 26.11.2019
3685 Clear -41 1020 87 0 1.17 91 19:55 26.11.2019
3686 Clear -41 1020 87 0 1.17 91 19:37 26.11.2019
3687 Clear -41 1020 87 0 1.17 91 19:18 26.11.2019
3688 Clear -41 1020 87 0 1.17 91 18:56 26.11.2019
3689 Clear -41 1020 87 0 1.17 91 18:38 26.11.2019
3690 Clear -41 1020 87 0 1.17 91 18:20 26.11.2019
3691 Clear -41 1020 87 0 1.17 91 17:55 26.11.2019
3692 Clear -41 1020 87 0 1.17 91 17:37 26.11.2019
3693 Clear -41 1020 86 0 1.15 89 17:18 26.11.2019
3694 Clear -41 1020 86 0 1.15 89 16:55 26.11.2019
3695 Clear -41 1020 86 0 1.15 89 16:37 26.11.2019
3696 Clear -41 1020 86 0 1.15 89 16:18 26.11.2019
3697 Clear -41 1020 86 0 1.15 89 15:57 26.11.2019
3698 Clear -41 1020 86 0 1.15 89 15:37 26.11.2019
3699 Clear -41 1020 86 0 1.15 89 15:37 26.11.2019
3700 Clear -41 1020 86 0 1.15 89 15:18 26.11.2019
3701 Clear -41 1020 86 0 1.15 89 14:45 26.11.2019
3702 Clear -41 1020 86 0 1.15 89 14:24 26.11.2019
3703 Clouds -41 1021 84 0 1.19 88 13:44 26.11.2019
3704 Clouds -41 1021 84 0 1.19 88 13:24 26.11.2019
3705 Clouds -42 1021 84 0 1.18 89 12:58 26.11.2019
3706 Clouds -42 1021 84 0 1.18 89 12:37 26.11.2019
3707 Clouds -42 1021 84 0 1.18 89 12:19 26.11.2019
3708 Clouds -42 1021 84 0 1.18 89 11:55 26.11.2019
3709 Clouds -42 1021 84 0 1.18 89 11:55 26.11.2019
3710 Clouds -42 1021 84 0 1.18 89 11:37 26.11.2019
3711 Clouds -42 1021 82 0 1.09 89 11:19 26.11.2019
3712 Clouds -42 1021 82 0 1.09 89 10:56 26.11.2019
3713 Clouds -42 1021 82 0 1.09 89 10:38 26.11.2019
3714 Clouds -42 1021 82 0 1.09 89 10:19 26.11.2019
3715 Clouds -42 1021 82 0 1.09 89 09:43 26.11.2019
3716 Clouds -42 1021 82 0 1.09 89 09:24 26.11.2019
3717 Clouds -42 1021 82 0 1.09 89 08:56 26.11.2019
3718 Clouds -42 1021 82 0 1.09 89 08:38 26.11.2019
3719 Clouds -42 1020 82 0 1.18 95 08:18 26.11.2019
3720 Clouds -42 1020 82 0 1.18 95 07:43 26.11.2019
3721 Clouds -42 1020 82 0 1.18 95 07:24 26.11.2019
3722 Clouds -42 1020 82 0 1.18 95 06:51 26.11.2019
3723 Clouds -42 1020 82 0 1.18 95 05:59 26.11.2019
3724 Clouds -42 1020 82 0 1.18 95 05:32 26.11.2019
3725 Clouds -41 1020 79 0 0.99 101 03:22 26.11.2019
3726 Clouds -42 1020 78 0 0.89 110 01:42 26.11.2019
3727 Clouds -42 1020 79 0 0.85 110 01:23 26.11.2019
3728 Clouds -42 1020 79 0 0.85 110 00:47 26.11.2019
3729 Clouds -42 1020 79 0 0.85 110 00:20 26.11.2019
3730 Clouds -42 1020 79 0 0.85 110 23:39 25.11.2019
3731 Clouds -42 1020 78 0 0.77 116 23:19 25.11.2019
3732 Clouds -42 1020 78 0 0.77 116 22:55 25.11.2019
3733 Clouds -42 1020 78 0 0.77 116 22:36 25.11.2019
3734 Clouds -42 1020 78 0 0.77 116 22:18 25.11.2019
3735 Clouds -42 1020 78 0 0.77 116 22:18 25.11.2019
3736 Clouds -42 1020 78 0 0.77 116 21:55 25.11.2019
3737 Clouds -42 1020 78 0 0.77 116 21:36 25.11.2019
3738 Clouds -42 1020 78 0 0.77 116 21:18 25.11.2019
3739 Clouds -42 1020 78 0 0.77 116 21:18 25.11.2019
3740 Clouds -42 1020 78 0 0.77 116 20:54 25.11.2019
3741 Clouds -42 1020 78 0 0.77 116 20:36 25.11.2019
3742 Clouds -42 1020 78 0 0.77 116 20:36 25.11.2019
3743 Clouds -41 1020 77 0 1.01 166 20:18 25.11.2019
3744 Clouds -41 1020 77 0 1.01 166 20:18 25.11.2019
3745 Clouds -41 1020 77 0 1.01 166 19:54 25.11.2019
3746 Clouds -41 1020 77 0 1.01 166 19:36 25.11.2019
3747 Clouds -41 1020 77 0 1.01 166 19:18 25.11.2019
3748 Clouds -41 1020 77 0 1.01 166 18:54 25.11.2019
3749 Clouds -41 1020 77 0 1.01 166 18:36 25.11.2019
3750 Clouds -41 1020 77 0 1.01 166 18:18 25.11.2019
3751 Clouds -41 1020 77 0 1.01 166 17:55 25.11.2019
3752 Clouds -41 1020 77 0 1.01 166 17:55 25.11.2019
3753 Clouds -41 1020 77 0 1.01 166 17:36 25.11.2019
3754 Clouds -42 1020 78 0 0.77 176 17:18 25.11.2019
3755 Clouds -42 1020 78 0 0.77 176 16:42 25.11.2019
3756 Clouds -42 1020 78 0 0.77 176 16:23 25.11.2019
3757 Clouds -42 1020 78 0 0.77 176 15:58 25.11.2019
3758 Clouds -42 1020 78 0 0.77 176 15:39 25.11.2019
3759 Clouds -42 1020 78 0 0.77 176 15:20 25.11.2019
3760 Clouds -42 1020 78 0 0.77 176 14:56 25.11.2019
3761 Clouds -42 1020 78 0 0.77 176 14:37 25.11.2019
3762 Clear -42 1020 78 0 0.76 173 14:19 25.11.2019
3763 Clear -42 1020 78 0 0.76 173 13:39 25.11.2019
3764 Clear -42 1020 81 0 0.72 165 13:21 25.11.2019
3765 Clear -42 1020 81 0 0.72 165 12:59 25.11.2019
3766 Clear -42 1020 81 0 0.72 165 12:40 25.11.2019
3767 Clear -42 1020 81 0 0.72 165 12:20 25.11.2019
3768 Clear -42 1020 81 0 0.72 165 11:57 25.11.2019
3769 Clear -42 1020 81 0 0.72 165 11:38 25.11.2019
3770 Clear -42 1020 82 0 0.61 172 11:19 25.11.2019
3771 Clear -42 1020 82 0 0.61 172 10:44 25.11.2019
3772 Clear -42 1020 82 0 0.61 172 10:26 25.11.2019
3773 Clear -42 1020 82 0 0.61 172 09:58 25.11.2019
3774 Clear -42 1020 82 0 0.61 172 09:39 25.11.2019
3775 Clear -42 1020 82 0 0.61 172 09:21 25.11.2019
3776 Clear -42 1020 82 0 0.61 172 08:41 25.11.2019
3777 Clear -42 1019 89 0 0.2 159 08:21 25.11.2019
3778 Clear -42 1019 89 0 0.2 159 07:43 25.11.2019
3779 Clear -42 1019 89 0 0.2 159 07:24 25.11.2019
3780 Clear -42 1019 89 0 0.2 159 07:24 25.11.2019
3781 Clear -42 1019 89 0 0.2 159 06:49 25.11.2019
3782 Clear -42 1019 89 0 0.2 159 06:21 25.11.2019
3783 Clear -42 1019 89 0 0.2 159 05:40 25.11.2019
3784 Clear -41 1020 87 0 0.48 112 04:52 25.11.2019
3785 Clear -41 1020 87 0 0.48 112 03:24 25.11.2019
3786 Clear -41 1020 87 0 0.48 112 02:31 25.11.2019
3787 Clear -42 1020 89 0 0.32 110 01:42 25.11.2019
3788 Clear -42 1020 89 0 0.32 110 01:23 25.11.2019
3789 Clear -42 1020 90 0 0.25 105 00:37 25.11.2019
3790 Clear -42 1020 90 0 0.25 105 00:18 25.11.2019
3791 Clear -42 1020 90 0 0.25 105 23:43 24.11.2019
3792 Clear -42 1020 89 0 0.53 117 23:20 24.11.2019
3793 Clear -42 1020 89 0 0.53 117 22:56 24.11.2019
3794 Clear -42 1020 89 0 0.53 117 22:37 24.11.2019
3795 Clear -42 1020 89 0 0.53 117 22:18 24.11.2019
3796 Clear -42 1020 89 0 0.53 117 21:54 24.11.2019
3797 Clear -42 1020 89 0 0.53 117 21:36 24.11.2019
3798 Clear -42 1020 89 0 0.53 117 21:18 24.11.2019
3799 Clear -42 1020 89 0 0.53 117 20:55 24.11.2019
3800 Clear -42 1020 89 0 0.53 117 20:36 24.11.2019
3801 Clear -41 1020 90 0 0.43 115 20:18 24.11.2019
3802 Clear -41 1020 90 0 0.43 115 19:54 24.11.2019
3803 Clear -41 1020 90 0 0.43 115 19:36 24.11.2019
3804 Clear -41 1020 90 0 0.43 115 19:18 24.11.2019
3805 Clear -41 1020 90 0 0.43 115 18:54 24.11.2019
3806 Clear -41 1020 90 0 0.43 115 18:36 24.11.2019
3807 Clear -41 1020 90 0 0.43 115 18:18 24.11.2019
3808 Clear -41 1020 90 0 0.43 115 17:54 24.11.2019
3809 Clear -41 1020 90 0 0.43 115 17:36 24.11.2019
3810 Clear -41 1021 88 0 0.47 122 17:18 24.11.2019
3811 Clear -41 1021 88 0 0.47 122 16:41 24.11.2019
3812 Clear -41 1021 88 0 0.47 122 16:23 24.11.2019
3813 Clear -41 1021 88 0 0.47 122 15:59 24.11.2019
3814 Clear -41 1021 88 0 0.47 122 15:41 24.11.2019
3815 Clear -41 1021 88 0 0.47 122 15:22 24.11.2019
3816 Clear -41 1021 88 0 0.47 122 14:55 24.11.2019
3817 Clear -41 1021 88 0 0.47 122 14:37 24.11.2019
3818 Clear -41 1021 86 0 0.18 176 14:18 24.11.2019
3819 Clear -41 1021 86 0 0.18 176 13:39 24.11.2019
3820 Clear -41 1022 87 0 0.2 133 13:20 24.11.2019
3821 Clear -41 1022 87 0 0.2 133 12:57 24.11.2019
3822 Clear -41 1022 87 0 0.2 133 12:39 24.11.2019
3823 Clear -41 1022 87 0 0.2 133 12:18 24.11.2019
3824 Clear -41 1022 87 0 0.2 133 11:55 24.11.2019
3825 Clear -41 1022 87 0 0.2 133 11:36 24.11.2019
3826 Clouds -41 1022 85 0 0.54 113 11:18 24.11.2019
3827 Clouds -41 1022 85 0 0.54 113 10:45 24.11.2019
3828 Clouds -41 1022 85 0 0.54 113 10:27 24.11.2019
3829 Clouds -41 1022 85 0 0.54 113 09:55 24.11.2019
3830 Clouds -41 1022 85 0 0.54 113 09:36 24.11.2019
3831 Clouds -41 1022 85 0 0.54 113 09:18 24.11.2019
3832 Clouds -41 1022 85 0 0.54 113 08:43 24.11.2019
3833 Clouds -40 1022 83 0 0.55 153 08:21 24.11.2019
3834 Clear -40 1023 85 0 0.65 148 07:54 24.11.2019
3835 Clear -40 1023 85 0 0.65 148 07:36 24.11.2019
3836 Clear -40 1023 85 0 0.65 148 07:18 24.11.2019
3837 Clear -40 1023 85 0 0.65 148 06:19 24.11.2019
3838 Clear -40 1023 81 0 0.65 181 04:47 24.11.2019
3839 Clear -40 1023 81 0 0.65 181 03:25 24.11.2019
3840 Clear -40 1023 82 0 0.76 167 01:58 24.11.2019
3841 Clear -40 1023 82 0 0.76 167 01:39 24.11.2019
3842 Clear -40 1023 83 0 0.9 177 01:20 24.11.2019
3843 Clear -40 1023 83 0 0.9 177 00:47 24.11.2019
3844 Clear -40 1023 83 0 0.9 177 00:23 24.11.2019
3845 Clear -40 1023 83 0 0.9 177 23:45 23.11.2019
3846 Clouds -39 1023 83 0 1.12 207 23:22 23.11.2019
3847 Clouds -39 1023 83 0 1.12 207 22:59 23.11.2019
3848 Clouds -39 1023 83 0 1.12 207 22:40 23.11.2019
3849 Clouds -39 1023 83 0 1.12 207 22:22 23.11.2019
3850 Clouds -39 1023 83 0 1.12 207 21:58 23.11.2019
3851 Clouds -39 1023 83 0 1.12 207 21:40 23.11.2019
3852 Clouds -39 1023 83 0 1.12 207 21:21 23.11.2019
3853 Clouds -39 1023 83 0 1.12 207 20:55 23.11.2019
3854 Clouds -39 1023 83 0 1.12 207 20:36 23.11.2019
3855 Clouds -39 1023 88 0 1.52 203 20:18 23.11.2019
3856 Clouds -39 1023 88 0 1.52 203 19:54 23.11.2019
3857 Clouds -39 1023 88 0 1.52 203 19:36 23.11.2019
3858 Clouds -39 1023 88 0 1.52 203 19:18 23.11.2019
3859 Clouds -39 1023 88 0 1.52 203 18:39 23.11.2019
3860 Clouds -39 1023 88 0 1.52 203 18:20 23.11.2019
3861 Clouds -39 1023 88 0 1.52 203 17:54 23.11.2019
3862 Clouds -39 1023 88 0 1.52 203 17:36 23.11.2019
3863 Clouds -39 1023 88 0 1.52 203 17:36 23.11.2019
3864 Clouds -39 1023 95 0 1.45 205 17:18 23.11.2019
3865 Clouds -39 1023 95 0 1.45 205 16:54 23.11.2019
3866 Clouds -39 1023 95 0 1.45 205 16:36 23.11.2019
3867 Clouds -39 1023 95 0 1.45 205 16:18 23.11.2019
3868 Clouds -39 1023 95 0 1.45 205 15:56 23.11.2019
3869 Clouds -39 1023 95 0 1.45 205 15:37 23.11.2019
3870 Clouds -39 1023 95 0 1.45 205 15:18 23.11.2019
3871 Clouds -39 1023 95 0 1.45 205 14:42 23.11.2019
3872 Clouds -38 1023 98 0 1.42 215 14:21 23.11.2019
3873 Clouds -38 1023 98 0 1.42 215 13:57 23.11.2019
3874 Clouds -38 1023 98 0 1.42 215 13:39 23.11.2019
3875 Clouds -38 1023 98 0 1.42 215 13:18 23.11.2019
3876 Clouds -39 1024 98 0 1.39 215 12:44 23.11.2019
3877 Clouds -39 1024 98 0 1.39 215 12:24 23.11.2019
3878 Clouds -39 1024 98 0 1.39 215 11:56 23.11.2019
3879 Clouds -39 1024 98 0 1.39 215 11:38 23.11.2019
3880 Clouds -38 1023 98 0 1.44 216 11:18 23.11.2019
3881 Clouds -38 1023 98 0 1.44 216 10:43 23.11.2019
3882 Clouds -38 1023 98 0 1.44 216 10:20 23.11.2019
3883 Clouds -38 1023 98 0 1.44 216 09:41 23.11.2019
3884 Clouds -38 1023 98 0 1.44 216 09:19 23.11.2019
3885 Clouds -38 1023 98 0 1.44 216 08:41 23.11.2019
3886 Clouds -36 1022 98 0 1.27 214 08:19 23.11.2019
3887 Clouds -36 1022 98 0 1.27 214 07:44 23.11.2019
3888 Clouds -36 1022 98 0 1.27 214 07:26 23.11.2019
3889 Clouds -36 1022 98 0 1.27 214 06:42 23.11.2019
3890 Clouds -36 1022 98 0 1.27 214 06:19 23.11.2019
3891 Clouds -36 1022 98 0 1.27 214 05:46 23.11.2019
3892 Clouds -36 1022 98 0 1.27 214 05:27 23.11.2019
3893 Clouds -34 1023 94 0 1.41 215 04:44 23.11.2019
3894 Clouds -34 1023 94 0 1.41 215 04:26 23.11.2019
3895 Clouds -34 1023 94 0 1.41 215 02:39 23.11.2019
3896 Clouds -33 1022 91 0 1.74 214 01:42 23.11.2019
3897 Clouds -34 1022 92 0 1.75 213 00:57 23.11.2019
3898 Clouds -34 1022 92 0 1.75 213 00:57 23.11.2019
3899 Clouds -34 1022 92 0 1.75 213 00:38 23.11.2019
3900 Clouds -34 1022 92 0 1.75 213 00:18 23.11.2019
3901 Clouds -34 1022 92 0 1.75 213 23:39 22.11.2019
3902 Clouds -31 1022 95 0 2 215 23:20 22.11.2019
3903 Clouds -31 1022 95 0 2 215 22:57 22.11.2019
3904 Clouds -31 1022 95 0 2 215 22:38 22.11.2019
3905 Clouds -31 1022 95 0 2 215 22:38 22.11.2019
3906 Clouds -31 1022 95 0 2 215 22:20 22.11.2019
3907 Clouds -31 1022 95 0 2 215 21:58 22.11.2019
3908 Clouds -31 1022 95 0 2 215 21:39 22.11.2019
3909 Clouds -31 1022 95 0 2 215 21:19 22.11.2019
3910 Clouds -31 1022 95 0 2 215 20:43 22.11.2019
3911 Clouds -29 1021 97 0 1.5 194 20:22 22.11.2019
3912 Clouds -29 1021 97 0 1.5 194 19:55 22.11.2019
3913 Clouds -29 1021 97 0 1.5 194 19:37 22.11.2019
3914 Clouds -29 1021 97 0 1.5 194 19:18 22.11.2019
3915 Clouds -29 1021 97 0 1.5 194 18:39 22.11.2019
3916 Clouds -29 1021 97 0 1.5 194 18:21 22.11.2019
3917 Clouds -29 1021 97 0 1.5 194 17:57 22.11.2019
3918 Clouds -29 1021 97 0 1.5 194 17:39 22.11.2019
3919 Clouds -28 1021 98 0 0.47 132 17:20 22.11.2019
3920 Clouds -28 1021 98 0 0.47 132 16:42 22.11.2019
3921 Clouds -28 1021 98 0 0.47 132 16:23 22.11.2019
3922 Clouds -28 1021 98 0 0.47 132 15:44 22.11.2019
3923 Clouds -28 1021 98 0 0.47 132 15:24 22.11.2019
3924 Clouds -28 1021 98 0 0.47 132 14:56 22.11.2019
3925 Clouds -28 1021 98 0 0.47 132 14:38 22.11.2019
3926 Clouds -28 1020 98 0 0.51 71 14:19 22.11.2019
3927 Clouds -28 1020 98 0 0.51 71 13:57 22.11.2019
3928 Clouds -28 1020 98 0 0.51 71 13:37 22.11.2019
3929 Clouds -28 1020 98 0 0.39 64 13:18 22.11.2019
3930 Clouds -28 1020 98 0 0.39 64 12:57 22.11.2019
3931 Clouds -28 1020 98 0 0.39 64 12:39 22.11.2019
3932 Clouds -28 1020 98 0 0.39 64 12:18 22.11.2019
3933 Clouds -28 1020 98 0 0.39 64 11:55 22.11.2019
3934 Clouds -28 1020 98 0 0.39 64 11:36 22.11.2019
3935 Clouds -29 1019 98 0 0.67 64 11:18 22.11.2019
3936 Clouds -29 1019 98 0 0.67 64 11:18 22.11.2019
3937 Clouds -29 1019 98 0 0.67 64 10:40 22.11.2019
3938 Clouds -29 1019 98 0 0.67 64 10:22 22.11.2019
3939 Clouds -29 1019 98 0 0.67 64 09:58 22.11.2019
3940 Clouds -29 1019 98 0 0.67 64 09:39 22.11.2019
3941 Clouds -29 1019 98 0 0.67 64 09:21 22.11.2019
3942 Clouds -29 1019 98 0 0.67 64 09:21 22.11.2019
3943 Clouds -29 1019 98 0 0.67 64 08:47 22.11.2019
3944 Clouds -29 1019 98 0 0.67 64 08:28 22.11.2019
3945 Snow -29 1018 98 0 0.75 74 07:58 22.11.2019
3946 Snow -29 1018 98 0 0.75 74 07:40 22.11.2019
3947 Snow -29 1018 98 0 0.75 74 07:19 22.11.2019
3948 Snow -29 1018 98 0 0.75 74 06:41 22.11.2019
3949 Snow -29 1018 98 0 0.75 74 05:57 22.11.2019
3950 Snow -29 1017 98 0 0.78 77 04:53 22.11.2019
3951 Snow -29 1017 98 0 0.78 77 02:59 22.11.2019
3952 Snow -29 1017 98 0 0.78 77 02:37 22.11.2019
3953 Snow -29 1016 98 0 0.71 71 02:18 22.11.2019
3954 Snow -29 1016 98 0 0.71 71 01:42 22.11.2019
3955 Snow -29 1016 98 0 0.7 70 01:18 22.11.2019
3956 Snow -29 1016 98 0 0.7 70 00:26 22.11.2019
3957 Snow -29 1016 98 0 0.7 70 23:59 21.11.2019
3958 Snow -29 1016 98 0 0.7 70 23:41 21.11.2019
3959 Snow -29 1016 98 0 0.84 87 23:23 21.11.2019
3960 Snow -29 1016 98 0 0.84 87 22:54 21.11.2019
3961 Snow -29 1016 98 0 0.84 87 22:36 21.11.2019
3962 Snow -29 1016 98 0 0.84 87 22:18 21.11.2019
3963 Snow -29 1016 98 0 0.84 87 21:54 21.11.2019
3964 Snow -29 1016 98 0 0.84 87 21:36 21.11.2019
3965 Snow -29 1016 98 0 0.84 87 21:18 21.11.2019
3966 Snow -29 1016 98 0 0.84 87 20:55 21.11.2019
3967 Snow -29 1016 98 0 0.84 87 20:36 21.11.2019
3968 Snow -29 1016 98 0 0.84 87 20:36 21.11.2019
3969 Snow -29 1015 98 0 0.79 77 20:18 21.11.2019
3970 Snow -29 1015 98 0 0.79 77 19:55 21.11.2019
3971 Snow -29 1015 98 0 0.79 77 19:36 21.11.2019
3972 Snow -29 1015 98 0 0.79 77 19:18 21.11.2019
3973 Snow -29 1015 98 0 0.79 77 18:41 21.11.2019
3974 Snow -29 1015 98 0 0.79 77 18:21 21.11.2019
3975 Snow -29 1015 98 0 0.79 77 17:58 21.11.2019
3976 Snow -29 1015 98 0 0.79 77 17:39 21.11.2019
3977 Snow -29 1015 98 0 0.79 77 17:39 21.11.2019
3978 Snow -30 1015 98 0 0.85 81 17:21 21.11.2019
3979 Snow -30 1015 98 0 0.85 81 16:57 21.11.2019
3980 Snow -30 1015 98 0 0.85 81 16:39 21.11.2019
3981 Snow -30 1015 98 0 0.85 81 16:20 21.11.2019
3982 Snow -30 1015 98 0 0.85 81 15:55 21.11.2019
3983 Snow -30 1015 98 0 0.85 81 15:37 21.11.2019
3984 Snow -30 1015 98 0 0.85 81 15:18 21.11.2019
3985 Snow -30 1015 98 0 0.85 81 14:39 21.11.2019
3986 Clouds -30 1015 97 0 1.08 72 14:20 21.11.2019
3987 Clouds -30 1015 97 0 1.08 72 13:59 21.11.2019
3988 Clouds -30 1015 97 0 1.08 72 13:37 21.11.2019
3989 Clouds -30 1016 97 0 1.05 73 13:19 21.11.2019
3990 Clouds -30 1016 97 0 1.05 73 12:43 21.11.2019
3991 Clouds -30 1016 97 0 1.05 73 12:24 21.11.2019
3992 Clouds -30 1016 97 0 1.05 73 11:59 21.11.2019
3993 Clouds -30 1016 97 0 1.05 73 11:40 21.11.2019
3994 Clouds -32 1016 99 0 0.82 79 11:21 21.11.2019
3995 Clouds -32 1016 99 0 0.82 79 10:55 21.11.2019
3996 Clouds -32 1016 99 0 0.82 79 10:37 21.11.2019
3997 Clouds -32 1016 99 0 0.82 79 10:37 21.11.2019
3998 Clouds -32 1016 99 0 0.82 79 10:19 21.11.2019
3999 Clouds -32 1016 99 0 0.82 79 09:43 21.11.2019
4000 Clouds -32 1016 99 0 0.82 79 09:23 21.11.2019
4001 Clouds -32 1016 99 0 0.82 79 08:58 21.11.2019
4002 Clouds -32 1016 99 0 0.82 79 08:39 21.11.2019
4003 Clouds -31 1016 99 0 0.8 74 08:18 21.11.2019
4004 Clouds -31 1016 99 0 0.79 76 07:40 21.11.2019
4005 Clouds -31 1016 99 0 0.79 76 07:18 21.11.2019
4006 Clouds -31 1016 99 0 0.79 76 06:51 21.11.2019
4007 Clouds -31 1016 99 0 0.79 76 06:33 21.11.2019
4008 Clouds -31 1016 99 0 0.79 76 05:31 21.11.2019
4009 Clouds -31 1016 99 0 0.61 84 03:32 21.11.2019
4010 Clouds -31 1016 99 0 0.61 84 02:40 21.11.2019
4011 Clouds -32 1017 100 0 0.39 109 01:53 21.11.2019
4012 Clouds -32 1017 100 0 0.39 109 01:26 21.11.2019
4013 Clouds -31 1017 100 0 0.39 104 00:54 21.11.2019
4014 Clouds -31 1017 100 0 0.39 104 00:21 21.11.2019
4015 Clouds -31 1017 100 0 0.39 104 23:55 20.11.2019
4016 Clouds -31 1017 100 0 0.39 104 23:37 20.11.2019
4017 Clouds -30 1018 100 0 0.62 119 23:19 20.11.2019
4018 Clouds -30 1018 100 0 0.62 119 22:55 20.11.2019
4019 Clouds -30 1018 100 0 0.62 119 22:36 20.11.2019
4020 Clouds -30 1018 100 0 0.62 119 22:18 20.11.2019
4021 Clouds -30 1018 100 0 0.62 119 21:54 20.11.2019
4022 Clouds -30 1018 100 0 0.62 119 21:36 20.11.2019
4023 Clouds -30 1018 100 0 0.62 119 21:18 20.11.2019
4024 Clouds -30 1018 100 0 0.62 119 20:54 20.11.2019
4025 Clouds -30 1018 100 0 0.62 119 20:36 20.11.2019
4026 Clouds -29 1017 100 0 0.6 123 20:18 20.11.2019
4027 Clouds -29 1017 100 0 0.6 123 19:54 20.11.2019
4028 Clouds -29 1017 100 0 0.6 123 19:36 20.11.2019
4029 Clouds -29 1017 100 0 0.6 123 19:18 20.11.2019
4030 Clouds -29 1017 100 0 0.6 123 18:41 20.11.2019
4031 Clouds -29 1017 100 0 0.6 123 18:22 20.11.2019
4032 Clouds -29 1017 100 0 0.6 123 17:59 20.11.2019
4033 Clouds -29 1017 100 0 0.6 123 17:59 20.11.2019
4034 Clouds -29 1017 100 0 0.6 123 17:40 20.11.2019
4035 Clouds -29 1017 100 0 0.6 123 17:39 20.11.2019
4036 Clouds -27 1017 100 0 0.68 83 17:21 20.11.2019
4037 Clouds -27 1017 100 0 0.68 83 17:21 20.11.2019
4038 Clouds -27 1017 100 0 0.68 83 16:59 20.11.2019
4039 Clouds -27 1017 100 0 0.68 83 16:41 20.11.2019
4040 Clouds -27 1017 100 0 0.68 83 16:20 20.11.2019
4041 Clouds -27 1017 100 0 0.68 83 15:57 20.11.2019
4042 Clouds -27 1017 100 0 0.68 83 15:38 20.11.2019
4043 Clouds -27 1017 100 0 0.68 83 15:19 20.11.2019
4044 Clouds -27 1017 100 0 0.68 83 14:55 20.11.2019
4045 Clouds -27 1017 100 0 0.68 83 14:37 20.11.2019
4046 Clouds -26 1017 99 0 0.73 83 14:18 20.11.2019
4047 Clouds -26 1017 99 0 0.73 83 13:55 20.11.2019
4048 Clouds -26 1017 99 0 0.73 83 13:36 20.11.2019
4049 Clouds -26 1017 99 0 0.81 77 13:18 20.11.2019
4050 Clouds -26 1017 99 0 0.81 77 12:40 20.11.2019
4051 Clouds -26 1017 99 0 0.81 77 12:21 20.11.2019
4052 Clouds -26 1017 99 0 0.81 77 11:46 20.11.2019
4053 Clouds -26 1017 99 0 0.81 77 11:23 20.11.2019
4054 Clouds -26 1017 99 0 0.79 84 10:59 20.11.2019
4055 Clouds -26 1017 99 0 0.79 84 10:39 20.11.2019
4056 Clouds -26 1017 99 0 0.79 84 10:20 20.11.2019
4057 Clouds -26 1017 99 0 0.79 84 09:59 20.11.2019
4058 Clouds -26 1017 99 0 0.79 84 09:41 20.11.2019
4059 Clouds -26 1017 99 0 0.79 84 09:20 20.11.2019
4060 Clouds -26 1017 99 0 0.79 84 08:46 20.11.2019
4061 Clouds -26 1018 99 0 0.73 82 08:28 20.11.2019
4062 Clouds -25 1018 98 0 0.62 83 07:57 20.11.2019
4063 Clouds -25 1018 98 0 0.62 83 07:37 20.11.2019
4064 Clouds -25 1018 98 0 0.62 83 07:18 20.11.2019
4065 Clouds -25 1018 98 0 0.62 83 06:45 20.11.2019
4066 Clouds -25 1018 98 0 0.62 83 06:19 20.11.2019
4067 Clouds -25 1017 98 0 0.86 77 04:50 20.11.2019
4068 Clouds -25 1017 98 0 0.86 77 04:50 20.11.2019
4069 Clouds -25 1017 98 0 0.86 77 02:29 20.11.2019
4070 Clouds -27 1018 99 0 0.67 81 01:39 20.11.2019
4071 Clouds -27 1017 99 0 0.65 83 00:59 20.11.2019
4072 Clouds -27 1017 99 0 0.65 83 00:34 20.11.2019
4073 Clouds -27 1017 99 0 0.65 83 23:43 19.11.2019
4074 Clouds -27 1017 99 0 0.65 83 23:24 19.11.2019
4075 Clouds -26 1018 98 0 0.58 74 22:56 19.11.2019
4076 Clouds -26 1018 98 0 0.58 74 22:38 19.11.2019
4077 Clouds -26 1018 98 0 0.58 74 22:18 19.11.2019
4078 Clouds -26 1018 98 0 0.58 74 21:55 19.11.2019
4079 Clouds -26 1018 98 0 0.58 74 21:37 19.11.2019
4080 Clouds -26 1018 98 0 0.58 74 21:19 19.11.2019
4081 Clouds -26 1018 98 0 0.58 74 20:55 19.11.2019
4082 Clouds -26 1018 98 0 0.58 74 20:55 19.11.2019
4083 Clouds -26 1018 98 0 0.58 74 20:36 19.11.2019
4084 Clouds -26 1018 98 0 0.58 74 20:36 19.11.2019
4085 Clouds -26 1018 98 0 0.58 74 20:36 19.11.2019
4086 Clouds -26 1018 98 0 0.58 74 20:36 19.11.2019
4087 Clouds -26 1018 98 0 0.58 74 20:36 19.11.2019
4088 Clouds -27 1019 98 0 0.62 68 20:18 19.11.2019
4089 Clouds -27 1019 98 0 0.62 68 19:55 19.11.2019
4090 Clouds -27 1019 98 0 0.62 68 19:36 19.11.2019
4091 Clouds -27 1019 98 0 0.62 68 19:18 19.11.2019
4092 Clouds -27 1019 98 0 0.62 68 18:41 19.11.2019
4093 Clouds -27 1019 98 0 0.62 68 18:41 19.11.2019
4094 Clouds -27 1019 98 0 0.62 68 18:41 19.11.2019
4095 Clouds -27 1019 98 0 0.62 68 18:21 19.11.2019
4096 Clouds -27 1019 98 0 0.62 68 17:59 19.11.2019
4097 Clouds -27 1019 98 0 0.62 68 17:41 19.11.2019
4098 Clouds -29 1019 99 0 0.7 67 17:21 19.11.2019
4099 Clouds -29 1019 99 0 0.7 67 16:59 19.11.2019
4100 Clouds -29 1019 99 0 0.7 67 16:41 19.11.2019
4101 Clouds -29 1019 99 0 0.7 67 16:21 19.11.2019
4102 Clouds -29 1019 99 0 0.7 67 16:21 19.11.2019
4103 Clouds -29 1019 99 0 0.7 67 15:47 19.11.2019
4104 Clouds -29 1019 99 0 0.7 67 15:27 19.11.2019
4105 Clouds -29 1019 99 0 0.7 67 14:59 19.11.2019
4106 Clouds -29 1019 99 0 0.7 67 14:59 19.11.2019
4107 Clouds -29 1019 99 0 0.7 67 14:59 19.11.2019
4108 Clouds -29 1019 99 0 0.7 67 14:40 19.11.2019
4109 Clouds -29 1020 99 0 0.76 70 14:21 19.11.2019
4110 Clouds -29 1020 99 0 0.76 70 13:59 19.11.2019
4111 Clouds -29 1020 99 0 0.76 70 13:39 19.11.2019
4112 Clouds -29 1020 99 0 0.76 70 13:18 19.11.2019
4113 Clouds -29 1020 99 0 0.9 71 12:40 19.11.2019
4114 Clouds -29 1020 99 0 0.9 71 12:40 19.11.2019
4115 Clouds -29 1020 99 0 0.9 71 12:21 19.11.2019
4116 Clouds -29 1020 99 0 0.9 71 11:57 19.11.2019
4117 Clouds -29 1020 99 0 0.9 71 11:37 19.11.2019
4118 Clouds -30 1020 100 0 1.03 75 11:19 19.11.2019
4119 Clouds -30 1020 100 0 1.03 75 11:19 19.11.2019
4120 Clouds -30 1020 100 0 1.03 75 10:47 19.11.2019
4121 Clouds -30 1020 100 0 1.03 75 10:22 19.11.2019
4122 Clouds -30 1020 100 0 1.03 75 09:57 19.11.2019
4123 Clouds -30 1020 100 0 1.03 75 09:39 19.11.2019
4124 Clouds -30 1020 100 0 1.03 75 09:18 19.11.2019
4125 Clouds -30 1020 100 0 1.03 75 08:41 19.11.2019
4126 Clouds -30 1020 100 0 1.03 75 08:41 19.11.2019
4127 Clouds -30 1021 100 0 0.83 73 08:22 19.11.2019
4128 Clouds -30 1021 100 0 0.83 73 07:57 19.11.2019
4129 Clouds -30 1021 100 0 0.83 73 07:38 19.11.2019
4130 Clouds -30 1021 100 0 0.83 73 07:20 19.11.2019
4131 Clouds -30 1021 100 0 0.83 73 06:49 19.11.2019
4132 Clouds -30 1021 100 0 0.83 73 06:29 19.11.2019
4133 Clouds -30 1021 100 0 0.83 73 05:24 19.11.2019
4134 Clouds -30 1021 100 0 0.9 74 03:47 19.11.2019
4135 Clouds -30 1021 100 0 0.9 74 03:29 19.11.2019
4136 Clouds -30 1021 100 0 0.9 74 02:55 19.11.2019
4137 Clouds -31 1022 100 0 0.84 89 01:59 19.11.2019
4138 Clouds -30 1022 100 0 0.92 88 01:27 19.11.2019
4139 Clouds -30 1022 100 0 0.92 88 00:21 19.11.2019
4140 Clouds -30 1022 100 0 0.92 88 23:57 18.11.2019
4141 Clouds -30 1022 100 0 0.92 88 23:37 18.11.2019
4142 Clouds -30 1022 100 0 0.97 85 23:18 18.11.2019
4143 Clouds -30 1022 100 0 0.97 85 22:42 18.11.2019
4144 Clouds -30 1022 100 0 0.97 85 22:23 18.11.2019
4145 Clouds -30 1022 100 0 0.97 85 21:55 18.11.2019
4146 Clouds -30 1022 100 0 0.97 85 21:37 18.11.2019
4147 Clouds -30 1022 100 0 0.97 85 21:19 18.11.2019
4148 Clouds -30 1022 100 0 0.97 85 20:56 18.11.2019
4149 Clouds -30 1022 100 0 0.97 85 20:38 18.11.2019
4150 Clouds -30 1023 100 0 0.98 102 20:18 18.11.2019
4151 Clouds -30 1023 100 0 0.98 102 19:55 18.11.2019
4152 Clouds -30 1023 100 0 0.98 102 19:36 18.11.2019
4153 Clouds -30 1023 100 0 0.98 102 19:18 18.11.2019
4154 Clouds -30 1023 100 0 0.98 102 18:54 18.11.2019
4155 Clouds -30 1023 100 0 0.98 102 18:36 18.11.2019
4156 Clouds -30 1023 100 0 0.98 102 18:18 18.11.2019
4157 Clouds -30 1023 100 0 0.98 102 17:39 18.11.2019
4158 Clouds -30 1024 99 0 1.13 114 17:19 18.11.2019
4159 Clouds -30 1024 99 0 1.13 114 16:55 18.11.2019
4160 Clouds -30 1024 99 0 1.13 114 16:36 18.11.2019
4161 Clouds -30 1024 99 0 1.13 114 16:18 18.11.2019
4162 Clouds -30 1024 99 0 1.13 114 15:55 18.11.2019
4163 Clouds -30 1024 99 0 1.13 114 15:36 18.11.2019
4164 Clouds -30 1024 99 0 1.13 114 15:18 18.11.2019
4165 Clouds -30 1024 99 0 1.13 114 14:41 18.11.2019
4166 Clouds -29 1026 99 0 0.98 115 14:23 18.11.2019
4167 Clouds -29 1026 99 0 0.98 115 13:48 18.11.2019
4168 Clouds -29 1026 99 0 0.98 115 13:48 18.11.2019
4169 Clouds -28 1025 99 0 1 115 13:28 18.11.2019
4170 Clouds -28 1025 99 0 1 115 12:58 18.11.2019
4171 Clouds -28 1025 99 0 1 115 12:38 18.11.2019
4172 Clouds -28 1025 99 0 1 115 12:19 18.11.2019
4173 Clouds -28 1025 99 0 1 115 11:44 18.11.2019
4174 Clouds -28 1025 99 0 1 115 11:25 18.11.2019
4175 Clouds -28 1026 99 0 0.94 112 10:56 18.11.2019
4176 Clouds -28 1026 99 0 0.94 112 10:38 18.11.2019
4177 Clouds -28 1026 99 0 0.94 112 10:18 18.11.2019
4178 Clouds -28 1026 99 0 0.94 112 09:54 18.11.2019
4179 Clouds -28 1026 99 0 0.94 112 09:36 18.11.2019
4180 Clouds -28 1026 99 0 0.94 112 09:18 18.11.2019
4181 Clouds -28 1026 99 0 0.94 112 08:43 18.11.2019
4182 Clouds -26 1027 98 0 0.93 113 08:20 18.11.2019
4183 Clouds -27 1027 99 0 0.95 109 07:48 18.11.2019
4184 Clouds -27 1027 99 0 0.95 109 07:48 18.11.2019
4185 Clouds -27 1027 99 0 0.95 109 07:29 18.11.2019
4186 Clouds -27 1027 99 0 0.95 109 06:56 18.11.2019
4187 Clouds -27 1027 99 0 0.95 109 06:32 18.11.2019
4188 Clouds -27 1027 99 0 0.95 109 05:51 18.11.2019
4189 Clouds -26 1029 98 0 0.77 106 04:57 18.11.2019
4190 Clouds -26 1029 98 0 0.77 106 02:59 18.11.2019
4191 Clouds -26 1030 98 0 0.81 109 01:31 18.11.2019
4192 Clouds -26 1029 98 0 0.81 106 00:24 18.11.2019
4193 Clouds -26 1029 98 0 0.81 106 23:45 17.11.2019
4194 Clouds -26 1029 98 0 0.81 106 23:25 17.11.2019
4195 Snow -26 1030 98 0 0.71 125 22:59 17.11.2019
4196 Snow -26 1030 98 0 0.71 125 22:40 17.11.2019
4197 Snow -26 1030 98 0 0.71 125 22:22 17.11.2019
4198 Snow -26 1030 98 0 0.71 125 21:59 17.11.2019
4199 Snow -26 1030 98 0 0.71 125 21:41 17.11.2019
4200 Snow -26 1030 98 0 0.71 125 21:19 17.11.2019
4201 Snow -26 1030 98 0 0.71 125 21:19 17.11.2019
4202 Snow -26 1030 98 0 0.71 125 20:57 17.11.2019
4203 Snow -26 1030 98 0 0.71 125 20:38 17.11.2019
4204 Snow -26 1030 98 0 0.71 125 20:38 17.11.2019
4205 Snow -27 1031 98 0 0.72 100 20:19 17.11.2019
4206 Snow -27 1031 98 0 0.72 100 19:56 17.11.2019
4207 Snow -27 1031 98 0 0.72 100 19:37 17.11.2019
4208 Snow -27 1031 98 0 0.72 100 19:19 17.11.2019
4209 Snow -27 1031 98 0 0.72 100 18:55 17.11.2019
4210 Snow -27 1031 98 0 0.72 100 18:37 17.11.2019
4211 Snow -27 1031 98 0 0.72 100 18:19 17.11.2019
4212 Snow -27 1031 98 0 0.72 100 17:57 17.11.2019
4213 Snow -27 1031 98 0 0.72 100 17:39 17.11.2019
4214 Snow -26 1032 98 0 0.77 105 17:20 17.11.2019
4215 Snow -26 1032 98 0 0.77 105 16:58 17.11.2019
4216 Snow -26 1032 98 0 0.77 105 16:40 17.11.2019
4217 Snow -26 1032 98 0 0.77 105 16:21 17.11.2019
4218 Snow -26 1032 98 0 0.77 105 15:55 17.11.2019
4219 Snow -26 1032 98 0 0.77 105 15:37 17.11.2019
4220 Snow -26 1032 98 0 0.77 105 15:18 17.11.2019
4221 Snow -26 1032 98 0 0.77 105 14:56 17.11.2019
4222 Snow -26 1032 98 0 0.77 105 14:37 17.11.2019
4223 Snow -27 1033 98 0 0.57 112 14:19 17.11.2019
4224 Snow -27 1033 98 0 0.57 112 13:55 17.11.2019
4225 Snow -27 1033 98 0 0.57 112 13:37 17.11.2019
4226 Snow -26 1032 98 0 0.7 102 13:18 17.11.2019
4227 Snow -27 1033 98 0 0.57 112 13:18 17.11.2019
4228 Snow -27 1033 98 0 0.57 112 13:18 17.11.2019
4229 Snow -26 1032 98 0 0.7 102 12:42 17.11.2019
4230 Snow -26 1032 98 0 0.7 102 12:22 17.11.2019
4231 Snow -26 1032 98 0 0.7 102 11:57 17.11.2019
4232 Snow -26 1032 98 0 0.7 102 11:39 17.11.2019
4233 Snow -27 1033 98 0 0.71 117 11:20 17.11.2019
4234 Snow -27 1033 98 0 0.71 117 10:44 17.11.2019
4235 Snow -27 1033 98 0 0.71 117 10:23 17.11.2019
4236 Snow -27 1033 98 0 0.71 117 09:58 17.11.2019
4237 Snow -27 1033 98 0 0.71 117 09:39 17.11.2019
4238 Snow -27 1033 98 0 0.71 117 09:21 17.11.2019
4239 Snow -27 1033 98 0 0.71 117 08:40 17.11.2019
4240 Snow -27 1033 98 0 0.84 144 08:22 17.11.2019
4241 Clouds -27 1034 98 0 0.78 125 07:55 17.11.2019
4242 Clouds -27 1034 98 0 0.78 125 07:37 17.11.2019
4243 Clouds -27 1034 98 0 0.78 125 07:18 17.11.2019
4244 Clouds -27 1034 98 0 0.78 125 06:44 17.11.2019
4245 Clouds -27 1034 98 0 0.78 125 06:25 17.11.2019
4246 Clouds -27 1034 97 0 0.85 150 04:38 17.11.2019
4247 Clouds -27 1034 97 0 0.85 150 04:38 17.11.2019
4248 Clouds -27 1034 97 0 0.85 150 03:51 17.11.2019
4249 Clouds -27 1034 97 0 0.85 150 03:32 17.11.2019
4250 Clouds -27 1034 97 0 0.85 150 02:31 17.11.2019
4251 Clouds -29 1034 98 0 0.95 174 01:42 17.11.2019
4252 Clouds -28 1034 98 0 0.98 169 00:55 17.11.2019
4253 Clouds -28 1034 98 0 0.98 169 00:23 17.11.2019
4254 Clouds -28 1034 98 0 0.98 169 23:52 16.11.2019
4255 Clouds -29 1034 99 0 0.7 193 23:20 16.11.2019
4256 Clouds -29 1034 99 0 0.7 193 22:59 16.11.2019
4257 Clouds -29 1034 99 0 0.7 193 22:41 16.11.2019
4258 Clouds -29 1034 99 0 0.7 193 22:20 16.11.2019
4259 Clouds -29 1034 99 0 0.7 193 21:56 16.11.2019
4260 Clouds -29 1034 99 0 0.7 193 21:38 16.11.2019
4261 Clouds -29 1034 99 0 0.7 193 21:19 16.11.2019
4262 Clouds -29 1034 99 0 0.7 193 20:56 16.11.2019
4263 Clouds -29 1034 99 0 0.7 193 20:38 16.11.2019
4264 Clouds -30 1033 99 0 0.53 207 20:18 16.11.2019
4265 Clouds -30 1033 99 0 0.53 207 19:41 16.11.2019
4266 Clouds -30 1033 99 0 0.53 207 19:22 16.11.2019
4267 Clouds -30 1033 99 0 0.53 207 18:56 16.11.2019
4268 Clouds -30 1033 99 0 0.53 207 18:38 16.11.2019
4269 Clouds -30 1033 99 0 0.53 207 18:20 16.11.2019
4270 Clouds -30 1033 99 0 0.53 207 17:39 16.11.2019
4271 Clouds -30 1034 99 0 0.75 209 17:21 16.11.2019
4272 Clouds -30 1034 99 0 0.75 209 16:59 16.11.2019
4273 Clouds -30 1034 99 0 0.75 209 16:59 16.11.2019
4274 Clouds -30 1034 99 0 0.75 209 16:41 16.11.2019
4275 Clouds -30 1034 99 0 0.75 209 16:22 16.11.2019
4276 Clouds -30 1034 99 0 0.75 209 15:42 16.11.2019
4277 Clouds -30 1034 99 0 0.75 209 15:24 16.11.2019
4278 Clouds -30 1034 99 0 0.75 209 15:24 16.11.2019
4279 Clouds -30 1034 99 0 0.75 209 14:59 16.11.2019
4280 Clouds -30 1034 99 0 0.75 209 14:40 16.11.2019
4281 Clouds -30 1033 99 0 0.5 221 14:21 16.11.2019
4282 Clouds -30 1033 99 0 0.5 221 13:56 16.11.2019
4283 Clouds -30 1033 99 0 0.5 221 13:38 16.11.2019
4284 Clouds -30 1033 99 0 0.55 208 13:19 16.11.2019
4285 Clouds -30 1033 99 0 0.55 208 12:57 16.11.2019
4286 Clouds -30 1033 99 0 0.55 208 12:57 16.11.2019
4287 Clouds -30 1033 99 0 0.55 208 12:39 16.11.2019
4288 Clouds -30 1033 99 0 0.55 208 12:20 16.11.2019
4289 Clouds -30 1033 99 0 0.55 208 11:44 16.11.2019
4290 Clouds -30 1033 99 0 0.55 208 11:26 16.11.2019
4291 Clouds -30 1033 99 0 0.5 199 10:57 16.11.2019
4292 Clouds -30 1033 99 0 0.5 199 10:39 16.11.2019
4293 Clouds -30 1033 99 0 0.5 199 10:20 16.11.2019
4294 Clouds -30 1033 99 0 0.5 199 09:43 16.11.2019
4295 Clouds -30 1033 99 0 0.5 199 09:21 16.11.2019
4296 Clouds -30 1033 99 0 0.5 199 08:58 16.11.2019
4297 Clouds -30 1033 99 0 0.5 199 08:38 16.11.2019
4298 Clouds -30 1031 99 0 0.56 245 08:18 16.11.2019
4299 Clouds -30 1031 99 0 0.4 235 07:42 16.11.2019
4300 Clouds -30 1031 99 0 0.4 235 07:21 16.11.2019
4301 Clouds -30 1031 99 0 0.4 235 06:52 16.11.2019
4302 Clouds -30 1031 99 0 0.4 235 06:33 16.11.2019
4303 Clouds -30 1031 99 0 0.4 235 05:30 16.11.2019
4304 Clouds -29 1031 97 0 0.52 194 03:49 16.11.2019
4305 Clouds -29 1031 97 0 0.52 194 03:25 16.11.2019
4306 Clouds -31 1029 97 0 0.58 241 01:52 16.11.2019
4307 Clouds -31 1030 95 0 0.58 232 01:20 16.11.2019
4308 Clouds -31 1030 95 0 0.58 232 00:46 16.11.2019
4309 Clouds -31 1030 95 0 0.58 232 00:26 16.11.2019
4310 Clouds -31 1030 95 0 0.58 232 23:40 15.11.2019
4311 Clouds -31 1029 92 0 0.49 222 23:21 15.11.2019
4312 Clouds -31 1029 92 0 0.49 222 22:57 15.11.2019
4313 Clouds -31 1029 92 0 0.49 222 22:38 15.11.2019
4314 Clouds -31 1029 92 0 0.49 222 22:18 15.11.2019
4315 Clouds -31 1029 92 0 0.49 222 21:54 15.11.2019
4316 Clouds -31 1029 92 0 0.49 222 21:36 15.11.2019
4317 Clouds -31 1029 92 0 0.49 222 21:18 15.11.2019
4318 Clouds -31 1029 92 0 0.49 222 20:54 15.11.2019
4319 Clouds -31 1029 92 0 0.49 222 20:36 15.11.2019
4320 Clouds -31 1027 94 0 0.22 245 20:18 15.11.2019
4321 Clouds -31 1028 91 0 0.43 253 20:18 15.11.2019
4322 Clouds -31 1027 94 0 0.22 245 19:56 15.11.2019
4323 Clouds -31 1027 94 0 0.22 245 19:36 15.11.2019
4324 Clouds -31 1027 94 0 0.22 245 19:18 15.11.2019
4325 Clouds -31 1027 94 0 0.22 245 18:41 15.11.2019
4326 Clouds -31 1027 94 0 0.22 245 18:41 15.11.2019
4327 Clouds -31 1027 94 0 0.22 245 18:23 15.11.2019
4328 Clouds -31 1027 94 0 0.22 245 17:55 15.11.2019
4329 Clouds -31 1027 94 0 0.22 245 17:55 15.11.2019
4330 Clouds -31 1027 94 0 0.22 245 17:37 15.11.2019
4331 Clouds -30 1027 91 0 0.43 223 17:19 15.11.2019
4332 Clouds -30 1027 91 0 0.43 223 16:40 15.11.2019
4333 Clouds -30 1027 91 0 0.43 223 16:40 15.11.2019
4334 Clouds -30 1027 91 0 0.43 223 16:22 15.11.2019
4335 Clouds -30 1027 91 0 0.43 223 15:59 15.11.2019
4336 Clouds -30 1027 91 0 0.43 223 15:59 15.11.2019
4337 Clouds -30 1027 91 0 0.43 223 15:37 15.11.2019
4338 Clouds -30 1027 91 0 0.43 223 15:18 15.11.2019
4339 Clouds -30 1027 91 0 0.43 223 14:55 15.11.2019
4340 Clouds -30 1027 91 0 0.43 223 14:37 15.11.2019
4341 Clouds -30 1027 91 0 0.43 223 14:37 15.11.2019
4342 Clouds -28 1026 89 0 0.51 228 14:18 15.11.2019
4343 Clouds -28 1026 89 0 0.51 228 13:55 15.11.2019
4344 Clouds -28 1026 89 0 0.51 228 13:55 15.11.2019
4345 Clouds -28 1026 89 0 0.51 228 13:36 15.11.2019
4346 Clouds -29 1027 91 0 0.46 230 13:18 15.11.2019
4347 Clouds -29 1027 91 0 0.46 230 12:56 15.11.2019
4348 Clouds -29 1027 91 0 0.46 230 12:37 15.11.2019
4349 Clouds -29 1027 91 0 0.46 230 12:18 15.11.2019
4350 Clouds -29 1027 91 0 0.46 230 12:18 15.11.2019
4351 Clouds -29 1027 91 0 0.46 230 11:40 15.11.2019
4352 Clouds -29 1026 92 0 0.51 212 11:21 15.11.2019
4353 Clouds -29 1026 92 0 0.51 212 11:21 15.11.2019
4354 Clouds -29 1026 92 0 0.51 212 10:59 15.11.2019
4355 Clouds -29 1026 92 0 0.51 212 10:39 15.11.2019
4356 Clouds -29 1026 92 0 0.51 212 10:21 15.11.2019
4357 Clouds -29 1026 92 0 0.51 212 09:42 15.11.2019
4358 Clouds -29 1026 92 0 0.51 212 09:21 15.11.2019
4359 Clouds -29 1026 92 0 0.51 212 08:58 15.11.2019
4360 Clouds -29 1026 92 0 0.51 212 08:40 15.11.2019
4361 Clouds -29 1026 93 0 0.57 248 08:21 15.11.2019
4362 Clouds -29 1026 93 0 0.57 248 07:45 15.11.2019
4363 Clouds -29 1026 93 0 0.57 248 07:26 15.11.2019
4364 Clouds -29 1026 93 0 0.57 248 06:36 15.11.2019
4365 Clouds -29 1026 93 0 0.57 248 05:57 15.11.2019
4366 Clouds -29 1026 93 0 0.57 248 05:57 15.11.2019
4367 Clouds -29 1026 93 0 0.57 248 05:38 15.11.2019
4368 Clouds -29 1026 93 0 0.57 248 05:38 15.11.2019
4369 Clouds -28 1026 91 0 0.54 254 04:55 15.11.2019
4370 Clouds -28 1026 91 0 0.54 254 03:44 15.11.2019
4371 Clouds -28 1026 91 0 0.54 254 02:37 15.11.2019
4372 Clouds -30 1026 94 0 0.37 203 01:58 15.11.2019
4373 Clouds -30 1026 94 0 0.37 203 01:32 15.11.2019
4374 Clouds -30 1026 94 0 0.37 203 01:32 15.11.2019
4375 Clouds -30 1026 94 0 0.45 203 00:46 15.11.2019
4376 Clouds -30 1026 94 0 0.45 203 00:27 15.11.2019
4377 Clouds -30 1026 94 0 0.45 203 23:49 14.11.2019
4378 Clouds -30 1026 94 0 0.45 203 23:27 14.11.2019
4379 Clouds -29 1025 92 0 0.32 195 22:57 14.11.2019
4380 Clouds -29 1025 92 0 0.32 195 22:39 14.11.2019
4381 Clouds -29 1025 92 0 0.32 195 22:19 14.11.2019
4382 Clouds -29 1025 92 0 0.32 195 21:42 14.11.2019
4383 Clouds -29 1025 92 0 0.32 195 21:23 14.11.2019
4384 Clouds -29 1025 92 0 0.32 195 20:57 14.11.2019
4385 Clouds -29 1025 92 0 0.32 195 20:39 14.11.2019
4386 Clouds -29 1025 92 0 0.68 118 20:21 14.11.2019
4387 Clouds -29 1025 92 0 0.68 118 19:58 14.11.2019
4388 Clouds -29 1025 92 0 0.68 118 19:58 14.11.2019
4389 Clouds -29 1025 92 0 0.68 118 19:40 14.11.2019
4390 Clouds -29 1025 92 0 0.68 118 19:18 14.11.2019
4391 Clouds -29 1025 92 0 0.68 118 18:54 14.11.2019
4392 Clouds -29 1025 92 0 0.68 118 18:36 14.11.2019
4393 Clouds -29 1025 92 0 0.68 118 18:18 14.11.2019
4394 Clouds -29 1025 92 0 0.68 118 17:38 14.11.2019
4395 Clouds -29 1025 92 0 0.68 118 17:38 14.11.2019
4396 Clouds -26 1025 90 0 0.78 136 17:20 14.11.2019
4397 Clouds -26 1025 90 0 0.78 136 16:58 14.11.2019
4398 Clouds -26 1025 90 0 0.78 136 16:58 14.11.2019
4399 Clouds -26 1025 90 0 0.78 136 16:39 14.11.2019
4400 Clouds -26 1025 90 0 0.78 136 16:20 14.11.2019
4401 Clouds -26 1025 90 0 0.78 136 16:20 14.11.2019
4402 Clouds -26 1025 90 0 0.78 136 15:58 14.11.2019
4403 Clouds -26 1025 90 0 0.78 136 15:39 14.11.2019
4404 Clouds -26 1025 90 0 0.78 136 15:20 14.11.2019
4405 Clouds -26 1025 90 0 0.78 136 14:58 14.11.2019
4406 Clouds -26 1025 90 0 0.78 136 14:40 14.11.2019
4407 Clouds -26 1025 90 0 0.78 136 14:40 14.11.2019
4408 Clouds -28 1025 92 0 1 200 14:22 14.11.2019
4409 Clouds -28 1025 92 0 1 200 13:55 14.11.2019
4410 Clouds -28 1025 92 0 1 200 13:36 14.11.2019
4411 Clouds -28 1025 91 0 0.92 192 13:18 14.11.2019
4412 Clouds -28 1025 91 0 0.92 192 12:45 14.11.2019
4413 Clouds -28 1025 91 0 0.92 192 12:25 14.11.2019
4414 Clouds -28 1025 91 0 0.92 192 11:58 14.11.2019
4415 Clouds -28 1025 91 0 0.92 192 11:38 14.11.2019
4416 Clouds -30 1024 96 0 0.82 201 11:19 14.11.2019
4417 Clouds -30 1024 96 0 0.82 201 10:57 14.11.2019
4418 Clouds -30 1024 96 0 0.82 201 10:37 14.11.2019
4419 Clouds -30 1024 96 0 0.82 201 10:19 14.11.2019
4420 Clouds -30 1024 96 0 0.82 201 09:55 14.11.2019
4421 Clouds -30 1024 96 0 0.82 201 09:37 14.11.2019
4422 Clouds -30 1024 96 0 0.82 201 09:18 14.11.2019
4423 Clouds -30 1024 96 0 0.82 201 08:46 14.11.2019
4424 Clouds -30 1024 99 0 0.61 164 08:23 14.11.2019
4425 Clouds -30 1024 99 0 0.61 164 07:42 14.11.2019
4426 Clouds -30 1024 99 0 0.61 164 07:24 14.11.2019
4427 Clouds -30 1024 99 0 0.61 164 06:47 14.11.2019
4428 Clouds -30 1024 99 0 0.61 164 06:21 14.11.2019
4429 Clouds -30 1024 99 0 0.61 164 05:59 14.11.2019
4430 Clouds -29 1023 98 0 0.47 212 04:38 14.11.2019
4431 Clouds -29 1023 98 0 0.47 212 03:47 14.11.2019
4432 Clouds -29 1023 98 0 0.47 212 02:39 14.11.2019
4433 Clouds -30 1023 100 0 0.08 230 01:41 14.11.2019
4434 Clouds -30 1023 100 0 0.17 208 00:58 14.11.2019
4435 Clouds -30 1023 100 0 0.17 208 00:58 14.11.2019
4436 Clouds -30 1023 100 0 0.17 208 00:39 14.11.2019
4437 Clouds -30 1023 100 0 0.17 208 00:39 14.11.2019
4438 Clouds -30 1023 100 0 0.17 208 00:20 14.11.2019
4439 Clouds -30 1023 100 0 0.17 208 23:39 13.11.2019
4440 Clouds -30 1023 100 0 0.2 101 23:20 13.11.2019
4441 Clouds -30 1023 100 0 0.2 101 22:55 13.11.2019
4442 Clouds -30 1023 100 0 0.2 101 22:55 13.11.2019
4443 Clouds -30 1023 100 0 0.2 101 22:37 13.11.2019
4444 Clouds -30 1023 100 0 0.2 101 22:19 13.11.2019
4445 Clouds -30 1023 100 0 0.2 101 21:55 13.11.2019
4446 Clouds -30 1023 100 0 0.2 101 21:37 13.11.2019
4447 Clouds -30 1023 100 0 0.2 101 21:18 13.11.2019
4448 Clouds -30 1023 100 0 0.2 101 20:55 13.11.2019
4449 Clouds -30 1023 100 0 0.2 101 20:37 13.11.2019
4450 Clouds -30 1023 100 0 0.39 100 20:18 13.11.2019
4451 Clouds -30 1023 100 0 0.39 100 19:43 13.11.2019
4452 Clouds -30 1023 100 0 0.39 100 19:20 13.11.2019
4453 Clouds -30 1023 100 0 0.39 100 18:56 13.11.2019
4454 Clouds -30 1023 100 0 0.39 100 18:38 13.11.2019
4455 Clouds -30 1023 100 0 0.39 100 18:38 13.11.2019
4456 Clouds -30 1023 100 0 0.39 100 18:19 13.11.2019
4457 Clouds -30 1023 100 0 0.39 100 17:58 13.11.2019
4458 Clouds -30 1023 100 0 0.39 100 17:39 13.11.2019
4459 Clouds -29 1023 100 0 0.3 148 17:21 13.11.2019
4460 Clouds -29 1023 100 0 0.3 148 16:58 13.11.2019
4461 Clouds -29 1023 100 0 0.32 139 16:39 13.11.2019
4462 Clouds -29 1023 100 0 0.3 148 16:39 13.11.2019
4463 Clouds -29 1023 100 0 0.32 139 16:39 13.11.2019
4464 Clouds -29 1023 100 0 0.3 148 16:39 13.11.2019
4465 Clouds -29 1023 100 0 0.3 148 16:21 13.11.2019
4466 Clouds -29 1023 100 0 0.3 148 15:58 13.11.2019
4467 Clouds -29 1023 100 0 0.32 139 15:39 13.11.2019
4468 Clouds -29 1023 100 0 0.32 139 15:20 13.11.2019
4469 Clouds -29 1023 100 0 0.3 148 14:42 13.11.2019
4470 Clouds -29 1023 100 0 0.39 141 14:22 13.11.2019
4471 Clouds -29 1023 100 0 0.39 141 13:58 13.11.2019
4472 Clouds -28 1023 100 0 0.47 156 13:36 13.11.2019
4473 Clouds -28 1023 100 0 0.47 156 13:18 13.11.2019
4474 Clouds -28 1023 100 0 0.47 156 12:54 13.11.2019
4475 Clouds -28 1023 100 0 0.47 156 12:36 13.11.2019
4476 Clouds -28 1023 100 0 0.47 156 12:36 13.11.2019
4477 Clouds -28 1023 100 0 0.47 156 12:18 13.11.2019
4478 Clouds -28 1023 100 0 0.47 156 11:40 13.11.2019
4479 Clouds -27 1023 99 0 0.85 175 11:20 13.11.2019
4480 Clouds -27 1023 99 0 0.85 175 10:58 13.11.2019
4481 Clouds -27 1023 99 0 0.85 175 10:40 13.11.2019
4482 Clouds -27 1023 99 0 0.85 175 10:20 13.11.2019
4483 Clouds -27 1023 99 0 0.85 175 09:55 13.11.2019
4484 Clouds -27 1023 99 0 0.85 175 09:37 13.11.2019
4485 Clouds -27 1023 99 0 0.85 175 09:19 13.11.2019
4486 Clouds -27 1023 99 0 0.85 175 08:39 13.11.2019
4487 Clouds -26 1023 99 0 0.8 164 08:20 13.11.2019
4488 Clouds -26 1023 99 0 0.8 164 07:42 13.11.2019
4489 Clouds -26 1023 99 0 0.8 164 07:21 13.11.2019
4490 Clouds -26 1023 99 0 0.8 164 06:46 13.11.2019
4491 Clouds -26 1023 99 0 0.8 164 06:19 13.11.2019
4492 Clouds -26 1023 99 0 0.8 164 06:19 13.11.2019
4493 Clouds -26 1023 99 0 0.8 164 05:53 13.11.2019
4494 Clouds -26 1023 99 0 0.8 164 05:34 13.11.2019
4495 Clouds -24 1023 97 0 1.02 187 04:44 13.11.2019
4496 Clouds -25 1023 98 0 1.07 190 02:19 13.11.2019
4497 Clouds -25 1023 98 0 1.07 190 01:44 13.11.2019
4498 Clouds -23 1023 98 0 1.04 201 00:45 13.11.2019
4499 Clouds -23 1023 98 0 1.04 201 00:26 13.11.2019
4500 Clouds -23 1023 98 0 1.04 201 23:42 12.11.2019
4501 Snow -23 1022 98 0 1.11 202 23:21 12.11.2019
4502 Snow -23 1022 98 0 1.11 202 22:56 12.11.2019
4503 Snow -23 1022 98 0 1.11 202 22:37 12.11.2019
4504 Snow -23 1022 98 0 1.11 202 22:18 12.11.2019
4505 Snow -23 1022 98 0 1.11 202 21:44 12.11.2019
4506 Snow -23 1022 98 0 1.11 202 21:25 12.11.2019
4507 Snow -23 1022 98 0 1.11 202 20:58 12.11.2019
4508 Snow -23 1022 98 0 1.11 202 20:38 12.11.2019
4509 Snow -22 1022 98 0 0.96 216 20:19 12.11.2019
4510 Snow -22 1022 98 0 0.96 216 19:58 12.11.2019
4511 Snow -22 1022 98 0 0.96 216 19:39 12.11.2019
4512 Snow -22 1022 98 0 0.96 216 19:19 12.11.2019
4513 Snow -22 1022 98 0 0.96 216 18:59 12.11.2019
4514 Snow -22 1022 98 0 0.96 216 18:40 12.11.2019
4515 Snow -22 1022 98 0 0.96 216 18:22 12.11.2019
4516 Snow -22 1022 98 0 0.96 216 18:22 12.11.2019
4517 Snow -22 1022 98 0 0.96 216 17:57 12.11.2019
4518 Snow -22 1022 98 0 0.96 216 17:39 12.11.2019
4519 Snow -22 1022 98 0 0.87 233 17:21 12.11.2019
4520 Snow -22 1022 98 0 0.87 233 16:57 12.11.2019
4521 Snow -22 1022 98 0 0.87 233 16:39 12.11.2019
4522 Snow -22 1022 98 0 0.87 233 16:21 12.11.2019
4523 Snow -22 1022 98 0 0.87 233 15:42 12.11.2019
4524 Snow -22 1022 98 0 0.87 233 15:21 12.11.2019
4525 Snow -22 1022 98 0 0.87 233 14:57 12.11.2019
4526 Snow -22 1022 98 0 0.87 233 14:38 12.11.2019
4527 Snow -23 1023 98 0 0.92 238 14:19 12.11.2019
4528 Snow -23 1023 98 0 0.92 238 13:56 12.11.2019
4529 Snow -23 1023 98 0 0.92 238 13:37 12.11.2019
4530 Snow -23 1023 98 0 0.92 238 13:37 12.11.2019
4531 Snow -23 1023 98 0 0.82 246 13:19 12.11.2019
4532 Snow -23 1023 98 0 0.82 246 12:43 12.11.2019
4533 Snow -23 1023 98 0 0.82 246 12:20 12.11.2019
4534 Snow -23 1023 98 0 0.83 238 11:59 12.11.2019
4535 Snow -23 1023 98 0 0.82 246 11:41 12.11.2019
4536 Snow -23 1023 98 0 0.74 245 11:22 12.11.2019
4537 Snow -23 1023 98 0 0.74 245 10:57 12.11.2019
4538 Clouds -24 1022 98 0 0.84 237 10:38 12.11.2019
4539 Snow -23 1023 98 0 0.74 245 10:20 12.11.2019
4540 Snow -23 1023 98 0 0.74 245 09:56 12.11.2019
4541 Clouds -24 1022 98 0 0.84 237 09:38 12.11.2019
4542 Snow -23 1023 98 0 0.74 245 09:18 12.11.2019
4543 Clouds -24 1022 98 0 0.84 237 08:42 12.11.2019
4544 Snow -23 1023 98 0 0.74 245 08:24 12.11.2019
4545 Clouds -24 1022 96 0 0.81 248 07:41 12.11.2019
4546 Clouds -24 1022 96 0 0.81 248 07:23 12.11.2019
4547 Clouds -24 1022 96 0 0.81 248 06:47 12.11.2019
4548 Clouds -24 1022 96 0 0.81 248 06:23 12.11.2019
4549 Clouds -24 1022 96 0 0.81 248 05:49 12.11.2019
4550 Clouds -24 1021 94 0 0.95 259 04:50 12.11.2019
4551 Clouds -24 1021 94 0 0.95 259 03:53 12.11.2019
4552 Clouds -27 1020 95 0 0.68 260 01:49 12.11.2019
4553 Clouds -27 1020 95 0 0.68 260 01:23 12.11.2019
4554 Clouds -26 1020 95 0 0.63 268 00:51 12.11.2019
4555 Clouds -26 1020 95 0 0.63 268 00:32 12.11.2019
4556 Clouds -26 1020 95 0 0.63 268 23:48 11.11.2019
4557 Clouds -26 1020 95 0 0.63 268 23:25 11.11.2019
4558 Clouds -26 1020 95 0 0.63 268 23:25 11.11.2019
4559 Clouds -27 1019 95 0 0.56 267 22:58 11.11.2019
4560 Clouds -27 1019 95 0 0.56 267 22:38 11.11.2019
4561 Clouds -27 1019 95 0 0.56 267 22:19 11.11.2019
4562 Clouds -27 1019 95 0 0.56 267 21:58 11.11.2019
4563 Clouds -27 1019 95 0 0.56 267 21:39 11.11.2019
4564 Clouds -27 1019 95 0 0.56 267 21:20 11.11.2019
4565 Clouds -27 1019 95 0 0.56 267 21:20 11.11.2019
4566 Clouds -27 1019 95 0 0.56 267 20:55 11.11.2019
4567 Clouds -27 1019 95 0 0.56 267 20:36 11.11.2019
4568 Clouds -28 1017 97 0 0.26 71 20:18 11.11.2019
4569 Clouds -28 1018 97 0 0.1 358 19:42 11.11.2019
4570 Clouds -28 1018 97 0 0.1 358 19:19 11.11.2019
4571 Clouds -28 1018 97 0 0.1 358 18:57 11.11.2019
4572 Clouds -28 1018 97 0 0.1 358 18:39 11.11.2019
4573 Clouds -28 1018 97 0 0.1 358 18:20 11.11.2019
4574 Clouds -28 1018 97 0 0.1 358 17:44 11.11.2019
4575 Clouds -28 1018 97 0 0.1 358 17:26 11.11.2019
4576 Clouds -28 1016 97 0 0.68 81 16:55 11.11.2019
4577 Clouds -28 1016 97 0 0.68 81 16:37 11.11.2019
4578 Clouds -28 1016 97 0 0.68 81 16:19 11.11.2019
4579 Clouds -28 1016 97 0 0.68 81 15:41 11.11.2019
4580 Clouds -28 1016 97 0 0.68 81 15:20 11.11.2019
4581 Clouds -28 1016 97 0 0.68 81 14:55 11.11.2019
4582 Clouds -28 1016 97 0 0.68 81 14:37 11.11.2019
4583 Clouds -28 1015 99 0 0.66 93 14:18 11.11.2019
4584 Clouds -28 1015 99 0 0.66 93 13:40 11.11.2019
4585 Clouds -28 1015 99 0 0.69 95 13:21 11.11.2019
4586 Clouds -28 1015 99 0 0.69 95 12:58 11.11.2019
4587 Clouds -28 1015 99 0 0.69 95 12:58 11.11.2019
4588 Clouds -28 1015 99 0 0.69 95 12:58 11.11.2019
4589 Clouds -28 1015 99 0 0.69 95 12:40 11.11.2019
4590 Clouds -28 1015 99 0 0.69 95 12:22 11.11.2019
4591 Clouds -28 1015 99 0 0.69 95 11:58 11.11.2019
4592 Clouds -28 1015 99 0 0.69 95 11:39 11.11.2019
4593 Clouds -28 1015 99 0 0.69 95 11:39 11.11.2019
4594 Clouds -27 1014 98 0 0.54 101 11:21 11.11.2019
4595 Clouds -27 1014 98 0 0.54 101 10:43 11.11.2019
4596 Clouds -27 1014 98 0 0.54 101 10:19 11.11.2019
4597 Clouds -27 1014 98 0 0.54 101 09:58 11.11.2019
4598 Clouds -27 1014 98 0 0.54 101 09:58 11.11.2019
4599 Clouds -27 1014 98 0 0.54 101 09:39 11.11.2019
4600 Clouds -27 1014 98 0 0.54 101 09:39 11.11.2019
4601 Clouds -27 1014 98 0 0.54 101 09:19 11.11.2019
4602 Clouds -27 1014 98 0 0.54 101 08:41 11.11.2019
4603 Clouds -27 1013 95 0 0.69 103 08:22 11.11.2019
4604 Clouds -27 1013 95 0 0.69 103 08:22 11.11.2019
4605 Clouds -27 1013 95 0 0.69 103 07:57 11.11.2019
4606 Clouds -27 1013 95 0 0.69 103 07:37 11.11.2019
4607 Clouds -27 1013 95 0 0.69 103 07:37 11.11.2019
4608 Clouds -27 1013 95 0 0.69 103 07:19 11.11.2019
4609 Clouds -27 1013 95 0 0.69 103 06:48 11.11.2019
4610 Clouds -27 1013 95 0 0.69 103 06:23 11.11.2019
4611 Clouds -27 1013 95 0 0.69 103 05:51 11.11.2019
4612 Clouds -25 1012 95 0 0.26 155 04:43 11.11.2019
4613 Clouds -25 1012 95 0 0.26 155 03:25 11.11.2019
4614 Clouds -25 1012 95 0 0.26 155 02:30 11.11.2019
4615 Clouds -25 1012 90 0 0.56 239 01:57 11.11.2019
4616 Clouds -25 1012 90 0 0.56 239 01:35 11.11.2019
4617 Clouds -25 1013 90 0 0.47 232 00:51 11.11.2019
4618 Clouds -25 1013 90 0 0.47 232 00:29 11.11.2019
4619 Clouds -25 1013 90 0 0.47 232 23:57 10.11.2019
4620 Clouds -25 1013 90 0 0.47 232 23:37 10.11.2019
4621 Clouds -27 1012 92 0 0.92 241 23:19 10.11.2019
4622 Clouds -27 1012 92 0 0.92 241 22:55 10.11.2019
4623 Clouds -27 1012 92 0 0.92 241 22:36 10.11.2019
4624 Clouds -27 1012 92 0 0.92 241 22:18 10.11.2019
4625 Clouds -27 1012 92 0 0.92 241 21:55 10.11.2019
4626 Clouds -27 1012 92 0 0.92 241 21:36 10.11.2019
4627 Clouds -27 1012 92 0 0.92 241 21:18 10.11.2019
4628 Clouds -27 1012 92 0 0.92 241 20:40 10.11.2019
4629 Clouds -29 1012 93 0 1.05 245 20:22 10.11.2019
4630 Clouds -29 1012 93 0 1.05 245 19:56 10.11.2019
4631 Clouds -29 1012 93 0 1.05 245 19:37 10.11.2019
4632 Clouds -29 1012 93 0 1.05 245 19:18 10.11.2019
4633 Clouds -29 1012 93 0 1.05 245 18:56 10.11.2019
4634 Clouds -29 1012 93 0 1.05 245 18:56 10.11.2019
4635 Clouds -29 1012 93 0 1.05 245 18:38 10.11.2019
4636 Clouds -29 1012 93 0 1.05 245 18:19 10.11.2019
4637 Clouds -29 1012 93 0 1.05 245 17:56 10.11.2019
4638 Clouds -29 1012 93 0 1.05 245 17:37 10.11.2019
4639 Clouds -29 1012 92 0 0.8 238 17:19 10.11.2019
4640 Clouds -29 1012 92 0 0.8 238 16:57 10.11.2019
4641 Clouds -29 1012 92 0 0.8 238 16:37 10.11.2019
4642 Clouds -29 1012 92 0 0.8 238 16:19 10.11.2019
4643 Clouds -29 1012 92 0 0.8 238 15:54 10.11.2019
4644 Clouds -29 1012 92 0 0.8 238 15:36 10.11.2019
4645 Clouds -29 1012 92 0 0.8 238 15:18 10.11.2019
4646 Clouds -29 1012 92 0 0.8 238 15:18 10.11.2019
4647 Clouds -29 1012 92 0 0.8 238 14:40 10.11.2019
4648 Clouds -31 1012 94 0 0.85 256 14:22 10.11.2019
4649 Clouds -31 1012 94 0 0.85 256 13:58 10.11.2019
4650 Clouds -31 1012 94 0 0.85 256 13:40 10.11.2019
4651 Clouds -31 1012 94 0 0.85 256 13:20 10.11.2019
4652 Clouds -31 1012 95 0 0.78 253 12:43 10.11.2019
4653 Clouds -31 1012 95 0 0.78 253 12:20 10.11.2019
4654 Clouds -31 1012 95 0 0.78 253 11:57 10.11.2019
4655 Clouds -31 1012 95 0 0.78 253 11:38 10.11.2019
4656 Clouds -30 1013 93 0 0.91 267 11:20 10.11.2019
4657 Clouds -30 1013 93 0 0.91 267 10:59 10.11.2019
4658 Clouds -30 1013 93 0 0.91 267 10:40 10.11.2019
4659 Clouds -30 1013 93 0 0.91 267 10:20 10.11.2019
4660 Clouds -30 1013 93 0 0.91 267 09:42 10.11.2019
4661 Clouds -30 1013 93 0 0.91 267 09:23 10.11.2019
4662 Clouds -30 1013 93 0 0.91 267 08:41 10.11.2019
4663 Clear -30 1013 92 0 0.33 250 08:21 10.11.2019
4664 Clear -30 1013 92 0 0.33 250 07:58 10.11.2019
4665 Clear -30 1013 92 0 0.33 250 07:40 10.11.2019
4666 Clear -30 1013 92 0 0.33 250 07:21 10.11.2019
4667 Clear -30 1013 92 0 0.33 250 06:26 10.11.2019
4668 Clear -29 1013 90 0 0.68 254 04:46 10.11.2019
4669 Clear -29 1013 90 0 0.68 254 03:19 10.11.2019
4670 Clear -31 1013 93 0 0.59 256 01:44 10.11.2019
4671 Clear -31 1013 95 0 0.49 251 01:19 10.11.2019
4672 Clear -31 1013 95 0 0.49 251 00:40 10.11.2019
4673 Clear -31 1013 95 0 0.49 251 23:46 09.11.2019
4674 Clouds -31 1014 95 0 0.22 200 23:21 09.11.2019
4675 Clouds -31 1014 95 0 0.22 200 22:59 09.11.2019
4676 Clouds -31 1014 95 0 0.22 200 22:40 09.11.2019
4677 Clouds -31 1014 95 0 0.22 200 22:20 09.11.2019
4678 Clouds -31 1014 95 0 0.22 200 21:55 09.11.2019
4679 Clouds -31 1014 95 0 0.22 200 21:37 09.11.2019
4680 Clouds -31 1014 95 0 0.22 200 21:19 09.11.2019
4681 Clouds -31 1014 95 0 0.22 200 20:41 09.11.2019
4682 Clouds -31 1014 95 0 0.22 200 20:41 09.11.2019
4683 Clouds -30 1015 98 0 0.28 231 20:22 09.11.2019
4684 Clouds -30 1015 98 0 0.28 231 19:57 09.11.2019
4685 Clouds -30 1015 98 0 0.28 231 19:38 09.11.2019
4686 Clouds -30 1015 98 0 0.28 231 19:20 09.11.2019
4687 Clouds -30 1015 98 0 0.28 231 18:54 09.11.2019
4688 Clouds -30 1015 98 0 0.28 231 18:36 09.11.2019
4689 Clouds -30 1015 98 0 0.28 231 18:18 09.11.2019
4690 Clouds -30 1015 98 0 0.28 231 17:41 09.11.2019
4691 Clouds -30 1016 98 0 0.06 207 17:22 09.11.2019
4692 Clouds -30 1016 98 0 0.06 207 16:43 09.11.2019
4693 Clouds -30 1016 98 0 0.06 207 16:22 09.11.2019
4694 Clouds -30 1016 98 0 0.06 207 15:59 09.11.2019
4695 Clouds -30 1016 98 0 0.06 207 15:41 09.11.2019
4696 Clouds -30 1016 98 0 0.06 207 15:23 09.11.2019
4697 Clouds -30 1016 98 0 0.06 207 14:44 09.11.2019
4698 Clouds -29 1017 97 0 0.21 80 14:22 09.11.2019
4699 Clouds -29 1017 97 0 0.21 80 13:58 09.11.2019
4700 Clouds -29 1017 97 0 0.21 80 13:39 09.11.2019
4701 Clear -29 1017 98 0 0.1 79 13:19 09.11.2019
4702 Clear -29 1017 98 0 0.1 79 12:56 09.11.2019
4703 Clear -29 1017 98 0 0.1 79 12:56 09.11.2019
4704 Clear -29 1017 98 0 0.1 79 12:56 09.11.2019
4705 Clear -29 1017 98 0 0.1 79 12:38 09.11.2019
4706 Clear -29 1017 98 0 0.1 79 12:20 09.11.2019
4707 Clear -29 1017 98 0 0.1 79 11:48 09.11.2019
4708 Clouds -28 1018 97 0 0.33 124 11:21 09.11.2019
4709 Clouds -28 1018 97 0 0.33 124 10:57 09.11.2019
4710 Clouds -28 1018 97 0 0.33 124 10:38 09.11.2019
4711 Clouds -28 1018 97 0 0.33 124 10:18 09.11.2019
4712 Clouds -28 1018 97 0 0.33 124 09:44 09.11.2019
4713 Clouds -28 1018 97 0 0.33 124 09:21 09.11.2019
4714 Clouds -28 1018 97 0 0.33 124 08:56 09.11.2019
4715 Clouds -28 1018 97 0 0.33 124 08:37 09.11.2019
4716 Clouds -27 1018 98 0 0.59 146 08:18 09.11.2019
4717 Clouds -27 1018 98 0 0.55 142 07:42 09.11.2019
4718 Clouds -27 1018 98 0 0.55 142 07:22 09.11.2019
4719 Clouds -27 1018 98 0 0.55 142 06:47 09.11.2019
4720 Clouds -27 1018 98 0 0.55 142 06:28 09.11.2019
4721 Clouds -27 1018 98 0 0.55 142 05:42 09.11.2019
4722 Clouds -24 1018 95 0 0.8 176 04:48 09.11.2019
4723 Clouds -24 1018 95 0 0.8 176 02:57 09.11.2019
4724 Clouds -24 1018 95 0 0.8 176 02:39 09.11.2019
4725 Clouds -25 1019 98 0 1.07 159 01:43 09.11.2019
4726 Clouds -24 1019 98 0 1.11 155 00:49 09.11.2019
4727 Clouds -24 1019 98 0 1.11 155 00:29 09.11.2019
4728 Clouds -24 1019 98 0 1.11 155 23:43 08.11.2019
4729 Clouds -23 1018 98 0 0.94 136 23:23 08.11.2019
4730 Clouds -23 1018 98 0 0.94 136 22:59 08.11.2019
4731 Clouds -23 1018 98 0 0.94 136 22:41 08.11.2019
4732 Clouds -23 1018 98 0 0.94 136 22:21 08.11.2019
4733 Clouds -23 1018 98 0 0.94 136 21:55 08.11.2019
4734 Clouds -23 1018 98 0 0.94 136 21:37 08.11.2019
4735 Clouds -23 1018 98 0 0.94 136 21:18 08.11.2019
4736 Clouds -23 1018 98 0 0.94 136 20:41 08.11.2019
4737 Clouds -21 1017 97 0 0.84 142 20:21 08.11.2019
4738 Clouds -21 1017 98 0 0.77 133 19:58 08.11.2019
4739 Clouds -21 1017 98 0 0.77 133 19:38 08.11.2019
4740 Clouds -21 1017 98 0 0.77 133 19:38 08.11.2019
4741 Clouds -21 1017 98 0 0.77 133 19:18 08.11.2019
4742 Clouds -21 1017 98 0 0.77 133 18:55 08.11.2019
4743 Clouds -21 1017 98 0 0.77 133 18:37 08.11.2019
4744 Clouds -21 1017 98 0 0.77 133 18:19 08.11.2019
4745 Clouds -21 1017 98 0 0.77 133 17:55 08.11.2019
4746 Clouds -21 1017 98 0 0.77 133 17:36 08.11.2019
4747 Snow -21 1016 98 0 0.93 114 17:18 08.11.2019
4748 Snow -21 1016 98 0 0.93 114 16:57 08.11.2019
4749 Snow -21 1016 98 0 0.93 114 16:39 08.11.2019
4750 Snow -21 1016 98 0 0.93 114 16:19 08.11.2019
4751 Snow -21 1016 98 0 0.93 114 15:56 08.11.2019
4752 Snow -21 1016 98 0 0.93 114 15:38 08.11.2019
4753 Snow -21 1016 98 0 0.93 114 15:19 08.11.2019
4754 Snow -21 1016 98 0 0.93 114 14:55 08.11.2019
4755 Snow -21 1016 98 0 0.93 114 14:36 08.11.2019
4756 Snow -21 1016 98 0 0.93 114 14:36 08.11.2019
4757 Clouds -21 1016 98 0 0.9 128 14:18 08.11.2019
4758 Clouds -21 1016 98 0 0.9 128 13:43 08.11.2019
4759 Snow -21 1017 98 0 0.92 138 13:22 08.11.2019
4760 Clouds -21 1016 98 0 0.9 128 13:22 08.11.2019
4761 Snow -21 1017 98 0 0.92 138 12:58 08.11.2019
4762 Snow -21 1017 98 0 0.92 138 12:39 08.11.2019
4763 Snow -21 1017 98 0 0.92 138 12:21 08.11.2019
4764 Snow -21 1017 98 0 0.92 138 11:55 08.11.2019
4765 Snow -21 1017 98 0 0.92 138 11:37 08.11.2019
4766 Clouds -21 1016 97 0 1.09 155 11:19 08.11.2019
4767 Clouds -21 1016 97 0 1.09 155 10:43 08.11.2019
4768 Clouds -21 1016 97 0 1.09 155 10:22 08.11.2019
4769 Clouds -21 1016 97 0 1.09 155 09:59 08.11.2019
4770 Clouds -21 1016 97 0 1.09 155 09:41 08.11.2019
4771 Clouds -21 1016 97 0 1.09 155 09:20 08.11.2019
4772 Clouds -21 1016 97 0 1.09 155 08:47 08.11.2019
4773 Clouds -21 1016 97 0 1.09 155 08:29 08.11.2019
4774 Clouds -21 1016 98 0 1.04 157 07:57 08.11.2019
4775 Clouds -21 1016 98 0 1.04 157 07:39 08.11.2019
4776 Clouds -21 1016 98 0 1.04 157 07:20 08.11.2019
4777 Clouds -21 1016 98 0 1.04 157 06:40 08.11.2019
4778 Clouds -21 1016 98 0 1.04 157 06:20 08.11.2019
4779 Clouds -21 1016 98 0 1.04 157 05:40 08.11.2019
4780 Clouds -20 1015 96 0 1.27 189 04:43 08.11.2019
4781 Clouds -20 1015 96 0 1.27 189 03:44 08.11.2019
4782 Clouds -20 1015 96 0 1.27 189 03:21 08.11.2019
4783 Clouds -20 1015 96 0 1.27 189 02:42 08.11.2019
4784 Snow -22 1016 97 0 1.14 192 01:47 08.11.2019
4785 Snow -22 1016 97 0 1.14 192 01:22 08.11.2019
4786 Clouds -22 1016 97 0 1.18 196 00:24 08.11.2019
4787 Clouds -22 1016 97 0 1.18 196 00:24 08.11.2019
4788 Clouds -22 1016 97 0 1.18 196 23:58 07.11.2019
4789 Clouds -22 1016 97 0 1.18 196 23:40 07.11.2019
4790 Snow -21 1015 98 0 0.8 223 23:22 07.11.2019
4791 Snow -21 1015 98 0 0.8 223 22:42 07.11.2019
4792 Snow -21 1015 98 0 0.8 223 22:22 07.11.2019
4793 Snow -21 1015 98 0 0.8 223 22:22 07.11.2019
4794 Snow -21 1015 98 0 0.8 223 21:56 07.11.2019
4795 Snow -21 1015 98 0 0.8 223 21:37 07.11.2019
4796 Snow -21 1015 98 0 0.8 223 21:19 07.11.2019
4797 Snow -21 1015 98 0 0.8 223 20:58 07.11.2019
4798 Snow -21 1015 98 0 0.8 223 20:39 07.11.2019
4799 Snow -22 1016 98 0 0.75 236 20:21 07.11.2019
4800 Snow -22 1016 98 0 0.75 236 19:56 07.11.2019
4801 Snow -22 1016 98 0 0.75 236 19:37 07.11.2019
4802 Snow -22 1016 98 0 0.75 236 19:18 07.11.2019
4803 Snow -22 1016 98 0 0.75 236 18:55 07.11.2019
4804 Snow -22 1016 98 0 0.75 236 18:37 07.11.2019
4805 Snow -22 1016 98 0 0.75 236 18:19 07.11.2019
4806 Snow -22 1016 98 0 0.75 236 17:40 07.11.2019
4807 Snow -21 1016 98 0 0.86 267 17:22 07.11.2019
4808 Snow -21 1016 98 0 0.86 267 16:58 07.11.2019
4809 Snow -21 1016 98 0 0.86 267 16:40 07.11.2019
4810 Snow -21 1016 98 0 0.86 267 16:20 07.11.2019
4811 Snow -21 1016 98 0 0.86 267 15:58 07.11.2019
4812 Snow -21 1016 98 0 0.86 267 15:39 07.11.2019
4813 Snow -21 1016 98 0 0.86 267 15:19 07.11.2019
4814 Snow -21 1016 98 0 0.86 267 14:45 07.11.2019
4815 Snow -21 1016 98 0 0.86 267 14:27 07.11.2019
4816 Snow -21 1016 98 0 0.86 267 14:27 07.11.2019
4817 Snow -21 1017 98 0 0.73 265 13:58 07.11.2019
4818 Snow -21 1017 98 0 0.73 265 13:40 07.11.2019
4819 Snow -21 1017 98 0 0.73 265 13:21 07.11.2019
4820 Clouds -21 1017 98 0 0.74 268 12:59 07.11.2019
4821 Clouds -21 1017 98 0 0.74 268 12:41 07.11.2019
4822 Clouds -21 1017 98 0 0.74 268 12:22 07.11.2019
4823 Clouds -21 1017 98 0 0.74 268 12:22 07.11.2019
4824 -273 0 0 0 0 0 11:59 07.11.2019
4825 Clouds -21 1017 98 0 0.74 268 11:40 07.11.2019
4826 Snow -21 1017 98 0 1.2 291 11:22 07.11.2019
4827 Snow -21 1017 98 0 1.2 291 10:42 07.11.2019
4828 Snow -21 1017 98 0 1.2 291 10:19 07.11.2019
4829 Snow -21 1017 98 0 1.2 291 09:45 07.11.2019
4830 Snow -21 1017 98 0 1.2 291 09:24 07.11.2019
4831 Snow -21 1017 98 0 1.2 291 08:59 07.11.2019
4832 Snow -21 1017 98 0 1.2 291 08:40 07.11.2019
4833 Clouds -22 1018 98 0 0.95 297 08:22 07.11.2019
4834 Clouds -22 1018 98 0 0.95 297 07:56 07.11.2019
4835 Clouds -22 1018 98 0 0.95 297 07:38 07.11.2019
4836 Clouds -22 1018 98 0 0.95 297 07:19 07.11.2019
4837 Clouds -22 1018 98 0 0.95 297 06:44 07.11.2019
4838 Clouds -22 1018 98 0 0.95 297 06:23 07.11.2019
4839 -273 0 0 0 0 0 06:23 07.11.2019
4840 Clouds -22 1018 98 0 0.95 297 05:48 07.11.2019
4841 Clouds -22 1018 98 0 0.95 297 05:30 07.11.2019
4842 -273 0 0 0 0 0 04:51 07.11.2019
4843 Snow -21 1019 95 0 0.99 313 04:28 07.11.2019
4844 Snow -22 1020 98 0 0.95 334 01:28 07.11.2019
4845 Snow -22 1020 98 0 1 344 00:30 07.11.2019
4846 Snow -22 1020 98 0 1 344 23:56 06.11.2019
4847 Snow -22 1020 98 0 1 344 23:38 06.11.2019
4848 Snow -22 1020 98 0 0.97 347 23:18 06.11.2019
4849 Snow -22 1020 98 0 0.97 347 22:39 06.11.2019
4850 Snow -22 1020 98 0 0.97 347 22:20 06.11.2019
4851 Snow -22 1020 98 0 0.97 347 21:57 06.11.2019
4852 Snow -22 1020 98 0 0.97 347 21:57 06.11.2019
4853 Snow -22 1020 98 0 0.97 347 21:39 06.11.2019
4854 Snow -22 1020 98 0 0.97 347 21:19 06.11.2019
4855 Snow -22 1020 98 0 0.97 347 20:57 06.11.2019
4856 Snow -22 1020 98 0 0.97 347 20:39 06.11.2019
4857 Snow -22 1022 98 0 1.02 13 20:20 06.11.2019
4858 Snow -22 1022 98 0 1.02 13 19:56 06.11.2019
4859 Snow -22 1022 98 0 1.02 13 19:36 06.11.2019
4860 Snow -22 1022 98 0 1.02 13 19:18 06.11.2019
4861 Snow -22 1022 98 0 1.02 13 18:55 06.11.2019
4862 Snow -22 1022 98 0 1.02 13 18:36 06.11.2019
4863 Snow -22 1022 98 0 1.02 13 18:18 06.11.2019
4864 Snow -22 1022 98 0 1.02 13 17:42 06.11.2019
4865 Clouds -22 1022 98 0 1.11 8 17:23 06.11.2019
4866 Clouds -22 1022 98 0 1.11 8 16:57 06.11.2019
4867 Clouds -22 1022 98 0 1.11 8 16:39 06.11.2019
4868 Clouds -22 1022 98 0 1.11 8 16:21 06.11.2019
4869 Clouds -22 1022 98 0 1.11 8 15:58 06.11.2019
4870 Clouds -22 1022 98 0 1.11 8 15:38 06.11.2019
4871 Clouds -22 1022 98 0 1.11 8 15:38 06.11.2019
4872 Clouds -22 1022 98 0 1.11 8 15:38 06.11.2019
4873 Clouds -22 1022 98 0 1.11 8 15:19 06.11.2019
4874 Clouds -22 1022 98 0 1.11 8 14:57 06.11.2019
4875 Clouds -22 1022 98 0 1.11 8 14:39 06.11.2019
4876 Clouds -21 1023 98 0 1.14 14 14:21 06.11.2019
4877 Clouds -21 1023 98 0 1.14 14 13:59 06.11.2019
4878 Clouds -21 1023 98 0 1.14 14 13:59 06.11.2019
4879 Clouds -21 1024 98 0 1.33 10 13:37 06.11.2019
4880 Clouds -21 1024 98 0 1.33 10 13:19 06.11.2019
4881 Clouds -21 1024 98 0 1.33 10 12:55 06.11.2019
4882 Clouds -21 1024 98 0 1.33 10 12:37 06.11.2019
4883 Clouds -21 1024 98 0 1.33 10 12:18 06.11.2019
4884 Clouds -21 1024 98 0 1.33 10 11:56 06.11.2019
4885 Clouds -21 1024 98 0 1.33 10 11:36 06.11.2019
4886 Clouds -20 1023 99 0 1.05 29 11:18 06.11.2019
4887 Clouds -20 1023 99 0 1.05 29 10:55 06.11.2019
4888 Clouds -20 1023 99 0 1.05 29 10:37 06.11.2019
4889 Clouds -20 1023 99 0 1.05 29 10:18 06.11.2019
4890 Clouds -20 1023 99 0 1.05 29 09:41 06.11.2019
4891 Clouds -20 1023 99 0 1.05 29 09:21 06.11.2019
4892 Clouds -20 1023 99 0 1.05 29 08:56 06.11.2019
4893 Clouds -20 1023 99 0 1.05 29 08:38 06.11.2019
4894 Clouds -20 1025 99 0 1 21 08:18 06.11.2019
4895 Clouds -20 1025 99 0 1 21 07:47 06.11.2019
4896 Clouds -20 1025 99 0 1 21 07:29 06.11.2019
4897 Clouds -20 1025 99 0 1 21 06:59 06.11.2019
4898 Clouds -20 1025 99 0 1 21 06:38 06.11.2019
4899 Clouds -20 1025 99 0 1 21 06:20 06.11.2019
4900 Clouds -18 1024 96 0 0.87 5 03:52 06.11.2019
4901 Clouds -19 1024 99 0 0.59 338 02:18 06.11.2019
4902 Clouds -19 1025 98 0 0.68 355 00:55 06.11.2019
4903 Clouds -19 1025 98 0 0.68 355 00:27 06.11.2019
4904 Clouds -19 1025 98 0 0.68 355 23:57 05.11.2019
4905 Clouds -19 1025 98 0 0.68 355 23:37 05.11.2019
4906 Snow -18 1024 97 0 0.71 298 23:18 05.11.2019
4907 Snow -18 1024 97 0 0.71 298 22:42 05.11.2019
4908 Snow -18 1024 97 0 0.71 298 22:42 05.11.2019
4909 Snow -18 1024 97 0 0.71 298 22:19 05.11.2019
4910 Snow -18 1024 97 0 0.71 298 21:58 05.11.2019
4911 Snow -18 1024 97 0 0.71 298 21:40 05.11.2019
4912 Snow -18 1024 97 0 0.71 298 21:20 05.11.2019
4913 Snow -18 1024 97 0 0.71 298 20:57 05.11.2019
4914 Snow -18 1024 97 0 0.71 298 20:38 05.11.2019
4915 Snow -18 1024 97 0 0.71 298 20:38 05.11.2019
4916 Snow -19 1023 97 0 0.6 258 20:20 05.11.2019
4917 Snow -19 1023 97 0 0.6 258 19:55 05.11.2019
4918 Snow -19 1023 97 0 0.6 258 19:37 05.11.2019
4919 Snow -19 1023 97 0 0.6 258 19:18 05.11.2019
4920 Snow -19 1023 97 0 0.6 258 18:56 05.11.2019
4921 Snow -19 1023 97 0 0.6 258 18:38 05.11.2019
4922 Snow -19 1023 97 0 0.6 258 18:19 05.11.2019
4923 Snow -19 1023 97 0 0.6 258 17:54 05.11.2019
4924 Snow -19 1023 97 0 0.6 258 17:54 05.11.2019
4925 Snow -19 1023 97 0 0.6 258 17:36 05.11.2019
4926 Snow -19 1022 97 0 0.93 255 17:18 05.11.2019
4927 Snow -19 1022 97 0 0.93 255 16:41 05.11.2019
4928 Snow -19 1022 97 0 0.93 255 16:20 05.11.2019
4929 Snow -19 1022 97 0 0.93 255 15:55 05.11.2019
4930 Snow -19 1022 97 0 0.93 255 15:36 05.11.2019
4931 Snow -19 1022 97 0 0.93 255 15:18 05.11.2019
4932 Snow -19 1022 97 0 0.93 255 14:54 05.11.2019
4933 Snow -19 1022 97 0 0.93 255 14:36 05.11.2019
4934 Clouds -19 1022 97 0 1.08 258 14:18 05.11.2019
4935 Clouds -19 1022 97 0 1.08 258 13:43 05.11.2019
4936 Snow -19 1022 97 0 1.11 258 13:24 05.11.2019
4937 Snow -19 1022 97 0 1.11 258 12:42 05.11.2019
4938 Snow -19 1022 97 0 1.11 258 12:22 05.11.2019
4939 Snow -19 1022 97 0 1.11 258 11:58 05.11.2019
4940 Snow -19 1022 97 0 1.11 258 11:39 05.11.2019
4941 Clouds -19 1021 96 0 1.3 274 11:21 05.11.2019
4942 Clouds -19 1021 96 0 1.3 274 10:58 05.11.2019
4943 Clouds -19 1021 96 0 1.3 274 10:40 05.11.2019
4944 Clouds -19 1021 96 0 1.3 274 10:21 05.11.2019
4945 Clouds -19 1021 96 0 1.3 274 09:55 05.11.2019
4946 Clouds -19 1021 96 0 1.3 274 09:37 05.11.2019
4947 Clouds -19 1021 96 0 1.3 274 09:18 05.11.2019
4948 Clouds -19 1021 96 0 1.3 274 08:39 05.11.2019
4949 Clouds -19 1021 90 0 1.17 273 08:20 05.11.2019
4950 Clouds -19 1021 90 0 1.17 273 08:20 05.11.2019
4951 Clouds -19 1021 90 0 1.17 273 07:57 05.11.2019
4952 Clouds -19 1021 90 0 1.17 273 07:39 05.11.2019
4953 Clouds -19 1021 90 0 1.17 273 07:19 05.11.2019
4954 Clouds -19 1021 90 0 1.17 273 06:49 05.11.2019
4955 Clouds -19 1021 90 0 1.17 273 05:51 05.11.2019
4956 Clouds -18 1021 90 0 1.22 288 05:22 05.11.2019
4957 Clouds -18 1021 90 0 1.22 288 05:22 05.11.2019
4958 Clouds -18 1021 90 0 1.22 288 04:25 05.11.2019
4959 Clouds -18 1021 90 0 1.22 288 03:55 05.11.2019
4960 Clouds -18 1021 90 0 1.22 288 02:46 05.11.2019
4961 Clouds -20 1022 90 0 1.15 301 02:18 05.11.2019
4962 Clouds -20 1022 90 0 1.29 301 01:25 05.11.2019
4963 Clouds -20 1022 90 0 1.29 301 00:37 05.11.2019
4964 Clouds -20 1022 90 0 1.29 301 23:56 04.11.2019
4965 Clouds -20 1022 90 0 1.29 301 23:37 04.11.2019
4966 Clouds -20 1022 90 0 1.1 318 23:18 04.11.2019
4967 Clouds -20 1022 90 0 1.1 318 23:18 04.11.2019
4968 Clouds -20 1022 90 0 1.1 318 22:42 04.11.2019
4969 Clouds -20 1022 90 0 1.1 318 22:23 04.11.2019
4970 Clouds -20 1022 90 0 1.1 318 21:56 04.11.2019
4971 Clouds -20 1022 90 0 1.1 318 21:56 04.11.2019
4972 Clouds -20 1022 90 0 1.1 318 21:56 04.11.2019
4973 Clouds -20 1022 90 0 1.1 318 21:56 04.11.2019
4974 Clouds -20 1022 90 0 1.1 318 21:38 04.11.2019
4975 Clouds -20 1022 90 0 1.1 318 21:19 04.11.2019
4976 Clouds -20 1022 90 0 1.1 318 20:59 04.11.2019
4977 Clouds -20 1022 90 0 1.1 318 20:40 04.11.2019
4978 Clouds -20 1022 90 0 1.12 307 20:21 04.11.2019
4979 Clouds -20 1022 90 0 1.14 310 19:59 04.11.2019
4980 Clouds -20 1022 90 0 1.14 310 19:41 04.11.2019
4981 Clouds -20 1022 90 0 1.14 310 19:21 04.11.2019
4982 Clouds -20 1022 90 0 1.14 310 18:57 04.11.2019
4983 Clouds -20 1022 90 0 1.14 310 18:39 04.11.2019
4984 Clouds -20 1022 90 0 1.14 310 18:19 04.11.2019
4985 Clouds -20 1022 90 0 1.14 310 17:41 04.11.2019
4986 Clouds -19 1021 88 0 1.2 360 17:22 04.11.2019
4987 Clouds -19 1021 88 0 1.2 360 16:59 04.11.2019
4988 Clouds -19 1021 88 0 1.2 360 16:41 04.11.2019
4989 Clouds -19 1021 88 0 1.2 360 16:23 04.11.2019
4990 Clouds -19 1021 88 0 1.2 360 15:57 04.11.2019
4991 Clouds -19 1021 88 0 1.2 360 15:39 04.11.2019
4992 Clouds -19 1021 88 0 1.2 360 15:19 04.11.2019
4993 Clouds -19 1021 88 0 1.2 360 14:57 04.11.2019
4994 Clouds -19 1021 88 0 1.2 360 14:39 04.11.2019
4995 Clouds -19 1021 85 0 0.64 336 14:19 04.11.2019
4996 Clouds -19 1021 85 0 0.64 336 13:55 04.11.2019
4997 Clouds -19 1021 85 0 0.64 336 13:37 04.11.2019
4998 Clouds -19 1021 85 0 0.72 340 13:19 04.11.2019
4999 Clouds -19 1021 85 0 0.72 340 12:44 04.11.2019
5000 Clouds -19 1021 85 0 0.72 340 12:24 04.11.2019
5001 Clouds -19 1021 85 0 0.72 340 11:57 04.11.2019
5002 Clouds -19 1021 85 0 0.72 340 11:39 04.11.2019
5003 Clouds -17 1020 80 0 1.17 198 11:21 04.11.2019
5004 Clouds -17 1020 80 0 1.17 198 10:45 04.11.2019
5005 Clouds -17 1020 80 0 1.17 198 10:26 04.11.2019
5006 Clouds -17 1020 80 0 1.17 198 09:56 04.11.2019
5007 Clouds -17 1020 80 0 1.17 198 09:38 04.11.2019
5008 Clouds -17 1020 80 0 1.17 198 09:19 04.11.2019
5009 Clouds -17 1020 80 0 1.17 198 08:42 04.11.2019
5010 Clouds -15 1020 77 0 2.46 181 08:21 04.11.2019
5011 Clouds -15 1020 77 0 2.46 181 07:49 04.11.2019
5012 Clouds -15 1020 77 0 2.46 181 07:25 04.11.2019
5013 Clouds -15 1020 77 0 2.46 181 06:59 04.11.2019
5014 Clouds -15 1020 77 0 2.46 181 06:38 04.11.2019
5015 Clouds -15 1020 77 0 2.46 181 05:59 04.11.2019
5016 Clouds -15 1020 77 0 2.46 181 05:30 04.11.2019
5017 Clear -15 1019 80 0 2.74 196 04:26 04.11.2019
5018 Clear -15 1019 80 0 2.74 196 03:29 04.11.2019
5019 Clouds -16 1018 78 0 3.97 197 01:24 04.11.2019
5020 Clouds -16 1018 79 0 3.83 195 00:54 04.11.2019
5021 Clouds -16 1018 79 0 3.83 195 00:22 04.11.2019
5022 Clouds -16 1018 79 0 3.83 195 23:58 03.11.2019
5023 Clouds -16 1018 79 0 3.83 195 23:37 03.11.2019
5024 Clouds -16 1017 80 0 4.27 200 23:18 03.11.2019
5025 Clouds -16 1017 80 0 4.27 200 22:56 03.11.2019
5026 Clouds -16 1017 80 0 4.27 200 22:38 03.11.2019
5027 Clouds -16 1017 80 0 4.27 200 22:19 03.11.2019
5028 Clouds -16 1017 80 0 4.27 200 21:43 03.11.2019
5029 Clouds -16 1017 80 0 4.27 200 21:43 03.11.2019
5030 Clouds -16 1017 80 0 4.27 200 21:21 03.11.2019
5031 Clouds -16 1017 80 0 4.27 200 20:58 03.11.2019
5032 Clouds -16 1017 80 0 4.27 200 20:38 03.11.2019
5033 Clouds -16 1017 80 0 4.27 200 20:38 03.11.2019
5034 Clouds -16 1015 81 0 4.01 196 20:19 03.11.2019
5035 Clouds -16 1015 81 0 4.01 196 19:57 03.11.2019
5036 Clouds -16 1015 81 0 4.01 196 19:39 03.11.2019
5037 Clouds -16 1015 81 0 4.01 196 19:20 03.11.2019
5038 Clouds -16 1015 81 0 4.01 196 18:57 03.11.2019
5039 Clouds -16 1015 81 0 4.01 196 18:37 03.11.2019
5040 Clouds -16 1015 81 0 4.01 196 18:18 03.11.2019
5041 Clouds -16 1015 81 0 4.01 196 17:42 03.11.2019
5042 Clouds -16 1014 80 0 2.64 192 17:20 03.11.2019
5043 Clouds -16 1014 80 0 2.64 192 16:59 03.11.2019
5044 Clouds -16 1014 80 0 2.64 192 16:41 03.11.2019
5045 Clouds -16 1014 80 0 2.64 192 16:22 03.11.2019
5046 Clouds -16 1014 80 0 2.64 192 15:58 03.11.2019
5047 Clouds -16 1014 80 0 2.64 192 15:40 03.11.2019
5048 Clouds -16 1014 80 0 2.64 192 15:22 03.11.2019
5049 Clouds -16 1014 80 0 2.64 192 14:54 03.11.2019
5050 Clouds -16 1014 80 0 2.64 192 14:36 03.11.2019
5051 Clouds -17 1013 86 0 1.41 197 14:18 03.11.2019
5052 Clouds -17 1013 86 0 1.41 197 13:41 03.11.2019
5053 Clouds -16 1013 87 0 0.73 157 13:18 03.11.2019
5054 Clouds -16 1013 87 0 0.73 157 13:18 03.11.2019
5055 Clouds -16 1013 87 0 0.73 157 12:57 03.11.2019
5056 Clouds -16 1013 87 0 0.73 157 12:36 03.11.2019
5057 Clouds -16 1013 87 0 0.73 157 12:18 03.11.2019
5058 Clouds -16 1013 87 0 0.73 157 11:42 03.11.2019
5059 Clouds -16 1013 88 0 1.09 116 11:22 03.11.2019
5060 Clouds -16 1013 88 0 1.09 116 10:56 03.11.2019
5061 Clouds -16 1013 88 0 1.09 116 10:37 03.11.2019
5062 Clouds -16 1013 88 0 1.09 116 10:19 03.11.2019
5063 Clouds -16 1013 88 0 1.09 116 10:19 03.11.2019
5064 Clouds -16 1013 88 0 1.09 116 09:43 03.11.2019
5065 Clouds -16 1013 88 0 1.09 116 09:43 03.11.2019
5066 Clouds -16 1013 88 0 1.09 116 09:25 03.11.2019
5067 Clouds -16 1013 88 0 1.09 116 08:57 03.11.2019
5068 Clouds -16 1013 88 0 1.09 116 08:38 03.11.2019
5069 Clouds -16 1015 93 0 1.63 104 08:19 03.11.2019
5070 Clouds -16 1015 93 0 1.63 104 07:45 03.11.2019
5071 Clouds -16 1015 93 0 1.63 104 07:22 03.11.2019
5072 Clouds -16 1015 93 0 1.63 104 06:46 03.11.2019
5073 Clouds -16 1015 93 0 1.63 104 06:28 03.11.2019
5074 Clouds -16 1015 93 0 1.63 104 05:38 03.11.2019
5075 Snow -17 1017 95 0 1.58 101 04:56 03.11.2019
5076 Snow -17 1017 95 0 1.58 101 04:28 03.11.2019
5077 Snow -17 1017 95 0 1.58 101 03:28 03.11.2019
5078 Snow -17 1017 95 0 1.58 101 02:30 03.11.2019
5079 Clouds -22 1021 81 0 1.12 94 01:59 03.11.2019
5080 Clouds -22 1021 81 0 1.12 94 01:38 03.11.2019
5081 Clouds -22 1021 81 0 1.11 100 01:19 03.11.2019
5082 Clouds -22 1021 81 0 1.11 100 00:42 03.11.2019
5083 Clouds -22 1021 81 0 1.11 100 00:23 03.11.2019
5084 Clouds -22 1021 81 0 1.11 100 23:57 02.11.2019
5085 Clouds -22 1021 81 0 1.11 100 23:37 02.11.2019
5086 Clouds -23 1024 78 0 1.07 109 23:18 02.11.2019
5087 Clouds -23 1024 78 0 1.07 109 22:55 02.11.2019
5088 Clouds -23 1024 78 0 1.07 109 22:37 02.11.2019
5089 Clouds -23 1024 78 0 1.07 109 22:18 02.11.2019
5090 Clouds -23 1024 78 0 1.07 109 22:18 02.11.2019
5091 Clouds -23 1024 78 0 1.07 109 21:55 02.11.2019
5092 Clouds -23 1024 78 0 1.07 109 21:55 02.11.2019
5093 Clouds -23 1024 78 0 1.07 109 21:37 02.11.2019
5094 Clouds -23 1024 78 0 1.07 109 21:18 02.11.2019
5095 Clouds -23 1024 78 0 1.07 109 20:57 02.11.2019
5096 Clouds -23 1024 78 0 1.07 109 20:38 02.11.2019
5097 Clear -24 1027 78 0 1.28 184 20:19 02.11.2019
5098 Clear -24 1027 78 0 1.28 184 19:40 02.11.2019
5099 Clear -24 1027 78 0 1.28 184 19:22 02.11.2019
5100 Clear -24 1027 78 0 1.28 184 18:56 02.11.2019
5101 Clear -24 1027 78 0 1.28 184 18:37 02.11.2019
5102 Clear -24 1027 78 0 1.28 184 18:19 02.11.2019
5103 Clear -24 1027 78 0 1.28 184 17:57 02.11.2019
5104 Clear -24 1027 78 0 1.28 184 17:38 02.11.2019
5105 Clear -24 1026 80 0 1.98 195 17:20 02.11.2019
5106 Clear -24 1026 80 0 1.98 195 16:57 02.11.2019
5107 Clear -24 1026 80 0 1.98 195 16:36 02.11.2019
5108 Clear -24 1026 80 0 1.98 195 16:18 02.11.2019
5109 Clear -24 1026 80 0 1.98 195 16:18 02.11.2019
5110 Clear -24 1026 80 0 1.98 195 15:41 02.11.2019
5111 Clear -24 1026 80 0 1.98 195 15:41 02.11.2019
5112 Clear -24 1026 80 0 1.98 195 15:20 02.11.2019
5113 Clear -24 1026 80 0 1.98 195 14:43 02.11.2019
5114 Clear -24 1026 80 0 1.98 195 14:24 02.11.2019
5115 Clouds -22 1027 78 0 2.43 204 13:58 02.11.2019
5116 Clouds -22 1027 78 0 2.43 204 13:39 02.11.2019
5117 Clouds -22 1027 78 0 2.51 204 13:19 02.11.2019
5118 Clouds -22 1027 78 0 2.51 204 12:41 02.11.2019
5119 Clouds -22 1027 78 0 2.51 204 12:23 02.11.2019
5120 Clouds -22 1027 78 0 2.51 204 11:58 02.11.2019
5121 Clouds -22 1027 78 0 2.51 204 11:39 02.11.2019
5122 Clouds -22 1027 78 0 2.51 204 11:39 02.11.2019
5123 Clouds -19 1026 87 0 2.05 199 11:21 02.11.2019
5124 Clouds -19 1026 87 0 2.05 199 10:50 02.11.2019
5125 Clouds -19 1026 87 0 2.05 199 10:29 02.11.2019
5126 Clouds -19 1026 87 0 2.05 199 09:59 02.11.2019
5127 Clouds -19 1026 87 0 2.05 199 09:40 02.11.2019
5128 Clouds -19 1026 87 0 2.05 199 09:20 02.11.2019
5129 Clouds -19 1026 87 0 2.05 199 08:47 02.11.2019
5130 Clouds -19 1024 94 0 1.5 212 08:22 02.11.2019
5131 Clouds -19 1025 96 0 1.59 209 07:51 02.11.2019
5132 Clouds -19 1025 96 0 1.59 209 07:33 02.11.2019
5133 Clouds -19 1025 96 0 1.59 209 06:58 02.11.2019
5134 Clouds -19 1025 96 0 1.59 209 06:39 02.11.2019
5135 Clouds -19 1025 96 0 1.59 209 06:18 02.11.2019
5136 Clouds -19 1025 96 0 1.59 209 05:29 02.11.2019
5137 Clouds -17 1024 95 0 1.26 230 04:23 02.11.2019
5138 Clouds -17 1024 95 0 1.26 230 03:50 02.11.2019
5139 Clouds -17 1024 95 0 1.26 230 02:49 02.11.2019
5140 Clouds -17 1024 95 0 1.26 230 02:49 02.11.2019
5141 Clouds -20 1023 99 0 1.13 248 01:57 02.11.2019
5142 Clouds -20 1023 99 0 1.17 242 01:25 02.11.2019
5143 Clouds -20 1023 99 0 1.17 242 00:54 02.11.2019
5144 Clouds -20 1023 99 0 1.17 242 00:27 02.11.2019
5145 Clouds -20 1023 99 0 1.17 242 23:49 01.11.2019
5146 Clouds -21 1021 99 0 1.24 265 23:23 01.11.2019
5147 Clouds -21 1021 99 0 1.24 265 22:59 01.11.2019
5148 Clouds -21 1021 99 0 1.24 265 22:40 01.11.2019
5149 Clouds -21 1021 99 0 1.24 265 22:20 01.11.2019
5150 Clouds -21 1021 99 0 1.24 265 21:42 01.11.2019
5151 Clouds -21 1021 99 0 1.24 265 21:24 01.11.2019
5152 Clouds -21 1021 99 0 1.24 265 20:59 01.11.2019
5153 Clouds -21 1021 99 0 1.24 265 20:40 01.11.2019
5154 Clouds -20 1019 98 0 1.17 285 20:21 01.11.2019
5155 Clouds -20 1019 98 0 1.17 285 19:57 01.11.2019
5156 Clouds -20 1019 98 0 1.17 285 19:39 01.11.2019
5157 Clouds -20 1019 98 0 1.17 285 19:20 01.11.2019
5158 Clouds -20 1019 98 0 1.17 285 18:40 01.11.2019
5159 Clouds -20 1019 98 0 1.17 285 18:21 01.11.2019
5160 Clouds -20 1019 98 0 1.17 285 17:56 01.11.2019
5161 Clouds -20 1019 98 0 1.17 285 17:38 01.11.2019
5162 Clouds -19 1017 96 0 0.37 280 17:19 01.11.2019
5163 Clouds -19 1017 96 0 0.37 280 16:39 01.11.2019
5164 Clouds -19 1017 96 0 0.37 280 16:20 01.11.2019
5165 Clouds -19 1017 96 0 0.37 280 15:56 01.11.2019
5166 Clouds -19 1017 96 0 0.37 280 15:38 01.11.2019
5167 Clouds -19 1017 96 0 0.37 280 15:19 01.11.2019
5168 Clouds -19 1017 96 0 0.37 280 14:43 01.11.2019
5169 Clouds -19 1017 96 0 0.37 280 14:24 01.11.2019
5170 Clouds -18 1016 95 0 0.51 278 13:58 01.11.2019
5171 Clouds -18 1016 95 0 0.51 278 13:39 01.11.2019
5172 Clouds -18 1016 95 0 0.51 278 13:21 01.11.2019
5173 Clouds -20 1016 98 0 0.64 269 12:44 01.11.2019
5174 Clouds -20 1016 98 0 0.64 269 12:26 01.11.2019
5175 Clouds -20 1016 98 0 0.64 269 11:59 01.11.2019
5176 Clouds -20 1016 98 0 0.64 269 11:41 01.11.2019
5177 Clouds -20 1014 97 0 0.35 277 11:22 01.11.2019
5178 Clouds -20 1014 97 0 0.35 277 10:42 01.11.2019
5179 Clouds -20 1014 97 0 0.35 277 10:24 01.11.2019
5180 Clouds -20 1014 97 0 0.35 277 09:58 01.11.2019
5181 Clouds -20 1014 97 0 0.35 277 09:40 01.11.2019
5182 Clouds -20 1014 97 0 0.35 277 09:20 01.11.2019
5183 Clouds -20 1014 97 0 0.35 277 09:20 01.11.2019
5184 Clouds -20 1014 97 0 0.35 277 08:45 01.11.2019
5185 Clouds -19 1013 97 0 0.27 334 08:22 01.11.2019
5186 Clouds -19 1013 97 0 0.27 334 07:57 01.11.2019
5187 Clouds -19 1013 97 0 0.27 334 07:57 01.11.2019
5188 Clouds -19 1013 97 0 0.27 334 07:39 01.11.2019
5189 Clouds -19 1013 97 0 0.27 334 07:20 01.11.2019
5190 Clouds -19 1013 97 0 0.27 334 06:47 01.11.2019
5191 Clouds -19 1013 97 0 0.27 334 06:22 01.11.2019
5192 Clouds -19 1013 97 0 0.27 334 05:44 01.11.2019
5193 Snow -17 1012 94 0 0.3 323 04:29 01.11.2019
5194 Snow -17 1012 94 0 0.3 323 03:26 01.11.2019
5195 Clouds -19 1013 97 0 0.18 2 01:37 01.11.2019
5196 Clouds -20 1013 95 0 0.13 305 00:43 01.11.2019
5197 Clouds -20 1013 95 0 0.13 305 00:19 01.11.2019
5198 Clouds -20 1013 95 0 0.13 305 23:44 31.10.2019
5199 Clouds -20 1013 95 0 0.13 305 23:44 31.10.2019
5200 Clouds -21 1013 94 0 0.34 349 23:23 31.10.2019
5201 Clouds -21 1013 94 0 0.34 349 22:57 31.10.2019
5202 Clouds -21 1013 94 0 0.34 349 22:39 31.10.2019
5203 Clouds -21 1013 94 0 0.34 349 22:21 31.10.2019
5204 Clouds -21 1013 94 0 0.34 349 21:44 31.10.2019
5205 Clouds -21 1013 94 0 0.34 349 21:21 31.10.2019
5206 Clouds -21 1013 94 0 0.34 349 20:57 31.10.2019
5207 Clouds -21 1013 94 0 0.34 349 20:39 31.10.2019
5208 Clouds -21 1014 95 0 0.34 57 20:21 31.10.2019
5209 Clouds -22 1014 92 0 0.44 43 19:42 31.10.2019
5210 Clouds -22 1014 92 0 0.44 43 19:23 31.10.2019
5211 Clouds -22 1014 92 0 0.44 43 18:58 31.10.2019
5212 Clouds -22 1014 92 0 0.44 43 18:39 31.10.2019
5213 Clouds -22 1014 92 0 0.44 43 18:20 31.10.2019
5214 Clouds -22 1014 92 0 0.44 43 17:43 31.10.2019
5215 Clouds -22 1014 92 0 0.44 43 17:43 31.10.2019
5216 Clouds -22 1014 92 0 0.44 43 17:24 31.10.2019
5217 Clouds -23 1016 93 0 0.4 69 16:59 31.10.2019
5218 Clouds -23 1016 93 0 0.4 69 16:40 31.10.2019
5219 Clouds -23 1016 93 0 0.4 69 16:20 31.10.2019
5220 Clouds -23 1016 93 0 0.4 69 15:58 31.10.2019
5221 Clouds -23 1016 93 0 0.4 69 15:39 31.10.2019
5222 Clouds -23 1016 93 0 0.4 69 15:20 31.10.2019
5223 Clouds -23 1016 93 0 0.4 69 14:56 31.10.2019
5224 Clouds -23 1016 93 0 0.4 69 14:38 31.10.2019
5225 Clouds -24 1016 94 0 0.56 42 14:20 31.10.2019
5226 Clouds -24 1016 94 0 0.56 42 13:57 31.10.2019
5227 Clouds -24 1016 94 0 0.56 42 13:38 31.10.2019
5228 Clouds -23 1016 95 0 0.52 42 13:19 31.10.2019
5229 Clouds -23 1016 95 0 0.52 42 12:44 31.10.2019
5230 Clouds -23 1016 95 0 0.52 42 12:24 31.10.2019
5231 Clouds -23 1016 95 0 0.52 42 11:59 31.10.2019
5232 Clouds -23 1016 95 0 0.52 42 11:41 31.10.2019
5233 Clouds -24 1016 95 0 0.34 54 11:19 31.10.2019
5234 Clouds -24 1016 95 0 0.34 54 11:19 31.10.2019
5235 Clouds -24 1016 95 0 0.34 54 10:57 31.10.2019
5236 Clouds -24 1016 95 0 0.34 54 10:38 31.10.2019
5237 Clouds -24 1016 95 0 0.34 54 10:19 31.10.2019
5238 Clouds -24 1016 95 0 0.34 54 09:43 31.10.2019
5239 Clouds -24 1016 95 0 0.34 54 09:19 31.10.2019
5240 Clouds -24 1016 95 0 0.34 54 08:56 31.10.2019
5241 Clouds -24 1016 95 0 0.34 54 08:38 31.10.2019
5242 Clouds -23 1015 95 0 0.19 180 08:19 31.10.2019
5243 Clouds -23 1015 95 0 0.19 180 07:43 31.10.2019
5244 Clouds -23 1015 95 0 0.19 180 07:24 31.10.2019
5245 Clouds -23 1015 95 0 0.19 180 06:50 31.10.2019
5246 Clouds -23 1015 95 0 0.19 180 06:30 31.10.2019
5247 Clouds -21 1015 94 0 0.51 258 05:18 31.10.2019
5248 Clouds -21 1015 94 0 0.51 258 05:18 31.10.2019
5249 Clouds -21 1015 94 0 0.51 258 02:47 31.10.2019
5250 Clouds -24 1014 99 0 0.61 233 02:22 31.10.2019
5251 Clouds -24 1014 99 0 0.66 230 00:48 31.10.2019
5252 Clouds -24 1014 99 0 0.66 230 00:25 31.10.2019
5253 Clouds -24 1014 99 0 0.66 230 23:41 30.10.2019
5254 Clouds -24 1013 100 0 0.5 254 23:22 30.10.2019
5255 Clouds -24 1013 100 0 0.5 254 22:41 30.10.2019
5256 Clouds -24 1013 100 0 0.5 254 22:19 30.10.2019
5257 Clouds -24 1013 100 0 0.5 254 21:55 30.10.2019
5258 Clouds -24 1013 100 0 0.5 254 21:37 30.10.2019
5259 Clouds -24 1013 100 0 0.5 254 21:18 30.10.2019
5260 Clouds -24 1013 100 0 0.5 254 20:57 30.10.2019
5261 Clouds -24 1014 100 0 0.44 235 20:37 30.10.2019
5262 Clouds -24 1014 100 0 0.44 235 20:37 30.10.2019
5263 Clouds -24 1012 100 0 0.66 234 20:19 30.10.2019
5264 Clouds -24 1012 100 0 0.66 234 19:43 30.10.2019
5265 Clouds -24 1012 100 0 0.66 234 19:25 30.10.2019
5266 Clouds -24 1012 100 0 0.66 234 19:00 30.10.2019
5267 Clouds -24 1012 100 0 0.66 234 18:38 30.10.2019
5268 Clouds -24 1012 100 0 0.66 234 18:19 30.10.2019
5269 Clouds -24 1012 100 0 0.66 234 17:56 30.10.2019
5270 Clouds -24 1012 100 0 0.66 234 17:37 30.10.2019
5271 Clouds -23 1012 100 0 0.32 232 17:18 30.10.2019
5272 Clouds -23 1012 100 0 0.32 232 16:54 30.10.2019
5273 Clouds -23 1012 100 0 0.32 232 16:36 30.10.2019
5274 Clouds -23 1012 100 0 0.32 232 16:18 30.10.2019
5275 Clouds -23 1012 100 0 0.32 232 15:41 30.10.2019
5276 Clouds -23 1012 100 0 0.32 232 15:21 30.10.2019
5277 Clouds -23 1012 100 0 0.32 232 14:59 30.10.2019
5278 Clouds -23 1012 100 0 0.32 232 14:41 30.10.2019
5279 Clear -23 1012 100 0 0.41 263 14:22 30.10.2019
5280 Clear -23 1012 100 0 0.41 263 13:57 30.10.2019
5281 Clear -23 1012 100 0 0.41 263 13:39 30.10.2019
5282 Clouds -23 1011 100 0 0.38 273 13:19 30.10.2019
5283 Clouds -23 1011 100 0 0.38 273 12:54 30.10.2019
5284 Clouds -23 1011 100 0 0.38 273 12:36 30.10.2019
5285 Clouds -23 1011 100 0 0.38 273 12:18 30.10.2019
5286 Clouds -23 1011 100 0 0.38 273 11:41 30.10.2019
5287 Clear -22 1010 100 0 0.09 279 11:21 30.10.2019
5288 Clear -22 1010 100 0 0.09 279 10:44 30.10.2019
5289 Clear -22 1010 100 0 0.09 279 10:23 30.10.2019
5290 Clear -22 1010 100 0 0.09 279 09:57 30.10.2019
5291 Clear -22 1010 100 0 0.09 279 09:38 30.10.2019
5292 Clear -22 1010 100 0 0.09 279 09:19 30.10.2019
5293 Clear -22 1010 100 0 0.09 279 08:40 30.10.2019
5294 Clouds -21 1009 100 0 0.05 1 08:22 30.10.2019
5295 Clouds -21 1009 100 0 0.05 1 07:51 30.10.2019
5296 Clouds -21 1009 100 0 0.05 1 07:32 30.10.2019
5297 Clouds -21 1009 100 0 0.05 1 06:43 30.10.2019
5298 Clouds -21 1009 100 0 0.05 1 06:23 30.10.2019
5299 Clouds -21 1009 100 0 0.05 1 05:50 30.10.2019
5300 Clouds -21 1009 100 0 0.05 1 05:32 30.10.2019
5301 Clouds -18 1009 95 0 0.07 193 03:46 30.10.2019
5302 Clouds -18 1009 95 0 0.07 193 03:18 30.10.2019
5303 Clouds -18 1009 95 0 0.07 193 02:32 30.10.2019
5304 Clouds -20 1008 98 0 0.29 156 01:34 30.10.2019
5305 Clouds -20 1007 99 0 0.45 179 00:31 30.10.2019
5306 Clouds -20 1007 99 0 0.45 179 23:47 29.10.2019
5307 Clouds -20 1007 99 0 0.45 179 23:28 29.10.2019
5308 Snow -19 1007 97 0 0.25 120 22:57 29.10.2019
5309 Snow -19 1007 97 0 0.25 120 22:39 29.10.2019
5310 Snow -19 1007 97 0 0.25 120 22:19 29.10.2019
5311 Snow -19 1007 97 0 0.25 120 21:55 29.10.2019
5312 Snow -19 1007 97 0 0.25 120 21:36 29.10.2019
5313 Snow -19 1007 97 0 0.25 120 21:18 29.10.2019
5314 Snow -19 1007 97 0 0.25 120 20:41 29.10.2019
5315 Clouds -19 1007 92 0 0.16 256 20:22 29.10.2019
5316 Clouds -19 1007 92 0 0.16 256 19:58 29.10.2019
5317 Clouds -19 1007 92 0 0.16 256 19:39 29.10.2019
5318 Clouds -19 1007 92 0 0.16 256 19:20 29.10.2019
5319 Clouds -19 1007 92 0 0.16 256 18:58 29.10.2019
5320 Clouds -19 1007 92 0 0.16 256 18:38 29.10.2019
5321 Clouds -19 1007 92 0 0.16 256 18:20 29.10.2019
5322 Clouds -19 1007 92 0 0.16 256 17:56 29.10.2019
5323 Clouds -19 1007 92 0 0.16 256 17:38 29.10.2019
5324 Clouds -19 1008 87 0 0.3 83 17:19 29.10.2019
5325 Clouds -19 1008 87 0 0.3 83 16:41 29.10.2019
5326 Clouds -19 1008 87 0 0.3 83 16:22 29.10.2019
5327 Clouds -19 1008 87 0 0.3 83 15:59 29.10.2019
5328 Clouds -19 1008 87 0 0.3 83 15:41 29.10.2019
5329 Clouds -19 1008 87 0 0.3 83 15:21 29.10.2019
5330 Clouds -19 1008 87 0 0.3 83 14:57 29.10.2019
5331 Clouds -19 1008 87 0 0.3 83 14:39 29.10.2019
5332 Clouds -19 1009 87 0 0.39 35 14:21 29.10.2019
5333 Clouds -19 1009 87 0 0.39 35 13:57 29.10.2019
5334 Clouds -19 1009 87 0 0.39 35 13:36 29.10.2019
5335 Clouds -19 1009 87 0 0.34 54 13:18 29.10.2019
5336 Clouds -19 1009 87 0 0.34 54 13:18 29.10.2019
5337 Clouds -19 1009 87 0 0.34 54 12:42 29.10.2019
5338 Clouds -19 1009 87 0 0.34 54 12:24 29.10.2019
5339 Clouds -19 1009 87 0 0.34 54 11:55 29.10.2019
5340 Clouds -19 1009 87 0 0.34 54 11:36 29.10.2019
5341 Clouds -20 1010 87 0 0.19 66 11:18 29.10.2019
5342 Clouds -20 1010 87 0 0.19 66 10:56 29.10.2019
5343 Clouds -20 1010 87 0 0.19 66 10:37 29.10.2019
5344 Clouds -20 1010 87 0 0.19 66 10:19 29.10.2019
5345 Clouds -20 1010 87 0 0.19 66 09:41 29.10.2019
5346 Clouds -20 1010 87 0 0.19 66 09:41 29.10.2019
5347 Clouds -20 1010 87 0 0.19 66 09:23 29.10.2019
5348 Clouds -20 1010 87 0 0.19 66 08:56 29.10.2019
5349 Clouds -20 1010 87 0 0.19 66 08:37 29.10.2019
5350 Clouds -20 1010 87 0 0.51 54 08:18 29.10.2019
5351 Clouds -20 1010 87 0 0.51 54 07:47 29.10.2019
5352 Clouds -20 1010 87 0 0.51 54 07:20 29.10.2019
5353 Clouds -20 1010 87 0 0.51 54 06:53 29.10.2019
5354 Clouds -20 1010 87 0 0.51 54 06:29 29.10.2019
5355 Clouds -20 1010 87 0 0.51 54 05:56 29.10.2019
5356 Clouds -20 1010 87 0 0.51 54 05:38 29.10.2019
5357 Clouds -19 1012 83 0 0.63 19 04:41 29.10.2019
5358 Clouds -19 1012 83 0 0.63 19 02:39 29.10.2019
5359 Clouds -22 1013 86 0 0.64 65 01:56 29.10.2019
5360 Clouds -22 1013 86 0 0.64 65 01:36 29.10.2019
5361 Clouds -22 1013 86 0 0.51 70 00:53 29.10.2019
5362 Clouds -22 1013 86 0 0.51 70 00:26 29.10.2019
5363 Clouds -22 1013 86 0 0.51 70 23:38 28.10.2019
5364 Clouds -24 1014 87 0 0.56 99 23:20 28.10.2019
5365 Clouds -24 1014 87 0 0.56 99 22:57 28.10.2019
5366 Clouds -24 1014 87 0 0.56 99 22:36 28.10.2019
5367 Clouds -24 1014 87 0 0.56 99 22:18 28.10.2019
5368 Clouds -24 1014 87 0 0.56 99 22:18 28.10.2019
5369 Clouds -24 1014 87 0 0.56 99 21:54 28.10.2019
5370 Clouds -24 1014 87 0 0.56 99 21:36 28.10.2019
5371 Clouds -24 1014 87 0 0.56 99 21:18 28.10.2019
5372 Clouds -24 1014 87 0 0.56 99 20:41 28.10.2019
5373 Clouds -23 1014 88 0 0.45 171 20:23 28.10.2019
5374 Clouds -23 1014 88 0 0.45 171 19:55 28.10.2019
5375 Clouds -23 1014 88 0 0.45 171 19:37 28.10.2019
5376 Clouds -23 1014 88 0 0.45 171 19:18 28.10.2019
5377 Clouds -23 1014 88 0 0.45 171 18:57 28.10.2019
5378 Clouds -23 1014 88 0 0.45 171 18:38 28.10.2019
5379 Clouds -23 1014 88 0 0.45 171 18:20 28.10.2019
5380 Clouds -23 1014 88 0 0.45 171 17:56 28.10.2019
5381 Clouds -23 1014 88 0 0.45 171 17:56 28.10.2019
5382 Clouds -23 1014 88 0 0.45 171 17:37 28.10.2019
5383 Clouds -23 1015 89 0 0.67 142 17:18 28.10.2019
5384 Clouds -23 1015 89 0 0.67 142 16:55 28.10.2019
5385 Clouds -23 1015 89 0 0.67 142 16:37 28.10.2019
5386 Clouds -23 1015 89 0 0.67 142 16:19 28.10.2019
5387 Clouds -23 1015 89 0 0.67 142 15:56 28.10.2019
5388 Clouds -23 1015 89 0 0.67 142 15:37 28.10.2019
5389 Clouds -23 1015 89 0 0.67 142 15:18 28.10.2019
5390 Clouds -23 1015 89 0 0.67 142 14:54 28.10.2019
5391 Clouds -23 1015 89 0 0.67 142 14:36 28.10.2019
5392 Clouds -21 1016 89 0 0.62 153 14:18 28.10.2019
5393 Clouds -21 1016 89 0 0.62 153 13:41 28.10.2019
5394 Clouds -21 1016 89 0 0.77 160 13:19 28.10.2019
5395 Clouds -21 1016 89 0 0.77 160 12:59 28.10.2019
5396 Clouds -21 1016 89 0 0.77 160 12:40 28.10.2019
5397 Clouds -21 1016 89 0 0.77 160 12:19 28.10.2019
5398 Clouds -21 1016 89 0 0.77 160 11:38 28.10.2019
5399 Clouds -21 1017 92 0 0.92 202 11:20 28.10.2019
5400 Clouds -21 1017 92 0 0.92 202 10:56 28.10.2019
5401 Clouds -21 1017 92 0 0.92 202 10:38 28.10.2019
5402 Clouds -21 1017 92 0 0.92 202 10:19 28.10.2019
5403 Clouds -21 1017 92 0 0.92 202 09:54 28.10.2019
5404 Clouds -21 1017 92 0 0.92 202 09:36 28.10.2019
5405 Clouds -21 1017 92 0 0.92 202 09:18 28.10.2019
5406 Clouds -21 1017 92 0 0.92 202 08:55 28.10.2019
5407 Clouds -21 1017 92 0 0.92 202 08:37 28.10.2019
5408 Clouds -21 1017 95 0 0.27 233 08:18 28.10.2019
5409 Clouds -21 1017 95 0 0.27 233 07:42 28.10.2019
5410 Clouds -21 1017 95 0 0.27 233 07:21 28.10.2019
5411 Clouds -21 1017 95 0 0.27 233 06:55 28.10.2019
5412 Clouds -21 1017 95 0 0.27 233 06:34 28.10.2019
5413 Clouds -19 1018 94 0 0.33 228 04:49 28.10.2019
5414 Clouds -19 1018 94 0 0.33 228 03:44 28.10.2019
5415 Clouds -19 1018 94 0 0.33 228 02:45 28.10.2019
5416 Clouds -22 1019 99 0 0.64 192 01:36 28.10.2019
5417 Clouds -22 1019 99 0 0.64 192 00:46 28.10.2019
5418 Clouds -22 1019 99 0 0.64 192 00:23 28.10.2019
5419 Clouds -22 1019 99 0 0.64 192 23:44 27.10.2019
5420 Clouds -22 1020 99 0 0.26 4 23:21 27.10.2019
5421 Clouds -22 1020 99 0 0.26 4 22:56 27.10.2019
5422 Clouds -22 1020 99 0 0.26 4 22:37 27.10.2019
5423 Clouds -22 1020 99 0 0.26 4 22:19 27.10.2019
5424 Clouds -22 1020 99 0 0.26 4 22:19 27.10.2019
5425 Clouds -22 1020 99 0 0.26 4 21:55 27.10.2019
5426 Clouds -22 1020 99 0 0.26 4 21:37 27.10.2019
5427 Clouds -22 1020 99 0 0.26 4 21:18 27.10.2019
5428 Clouds -22 1020 99 0 0.26 4 20:41 27.10.2019
5429 Clouds -22 1020 99 0 0.48 46 20:23 27.10.2019
5430 Clouds -22 1020 99 0 0.48 46 19:58 27.10.2019
5431 Clouds -22 1020 99 0 0.48 46 19:37 27.10.2019
5432 Clouds -22 1020 99 0 0.48 46 19:19 27.10.2019
5433 Clouds -22 1020 99 0 0.48 46 18:56 27.10.2019
5434 Clouds -22 1020 99 0 0.48 46 18:38 27.10.2019
5435 Clouds -22 1020 99 0 0.48 46 18:20 27.10.2019
5436 Clouds -22 1020 99 0 0.48 46 18:20 27.10.2019
5437 Clouds -22 1020 99 0 0.48 46 17:55 27.10.2019
5438 Clouds -22 1020 99 0 0.48 46 17:36 27.10.2019
5439 Clouds -22 1021 99 0 0.39 73 17:18 27.10.2019
5440 Clouds -22 1021 99 0 0.39 73 16:55 27.10.2019
5441 Clouds -22 1021 99 0 0.39 73 16:37 27.10.2019
5442 Clouds -22 1021 99 0 0.39 73 16:19 27.10.2019
5443 Clouds -22 1021 99 0 0.39 73 15:55 27.10.2019
5444 Clouds -22 1021 99 0 0.39 73 15:37 27.10.2019
5445 Clouds -22 1021 99 0 0.39 73 15:18 27.10.2019
5446 Clouds -22 1021 99 0 0.39 73 14:41 27.10.2019
5447 Clouds -21 1021 99 0 0.34 98 14:20 27.10.2019
5448 Clouds -21 1021 99 0 0.34 98 13:56 27.10.2019
5449 Clouds -21 1021 99 0 0.34 98 13:37 27.10.2019
5450 Clouds -21 1021 99 0 0.37 107 13:19 27.10.2019
5451 Clouds -21 1021 99 0 0.37 107 12:43 27.10.2019
5452 Clouds -21 1021 99 0 0.37 107 12:24 27.10.2019
5453 Clouds -21 1021 99 0 0.37 107 11:56 27.10.2019
5454 Clouds -21 1021 99 0 0.37 107 11:38 27.10.2019
5455 Clouds -20 1021 99 0 0.58 114 11:19 27.10.2019
5456 Clouds -20 1021 99 0 0.58 114 10:42 27.10.2019
5457 Clouds -20 1021 99 0 0.58 114 10:23 27.10.2019
5458 Clouds -20 1021 99 0 0.58 114 09:45 27.10.2019
5459 Clouds -20 1021 99 0 0.58 114 09:20 27.10.2019
5460 Clouds -20 1021 99 0 0.58 114 08:59 27.10.2019
5461 Clouds -20 1021 99 0 0.58 114 08:41 27.10.2019
5462 Clouds -18 1019 98 0 0.52 146 08:21 27.10.2019
5463 Clouds -18 1019 98 0 0.52 146 07:50 27.10.2019
5464 Clouds -18 1019 98 0 0.52 146 07:29 27.10.2019
5465 Clouds -18 1019 98 0 0.52 146 06:59 27.10.2019
5466 Clouds -18 1019 98 0 0.52 146 06:40 27.10.2019
5467 Clouds -18 1019 98 0 0.52 146 06:21 27.10.2019
5468 Clouds -18 1019 98 0 0.52 146 05:38 27.10.2019
5469 Clouds -16 1020 95 0 0.18 152 04:49 27.10.2019
5470 Clouds -16 1020 95 0 0.18 152 02:52 27.10.2019
5471 Clouds -18 1018 98 0 0.71 136 02:19 27.10.2019
5472 Clouds -18 1018 98 0 0.71 136 01:24 27.10.2019
5473 Clouds -18 1018 98 0 0.71 136 00:51 27.10.2019
5474 Clouds -18 1018 98 0 0.71 136 00:29 27.10.2019
5475 Clouds -19 1017 99 0 0.61 131 23:57 26.10.2019
5476 Clouds -19 1017 99 0 0.61 131 23:39 26.10.2019
5477 Clouds -19 1017 99 0 0.61 131 23:21 26.10.2019
5478 Clouds -19 1017 99 0 0.61 131 22:56 26.10.2019
5479 Clouds -19 1017 99 0 0.61 131 22:38 26.10.2019
5480 Clouds -19 1017 99 0 0.61 131 22:19 26.10.2019
5481 Clouds -19 1017 99 0 0.61 131 21:44 26.10.2019
5482 Clouds -18 1016 99 0 0.47 134 21:22 26.10.2019
5483 Clouds -18 1016 99 0 0.47 134 20:59 26.10.2019
5484 Clouds -18 1016 99 0 0.47 134 20:39 26.10.2019
5485 Clouds -18 1016 99 0 0.47 134 20:18 26.10.2019
5486 Clouds -18 1016 99 0 0.47 134 19:42 26.10.2019
5487 Clouds -18 1016 99 0 0.47 134 19:42 26.10.2019
5488 Clouds -18 1016 99 0 0.47 134 19:21 26.10.2019
5489 Clouds -18 1016 99 0 0.47 134 18:57 26.10.2019
5490 Clouds -18 1016 99 0 0.47 134 18:39 26.10.2019
5491 Clouds -17 1016 95 0 0.49 139 18:20 26.10.2019
5492 Clouds -17 1016 95 0 0.49 139 17:57 26.10.2019
5493 Clouds -17 1016 95 0 0.49 139 17:38 26.10.2019
5494 Clouds -17 1016 95 0 0.49 139 17:20 26.10.2019
5495 Clouds -17 1016 95 0 0.49 139 16:45 26.10.2019
5496 Clouds -17 1016 95 0 0.49 139 16:25 26.10.2019
5497 Clouds -17 1016 95 0 0.49 139 15:59 26.10.2019
5498 Clouds -17 1016 95 0 0.49 139 15:39 26.10.2019
5499 Clouds -16 1016 95 0 0.41 98 15:18 26.10.2019
5500 Clouds -16 1016 95 0 0.41 98 14:39 26.10.2019
5501 Snow -16 1015 96 0 0.46 90 14:19 26.10.2019
5502 Snow -16 1015 96 0 0.46 90 13:56 26.10.2019
5503 Snow -16 1015 96 0 0.46 90 13:37 26.10.2019
5504 Snow -16 1015 96 0 0.46 90 13:18 26.10.2019
5505 Snow -16 1015 96 0 0.46 90 12:43 26.10.2019
5506 Snow -16 1015 96 0 0.46 93 12:21 26.10.2019
5507 Snow -16 1015 96 0 0.46 93 11:47 26.10.2019
5508 Snow -16 1015 96 0 0.46 93 11:25 26.10.2019
5509 Snow -16 1015 96 0 0.46 93 10:47 26.10.2019
5510 Snow -16 1015 96 0 0.46 93 10:27 26.10.2019
5511 Snow -16 1015 96 0 0.46 93 09:50 26.10.2019
5512 Snow -16 1015 96 0 0.46 93 09:30 26.10.2019
5513 Snow -15 1015 96 0 0.68 70 08:57 26.10.2019
5514 Snow -15 1015 96 0 0.68 70 08:39 26.10.2019
5515 Snow -15 1015 96 0 0.68 70 08:20 26.10.2019
5516 Snow -15 1015 96 0 0.68 70 07:43 26.10.2019
5517 Snow -15 1015 96 0 0.68 70 07:23 26.10.2019
5518 Snow -15 1015 96 0 0.68 70 06:40 26.10.2019
5519 Snow -15 1016 93 0 0.85 70 05:57 26.10.2019
5520 Snow -15 1016 93 0 0.85 70 05:19 26.10.2019
5521 Snow -15 1016 93 0 0.85 70 03:56 26.10.2019
5522 Snow -16 1018 96 0 0.85 73 02:35 26.10.2019
5523 Snow -16 1018 96 0 0.87 74 01:47 26.10.2019
5524 Snow -16 1018 96 0 0.87 74 00:56 26.10.2019
5525 Snow -17 1019 96 0 1.06 77 23:57 25.10.2019
5526 Snow -17 1019 96 0 1.06 77 23:38 25.10.2019
5527 Snow -17 1019 96 0 1.06 77 23:19 25.10.2019
5528 Snow -17 1019 96 0 1.06 77 22:40 25.10.2019
5529 Snow -17 1019 96 0 1.06 77 22:21 25.10.2019
5530 Snow -17 1019 96 0 1.06 77 21:57 25.10.2019
5531 Snow -17 1019 96 0 1.06 77 21:38 25.10.2019
5532 Clouds -18 1020 94 0 0.9 75 21:19 25.10.2019
5533 Clouds -18 1020 94 0 0.9 75 20:44 25.10.2019
5534 Clouds -18 1020 94 0 0.9 75 20:20 25.10.2019
5535 Clouds -18 1020 94 0 0.9 75 19:56 25.10.2019
5536 Clouds -18 1020 94 0 0.9 75 19:38 25.10.2019
5537 Clouds -18 1020 94 0 0.9 75 19:19 25.10.2019
5538 Clouds -18 1020 94 0 0.9 75 18:43 25.10.2019
5539 Clouds -18 1021 93 0 1.23 72 18:20 25.10.2019
5540 Clouds -18 1021 93 0 1.23 72 17:41 25.10.2019
5541 Clouds -18 1021 93 0 1.23 72 17:20 25.10.2019
5542 Clouds -18 1021 93 0 1.23 72 16:47 25.10.2019
5543 Clouds -18 1021 93 0 1.23 72 16:24 25.10.2019
5544 Clouds -18 1021 93 0 1.23 72 15:58 25.10.2019
5545 Clouds -18 1021 93 0 1.23 72 15:40 25.10.2019
5546 Clouds -18 1022 95 0 1 80 15:21 25.10.2019
5547 Clouds -18 1022 95 0 1 80 14:43 25.10.2019
5548 Clouds -18 1022 96 0 1.03 81 14:24 25.10.2019
5549 Clouds -18 1022 96 0 1.03 81 13:59 25.10.2019
5550 Clouds -18 1022 96 0 1.03 81 13:41 25.10.2019
5551 Clouds -18 1022 96 0 1.03 81 13:22 25.10.2019
5552 Clouds -18 1022 96 0 1.03 81 12:55 25.10.2019
5553 Clouds -18 1022 96 0 1.03 81 12:37 25.10.2019
5554 Clouds -18 1022 97 0 1.17 79 12:18 25.10.2019
5555 Clouds -18 1022 97 0 1.17 79 11:40 25.10.2019
5556 Clouds -18 1022 97 0 1.17 79 11:22 25.10.2019
5557 Clouds -18 1022 97 0 1.17 79 10:55 25.10.2019
5558 Clouds -18 1022 97 0 1.17 79 10:36 25.10.2019
5559 Clouds -18 1022 97 0 1.17 79 10:36 25.10.2019
5560 Clouds -18 1022 97 0 1.17 79 10:18 25.10.2019
5561 Clouds -18 1022 97 0 1.17 79 09:41 25.10.2019
5562 Clouds -17 1023 88 0 1.02 67 09:21 25.10.2019
5563 Clouds -17 1023 88 0 1.02 67 08:57 25.10.2019
5564 Clouds -17 1023 88 0 1.02 67 08:39 25.10.2019
5565 Clouds -17 1023 88 0 1.02 67 08:20 25.10.2019
5566 Clouds -17 1023 88 0 1.02 67 07:45 25.10.2019
5567 Clouds -17 1023 88 0 1.02 67 07:26 25.10.2019
5568 Clouds -17 1023 88 0 1.02 67 06:37 25.10.2019
5569 Clouds -16 1024 84 0 0.92 76 05:49 25.10.2019
5570 Clouds -16 1024 84 0 0.92 76 05:28 25.10.2019
5571 Clouds -16 1024 84 0 0.92 76 04:30 25.10.2019
5572 Clouds -19 1026 88 0 0.73 72 02:42 25.10.2019
5573 Clear -20 1026 89 0 0.75 77 01:52 25.10.2019
5574 Clear -20 1026 89 0 0.75 77 00:36 25.10.2019
5575 Clear -21 1026 92 0 0.74 83 23:55 24.10.2019
5576 Clear -21 1026 92 0 0.74 83 23:36 24.10.2019
5577 Clear -21 1026 92 0 0.74 83 23:18 24.10.2019
5578 Clear -21 1026 92 0 0.74 83 22:39 24.10.2019
5579 Clear -21 1026 92 0 0.74 83 22:19 24.10.2019
5580 Clear -21 1026 92 0 0.74 83 21:58 24.10.2019
5581 Clouds -21 1026 90 0 0.72 87 21:40 24.10.2019
5582 Clear -20 1026 89 0 0.87 84 21:20 24.10.2019
5583 Clear -20 1026 89 0 0.87 84 20:59 24.10.2019
5584 Clear -20 1026 89 0 0.87 84 20:39 24.10.2019
5585 Clear -20 1026 89 0 0.87 84 20:21 24.10.2019
5586 Clear -20 1026 89 0 0.87 84 19:58 24.10.2019
5587 Clear -20 1026 89 0 0.87 84 19:40 24.10.2019
5588 Clear -20 1026 89 0 0.87 84 19:22 24.10.2019
5589 Clear -20 1026 89 0 0.87 84 18:56 24.10.2019
5590 Clear -20 1026 89 0 0.87 84 18:38 24.10.2019
5591 Clear -20 1027 88 0 0.99 98 18:19 24.10.2019
5592 Clear -20 1027 88 0 0.99 98 17:42 24.10.2019
5593 Clear -20 1027 88 0 0.99 98 17:21 24.10.2019
5594 Clear -20 1027 88 0 0.99 98 16:58 24.10.2019
5595 Clear -20 1027 88 0 0.99 98 16:40 24.10.2019
5596 Clear -20 1027 88 0 0.99 98 16:22 24.10.2019
5597 Clear -20 1027 88 0 0.99 98 15:58 24.10.2019
5598 Clear -20 1027 88 0 0.99 98 15:58 24.10.2019
5599 Clear -20 1027 88 0 0.99 98 15:40 24.10.2019
5600 Clear -19 1027 88 0 0.67 100 15:22 24.10.2019
5601 Clear -19 1027 88 0 0.67 100 15:22 24.10.2019
5602 Clear -19 1027 88 0 0.67 100 14:58 24.10.2019
5603 Clear -19 1027 88 0 0.67 100 14:58 24.10.2019
5604 Clear -19 1027 88 0 0.73 97 14:40 24.10.2019
5605 Clear -19 1027 88 0 0.73 97 14:20 24.10.2019
5606 Clear -19 1027 88 0 0.73 97 13:42 24.10.2019
5607 Clear -19 1027 88 0 0.73 97 13:20 24.10.2019
5608 Clear -19 1027 88 0 0.73 97 12:58 24.10.2019
5609 Clear -19 1027 88 0 0.73 97 12:40 24.10.2019
5610 Clear -19 1027 87 0 0.91 89 12:20 24.10.2019
5611 Clear -19 1027 87 0 0.91 89 11:57 24.10.2019
5612 Clear -19 1027 87 0 0.91 89 11:38 24.10.2019
5613 Clear -19 1027 87 0 0.91 89 11:20 24.10.2019
5614 Clear -19 1027 87 0 0.91 89 10:59 24.10.2019
5615 Clear -19 1027 87 0 0.91 89 10:39 24.10.2019
5616 Clear -19 1027 87 0 0.91 89 10:21 24.10.2019
5617 Clear -19 1027 87 0 0.91 89 09:39 24.10.2019
5618 Clear -19 1027 87 0 0.91 89 09:39 24.10.2019
5619 Clouds -17 1028 86 0 0.87 92 09:19 24.10.2019
5620 Clouds -17 1028 86 0 0.87 92 08:55 24.10.2019
5621 Clouds -17 1028 86 0 0.87 92 08:37 24.10.2019
5622 Clouds -17 1028 86 0 0.87 92 08:18 24.10.2019
5623 Clouds -17 1028 86 0 0.87 92 07:45 24.10.2019
5624 Clouds -17 1028 86 0 0.87 92 07:22 24.10.2019
5625 Clouds -17 1028 86 0 0.87 92 06:47 24.10.2019
5626 Clouds -17 1028 86 0 0.87 92 06:24 24.10.2019
5627 Clouds -15 1028 82 0 0.81 100 05:50 24.10.2019
5628 Clouds -15 1028 82 0 0.81 100 05:29 24.10.2019
5629 Clouds -15 1028 82 0 0.81 100 03:39 24.10.2019
5630 Clouds -18 1030 87 0 0.76 126 03:19 24.10.2019
5631 Clouds -18 1029 87 0 0.76 135 02:29 24.10.2019
5632 Clouds -18 1029 87 0 0.76 135 01:54 24.10.2019
5633 Clouds -18 1029 87 0 0.76 135 01:29 24.10.2019
5634 Clouds -18 1029 87 0 0.76 135 00:47 24.10.2019
5635 Clouds -18 1030 89 0 0.81 144 00:23 24.10.2019
5636 Clouds -18 1030 89 0 0.81 144 23:44 23.10.2019
5637 Clouds -18 1030 89 0 0.81 144 23:24 23.10.2019
5638 Clouds -18 1030 89 0 0.81 144 22:57 23.10.2019
5639 Clouds -18 1030 89 0 0.81 144 22:38 23.10.2019
5640 Clouds -18 1030 89 0 0.81 144 22:19 23.10.2019
5641 Clouds -18 1030 89 0 0.81 144 21:58 23.10.2019
5642 Clouds -19 1030 86 0 0.84 146 21:39 23.10.2019
5643 Clouds -18 1030 85 0 0.95 150 21:20 23.10.2019
5644 Clouds -18 1030 85 0 0.95 150 20:58 23.10.2019
5645 Clouds -18 1030 85 0 0.95 150 20:39 23.10.2019
5646 Clouds -18 1030 85 0 0.95 150 20:21 23.10.2019
5647 Clouds -18 1030 85 0 0.95 150 19:58 23.10.2019
5648 Clouds -18 1030 85 0 0.95 150 19:40 23.10.2019
5649 Clouds -18 1030 85 0 0.95 150 19:19 23.10.2019
5650 Clouds -18 1030 85 0 0.95 150 18:56 23.10.2019
5651 Clouds -18 1030 85 0 0.95 150 18:38 23.10.2019
5652 Clouds -17 1030 85 0 1.12 165 18:18 23.10.2019
5653 Clouds -17 1030 85 0 1.12 165 17:45 23.10.2019
5654 Clouds -17 1030 85 0 1.12 165 17:21 23.10.2019
5655 Clouds -17 1030 85 0 1.12 165 16:58 23.10.2019
5656 Clouds -17 1030 85 0 1.12 165 16:58 23.10.2019
5657 Clouds -17 1030 85 0 1.12 165 16:40 23.10.2019
5658 Clouds -17 1030 85 0 1.12 165 16:20 23.10.2019
5659 Clouds -17 1030 85 0 1.12 165 16:20 23.10.2019
5660 Clouds -17 1030 85 0 1.12 165 15:54 23.10.2019
5661 Clouds -17 1030 85 0 1.12 165 15:36 23.10.2019
5662 Clouds -15 1030 85 0 0.51 119 15:18 23.10.2019
5663 Clouds -15 1030 85 0 0.51 119 14:54 23.10.2019
5664 Clouds -15 1030 86 0 0.5 105 14:36 23.10.2019
5665 Clouds -15 1030 86 0 0.5 105 14:18 23.10.2019
5666 Clouds -15 1030 86 0 0.5 105 13:42 23.10.2019
5667 Clouds -15 1030 86 0 0.5 105 13:23 23.10.2019
5668 Clouds -15 1030 86 0 0.5 105 12:56 23.10.2019
5669 Clouds -15 1030 86 0 0.5 105 12:38 23.10.2019
5670 Clouds -15 1029 86 0 0.44 100 12:18 23.10.2019
5671 Clouds -15 1029 86 0 0.44 100 11:57 23.10.2019
5672 Clouds -15 1029 86 0 0.44 100 11:39 23.10.2019
5673 Clouds -15 1029 86 0 0.44 100 11:39 23.10.2019
5674 Clouds -15 1029 86 0 0.44 100 11:20 23.10.2019
5675 Clouds -15 1029 86 0 0.44 100 10:46 23.10.2019
5676 Clouds -15 1029 86 0 0.44 100 10:26 23.10.2019
5677 Clouds -15 1029 86 0 0.44 100 09:57 23.10.2019
5678 Clouds -15 1029 86 0 0.44 100 09:38 23.10.2019
5679 Clouds -15 1029 86 0 0.44 100 09:38 23.10.2019
5680 Clouds -14 1027 86 0 0.59 128 09:20 23.10.2019
5681 Clouds -14 1027 86 0 0.59 128 08:43 23.10.2019
5682 Clouds -14 1027 86 0 0.59 128 08:25 23.10.2019
5683 Clouds -14 1027 86 0 0.59 128 07:47 23.10.2019
5684 Clouds -14 1027 86 0 0.59 128 07:25 23.10.2019
5685 Clouds -14 1027 86 0 0.59 128 06:48 23.10.2019
5686 Clouds -13 1026 82 0 0.3 308 06:23 23.10.2019
5687 Clouds -13 1026 82 0 0.3 308 05:55 23.10.2019
5688 Clouds -13 1026 82 0 0.3 308 05:18 23.10.2019
5689 Clouds -13 1026 82 0 0.3 308 03:36 23.10.2019
5690 Clouds -16 1025 85 0 0.39 165 02:41 23.10.2019
5691 Clouds -16 1025 85 0 0.39 165 02:41 23.10.2019
5692 Clouds -16 1025 85 0 0.39 165 01:34 23.10.2019
5693 Clouds -16 1025 85 0 0.39 165 00:59 23.10.2019
5694 Clouds -16 1025 85 0 0.39 165 00:32 23.10.2019
5695 Clouds -17 1024 86 0 0.34 358 23:42 22.10.2019
5696 Clouds -17 1024 86 0 0.34 358 23:19 22.10.2019
5697 Clouds -17 1024 86 0 0.34 358 22:59 22.10.2019
5698 Clouds -17 1024 86 0 0.34 358 22:40 22.10.2019
5699 Clouds -17 1024 86 0 0.34 358 22:21 22.10.2019
5700 Clouds -17 1024 86 0 0.34 358 21:56 22.10.2019
5701 Clouds -17 1024 86 0 0.34 358 21:38 22.10.2019
5702 Clouds -17 1022 86 0 0.35 148 21:19 22.10.2019
5703 Clouds -17 1022 86 0 0.35 148 20:58 22.10.2019
5704 Clouds -17 1022 86 0 0.35 148 20:40 22.10.2019
5705 Clouds -17 1022 86 0 0.35 148 20:21 22.10.2019
5706 Clouds -17 1022 86 0 0.35 148 19:55 22.10.2019
5707 Clouds -17 1022 86 0 0.35 148 19:37 22.10.2019
5708 Clouds -17 1022 86 0 0.35 148 19:19 22.10.2019
5709 Clouds -17 1022 86 0 0.35 148 18:54 22.10.2019
5710 Clouds -17 1022 86 0 0.35 148 18:36 22.10.2019
5711 Clouds -17 1021 86 0 0.13 125 18:18 22.10.2019
5712 Clouds -17 1021 86 0 0.13 125 17:39 22.10.2019
5713 Clouds -17 1021 86 0 0.13 125 17:20 22.10.2019
5714 Clouds -17 1021 86 0 0.13 125 16:59 22.10.2019
5715 Clouds -17 1021 86 0 0.13 125 16:39 22.10.2019
5716 Clouds -17 1021 86 0 0.13 125 16:39 22.10.2019
5717 Clouds -17 1021 86 0 0.13 125 16:39 22.10.2019
5718 Clouds -17 1021 86 0 0.13 125 16:20 22.10.2019
5719 Clouds -17 1021 86 0 0.13 125 16:20 22.10.2019
5720 Clouds -17 1021 86 0 0.13 125 15:58 22.10.2019
5721 Clouds -17 1021 86 0 0.13 125 15:40 22.10.2019
5722 Clouds -16 1021 86 0 0.29 126 15:19 22.10.2019
5723 Clouds -16 1021 86 0 0.29 126 14:46 22.10.2019
5724 Clouds -16 1021 86 0 0.4 134 14:21 22.10.2019
5725 Clouds -16 1021 86 0 0.4 134 13:54 22.10.2019
5726 Clouds -16 1021 86 0 0.4 134 13:36 22.10.2019
5727 Clouds -16 1021 86 0 0.4 134 13:18 22.10.2019
5728 Clouds -16 1021 86 0 0.4 134 12:41 22.10.2019
5729 Clear -15 1020 86 0 0.31 81 12:22 22.10.2019
5730 Clear -15 1020 86 0 0.31 81 11:59 22.10.2019
5731 Clear -15 1020 86 0 0.31 81 11:39 22.10.2019
5732 Clear -15 1020 86 0 0.31 81 11:21 22.10.2019
5733 Clear -15 1020 86 0 0.31 81 11:21 22.10.2019
5734 Clear -15 1020 86 0 0.31 81 10:58 22.10.2019
5735 Clear -15 1020 86 0 0.31 81 10:37 22.10.2019
5736 Clear -15 1020 86 0 0.31 81 10:37 22.10.2019
5737 Clear -15 1020 86 0 0.31 81 10:19 22.10.2019
5738 Clear -15 1020 86 0 0.31 81 09:55 22.10.2019
5739 Clear -15 1020 86 0 0.31 81 09:37 22.10.2019
5740 Clouds -13 1019 84 0 0.74 102 09:19 22.10.2019
5741 Clouds -13 1019 84 0 0.74 102 08:43 22.10.2019
5742 Clouds -13 1019 84 0 0.74 102 08:22 22.10.2019
5743 Clouds -13 1019 84 0 0.74 102 07:50 22.10.2019
5744 Clouds -13 1019 84 0 0.74 102 07:29 22.10.2019
5745 Clouds -13 1019 84 0 0.74 102 06:52 22.10.2019
5746 Clouds -13 1019 84 0 0.74 102 06:31 22.10.2019
5747 Clouds -11 1020 80 0 0.45 155 05:59 22.10.2019
5748 Clouds -11 1020 80 0 0.45 155 05:24 22.10.2019
5749 Clear -15 1020 84 0 0.84 192 03:19 22.10.2019
5750 Clear -15 1020 84 0 0.84 191 02:28 22.10.2019
5751 Clear -15 1020 84 0 0.84 191 01:31 22.10.2019
5752 Clear -15 1020 84 0 0.84 191 00:58 22.10.2019
5753 Clear -15 1020 84 0 0.84 191 00:40 22.10.2019
5754 Clear -16 1020 88 0 0.75 171 00:21 22.10.2019
5755 Clear -16 1020 88 0 0.75 171 23:56 21.10.2019
5756 Clear -16 1020 88 0 0.75 171 23:37 21.10.2019
5757 Clear -16 1020 88 0 0.75 171 23:18 21.10.2019
5758 Clear -16 1020 88 0 0.75 171 22:57 21.10.2019
5759 Clear -16 1020 88 0 0.75 171 22:38 21.10.2019
5760 Clear -16 1020 88 0 0.75 171 22:19 21.10.2019
5761 Clear -16 1020 88 0 0.75 171 21:55 21.10.2019
5762 Clear -16 1020 88 0 0.75 171 21:55 21.10.2019
5763 Clear -16 1020 90 0 0.84 173 21:37 21.10.2019
5764 Clear -15 1020 89 0 1.11 177 21:19 21.10.2019
5765 Clear -15 1020 89 0 1.11 177 20:56 21.10.2019
5766 Clear -15 1020 89 0 1.11 177 20:37 21.10.2019
5767 Clear -15 1020 89 0 1.11 177 20:19 21.10.2019
5768 Clear -15 1020 89 0 1.11 177 19:41 21.10.2019
5769 Clear -15 1020 89 0 1.11 177 19:22 21.10.2019
5770 Clear -15 1020 89 0 1.11 177 18:57 21.10.2019
5771 Clear -15 1020 89 0 1.11 177 18:39 21.10.2019
5772 Clear -15 1020 89 0 1.11 177 18:39 21.10.2019
5773 Clear -15 1021 89 0 0.85 190 18:19 21.10.2019
5774 Clear -15 1021 89 0 0.85 190 18:19 21.10.2019
5775 Clear -15 1021 89 0 0.85 190 18:19 21.10.2019
5776 Clear -15 1021 89 0 0.85 190 17:59 21.10.2019
5777 Clear -15 1021 89 0 0.85 190 17:38 21.10.2019
5778 Clear -15 1021 89 0 0.85 190 17:19 21.10.2019
5779 Clear -15 1021 89 0 0.85 190 16:58 21.10.2019
5780 Clear -15 1021 89 0 0.85 190 16:40 21.10.2019
5781 Clear -15 1021 89 0 0.85 190 16:21 21.10.2019
5782 Clear -15 1021 89 0 0.85 190 15:47 21.10.2019
5783 Clear -15 1021 89 0 0.85 190 15:27 21.10.2019
5784 Clear -14 1021 89 0 0.85 205 14:59 21.10.2019
5785 Clear -14 1021 89 0 0.85 205 14:59 21.10.2019
5786 Clear -14 1021 90 0 0.94 201 14:40 21.10.2019
5787 Clear -14 1021 90 0 0.94 201 14:21 21.10.2019
5788 Clear -14 1021 90 0 0.94 201 13:57 21.10.2019
5789 Clear -14 1021 90 0 0.94 201 13:39 21.10.2019
5790 Clear -14 1021 90 0 0.94 201 13:20 21.10.2019
5791 Clear -14 1021 90 0 0.94 201 12:57 21.10.2019
5792 Clear -14 1021 90 0 0.94 201 12:39 21.10.2019
5793 Clear -14 1021 90 0 0.94 201 12:39 21.10.2019
5794 Clear -14 1020 94 0 0.68 172.002 12:19 21.10.2019
5795 Clear -14 1020 94 0 0.68 172.002 11:40 21.10.2019
5796 Clear -14 1020 94 0 0.68 172.002 11:22 21.10.2019
5797 Clear -14 1020 94 0 0.68 172.002 10:58 21.10.2019
5798 Clear -14 1020 94 0 0.68 172.002 10:40 21.10.2019
5799 Clear -14 1020 94 0 0.68 172.002 10:19 21.10.2019
5800 Clear -14 1020 94 0 0.68 172.002 09:57 21.10.2019
5801 Clear -14 1020 94 0 0.68 172.002 09:37 21.10.2019
5802 Clouds -11 1019 92 0 0.56 160.096 09:19 21.10.2019
5803 Clouds -12 1019 94 0 0.6 172.474 08:40 21.10.2019
5804 Clouds -12 1019 94 0 0.6 172.474 08:22 21.10.2019
5805 Clouds -12 1019 94 0 0.6 172.474 07:45 21.10.2019
5806 Clouds -12 1019 94 0 0.6 172.474 07:23 21.10.2019
5807 Clouds -12 1019 94 0 0.6 172.474 06:59 21.10.2019
5808 Clouds -12 1019 94 0 0.6 172.474 06:41 21.10.2019
5809 Clouds -10 1020 93 0 0.67 227.68 06:18 21.10.2019
5810 Clouds -10 1020 93 0 0.67 227.68 05:21 21.10.2019
5811 Clouds -10 1020 93 0 0.67 227.68 03:39 21.10.2019
5812 Clouds -12 1020 96 0 0.49 253.111 02:39 21.10.2019
5813 Clouds -12 1020 96 0 0.49 253.111 02:19 21.10.2019
5814 Clouds -12 1020 96 0 0.49 253.111 02:19 21.10.2019
5815 Clouds -12 1020 96 0 0.49 253.111 01:44 21.10.2019
5816 Clouds -12 1020 96 0 0.48 263.157 00:52 21.10.2019
5817 Clouds -12 1020 96 0 0.48 263.157 00:28 21.10.2019
5818 Clouds -12 1020 96 0 0.48 263.157 00:28 21.10.2019
5819 Clouds -13 1020 99 0 0.19 164.097 23:58 20.10.2019
5820 Clouds -13 1020 99 0 0.19 164.097 23:39 20.10.2019
5821 Clouds -13 1020 99 0 0.19 164.097 23:21 20.10.2019
5822 Clouds -13 1020 99 0 0.19 164.097 22:42 20.10.2019
5823 Clouds -13 1020 99 0 0.19 164.097 22:24 20.10.2019
5824 Clouds -13 1020 99 0 0.19 164.097 22:24 20.10.2019
5825 Clouds -13 1020 99 0 0.19 164.097 22:24 20.10.2019
5826 Clouds -13 1020 99 0 0.19 164.097 21:59 20.10.2019
5827 Clouds -13 1020 99 0 0.19 164.097 21:40 20.10.2019
5828 Clouds -12 1019 98 0 0.51 262.443 21:22 20.10.2019
5829 Clouds -12 1019 98 0 0.51 262.443 21:22 20.10.2019
5830 Clouds -13 1020 98 0 0.49 238.118 20:56 20.10.2019
5831 Clouds -13 1020 98 0 0.49 238.118 20:38 20.10.2019
5832 Clouds -13 1020 98 0 0.49 238.118 20:18 20.10.2019
5833 Clouds -13 1020 98 0 0.49 238.118 19:55 20.10.2019
5834 Clouds -13 1020 98 0 0.49 238.118 19:37 20.10.2019
5835 Clouds -13 1020 98 0 0.49 238.118 19:18 20.10.2019
5836 Clouds -13 1020 98 0 0.49 238.118 18:40 20.10.2019
5837 Clouds -12 1020 98 0 0.27 299.533 18:22 20.10.2019
5838 Clouds -12 1020 98 0 0.27 299.533 17:57 20.10.2019
5839 Clouds -12 1020 98 0 0.27 299.533 17:39 20.10.2019
5840 Clouds -12 1020 98 0 0.27 299.533 17:20 20.10.2019
5841 Clouds -12 1020 98 0 0.27 299.533 16:55 20.10.2019
5842 Clouds -12 1020 98 0 0.27 299.533 16:36 20.10.2019
5843 Clouds -12 1020 98 0 0.27 299.533 16:18 20.10.2019
5844 Clouds -12 1020 98 0 0.27 299.533 15:40 20.10.2019
5845 Clouds -10 1019 97 0 0.58 304.154 15:21 20.10.2019
5846 Clouds -10 1019 97 0 0.58 304.154 14:59 20.10.2019
5847 Clouds -10 1019 97 0 0.58 304.154 14:38 20.10.2019
5848 Clouds -10 1019 97 0 0.58 304.154 14:19 20.10.2019
5849 Clouds -10 1019 97 0 0.58 304.154 13:56 20.10.2019
5850 Clouds -10 1019 97 0 0.58 304.154 13:37 20.10.2019
5851 Clouds -10 1018 96 0 0.74 318.322 13:19 20.10.2019
5852 Clouds -10 1018 96 0 0.74 318.322 12:57 20.10.2019
5853 Clouds -10 1018 96 0 0.74 318.322 12:39 20.10.2019
5854 Clouds -9 1017 94 0 0.44 27.087 12:21 20.10.2019
5855 Clouds -9 1017 94 0 0.44 27.087 11:59 20.10.2019
5856 Clouds -9 1017 94 0 0.44 27.087 11:40 20.10.2019
5857 Clouds -9 1017 94 0 0.44 27.087 11:21 20.10.2019
5858 Clouds -9 1017 94 0 0.44 27.087 10:57 20.10.2019
5859 Clouds -9 1017 94 0 0.44 27.087 10:37 20.10.2019
5860 Clouds -9 1017 94 0 0.44 27.087 10:18 20.10.2019
5861 Clouds -9 1017 94 0 0.44 27.087 09:43 20.10.2019
5862 Clouds -7 1015 94 0 0.75 1.833 09:22 20.10.2019
5863 Clouds -8 1016 92 0 0.96 356.602 08:56 20.10.2019
5864 Clouds -8 1016 92 0 0.96 356.602 08:37 20.10.2019
5865 Clouds -8 1016 92 0 0.96 356.602 08:18 20.10.2019
5866 Clouds -8 1016 92 0 0.96 356.602 07:43 20.10.2019
5867 Clouds -8 1016 92 0 0.96 356.602 07:24 20.10.2019
5868 Clouds -8 1016 92 0 0.96 356.602 07:24 20.10.2019
5869 Clouds -8 1016 92 0 0.96 356.602 07:24 20.10.2019
5870 Clouds -8 1016 92 0 0.96 356.602 06:26 20.10.2019
5871 Clouds -7 1015 90 0 0.56 323.438 04:28 20.10.2019
5872 Clouds -7 1015 90 0 0.56 323.438 03:49 20.10.2019
5873 Clouds -9 1014 94 0 0.55 277.253 03:22 20.10.2019
5874 Clouds -9 1014 94 0 0.55 277.253 02:46 20.10.2019
5875 Clouds -9 1014 94 0 0.55 277.253 02:18 20.10.2019
5876 Clouds -9 1014 94 0 0.55 277.253 01:45 20.10.2019
5877 Clouds -9 1013 94 0 0.5 235.521 01:19 20.10.2019
5878 Clouds -9 1013 94 0 0.5 235.521 00:47 20.10.2019
5879 Clouds -9 1013 94 0 0.5 235.521 00:47 20.10.2019
5880 Clouds -9 1012 95 0 0.39 238.026 00:20 20.10.2019
5881 Clouds -9 1012 95 0 0.39 238.026 23:44 19.10.2019
5882 Clouds -9 1012 95 0 0.39 238.026 23:24 19.10.2019
5883 Clouds -9 1012 95 0 0.39 238.026 22:59 19.10.2019
5884 Clouds -9 1012 95 0 0.39 238.026 22:40 19.10.2019
5885 Clouds -9 1012 95 0 0.39 238.026 22:20 19.10.2019
5886 Clouds -9 1012 95 0 0.39 238.026 21:54 19.10.2019
5887 Clouds -9 1012 95 0 0.39 238.026 21:36 19.10.2019
5888 Clouds -9 1010 95 0 1.15 247.514 21:18 19.10.2019
5889 Clouds -9 1010 95 0 1.24 240.519 20:41 19.10.2019
5890 Clouds -9 1010 95 0 1.24 240.519 20:20 19.10.2019
5891 Clouds -9 1010 95 0 1.24 240.519 19:41 19.10.2019
5892 Clouds -9 1010 95 0 1.24 240.519 19:23 19.10.2019
5893 Clouds -9 1010 95 0 1.24 240.519 18:55 19.10.2019
5894 Clouds -9 1010 95 0 1.24 240.519 18:37 19.10.2019
5895 Clouds -7 1010 96 0 0.98 286.26 18:18 19.10.2019
5896 Clouds -7 1010 96 0 0.98 286.26 17:41 19.10.2019
5897 Clouds -7 1010 96 0 0.98 286.26 17:21 19.10.2019
5898 Clouds -7 1010 96 0 0.98 286.26 17:21 19.10.2019
5899 Clouds -7 1010 96 0 0.98 286.26 16:56 19.10.2019
5900 Clouds -7 1010 96 0 0.98 286.26 16:37 19.10.2019
5901 Clouds -7 1010 96 0 0.98 286.26 16:18 19.10.2019
5902 Clouds -7 1010 96 0 0.98 286.26 15:41 19.10.2019
5903 Clouds -7 1010 96 0 0.96 6.881 15:23 19.10.2019
5904 Clouds -7 1010 96 0 0.96 6.881 14:39 19.10.2019
5905 Clouds -7 1010 96 0 0.96 6.881 14:20 19.10.2019
5906 Clouds -7 1010 96 0 0.96 6.881 13:58 19.10.2019
5907 Clouds -7 1010 96 0 0.96 6.881 13:39 19.10.2019
5908 Clouds -6 1010 96 0 1.01 13.664 13:19 19.10.2019
5909 Clouds -6 1010 96 0 1.01 13.664 12:56 19.10.2019
5910 Clouds -6 1010 96 0 1.01 13.664 12:37 19.10.2019
5911 Clouds -6 1012 96 0 1.44 17.185 12:18 19.10.2019
5912 Clouds -6 1012 96 0 1.44 17.185 11:41 19.10.2019
5913 Clouds -6 1012 96 0 1.44 17.185 11:23 19.10.2019
5914 Clouds -6 1012 96 0 1.44 17.185 10:56 19.10.2019
5915 Clouds -6 1012 96 0 1.44 17.185 10:38 19.10.2019
5916 Clouds -6 1012 96 0 1.44 17.185 10:20 19.10.2019
5917 Clouds -6 1012 96 0 1.44 17.185 09:42 19.10.2019
5918 Clouds -6 1012 96 0 1.44 17.185 09:24 19.10.2019
5919 Clouds -6 1014 94 0 1.71 49.886 08:59 19.10.2019
5920 Clouds -6 1014 94 0 1.71 49.886 08:59 19.10.2019
5921 Clouds -6 1014 94 0 1.71 49.886 08:59 19.10.2019
5922 Clouds -6 1014 94 0 1.71 49.886 08:40 19.10.2019
5923 Clouds -6 1014 94 0 1.71 49.886 08:21 19.10.2019
5924 Clouds -6 1014 94 0 1.71 49.886 07:44 19.10.2019
5925 Clouds -6 1014 94 0 1.71 49.886 07:25 19.10.2019
5926 Clouds -6 1014 94 0 1.71 49.886 06:47 19.10.2019
5927 Clouds -6 1014 94 0 1.71 49.886 06:26 19.10.2019
5928 Clouds -6 1014 94 0 1.71 49.886 06:26 19.10.2019
5929 Clouds -6 1016 90 0 1.52 62.056 05:33 19.10.2019
5930 Clouds -6 1016 90 0 1.52 62.056 04:23 19.10.2019
5931 Clouds -7 1016 95 0 1.17 49.905 02:47 19.10.2019
5932 Clouds -7 1016 95 0 1.17 49.905 01:53 19.10.2019
5933 Clouds -7 1016 95 0 1.17 49.905 01:33 19.10.2019
5934 Clouds -7 1015 95 0 1.03 50.302 00:49 19.10.2019
5935 Clouds -7 1015 95 0 1.03 50.302 00:27 19.10.2019
5936 Clouds -7 1016 96 0 1.34 39.926 23:56 18.10.2019
5937 Clouds -7 1016 96 0 1.34 39.926 23:36 18.10.2019
5938 Clouds -7 1016 96 0 1.34 39.926 23:18 18.10.2019
5939 Clouds -7 1016 96 0 1.34 39.926 22:43 18.10.2019
5940 Clouds -7 1016 96 0 1.34 39.926 22:43 18.10.2019
5941 Clouds -7 1016 96 0 1.34 39.926 22:21 18.10.2019
5942 Clouds -7 1016 96 0 1.34 39.926 21:59 18.10.2019
5943 Clouds -7 1016 96 0 1.34 39.926 21:59 18.10.2019
5944 Clouds -7 1016 96 0 1.34 39.926 21:39 18.10.2019
5945 Clouds -7 1015 96 0 0.63 73.904 21:20 18.10.2019
5946 Clouds -7 1015 96 0 0.63 73.904 20:59 18.10.2019
5947 Clouds -7 1015 96 0 0.63 73.904 20:41 18.10.2019
5948 Clouds -7 1015 96 0 0.63 73.904 20:22 18.10.2019
5949 Clouds -7 1015 96 0 0.63 73.904 19:58 18.10.2019
5950 Clouds -7 1015 96 0 0.63 73.904 19:39 18.10.2019
5951 Clouds -7 1015 96 0 0.63 73.904 19:21 18.10.2019
5952 Clouds -7 1015 96 0 0.63 73.904 18:57 18.10.2019
5953 Clouds -7 1015 96 0 0.63 73.904 18:39 18.10.2019
5954 Clouds -6 1015 95 0 0.89 77.527 18:20 18.10.2019
5955 Clouds -6 1015 95 0 0.89 77.527 18:20 18.10.2019
5956 Clouds -6 1015 95 0 0.89 77.527 17:39 18.10.2019
5957 Clouds -6 1015 95 0 0.89 77.527 17:21 18.10.2019
5958 Clouds -6 1015 95 0 0.89 77.527 16:59 18.10.2019
5959 Clouds -6 1015 95 0 0.89 77.527 16:38 18.10.2019
5960 Clouds -6 1015 95 0 0.89 77.527 16:38 18.10.2019
5961 Clouds -6 1015 95 0 0.89 77.527 16:19 18.10.2019
5962 Clouds -6 1015 95 0 0.89 77.527 15:54 18.10.2019
5963 Clouds -6 1015 95 0 0.89 77.527 15:54 18.10.2019
5964 Clouds -6 1015 95 0 0.89 77.527 15:36 18.10.2019
5965 Clouds -6 1014 95 0 1.24 51.861 15:18 18.10.2019
5966 Clouds -6 1014 95 0 1.24 51.861 14:56 18.10.2019
5967 Clouds -6 1014 95 0 1.24 51.861 14:38 18.10.2019
5968 Clouds -6 1014 95 0 1.24 51.861 14:18 18.10.2019
5969 Clouds -6 1014 95 0 1.24 51.861 13:42 18.10.2019
5970 Clouds -6 1014 95 0 1.14 45.106 13:23 18.10.2019
5971 Clouds -6 1014 95 0 1.14 45.106 12:58 18.10.2019
5972 Clouds -6 1014 95 0 1.14 45.106 12:39 18.10.2019
5973 Clouds -6 1014 94 0 1.05 63.337 12:21 18.10.2019
5974 Clouds -6 1014 94 0 1.05 63.337 11:57 18.10.2019
5975 Clouds -6 1014 94 0 1.05 63.337 11:39 18.10.2019
5976 Clouds -6 1014 94 0 1.05 63.337 11:20 18.10.2019
5977 Clouds -6 1014 94 0 1.05 63.337 10:56 18.10.2019
5978 Clouds -6 1014 94 0 1.05 63.337 10:38 18.10.2019
5979 Clouds -6 1014 94 0 1.05 63.337 10:19 18.10.2019
5980 Clouds -6 1014 94 0 1.05 63.337 09:55 18.10.2019
5981 Clouds -6 1014 94 0 1.05 63.337 09:37 18.10.2019
5982 Clouds -6 1013 92 0 0.86 102.239 09:18 18.10.2019
5983 Clouds -6 1013 92 0 0.86 102.239 08:42 18.10.2019
5984 Clouds -6 1013 92 0 0.86 102.239 08:24 18.10.2019
5985 Clouds -6 1013 92 0 0.86 102.239 07:51 18.10.2019
5986 Clouds -6 1013 92 0 0.86 102.239 07:30 18.10.2019
5987 Clouds -6 1013 92 0 0.86 102.239 06:42 18.10.2019
5988 Clouds -5 1013 88 0 1.13 122.89 06:23 18.10.2019
5989 Clouds -5 1013 88 0 1.13 122.89 05:59 18.10.2019
5990 Clouds -5 1013 88 0 1.13 122.89 05:24 18.10.2019
5991 Clouds -5 1013 88 0 1.13 122.89 04:56 18.10.2019
5992 Clouds -5 1013 88 0 1.13 122.89 03:34 18.10.2019
5993 Clouds -6 1013 93 0 0.62 99.523 02:50 18.10.2019
5994 Clouds -6 1013 93 0 0.62 99.523 02:32 18.10.2019
5995 Clouds -6 1013 93 0 0.62 99.523 01:38 18.10.2019
5996 Clouds -6 1012 93 0 0.46 73.645 00:56 18.10.2019
5997 Clouds -6 1012 93 0 0.46 73.645 00:38 18.10.2019
5998 Clouds -7 1012 95 0 0.62 65.418 00:18 18.10.2019
5999 Clouds -7 1012 95 0 0.62 65.418 23:38 17.10.2019
6000 Clouds -7 1012 95 0 0.62 65.418 23:19 17.10.2019
6001 Clouds -7 1012 95 0 0.62 65.418 22:56 17.10.2019
6002 Clouds -7 1012 95 0 0.62 65.418 22:38 17.10.2019
6003 Clouds -7 1012 95 0 0.62 65.418 22:19 17.10.2019
6004 Clouds -7 1012 95 0 0.62 65.418 21:56 17.10.2019
6005 Clouds -7 1012 95 0 0.62 65.418 21:38 17.10.2019
6006 Clouds -7 1010 96 0 1.64 33.554 21:20 17.10.2019
6007 Clouds -8 1011 95 0 1.75 27.079 20:57 17.10.2019
6008 Clouds -8 1011 95 0 1.75 27.079 20:39 17.10.2019
6009 Clouds -8 1011 95 0 1.75 27.079 20:39 17.10.2019
6010 Clouds -8 1011 95 0 1.75 27.079 20:19 17.10.2019
6011 Clouds -8 1011 95 0 1.75 27.079 19:57 17.10.2019
6012 Clouds -8 1011 95 0 1.75 27.079 19:38 17.10.2019
6013 Clouds -8 1011 95 0 1.75 27.079 19:19 17.10.2019
6014 Clouds -8 1011 95 0 1.75 27.079 18:43 17.10.2019
6015 Clouds -7 1009 93 0 1.58 51.312 18:21 17.10.2019
6016 Clouds -7 1009 93 0 1.58 51.312 17:58 17.10.2019
6017 Clouds -8 1009 95 0 1.348 59 17:40 17.10.2019
6018 Clouds -8 1009 95 0 1.348 59 17:22 17.10.2019
6019 Clouds -8 1009 95 0 1.348 59 16:56 17.10.2019
6020 Clouds -8 1009 95 0 1.348 59 16:37 17.10.2019
6021 Clouds -8 1009 95 0 1.348 59 16:37 17.10.2019
6022 Clouds -8 1009 95 0 1.348 59 16:18 17.10.2019
6023 Clouds -8 1009 95 0 1.348 59 15:55 17.10.2019
6024 Clouds -8 1009 95 0 1.348 59 15:55 17.10.2019
6025 Clouds -8 1009 95 0 1.348 59 15:37 17.10.2019
6026 Clouds -6 1008 92 0 1.253 83 15:19 17.10.2019
6027 Clouds -5 1007 95 0 1.623 101 14:42 17.10.2019
6028 Clouds -5 1007 95 0 1.623 101 14:23 17.10.2019
6029 Clouds -5 1007 95 0 1.623 101 13:56 17.10.2019
6030 Clouds -5 1007 95 0 1.623 101 13:38 17.10.2019
6031 Clouds -5 1007 95 0 1.623 101 13:18 17.10.2019
6032 Clouds -5 1007 95 0 1.623 101 12:41 17.10.2019
6033 Clouds -5 1006 91 0 1.625 128 12:21 17.10.2019
6034 Clouds -5 1006 91 0 1.625 128 11:59 17.10.2019
6035 Clouds -5 1006 91 0 1.625 128 11:59 17.10.2019
6036 Clouds -5 1006 91 0 1.625 128 11:59 17.10.2019
6037 Clouds -5 1006 91 0 1.625 128 11:41 17.10.2019
6038 Clouds -5 1006 91 0 1.625 128 11:19 17.10.2019
6039 Clouds -5 1006 91 0 1.625 128 11:19 17.10.2019
6040 Clouds -5 1006 91 0 1.625 128 10:56 17.10.2019
6041 Clouds -5 1006 91 0 1.625 128 10:38 17.10.2019
6042 Clouds -5 1006 91 0 1.625 128 10:18 17.10.2019
6043 Clouds -5 1006 91 0 1.625 128 09:54 17.10.2019
6044 Clouds -6 1006 89 0 1.711 123 09:36 17.10.2019
6045 Clouds -3 1005 85 0 1.953 130 09:18 17.10.2019
6046 Clouds -3 1005 85 0 1.953 130 09:18 17.10.2019
6047 Clouds -3 1005 85 0 1.953 130 08:42 17.10.2019
6048 Clouds -3 1005 85 0 1.953 130 08:24 17.10.2019
6049 Clouds -3 1005 85 0 1.953 130 07:56 17.10.2019
6050 Clouds -3 1005 85 0 1.953 130 07:38 17.10.2019
6051 Clouds -3 1005 85 0 1.953 130 07:18 17.10.2019
6052 Clouds -3 1005 85 0 1.953 130 06:40 17.10.2019
6053 Clouds -3 1005 84 0 2.312 155 06:21 17.10.2019
6054 Clouds -3 1005 84 0 2.312 155 05:57 17.10.2019
6055 Clouds -3 1005 84 0 2.312 155 05:32 17.10.2019
6056 Clouds -3 1005 84 0 2.312 155 04:56 17.10.2019
6057 Clouds -3 1005 84 0 2.312 155 03:55 17.10.2019
6058 Clouds -6 1005 87 0 2.205 143 02:53 17.10.2019
6059 Clouds -6 1005 88 0 2.354 142 01:55 17.10.2019
6060 Clouds -6 1005 88 0 2.354 142 00:41 17.10.2019
6061 Snow -7 1005 91 0 2.582 142 00:20 17.10.2019
6062 Snow -7 1005 91 0 2.582 142 00:20 17.10.2019
6063 Snow -7 1005 91 0 2.582 142 23:42 16.10.2019
6064 Snow -7 1005 91 0 2.582 142 23:21 16.10.2019
6065 Snow -7 1005 91 0 2.582 142 22:56 16.10.2019
6066 Snow -7 1005 91 0 2.582 142 22:38 16.10.2019
6067 Snow -7 1005 91 0 2.582 142 22:38 16.10.2019
6068 Snow -7 1005 91 0 2.582 142 22:19 16.10.2019
6069 Snow -7 1005 91 0 2.582 142 22:19 16.10.2019
6070 Snow -7 1005 91 0 2.582 142 21:58 16.10.2019
6071 Clouds -7 1005 91 0 2.564 139 21:38 16.10.2019
6072 Snow -7 1005 91 0 2.582 142 21:38 16.10.2019
6073 Snow -8 1006 95 0 2.491 141 21:20 16.10.2019
6074 Snow -8 1006 95 0 2.491 141 20:58 16.10.2019
6075 Snow -8 1006 95 0 2.491 141 20:40 16.10.2019
6076 Snow -8 1006 95 0 2.491 141 20:21 16.10.2019
6077 -273 0 0 0 0 0 19:59 16.10.2019
6078 Snow -8 1006 95 0 2.491 141 19:40 16.10.2019
6079 Snow -8 1006 95 0 2.491 141 19:21 16.10.2019
6080 Snow -8 1006 95 0 2.491 141 18:56 16.10.2019
6081 Snow -8 1006 95 0 2.491 141 18:56 16.10.2019
6082 Snow -8 1006 95 0 2.491 141 18:56 16.10.2019
6083 Snow -8 1006 95 0 2.491 141 18:37 16.10.2019
6084 Clouds -9 1009 82 0 2.282 129 18:18 16.10.2019
6085 Clouds -9 1009 82 0 2.282 129 18:18 16.10.2019
6086 Clouds -9 1009 82 0 2.282 129 18:18 16.10.2019
6087 Clouds -9 1009 82 0 2.282 129 17:55 16.10.2019
6088 Clouds -9 1009 82 0 2.282 129 17:36 16.10.2019
6089 Clouds -9 1009 82 0 2.282 129 17:18 16.10.2019
6090 Clouds -9 1009 82 0 2.282 129 16:43 16.10.2019
6091 Clouds -9 1009 82 0 2.282 129 16:23 16.10.2019
6092 Clouds -9 1009 82 0 2.282 129 15:59 16.10.2019
6093 Clouds -9 1009 82 0 2.282 129 15:39 16.10.2019
6094 Clouds -9 1009 82 0 2.282 129 15:39 16.10.2019
6095 Clouds -11 1011 86 0 1.958 122 15:19 16.10.2019
6096 Clouds -11 1011 86 0 1.958 122 14:58 16.10.2019
6097 Clouds -11 1011 86 0 1.958 122 14:39 16.10.2019
6098 Clouds -11 1011 86 0 1.901 121 14:20 16.10.2019
6099 Clouds -11 1011 86 0 1.901 121 13:57 16.10.2019
6100 Clouds -11 1011 86 0 1.901 121 13:39 16.10.2019
6101 Clouds -11 1011 86 0 1.901 121 13:21 16.10.2019
6102 Clouds -11 1011 86 0 1.901 121 12:42 16.10.2019
6103 Clouds -10 1012 86 0 1.627 119 12:20 16.10.2019
6104 -273 0 0 0 0 0 11:55 16.10.2019
6105 Clouds -10 1012 86 0 1.627 119 11:37 16.10.2019
6106 Clouds -10 1012 86 0 1.627 119 11:18 16.10.2019
6107 Clouds -10 1012 86 0 1.627 119 10:36 16.10.2019
6108 Clouds -10 1012 86 0 1.627 119 10:18 16.10.2019
6109 Clouds -10 1012 86 0 1.627 119 09:41 16.10.2019
6110 Clouds -10 1012 86 0 1.627 119 09:40 16.10.2019
6111 Clouds -9 1014 85 0 1.45 114 09:22 16.10.2019
6112 Clouds -9 1014 85 0 1.45 114 08:57 16.10.2019
6113 Clouds -9 1014 85 0 1.45 114 08:38 16.10.2019
6114 Clouds -9 1014 85 0 1.45 114 08:19 16.10.2019
6115 Clouds -9 1014 85 0 1.45 114 07:42 16.10.2019
6116 Clouds -9 1014 85 0 1.45 114 07:23 16.10.2019
6117 Clouds -9 1014 85 0 1.45 114 06:51 16.10.2019
6118 Clouds -9 1014 85 0 1.45 114 06:30 16.10.2019
6119 Clouds -9 1014 80 0 1.7 130 04:48 16.10.2019
6120 Clouds -12 1015 87 0 1.427 141 02:51 16.10.2019
6121 Clouds -12 1015 87 0 1.411 140 01:38 16.10.2019
6122 Clouds -12 1015 87 0 1.411 140 01:18 16.10.2019
6123 Clouds -12 1015 87 0 1.411 140 00:42 16.10.2019
6124 Clouds -13 1015 88 0 1.608 144 23:59 15.10.2019
6125 Clouds -13 1015 88 0 1.608 144 23:39 15.10.2019
6126 Clouds -13 1015 88 0 1.608 144 23:21 15.10.2019
6127 Clouds -13 1015 88 0 1.608 144 23:21 15.10.2019
6128 Clouds -13 1015 88 0 1.608 144 22:55 15.10.2019
6129 Clouds -13 1015 88 0 1.608 144 22:55 15.10.2019
6130 Clouds -13 1015 88 0 1.608 144 22:37 15.10.2019
6131 Clouds -13 1015 88 0 1.608 144 22:19 15.10.2019
6132 -273 0 0 0 0 0 21:55 15.10.2019
6133 -273 0 0 0 0 0 21:55 15.10.2019
6134 Clouds -14 1015 80 0 1.428 144 21:37 15.10.2019
6135 Clouds -13 1014 76 0 1.598 171 21:19 15.10.2019
6136 Clouds -13 1014 76 0 1.598 171 20:57 15.10.2019
6137 Clouds -13 1014 76 0 1.598 171 20:38 15.10.2019
6138 Clouds -13 1014 76 0 1.598 171 20:19 15.10.2019
6139 Clouds -13 1014 76 0 1.598 171 19:56 15.10.2019
6140 Clouds -13 1014 76 0 1.598 171 19:56 15.10.2019
6141 Clouds -13 1014 76 0 1.598 171 19:37 15.10.2019
6142 Clouds -13 1014 76 0 1.598 171 19:19 15.10.2019
6143 Clouds -13 1014 76 0 1.598 171 18:44 15.10.2019
6144 Clouds -13 1014 76 0 1.598 171 18:26 15.10.2019
6145 Clouds -13 1013 75 0 1.781 183 17:57 15.10.2019
6146 Clouds -13 1013 75 0 1.781 183 17:38 15.10.2019
6147 Clouds -13 1013 75 0 1.781 183 17:19 15.10.2019
6148 Clouds -13 1013 75 0 1.781 183 16:45 15.10.2019
6149 Clouds -13 1013 75 0 1.781 183 16:22 15.10.2019
6150 Clouds -13 1013 75 0 1.781 183 15:58 15.10.2019
6151 Clouds -13 1013 75 0 1.781 183 15:40 15.10.2019
6152 Clouds -13 1013 75 0 1.781 183 15:40 15.10.2019
6153 Clouds -12 1013 77 0 1.306 175 15:20 15.10.2019
6154 Clouds -12 1013 77 0 1.306 175 14:57 15.10.2019
6155 Clouds -12 1013 75 0 1.462 179 14:37 15.10.2019
6156 Clouds -12 1013 75 0 1.462 179 14:19 15.10.2019
6157 Clouds -12 1013 75 0 1.462 179 13:44 15.10.2019
6158 Clouds -12 1013 75 0 1.462 179 13:21 15.10.2019
6159 Clouds -12 1013 75 0 1.462 179 12:59 15.10.2019
6160 Clouds -12 1013 75 0 1.462 179 12:39 15.10.2019
6161 Clouds -11 1011 77 0 0.975 176 12:20 15.10.2019
6162 Clouds -11 1011 77 0 0.975 176 11:55 15.10.2019
6163 Clouds -11 1011 77 0 0.975 176 11:37 15.10.2019
6164 Clouds -11 1011 77 0 0.975 176 11:18 15.10.2019
6165 Clouds -11 1011 77 0 0.975 176 10:42 15.10.2019
6166 Clouds -10 1011 72 0 0.97 161.714 10:19 15.10.2019
6167 Clouds -10 1011 72 0 0.97 161.714 09:57 15.10.2019
6168 Clouds -10 1011 72 0 0.97 161.714 09:37 15.10.2019
6169 Clouds -9 1010 68 0 1.36 184.82 09:19 15.10.2019
6170 Clouds -9 1010 66 0 1.42 181.697 08:42 15.10.2019
6171 Clouds -9 1010 66 0 1.42 181.697 08:22 15.10.2019
6172 Clouds -9 1010 66 0 1.42 181.697 08:22 15.10.2019
6173 Clouds -9 1010 66 0 1.42 181.697 07:56 15.10.2019
6174 Clouds -9 1010 66 0 1.42 181.697 07:56 15.10.2019
6175 Clouds -9 1010 66 0 1.42 181.697 07:56 15.10.2019
6176 Clouds -9 1010 66 0 1.42 181.697 07:38 15.10.2019
6177 Clouds -9 1010 66 0 1.42 181.697 07:19 15.10.2019
6178 Clouds -9 1010 66 0 1.42 181.697 06:44 15.10.2019
6179 Clouds -9 1010 66 0 1.42 181.697 06:25 15.10.2019
6180 Clouds -10 1009 66 0 1.64 182.095 05:41 15.10.2019
6181 Clouds -10 1009 66 0 1.64 182.095 05:23 15.10.2019
6182 Clouds -10 1009 66 0 1.64 182.095 04:25 15.10.2019
6183 Clouds -10 1009 66 0 1.64 182.095 03:37 15.10.2019
6184 Clouds -10 1009 66 0 1.64 182.095 03:37 15.10.2019
6185 Clouds -12 1010 77 0 1.6 179.713 02:24 15.10.2019
6186 Clouds -12 1010 77 0 1.6 179.713 01:47 15.10.2019
6187 Clouds -12 1010 78 0 1.66 177.379 01:19 15.10.2019
6188 Clouds -12 1010 78 0 1.66 177.379 00:49 15.10.2019
6189 Clouds -13 1009 84 0 1.65 172.426 00:21 15.10.2019
6190 Clouds -13 1009 84 0 1.65 172.426 23:44 14.10.2019
6191 Clouds -13 1009 84 0 1.65 172.426 23:20 14.10.2019
6192 Clouds -13 1009 84 0 1.65 172.426 22:57 14.10.2019
6193 Clouds -13 1009 84 0 1.65 172.426 22:38 14.10.2019
6194 Clouds -13 1009 84 0 1.65 172.426 22:18 14.10.2019
6195 Clouds -13 1009 84 0 1.65 172.426 21:55 14.10.2019
6196 Clouds -13 1009 84 0 1.65 172.426 21:36 14.10.2019
6197 -273 0 0 0 0 0 21:18 14.10.2019
6198 Clouds -13 1009 83 0 1.37 180.795 20:40 14.10.2019
6199 Clouds -13 1009 83 0 1.37 180.795 20:22 14.10.2019
6200 Clouds -13 1009 83 0 1.37 180.795 19:59 14.10.2019
6201 Clouds -14 1009 82 0 1.285 191 19:41 14.10.2019
6202 Clouds -14 1009 82 0 1.285 191 19:41 14.10.2019
6203 Clouds -14 1009 82 0 1.285 191 19:23 14.10.2019
6204 Clouds -13 1009 83 0 1.37 180.795 18:58 14.10.2019
6205 Clouds -13 1009 83 0 1.37 180.795 18:39 14.10.2019
6206 Clouds -14 1009 83 0 1.12 156.99 18:19 14.10.2019
6207 Clouds -14 1009 83 0 1.12 156.99 17:57 14.10.2019
6208 Clouds -14 1009 83 0 1.12 156.99 17:38 14.10.2019
6209 Clouds -14 1009 83 0 1.12 156.99 17:38 14.10.2019
6210 Clouds -14 1009 83 0 1.12 156.99 17:19 14.10.2019
6211 Clouds -14 1009 83 0 1.12 156.99 16:43 14.10.2019
6212 Clouds -14 1009 83 0 1.12 156.99 16:21 14.10.2019
6213 Clouds -14 1009 83 0 1.12 156.99 15:43 14.10.2019
6214 -273 0 0 0 0 0 15:24 14.10.2019
6215 Clouds -13 1009 82 0 1.14 156.511 14:58 14.10.2019
6216 Clouds -13 1009 82 0 1.14 156.511 14:39 14.10.2019
6217 Clouds -13 1009 82 0 1.14 156.511 14:20 14.10.2019
6218 Clouds -13 1009 82 0 1.14 156.511 13:44 14.10.2019
6219 Clouds -14 1009 81 0 1.15 155.507 13:21 14.10.2019
6220 Clouds -14 1009 81 0 1.15 155.507 12:56 14.10.2019
6221 Clouds -14 1009 81 0 1.15 155.507 12:56 14.10.2019
6222 Clouds -14 1009 81 0 1.15 155.507 12:37 14.10.2019
6223 Clouds -13 1009 81 0 1.27 162.352 12:18 14.10.2019
6224 Clouds -13 1009 81 0 1.27 162.352 11:45 14.10.2019
6225 Clouds -13 1009 81 0 1.27 162.352 11:26 14.10.2019
6226 Clouds -13 1009 81 0 1.27 162.352 10:57 14.10.2019
6227 Clouds -13 1009 81 0 1.27 162.352 10:38 14.10.2019
6228 Clouds -13 1009 81 0 1.27 162.352 10:20 14.10.2019
6229 Clouds -13 1009 81 0 1.27 162.352 09:54 14.10.2019
6230 Clouds -13 1009 81 0 1.27 162.352 09:36 14.10.2019
6231 Clear -10 1010 76 0 1.42 172.299 09:18 14.10.2019
6232 Clear -10 1010 76 0 1.42 172.299 08:42 14.10.2019
6233 Clear -10 1010 76 0 1.42 172.299 08:20 14.10.2019
6234 -273 0 0 0 0 0 07:41 14.10.2019
6235 Clear -10 1010 76 0 1.42 172.299 07:41 14.10.2019
6236 Clear -10 1010 76 0 1.42 172.299 07:18 14.10.2019
6237 Clear -10 1010 76 0 1.42 172.299 06:37 14.10.2019
6238 Clear -10 1011 69 0 1.82 182.106 06:18 14.10.2019
6239 Clear -10 1011 69 0 1.82 182.106 05:42 14.10.2019
6240 Clear -10 1011 69 0 1.82 182.106 04:42 14.10.2019
6241 Clear -10 1011 69 0 1.82 182.106 03:27 14.10.2019
6242 Clear -12 1014 80 0 1.99 191.185 02:42 14.10.2019
6243 Clear -12 1013 80 0 2.07 181.245 01:23 14.10.2019
6244 Clear -12 1013 80 0 2.07 181.245 00:56 14.10.2019
6245 Clear -13 1014 85 0 2.03 196.87 00:19 14.10.2019
6246 Clear -13 1014 85 0 2.03 196.87 23:45 13.10.2019
6247 Clear -13 1014 85 0 2.03 196.87 23:20 13.10.2019
6248 Clear -13 1014 85 0 2.03 196.87 22:58 13.10.2019
6249 Clear -13 1014 85 0 2.03 196.87 22:58 13.10.2019
6250 Clear -13 1014 85 0 2.03 196.87 22:40 13.10.2019
6251 Clear -13 1014 85 0 2.03 196.87 22:21 13.10.2019
6252 Clear -13 1014 85 0 2.03 196.87 21:58 13.10.2019
6253 Clear -13 1014 85 0 2.03 196.87 21:37 13.10.2019
6254 Clear -12 1016 83 0 1.63 205.053 21:19 13.10.2019
6255 Clear -12 1016 83 0 1.63 205.053 20:57 13.10.2019
6256 Clear -12 1016 83 0 1.63 205.053 20:57 13.10.2019
6257 Clear -12 1016 82 0 1.43 212.644 20:39 13.10.2019
6258 Clear -12 1016 82 0 1.43 212.644 20:20 13.10.2019
6259 Clear -12 1016 82 0 1.43 212.644 19:58 13.10.2019
6260 Clear -12 1016 82 0 1.43 212.644 19:39 13.10.2019
6261 Clear -12 1016 82 0 1.43 212.644 19:39 13.10.2019
6262 Clear -12 1016 82 0 1.43 212.644 19:21 13.10.2019
6263 Clear -12 1016 82 0 1.43 212.644 18:57 13.10.2019
6264 Clear -12 1016 82 0 1.43 212.644 18:37 13.10.2019
6265 Clear -11 1017 82 0 0.94 252.318 18:19 13.10.2019
6266 Clear -11 1017 82 0 0.94 252.318 18:19 13.10.2019
6267 Clear -11 1017 82 0 0.94 252.318 17:57 13.10.2019
6268 Clear -11 1017 82 0 0.94 252.318 17:39 13.10.2019
6269 Clear -11 1017 82 0 0.94 252.318 17:21 13.10.2019
6270 Clear -11 1017 82 0 0.94 252.318 16:43 13.10.2019
6271 Clear -11 1017 82 0 0.94 252.318 16:19 13.10.2019
6272 Clear -11 1017 82 0 0.94 252.318 15:57 13.10.2019
6273 Clear -11 1017 82 0 0.94 252.318 15:57 13.10.2019
6274 Clear -11 1017 82 0 0.94 252.318 15:57 13.10.2019
6275 Clear -11 1017 82 0 0.94 252.318 15:38 13.10.2019
6276 Clear -10 1019 82 0 0.75 272.744 15:19 13.10.2019
6277 Clear -10 1019 82 0 0.75 272.744 14:57 13.10.2019
6278 Clear -10 1019 82 0 0.75 272.744 14:38 13.10.2019
6279 Clear -10 1019 82 0 0.75 272.744 14:19 13.10.2019
6280 Clear -10 1019 82 0 0.75 272.744 13:42 13.10.2019
6281 Clear -10 1019 82 0 0.75 272.744 13:42 13.10.2019
6282 Clear -10 1018 83 0 0.4 249.107 13:23 13.10.2019
6283 Clear -10 1018 83 0 0.4 249.107 12:59 13.10.2019
6284 Clear -10 1018 83 0 0.4 249.107 12:39 13.10.2019
6285 Clear -9 1019 83 0 1.04 295.824 12:21 13.10.2019
6286 Clear -9 1019 83 0 1.04 295.824 11:59 13.10.2019
6287 Clear -9 1019 83 0 1.04 295.824 11:39 13.10.2019
6288 Clear -9 1019 83 0 1.04 295.824 11:21 13.10.2019
6289 Clear -9 1019 83 0 1.04 295.824 10:59 13.10.2019
6290 Clear -9 1019 83 0 1.04 295.824 10:39 13.10.2019
6291 Clear -9 1019 83 0 1.04 295.824 10:39 13.10.2019
6292 Clear -9 1019 83 0 1.04 295.824 10:20 13.10.2019
6293 Clear -9 1019 83 0 1.04 295.824 09:39 13.10.2019
6294 Clouds -6 1019 76 0 1.79 310.501 09:21 13.10.2019
6295 Clouds -6 1019 76 0 1.8 306.048 08:51 13.10.2019
6296 Clouds -6 1019 76 0 1.8 306.048 08:27 13.10.2019
6297 -273 0 0 0 0 0 07:55 13.10.2019
6298 Clouds -6 1019 76 0 1.8 306.048 07:35 13.10.2019
6299 Clouds -6 1019 76 0 1.8 306.048 06:54 13.10.2019
6300 Clouds -6 1019 76 0 1.8 306.048 06:54 13.10.2019
6301 Clouds -6 1019 76 0 1.8 306.048 06:26 13.10.2019
6302 Clouds -6 1019 71 0 2.54 331.929 05:29 13.10.2019
6303 Clouds -6 1019 71 0 2.54 331.929 04:35 13.10.2019
6304 Clouds -6 1019 71 0 2.54 331.929 03:35 13.10.2019
6305 Clouds -9 1020 84 0 2.17 325.418 02:32 13.10.2019
6306 Clouds -9 1020 84 0 2.17 325.418 01:47 13.10.2019
6307 Clouds -9 1020 85 0 2 317.823 01:21 13.10.2019
6308 Clouds -9 1020 85 0 2 317.823 01:21 13.10.2019
6309 Clouds -9 1020 85 0 2 317.823 00:43 13.10.2019
6310 Clouds -9 1020 88 0 2.55 324.883 00:19 13.10.2019
6311 Clouds -9 1020 88 0 2.55 324.883 23:54 12.10.2019
6312 Clouds -9 1020 88 0 2.55 324.883 23:54 12.10.2019
6313 Clouds -9 1020 88 0 2.55 324.883 23:36 12.10.2019
6314 Clouds -9 1020 88 0 2.55 324.883 23:18 12.10.2019
6315 Clouds -9 1020 88 0 2.55 324.883 22:54 12.10.2019
6316 Clouds -9 1020 88 0 2.55 324.883 22:36 12.10.2019
6317 Clouds -9 1020 88 0 2.55 324.883 22:18 12.10.2019
6318 Clouds -9 1020 88 0 2.55 324.883 21:41 12.10.2019
6319 Clouds -8 1019 87 0 3.14 326.765 21:23 12.10.2019
6320 Clouds -7 1018 88 0 3.21 325.829 20:56 12.10.2019
6321 Clouds -7 1018 88 0 3.21 325.829 20:38 12.10.2019
6322 Clouds -7 1018 88 0 3.21 325.829 20:20 12.10.2019
6323 Clouds -7 1018 88 0 3.21 325.829 19:37 12.10.2019
6324 Clouds -7 1018 88 0 3.21 325.829 19:18 12.10.2019
6325 Clouds -7 1018 88 0 3.21 325.829 18:44 12.10.2019
6326 Clouds -7 1018 88 0 3.57 327.962 18:26 12.10.2019
6327 Clouds -7 1018 88 0 3.57 327.962 17:58 12.10.2019
6328 Clouds -7 1018 88 0 3.57 327.962 17:40 12.10.2019
6329 Clouds -7 1018 88 0 3.57 327.962 17:18 12.10.2019
6330 Clouds -7 1018 88 0 3.57 327.962 16:41 12.10.2019
6331 Clouds -7 1018 88 0 3.57 327.962 16:21 12.10.2019
6332 Clouds -7 1018 88 0 3.57 327.962 15:58 12.10.2019
6333 Clouds -7 1018 88 0 3.57 327.962 15:39 12.10.2019
6334 Clouds -6 1017 88 0 3.59 333.578 15:21 12.10.2019
6335 Clouds -6 1017 88 0 3.59 333.578 14:41 12.10.2019
6336 Clouds -6 1017 88 0 3.59 333.578 14:21 12.10.2019
6337 Clouds -6 1017 88 0 3.59 333.578 13:53 12.10.2019
6338 Clouds -6 1017 88 0 3.59 333.578 13:53 12.10.2019
6339 Clouds -6 1017 88 0 3.59 333.578 13:33 12.10.2019
6340 -273 0 0 0 0 0 12:59 12.10.2019
6341 Clouds -6 1017 89 0 3.54 332.827 12:38 12.10.2019
6342 Clouds -6 1016 87 0 3.97 340.67 12:20 12.10.2019
6343 Clouds -6 1016 87 0 3.97 340.67 11:56 12.10.2019
6344 Clouds -6 1016 87 0 3.97 340.67 11:38 12.10.2019
6345 Clouds -6 1016 87 0 3.97 340.67 11:18 12.10.2019
6346 Clouds -6 1016 87 0 3.97 340.67 10:40 12.10.2019
6347 Clouds -6 1016 87 0 3.97 340.67 10:22 12.10.2019
6348 Clouds -6 1016 87 0 3.97 340.67 09:57 12.10.2019
6349 Clouds -6 1016 87 0 3.97 340.67 09:39 12.10.2019
6350 Clouds -4 1014 78 0 7.32 2.961 09:20 12.10.2019
6351 Clouds -4 1014 80 0 8.58 9.346 08:56 12.10.2019
6352 Clouds -4 1014 80 0 8.58 9.346 08:55 12.10.2019
6353 Clouds -4 1014 80 0 8.58 9.346 08:36 12.10.2019
6354 Clouds -4 1014 80 0 8.58 9.346 08:18 12.10.2019
6355 Clouds -4 1014 80 0 8.58 9.346 07:33 12.10.2019
6356 Clouds -4 1014 80 0 8.58 9.346 06:44 12.10.2019
6357 Clouds -4 1013 72 0 9.51 12.078 05:46 12.10.2019
6358 Clouds -4 1013 72 0 9.51 12.078 04:47 12.10.2019
6359 Clouds -4 1013 72 0 9.51 12.078 03:57 12.10.2019
6360 Clouds -7 1013 82 0 5.14 353.772 02:57 12.10.2019
6361 Clouds -7 1013 83 0 5.03 352.02 01:36 12.10.2019
6362 Clouds -7 1013 83 0 5.03 352.02 00:59 12.10.2019
6363 Clouds -7 1013 83 0 5.03 352.02 00:39 12.10.2019
6364 Clouds -9 1013 91 0 3 328.197 23:57 11.10.2019
6365 Clouds -9 1013 91 0 3 328.197 23:39 11.10.2019
6366 Clouds -9 1013 91 0 3 328.197 23:20 11.10.2019
6367 Clouds -9 1013 91 0 3 328.197 22:40 11.10.2019
6368 Clouds -9 1013 91 0 3 328.197 22:21 11.10.2019
6369 Clouds -9 1013 91 0 3 328.197 21:56 11.10.2019
6370 Clouds -9 1013 91 0 3 328.197 21:38 11.10.2019
6371 Clouds -9 1014 91 0 2.66 330.705 21:19 11.10.2019
6372 Clouds -9 1013 91 0 2.78 331.454 20:44 11.10.2019
6373 Clouds -9 1013 91 0 2.78 331.454 20:25 11.10.2019
6374 Clouds -9 1013 91 0 2.78 331.454 19:56 11.10.2019
6375 Clouds -9 1013 91 0 2.78 331.454 19:38 11.10.2019
6376 Clouds -9 1013 91 0 2.78 331.454 19:18 11.10.2019
6377 Clouds -9 1013 91 0 2.78 331.454 18:58 11.10.2019
6378 Clouds -9 1013 91 0 2.78 331.454 18:38 11.10.2019
6379 Clouds -9 1015 91 0 3.09 343.416 18:19 11.10.2019
6380 Clouds -9 1015 91 0 3.09 343.416 17:58 11.10.2019
6381 Clouds -9 1015 91 0 3.09 343.416 17:37 11.10.2019
6382 Clouds -9 1015 91 0 3.09 343.416 17:19 11.10.2019
6383 Clouds -9 1015 91 0 3.09 343.416 16:56 11.10.2019
6384 Clouds -9 1015 91 0 3.09 343.416 16:37 11.10.2019
6385 Clouds -9 1015 91 0 3.09 343.416 16:18 11.10.2019
6386 Clouds -9 1015 91 0 3.09 343.416 16:18 11.10.2019
6387 Clouds -9 1015 91 0 3.09 343.416 15:41 11.10.2019
6388 Clouds -10 1016 93 0 1.91 338.788 15:19 11.10.2019
6389 Clouds -10 1016 93 0 1.91 338.788 14:58 11.10.2019
6390 Clouds -10 1016 93 0 1.91 338.788 14:37 11.10.2019
6391 Clouds -10 1016 93 0 1.91 338.788 14:19 11.10.2019
6392 Clouds -10 1016 93 0 1.91 338.788 13:43 11.10.2019
6393 Clouds -10 1016 92 0 1.86 347.107 13:24 11.10.2019
6394 Clouds -10 1016 92 0 1.86 347.107 12:56 11.10.2019
6395 Clouds -10 1016 92 0 1.86 347.107 12:38 11.10.2019
6396 Clouds -10 1017 90 0 2 12.715 12:20 11.10.2019
6397 Clouds -10 1017 90 0 2 12.715 11:57 11.10.2019
6398 Clouds -10 1017 90 0 2 12.715 11:38 11.10.2019
6399 Clouds -10 1017 90 0 2 12.715 11:20 11.10.2019
6400 Clouds -10 1017 90 0 2 12.715 10:54 11.10.2019
6401 Clouds -10 1017 90 0 2 12.715 10:36 11.10.2019
6402 Clouds -10 1017 90 0 2 12.715 10:18 11.10.2019
6403 Clouds -10 1017 93 0 1.84 13.303 09:41 11.10.2019
6404 Clouds -9 1017 74 0 2.34 349.866 09:20 11.10.2019
6405 Clouds -9 1017 74 0 2.34 349.866 09:20 11.10.2019
6406 Clouds -9 1017 74 0 2.34 349.866 08:56 11.10.2019
6407 Clouds -9 1017 74 0 2.34 349.866 08:38 11.10.2019
6408 Clouds -9 1017 74 0 2.34 349.866 08:20 11.10.2019
6409 Clouds -9 1017 74 0 2.34 349.866 07:51 11.10.2019
6410 Clouds -9 1017 74 0 2.34 349.866 07:33 11.10.2019
6411 Clouds -9 1017 74 0 2.34 349.866 06:49 11.10.2019
6412 Clouds -9 1017 74 0 2.34 349.866 06:25 11.10.2019
6413 Clouds -10 1019 73 0 1.35 321.724 05:46 11.10.2019
6414 Clouds -10 1019 73 0 1.35 321.724 05:27 11.10.2019
6415 Clouds -10 1019 73 0 1.35 321.724 04:47 11.10.2019
6416 Clouds -11 1020 72 0 1.02 309.187 03:20 11.10.2019
6417 Clouds -11 1020 74 0 0.84 304.505 01:18 11.10.2019
6418 Clouds -11 1020 74 0 0.84 304.505 00:31 11.10.2019
6419 Clouds -12 1020 80 0 0.77 316.431 23:58 10.10.2019
6420 Clouds -12 1020 80 0 0.77 316.431 23:40 10.10.2019
6421 Clouds -12 1020 80 0 0.77 316.431 23:19 10.10.2019
6422 Clouds -12 1020 80 0 0.77 316.431 22:55 10.10.2019
6423 Clouds -12 1020 80 0 0.77 316.431 22:36 10.10.2019
6424 Clouds -12 1020 80 0 0.77 316.431 22:18 10.10.2019
6425 Clouds -12 1020 80 0 0.77 316.431 21:42 10.10.2019
6426 Clouds -12 1021 79 0 0.8 309.723 21:22 10.10.2019
6427 Clouds -12 1021 75 0 1.14 320.059 20:58 10.10.2019
6428 Clouds -12 1021 75 0 1.14 320.059 20:39 10.10.2019
6429 Clouds -12 1021 75 0 1.14 320.059 20:20 10.10.2019
6430 Clouds -12 1021 75 0 1.14 320.059 19:57 10.10.2019
6431 Clouds -12 1021 75 0 1.14 320.059 19:39 10.10.2019
6432 Clouds -12 1021 75 0 1.14 320.059 19:19 10.10.2019
6433 Clouds -12 1021 75 0 1.14 320.059 18:42 10.10.2019
6434 Clouds -12 1021 74 0 1.45 318.982 18:21 10.10.2019
6435 Clouds -12 1021 74 0 1.45 318.982 17:59 10.10.2019
6436 Clouds -12 1021 74 0 1.45 318.982 17:40 10.10.2019
6437 Clouds -12 1021 74 0 1.45 318.982 17:40 10.10.2019
6438 Clouds -12 1021 74 0 1.45 318.982 17:19 10.10.2019
6439 Clouds -12 1021 74 0 1.45 318.982 16:56 10.10.2019
6440 Clouds -12 1021 74 0 1.45 318.982 16:37 10.10.2019
6441 Clouds -12 1021 74 0 1.45 318.982 16:19 10.10.2019
6442 Clouds -12 1021 74 0 1.45 318.982 15:40 10.10.2019
6443 Clouds -12 1022 70 0 1.4 351.244 15:22 10.10.2019
6444 Clouds -12 1022 70 0 1.4 351.244 14:58 10.10.2019
6445 Clouds -12 1022 70 0 1.4 351.244 14:37 10.10.2019
6446 Clouds -12 1022 70 0 1.4 351.244 14:19 10.10.2019
6447 Clouds -12 1022 70 0 1.4 351.244 13:58 10.10.2019
6448 Clouds -12 1022 70 0 1.4 351.244 13:39 10.10.2019
6449 Clouds -12 1022 70 0 1.16 358.573 13:18 10.10.2019
6450 Clouds -12 1022 70 0 1.16 358.573 12:42 10.10.2019
6451 Clouds -12 1022 70 0 1.16 358.573 12:42 10.10.2019
6452 Clouds -12 1021 68 0 2.04 15.598 12:21 10.10.2019
6453 Clouds -12 1021 68 0 2.04 15.598 11:58 10.10.2019
6454 Clouds -12 1021 68 0 2.04 15.598 11:40 10.10.2019
6455 Clouds -12 1021 68 0 2.04 15.598 11:19 10.10.2019
6456 Clouds -12 1021 68 0 2.04 15.598 10:57 10.10.2019
6457 Clouds -12 1021 68 0 2.04 15.598 10:39 10.10.2019
6458 Clouds -12 1021 68 0 2.04 15.598 10:20 10.10.2019
6459 Clouds -12 1021 68 0 2.04 15.598 09:41 10.10.2019
6460 Clouds -10 1019 62 0 3.16 15.215 09:23 10.10.2019
6461 Clouds -10 1019 57 0 3.19 15.676 08:59 10.10.2019
6462 Clouds -10 1019 57 0 3.19 15.676 08:40 10.10.2019
6463 Clouds -10 1019 57 0 3.19 15.676 08:21 10.10.2019
6464 Clouds -10 1019 57 0 3.19 15.676 07:57 10.10.2019
6465 Clouds -10 1019 57 0 3.19 15.676 07:36 10.10.2019
6466 Clouds -10 1019 57 0 3.19 15.676 07:18 10.10.2019
6467 Clouds -10 1019 57 0 3.19 15.676 06:39 10.10.2019
6468 Clouds -10 1018 61 0 4 24.625 05:56 10.10.2019
6469 Clouds -10 1018 61 0 4 24.625 05:21 10.10.2019
6470 Clouds -10 1018 61 0 4 24.625 04:36 10.10.2019
6471 Clouds -11 1018 67 0 4.14 24.078 02:46 10.10.2019
6472 Clouds -11 1018 67 0 4.14 24.078 01:39 10.10.2019
6473 Clouds -11 1018 67 0 3.93 28.066 01:21 10.10.2019
6474 Clouds -11 1018 67 0 3.93 28.066 00:41 10.10.2019
6475 Clouds -11 1017 65 0 5.2 19.645 23:57 09.10.2019
6476 Clouds -11 1017 65 0 5.2 19.645 23:36 09.10.2019
6477 Clouds -11 1017 65 0 5.2 19.645 23:18 09.10.2019
6478 Clouds -11 1017 65 0 5.2 19.645 22:42 09.10.2019
6479 Clouds -11 1017 65 0 5.2 19.645 22:23 09.10.2019
6480 Clouds -11 1017 65 0 5.2 19.645 21:59 09.10.2019
6481 Clouds -11 1017 65 0 5.2 19.645 21:39 09.10.2019
6482 Clouds -11 1017 71 0 3.37 5.262 21:19 09.10.2019
6483 Clouds -12 1017 74 0 3.05 359.23 20:56 09.10.2019
6484 Clouds -12 1017 74 0 3.05 359.23 20:37 09.10.2019
6485 Clouds -12 1017 74 0 3.05 359.23 20:18 09.10.2019
6486 Clouds -12 1017 74 0 3.05 359.23 19:45 09.10.2019
6487 Clouds -12 1017 74 0 3.05 359.23 19:24 09.10.2019
6488 Clouds -12 1017 74 0 3.05 359.23 18:58 09.10.2019
6489 Clouds -12 1017 74 0 3.05 359.23 18:37 09.10.2019
6490 Clouds -12 1018 76 0 2.42 356.137 18:18 09.10.2019
6491 Clouds -12 1018 76 0 2.42 356.137 17:55 09.10.2019
6492 Clouds -12 1018 76 0 2.42 356.137 17:36 09.10.2019
6493 Clouds -12 1018 76 0 2.42 356.137 17:18 09.10.2019
6494 Clouds -12 1018 76 0 2.42 356.137 16:40 09.10.2019
6495 Clouds -12 1018 76 0 2.42 356.137 16:22 09.10.2019
6496 Clouds -12 1018 76 0 2.42 356.137 15:58 09.10.2019
6497 Clouds -12 1018 76 0 2.42 356.137 15:39 09.10.2019
6498 Clouds -12 1018 76 0 2.42 356.137 15:39 09.10.2019
6499 Clouds -11 1020 72 0 2.43 0.943 15:20 09.10.2019
6500 Clouds -11 1020 72 0 2.43 0.943 14:58 09.10.2019
6501 Clouds -11 1020 72 0 2.43 0.943 14:39 09.10.2019
6502 Clouds -11 1020 72 0 2.43 0.943 14:18 09.10.2019
6503 Clouds -11 1020 72 0 2.43 0.943 13:40 09.10.2019
6504 Clouds -11 1019 73 0 2.62 359.279 13:21 09.10.2019
6505 Clouds -11 1019 73 0 2.62 359.279 12:59 09.10.2019
6506 Clouds -11 1019 73 0 2.62 359.279 12:59 09.10.2019
6507 Clouds -11 1019 73 0 2.62 359.279 12:40 09.10.2019
6508 Clouds -9 1020 68 0 3.44 7.567 12:21 09.10.2019
6509 Clouds -9 1020 68 0 3.44 7.567 11:55 09.10.2019
6510 Clouds -9 1020 68 0 3.44 7.567 11:37 09.10.2019
6511 Clouds -9 1020 68 0 3.44 7.567 11:37 09.10.2019
6512 Clouds -9 1020 68 0 3.44 7.567 11:19 09.10.2019
6513 Clouds -9 1020 68 0 3.44 7.567 10:44 09.10.2019
6514 Clouds -9 1020 68 0 3.44 7.567 10:22 09.10.2019
6515 Clouds -9 1020 68 0 3.44 7.567 09:59 09.10.2019
6516 Clouds -9 1020 68 0 3.44 7.567 09:40 09.10.2019
6517 Clouds -7 1019 56 0 4.77 23.88 09:19 09.10.2019
6518 Clouds -7 1019 54 0 4.41 27.559 08:43 09.10.2019
6519 Clouds -7 1019 54 0 4.41 27.559 08:23 09.10.2019
6520 Clouds -7 1019 54 0 4.41 27.559 07:59 09.10.2019
6521 Clouds -7 1019 54 0 4.41 27.559 07:39 09.10.2019
6522 Clouds -7 1019 54 0 4.41 27.559 07:21 09.10.2019
6523 Clouds -7 1019 54 0 4.41 27.559 06:52 09.10.2019
6524 Clouds -7 1020 59 0 2.99 15.05 06:19 09.10.2019
6525 Clouds -7 1020 59 0 2.99 15.05 05:44 09.10.2019
6526 Clouds -7 1020 59 0 2.99 15.05 04:26 09.10.2019
6527 Clouds -9 1020 73 0 2.53 16.337 02:53 09.10.2019
6528 Clouds -9 1020 73 0 2.53 16.337 01:43 09.10.2019
6529 Clouds -9 1019 73 0 2.39 17.874 01:21 09.10.2019
6530 Clouds -9 1019 73 0 2.39 17.874 00:57 09.10.2019
6531 Clouds -9 1019 73 0 2.39 17.874 00:38 09.10.2019
6532 Clouds -10 1019 80 0 2.14 14.57 00:20 09.10.2019
6533 Clouds -10 1019 80 0 2.14 14.57 23:39 08.10.2019
6534 Clouds -10 1019 80 0 2.14 14.57 23:19 08.10.2019
6535 Clouds -10 1019 80 0 2.14 14.57 22:58 08.10.2019
6536 Clouds -10 1019 80 0 2.14 14.57 22:39 08.10.2019
6537 Clouds -10 1019 80 0 2.14 14.57 22:20 08.10.2019
6538 Clouds -10 1019 80 0 2.14 14.57 21:57 08.10.2019
6539 Clouds -10 1019 80 0 2.14 14.57 21:39 08.10.2019
6540 Clouds -9 1018 75 0 1.85 21.026 21:19 08.10.2019
6541 Clouds -9 1018 75 0 1.85 21.026 20:56 08.10.2019
6542 Clouds -10 1017 76 0 1.87 15.541 20:38 08.10.2019
6543 Clouds -10 1017 76 0 1.87 15.541 20:20 08.10.2019
6544 Clouds -10 1017 76 0 1.87 15.541 19:58 08.10.2019
6545 Clouds -10 1017 76 0 1.87 15.541 19:58 08.10.2019
6546 Clouds -10 1017 76 0 1.87 15.541 19:40 08.10.2019
6547 Clouds -10 1017 76 0 1.87 15.541 19:21 08.10.2019
6548 Clouds -10 1017 76 0 1.87 15.541 18:55 08.10.2019
6549 Clouds -10 1017 76 0 1.87 15.541 18:36 08.10.2019
6550 Clouds -10 1017 73 0 1.95 21.349 18:18 08.10.2019
6551 Clouds -10 1017 73 0 1.95 21.349 17:40 08.10.2019
6552 Clouds -10 1017 73 0 1.95 21.349 17:21 08.10.2019
6553 Clouds -10 1017 73 0 1.95 21.349 16:59 08.10.2019
6554 Clouds -10 1017 73 0 1.95 21.349 16:40 08.10.2019
6555 Clouds -10 1017 73 0 1.95 21.349 16:21 08.10.2019
6556 Clouds -10 1017 73 0 1.95 21.349 15:41 08.10.2019
6557 Clouds -8 1016 67 0 1.97 22.407 15:22 08.10.2019
6558 Clouds -8 1016 67 0 1.97 22.407 15:22 08.10.2019
6559 Clouds -8 1016 67 0 1.97 22.407 14:59 08.10.2019
6560 Clouds -8 1016 67 0 1.97 22.407 14:41 08.10.2019
6561 Clouds -8 1016 67 0 1.97 22.407 14:21 08.10.2019
6562 Clouds -8 1016 67 0 1.97 22.407 13:57 08.10.2019
6563 Clouds -8 1016 67 0 1.97 22.407 13:39 08.10.2019
6564 Clouds -8 1016 67 0 1.97 22.407 13:19 08.10.2019
6565 Clouds -9 1016 69 0 2.12 20.781 12:59 08.10.2019
6566 Clouds -9 1016 69 0 2.12 20.781 12:38 08.10.2019
6567 Clouds -7 1015 58 0 1.89 40.375 12:18 08.10.2019
6568 Clouds -7 1015 58 0 1.89 40.375 11:43 08.10.2019
6569 Clouds -7 1015 58 0 1.89 40.375 11:24 08.10.2019
6570 Clouds -7 1015 58 0 1.89 40.375 10:59 08.10.2019
6571 Clouds -7 1015 58 0 1.89 40.375 10:38 08.10.2019
6572 Clouds -7 1015 58 0 1.89 40.375 10:20 08.10.2019
6573 Clouds -7 1015 58 0 1.89 40.375 09:57 08.10.2019
6574 Clouds -7 1015 58 0 1.89 40.375 09:39 08.10.2019
6575 Clouds -4 1013 43 0 2.37 67.503 09:19 08.10.2019
6576 Clouds -4 1013 42 0 2.31 72.689 08:42 08.10.2019
6577 Clouds -4 1013 42 0 2.31 72.689 08:24 08.10.2019
6578 Clouds -4 1013 42 0 2.31 72.689 07:45 08.10.2019
6579 Clouds -4 1013 42 0 2.31 72.689 07:21 08.10.2019
6580 Clouds -4 1013 42 0 2.31 72.689 06:56 08.10.2019
6581 Clouds -4 1013 42 0 2.31 72.689 06:32 08.10.2019
6582 Clouds -5 1012 44 0 2.07 53.501 05:57 08.10.2019
6583 Clouds -5 1012 44 0 2.07 53.501 05:36 08.10.2019
6584 Clouds -5 1012 44 0 2.07 53.501 05:36 08.10.2019
6585 Clouds -5 1012 44 0 2.07 53.501 04:36 08.10.2019
6586 Clouds -5 1012 44 0 2.07 53.501 03:29 08.10.2019
6587 Clouds -7 1013 52 0 1.56 39.129 02:39 08.10.2019
6588 Clouds -7 1013 52 0 1.56 39.129 01:49 08.10.2019
6589 Clouds -7 1013 52 0 1.56 39.129 01:31 08.10.2019
6590 Clouds -6 1012 52 0 1.37 41.249 00:50 08.10.2019
6591 Clouds -7 1012 55 0 1.72 48.015 00:21 08.10.2019
6592 Clouds -7 1012 55 0 1.72 48.015 23:41 07.10.2019
6593 Clouds -7 1012 55 0 1.72 48.015 23:20 07.10.2019
6594 Clouds -7 1012 55 0 1.72 48.015 22:58 07.10.2019
6595 Clouds -7 1012 55 0 1.72 48.015 22:40 07.10.2019
6596 Clouds -7 1012 55 0 1.72 48.015 22:20 07.10.2019
6597 Clouds -7 1012 55 0 1.72 48.015 21:57 07.10.2019
6598 Clouds -7 1012 55 0 1.72 48.015 21:39 07.10.2019
6599 Clouds -7 1012 54 0 1.71 44.598 21:20 07.10.2019
6600 Clouds -7 1012 54 0 1.71 44.598 21:20 07.10.2019
6601 Clouds -7 1012 52 0 1.57 46.343 20:58 07.10.2019
6602 Clouds -7 1012 52 0 1.57 46.343 20:39 07.10.2019
6603 Clouds -7 1012 52 0 1.57 46.343 20:20 07.10.2019
6604 Clouds -7 1012 52 0 1.57 46.343 19:58 07.10.2019
6605 Clouds -7 1012 52 0 1.57 46.343 19:40 07.10.2019
6606 Clouds -7 1012 52 0 1.57 46.343 19:20 07.10.2019
6607 Clouds -7 1012 52 0 1.57 46.343 18:58 07.10.2019
6608 Clouds -7 1012 52 0 1.57 46.343 18:38 07.10.2019
6609 Clouds -7 1013 55 0 1.71 53.805 18:18 07.10.2019
6610 Clouds -7 1013 55 0 1.71 53.805 17:43 07.10.2019
6611 Clouds -7 1013 55 0 1.71 53.805 17:43 07.10.2019
6612 Clouds -7 1013 55 0 1.71 53.805 17:23 07.10.2019
6613 Clouds -7 1013 55 0 1.71 53.805 16:58 07.10.2019
6614 Clouds -7 1013 55 0 1.71 53.805 16:58 07.10.2019
6615 Clouds -7 1013 55 0 1.71 53.805 16:39 07.10.2019
6616 Clouds -7 1013 55 0 1.71 53.805 16:39 07.10.2019
6617 Clouds -7 1013 55 0 1.71 53.805 16:20 07.10.2019
6618 Clouds -7 1013 55 0 1.71 53.805 15:46 07.10.2019
6619 Clouds -7 1013 55 0 1.71 53.805 15:26 07.10.2019
6620 Clouds -7 1013 55 0 1.71 53.805 15:26 07.10.2019
6621 Clouds -7 1013 55 0 1.71 53.805 15:26 07.10.2019
6622 Clouds -6 1013 54 0 1.44 47.592 14:58 07.10.2019
6623 Clouds -6 1013 54 0 1.44 47.592 14:40 07.10.2019
6624 Clouds -6 1013 54 0 1.44 47.592 14:21 07.10.2019
6625 Clouds -6 1013 54 0 1.44 47.592 13:43 07.10.2019
6626 Clouds -6 1014 54 0 1.32 55.299 13:21 07.10.2019
6627 Clouds -6 1014 54 0 1.32 55.299 12:57 07.10.2019
6628 Clouds -6 1014 54 0 1.32 55.299 12:39 07.10.2019
6629 Clouds -6 1014 55 0 1.27 58.384 12:19 07.10.2019
6630 Clouds -6 1014 55 0 1.27 58.384 11:58 07.10.2019
6631 Clouds -6 1014 55 0 1.27 58.384 11:38 07.10.2019
6632 Clouds -6 1014 55 0 1.27 58.384 11:20 07.10.2019
6633 Clouds -6 1014 55 0 1.27 58.384 10:42 07.10.2019
6634 Clouds -6 1014 55 0 1.27 58.384 10:21 07.10.2019
6635 Clouds -6 1014 55 0 1.27 58.384 09:55 07.10.2019
6636 Clouds -6 1014 55 0 1.27 58.384 09:54 07.10.2019
6637 Clouds -6 1014 55 0 1.27 58.384 09:54 07.10.2019
6638 Clouds -6 1014 55 0 1.27 58.384 09:36 07.10.2019
6639 Clouds -5 1014 47 0 1.37 76.41 09:18 07.10.2019
6640 Clouds -5 1014 45 0 1.28 77.364 08:41 07.10.2019
6641 Clouds -5 1014 45 0 1.28 77.364 08:20 07.10.2019
6642 Clouds -5 1014 45 0 1.28 77.364 07:46 07.10.2019
6643 Clouds -5 1014 45 0 1.28 77.364 07:27 07.10.2019
6644 Clouds -5 1014 45 0 1.28 77.364 06:56 07.10.2019
6645 Clouds -5 1014 45 0 1.28 77.364 06:37 07.10.2019
6646 Clouds -5 1015 47 0 1.03 76.693 05:56 07.10.2019
6647 Clouds -5 1015 47 0 1.03 76.693 05:25 07.10.2019
6648 Clouds -5 1015 47 0 1.03 76.693 04:47 07.10.2019
6649 Clouds -5 1015 47 0 1.03 76.693 03:45 07.10.2019
6650 Clouds -5 1015 47 0 1.03 76.693 03:27 07.10.2019
6651 Clouds -7 1016 53 0 1.05 69.335 02:37 07.10.2019
6652 Clouds -7 1016 53 0 1.05 69.335 02:18 07.10.2019
6653 Clouds -7 1015 54 0 1.09 71.148 01:23 07.10.2019
6654 Clouds -7 1015 54 0 1.09 71.148 00:49 07.10.2019
6655 Clouds -8 1015 61 0 1.02 61.928 00:23 07.10.2019
6656 Clouds -8 1015 61 0 1.02 61.928 23:59 06.10.2019
6657 Clouds -8 1015 61 0 1.02 61.928 23:40 06.10.2019
6658 Clouds -8 1015 61 0 1.02 61.928 23:19 06.10.2019
6659 Clouds -8 1015 61 0 1.02 61.928 22:55 06.10.2019
6660 Clouds -8 1015 61 0 1.02 61.928 22:55 06.10.2019
6661 Clouds -8 1015 61 0 1.02 61.928 22:37 06.10.2019
6662 Clouds -8 1015 61 0 1.02 61.928 22:18 06.10.2019
6663 Clouds -8 1015 61 0 1.02 61.928 21:55 06.10.2019
6664 Clouds -8 1015 61 0 1.02 61.928 21:55 06.10.2019
6665 Clouds -8 1015 61 0 1.02 61.928 21:36 06.10.2019
6666 Clouds -8 1016 63 0 1.12 70.999 21:18 06.10.2019
6667 Clouds -8 1016 63 0 1.12 70.999 20:54 06.10.2019
6668 Clouds -8 1016 60 0 1.07 72.41 20:36 06.10.2019
6669 Clouds -8 1016 60 0 1.07 72.41 20:36 06.10.2019
6670 Clouds -8 1016 60 0 1.07 72.41 20:18 06.10.2019
6671 Clouds -8 1016 60 0 1.07 72.41 19:55 06.10.2019
6672 Clouds -8 1016 60 0 1.07 72.41 19:55 06.10.2019
6673 Clouds -8 1016 60 0 1.07 72.41 19:36 06.10.2019
6674 Clouds -8 1016 60 0 1.07 72.41 19:18 06.10.2019
6675 Clouds -8 1016 60 0 1.07 72.41 18:55 06.10.2019
6676 Clouds -8 1016 60 0 1.07 72.41 18:55 06.10.2019
6677 Clouds -8 1016 60 0 1.07 72.41 18:36 06.10.2019
6678 Clouds -8 1016 60 0 1.31 66.882 18:18 06.10.2019
6679 Clouds -8 1016 60 0 1.31 66.882 18:18 06.10.2019
6680 Clouds -8 1016 60 0 1.31 66.882 17:42 06.10.2019
6681 Clouds -8 1016 60 0 1.31 66.882 17:20 06.10.2019
6682 Clouds -8 1016 60 0 1.31 66.882 17:20 06.10.2019
6683 Clouds -8 1016 60 0 1.31 66.882 16:55 06.10.2019
6684 Clouds -8 1016 60 0 1.31 66.882 16:37 06.10.2019
6685 Clouds -8 1016 60 0 1.31 66.882 16:18 06.10.2019
6686 Clouds -8 1016 60 0 1.31 66.882 15:42 06.10.2019
6687 Clouds -7 1016 57 0 1.12 68.596 15:21 06.10.2019
6688 Clouds -7 1016 57 0 1.12 68.596 14:44 06.10.2019
6689 Clouds -7 1016 57 0 1.12 68.596 14:26 06.10.2019
6690 Clouds -7 1016 57 0 1.12 68.596 13:59 06.10.2019
6691 Clouds -7 1016 57 0 1.12 68.596 13:40 06.10.2019
6692 Clouds -7 1016 60 0 1.22 70.375 13:22 06.10.2019
6693 Clouds -7 1016 60 0 1.22 70.375 12:59 06.10.2019
6694 Clouds -7 1016 60 0 1.22 70.375 12:40 06.10.2019
6695 Clouds -6 1016 56 0 1.32 92.524 12:21 06.10.2019
6696 Clouds -6 1016 56 0 1.32 92.524 11:59 06.10.2019
6697 Clouds -6 1016 56 0 1.32 92.524 11:40 06.10.2019
6698 Clouds -6 1016 56 0 1.32 92.524 11:21 06.10.2019
6699 Clouds -6 1016 56 0 1.32 92.524 10:55 06.10.2019
6700 Clouds -6 1016 56 0 1.32 92.524 10:37 06.10.2019
6701 Clouds -6 1016 56 0 1.32 92.524 10:19 06.10.2019
6702 Clouds -6 1016 56 0 1.32 92.524 09:41 06.10.2019
6703 Clouds -5 1015 49 0 1.8 136.558 09:19 06.10.2019
6704 Clouds -5 1015 49 0 1.8 136.558 08:48 06.10.2019
6705 Clouds -5 1015 47 0 1.52 138.583 08:22 06.10.2019
6706 Clouds -5 1015 47 0 1.52 138.583 07:58 06.10.2019
6707 Clouds -5 1015 47 0 1.52 138.583 07:39 06.10.2019
6708 Clouds -5 1015 47 0 1.52 138.583 06:50 06.10.2019
6709 Clouds -6 1015 50 0 1.35 141.453 05:41 06.10.2019
6710 Clouds -6 1015 50 0 1.35 141.453 04:32 06.10.2019
6711 Clouds -7 1016 56 0 1.11 154.733 02:53 06.10.2019
6712 Clouds -7 1016 56 0 1.11 154.733 02:30 06.10.2019
6713 Clouds -7 1016 56 0 1.11 154.733 01:48 06.10.2019
6714 Clouds -7 1016 57 0 1.11 157.968 01:30 06.10.2019
6715 Clouds -7 1016 57 0 1.11 157.968 00:59 06.10.2019
6716 Clouds -7 1016 57 0 1.11 157.968 00:59 06.10.2019
6717 Clouds -7 1016 57 0 1.11 157.968 00:33 06.10.2019
6718 Clouds -10 1016 69 0 1.13 151.954 23:58 05.10.2019
6719 Clouds -10 1016 69 0 1.13 151.954 23:40 05.10.2019
6720 Clouds -10 1016 69 0 1.13 151.954 23:40 05.10.2019
6721 Clouds -10 1016 69 0 1.13 151.954 23:19 05.10.2019
6722 Clouds -10 1016 69 0 1.13 151.954 22:54 05.10.2019
6723 Clouds -10 1016 69 0 1.13 151.954 22:36 05.10.2019
6724 Clouds -10 1016 69 0 1.13 151.954 22:18 05.10.2019
6725 Clouds -10 1016 69 0 1.13 151.954 21:41 05.10.2019
6726 Clouds -10 1016 69 0 1.13 151.954 21:41 05.10.2019
6727 Clouds -9 1015 67 0 1.26 169.797 21:22 05.10.2019
6728 Clouds -9 1015 67 0 1.26 169.797 20:57 05.10.2019
6729 Clouds -9 1015 66 0 1.27 171.588 20:39 05.10.2019
6730 Clouds -9 1015 66 0 1.27 171.588 20:19 05.10.2019
6731 Clouds -9 1015 66 0 1.27 171.588 19:55 05.10.2019
6732 Clouds -9 1015 66 0 1.27 171.588 19:36 05.10.2019
6733 Clouds -9 1015 66 0 1.27 171.588 19:18 05.10.2019
6734<